<?xml version="1.0" encoding="UTF-8" standalone="no" ?>
<gpx xmlns="http://www.topografix.com/GPX/1/1" xmlns:xsi="http://www.w3.org/2001/XMLSchema-instance" xsi:schemaLocation="http://www.topografix.com/GPX/1/1 http://www.topografix.com/GPX/1/1/gpx.xsd" version="1.1" creator="VisuGPX - https://www.visugpx.com">
  <metadata>
    <name>Pau - Dakar J60</name>
    <desc><![CDATA[File with points/tracks from Locus Map/3.37.2]]></desc>
  </metadata>
  <trk>
    <name><![CDATA[2019-12-01 08:23:19]]></name>
    <trkseg>
      <trkpt lat="15.15419" lon="-16.8892">
        <ele>42.89</ele>
        <time>2019-12-01T08:23:59.999Z</time>
      </trkpt>
      <trkpt lat="15.1541" lon="-16.88925">
        <ele>42.07</ele>
        <time>2019-12-01T08:27:08.999Z</time>
      </trkpt>
      <trkpt lat="15.15402" lon="-16.88921">
        <ele>40.61</ele>
        <time>2019-12-01T08:27:23.999Z</time>
      </trkpt>
      <trkpt lat="15.15393" lon="-16.88915">
        <ele>39.58</ele>
        <time>2019-12-01T08:27:33.999Z</time>
      </trkpt>
      <trkpt lat="15.15386" lon="-16.88909">
        <ele>38.73</ele>
        <time>2019-12-01T08:27:42.999Z</time>
      </trkpt>
      <trkpt lat="15.15378" lon="-16.88904">
        <ele>37.41</ele>
        <time>2019-12-01T08:27:59.999Z</time>
      </trkpt>
      <trkpt lat="15.1537" lon="-16.88898">
        <ele>36.6</ele>
        <time>2019-12-01T08:28:11.999Z</time>
      </trkpt>
      <trkpt lat="15.15363" lon="-16.88905">
        <ele>36.24</ele>
        <time>2019-12-01T08:28:19.999Z</time>
      </trkpt>
      <trkpt lat="15.15359" lon="-16.88914">
        <ele>35.87</ele>
        <time>2019-12-01T08:28:29.999Z</time>
      </trkpt>
      <trkpt lat="15.15352" lon="-16.88921">
        <ele>35.59</ele>
        <time>2019-12-01T08:28:37.999Z</time>
      </trkpt>
      <trkpt lat="15.15349" lon="-16.88931">
        <ele>35.28</ele>
        <time>2019-12-01T08:29:20.999Z</time>
      </trkpt>
      <trkpt lat="15.15342" lon="-16.88936">
        <ele>35.21</ele>
        <time>2019-12-01T08:29:33.999Z</time>
      </trkpt>
      <trkpt lat="15.15333" lon="-16.88939">
        <ele>35.16</ele>
        <time>2019-12-01T08:30:41.999Z</time>
      </trkpt>
      <trkpt lat="15.15326" lon="-16.88931">
        <ele>35.13</ele>
        <time>2019-12-01T08:31:20.999Z</time>
      </trkpt>
      <trkpt lat="15.15319" lon="-16.88924">
        <ele>35.1</ele>
        <time>2019-12-01T08:31:25.999Z</time>
      </trkpt>
      <trkpt lat="15.15309" lon="-16.88918">
        <ele>35.08</ele>
        <time>2019-12-01T08:31:30.999Z</time>
      </trkpt>
      <trkpt lat="15.153" lon="-16.88911">
        <ele>35.05</ele>
        <time>2019-12-01T08:31:35.999Z</time>
      </trkpt>
      <trkpt lat="15.15289" lon="-16.88905">
        <ele>35.02</ele>
        <time>2019-12-01T08:31:40.999Z</time>
      </trkpt>
      <trkpt lat="15.15276" lon="-16.88894">
        <ele>34.99</ele>
        <time>2019-12-01T08:31:45.999Z</time>
      </trkpt>
      <trkpt lat="15.15265" lon="-16.88884">
        <ele>34.98</ele>
        <time>2019-12-01T08:31:50.999Z</time>
      </trkpt>
      <trkpt lat="15.15254" lon="-16.88875">
        <ele>34.97</ele>
        <time>2019-12-01T08:31:55.999Z</time>
      </trkpt>
      <trkpt lat="15.15242" lon="-16.88867">
        <ele>34.96</ele>
        <time>2019-12-01T08:32:00.999Z</time>
      </trkpt>
      <trkpt lat="15.1523" lon="-16.88858">
        <ele>34.97</ele>
        <time>2019-12-01T08:32:05.999Z</time>
      </trkpt>
      <trkpt lat="15.15217" lon="-16.88851">
        <ele>34.99</ele>
        <time>2019-12-01T08:32:10.999Z</time>
      </trkpt>
      <trkpt lat="15.15205" lon="-16.88842">
        <ele>35</ele>
        <time>2019-12-01T08:32:15.999Z</time>
      </trkpt>
      <trkpt lat="15.1519" lon="-16.88833">
        <ele>35.03</ele>
        <time>2019-12-01T08:32:20.999Z</time>
      </trkpt>
      <trkpt lat="15.15176" lon="-16.88823">
        <ele>35.06</ele>
        <time>2019-12-01T08:32:25.999Z</time>
      </trkpt>
      <trkpt lat="15.15161" lon="-16.88814">
        <ele>35.1</ele>
        <time>2019-12-01T08:32:30.999Z</time>
      </trkpt>
      <trkpt lat="15.15146" lon="-16.88805">
        <ele>35.21</ele>
        <time>2019-12-01T08:32:35.999Z</time>
      </trkpt>
      <trkpt lat="15.15128" lon="-16.88796">
        <ele>35.34</ele>
        <time>2019-12-01T08:32:40.999Z</time>
      </trkpt>
      <trkpt lat="15.15111" lon="-16.88789">
        <ele>35.37</ele>
        <time>2019-12-01T08:32:45.999Z</time>
      </trkpt>
      <trkpt lat="15.15092" lon="-16.88784">
        <ele>35.44</ele>
        <time>2019-12-01T08:32:50.999Z</time>
      </trkpt>
      <trkpt lat="15.15073" lon="-16.88779">
        <ele>35.39</ele>
        <time>2019-12-01T08:32:55.999Z</time>
      </trkpt>
      <trkpt lat="15.15052" lon="-16.88776">
        <ele>35.27</ele>
        <time>2019-12-01T08:33:00.999Z</time>
      </trkpt>
      <trkpt lat="15.15033" lon="-16.88773">
        <ele>35.16</ele>
        <time>2019-12-01T08:33:05.999Z</time>
      </trkpt>
      <trkpt lat="15.15012" lon="-16.88772">
        <ele>35.04</ele>
        <time>2019-12-01T08:33:10.999Z</time>
      </trkpt>
      <trkpt lat="15.14992" lon="-16.88771">
        <ele>34.92</ele>
        <time>2019-12-01T08:33:15.999Z</time>
      </trkpt>
      <trkpt lat="15.14971" lon="-16.8877">
        <ele>34.8</ele>
        <time>2019-12-01T08:33:20.999Z</time>
      </trkpt>
      <trkpt lat="15.1495" lon="-16.88769">
        <ele>34.7</ele>
        <time>2019-12-01T08:33:25.999Z</time>
      </trkpt>
      <trkpt lat="15.14928" lon="-16.8877">
        <ele>34.58</ele>
        <time>2019-12-01T08:33:30.999Z</time>
      </trkpt>
      <trkpt lat="15.14909" lon="-16.88769">
        <ele>34.49</ele>
        <time>2019-12-01T08:33:35.999Z</time>
      </trkpt>
      <trkpt lat="15.14887" lon="-16.88769">
        <ele>34.38</ele>
        <time>2019-12-01T08:33:40.999Z</time>
      </trkpt>
      <trkpt lat="15.14863" lon="-16.88769">
        <ele>34.35</ele>
        <time>2019-12-01T08:33:45.999Z</time>
      </trkpt>
      <trkpt lat="15.14842" lon="-16.8877">
        <ele>34.35</ele>
        <time>2019-12-01T08:33:50.999Z</time>
      </trkpt>
      <trkpt lat="15.14821" lon="-16.8877">
        <ele>34.4</ele>
        <time>2019-12-01T08:33:55.999Z</time>
      </trkpt>
      <trkpt lat="15.14802" lon="-16.88772">
        <ele>34.43</ele>
        <time>2019-12-01T08:34:00.999Z</time>
      </trkpt>
      <trkpt lat="15.14785" lon="-16.88774">
        <ele>34.44</ele>
        <time>2019-12-01T08:34:05.999Z</time>
      </trkpt>
      <trkpt lat="15.14768" lon="-16.88776">
        <ele>34.45</ele>
        <time>2019-12-01T08:34:10.999Z</time>
      </trkpt>
      <trkpt lat="15.14752" lon="-16.8878">
        <ele>34.48</ele>
        <time>2019-12-01T08:34:15.999Z</time>
      </trkpt>
      <trkpt lat="15.1474" lon="-16.88785">
        <ele>34.51</ele>
        <time>2019-12-01T08:34:20.999Z</time>
      </trkpt>
      <trkpt lat="15.14725" lon="-16.88793">
        <ele>34.57</ele>
        <time>2019-12-01T08:34:25.999Z</time>
      </trkpt>
      <trkpt lat="15.14708" lon="-16.88803">
        <ele>34.65</ele>
        <time>2019-12-01T08:34:30.999Z</time>
      </trkpt>
      <trkpt lat="15.14693" lon="-16.88814">
        <ele>34.74</ele>
        <time>2019-12-01T08:34:35.999Z</time>
      </trkpt>
      <trkpt lat="15.14678" lon="-16.88826">
        <ele>34.85</ele>
        <time>2019-12-01T08:34:40.999Z</time>
      </trkpt>
      <trkpt lat="15.14663" lon="-16.88838">
        <ele>34.99</ele>
        <time>2019-12-01T08:34:45.999Z</time>
      </trkpt>
      <trkpt lat="15.14648" lon="-16.8885">
        <ele>35.13</ele>
        <time>2019-12-01T08:34:50.999Z</time>
      </trkpt>
      <trkpt lat="15.14635" lon="-16.88862">
        <ele>35.27</ele>
        <time>2019-12-01T08:34:55.999Z</time>
      </trkpt>
      <trkpt lat="15.14621" lon="-16.88872">
        <ele>35.4</ele>
        <time>2019-12-01T08:35:00.999Z</time>
      </trkpt>
      <trkpt lat="15.14609" lon="-16.88883">
        <ele>35.53</ele>
        <time>2019-12-01T08:35:05.999Z</time>
      </trkpt>
      <trkpt lat="15.14598" lon="-16.88893">
        <ele>35.66</ele>
        <time>2019-12-01T08:35:10.999Z</time>
      </trkpt>
      <trkpt lat="15.14586" lon="-16.88902">
        <ele>35.81</ele>
        <time>2019-12-01T08:35:15.999Z</time>
      </trkpt>
      <trkpt lat="15.14572" lon="-16.88912">
        <ele>35.99</ele>
        <time>2019-12-01T08:35:20.999Z</time>
      </trkpt>
      <trkpt lat="15.14558" lon="-16.88922">
        <ele>36.15</ele>
        <time>2019-12-01T08:35:25.999Z</time>
      </trkpt>
      <trkpt lat="15.14543" lon="-16.88931">
        <ele>36.31</ele>
        <time>2019-12-01T08:35:30.999Z</time>
      </trkpt>
      <trkpt lat="15.14526" lon="-16.88931">
        <ele>36.78</ele>
        <time>2019-12-01T08:35:35.999Z</time>
      </trkpt>
      <trkpt lat="15.14506" lon="-16.88927">
        <ele>37.24</ele>
        <time>2019-12-01T08:35:40.999Z</time>
      </trkpt>
      <trkpt lat="15.14487" lon="-16.88917">
        <ele>37.18</ele>
        <time>2019-12-01T08:35:45.999Z</time>
      </trkpt>
      <trkpt lat="15.14468" lon="-16.88905">
        <ele>36.86</ele>
        <time>2019-12-01T08:35:50.999Z</time>
      </trkpt>
      <trkpt lat="15.14448" lon="-16.88894">
        <ele>36.51</ele>
        <time>2019-12-01T08:35:55.999Z</time>
      </trkpt>
      <trkpt lat="15.14428" lon="-16.88879">
        <ele>36.17</ele>
        <time>2019-12-01T08:36:00.999Z</time>
      </trkpt>
      <trkpt lat="15.14409" lon="-16.88866">
        <ele>35.86</ele>
        <time>2019-12-01T08:36:05.999Z</time>
      </trkpt>
      <trkpt lat="15.14391" lon="-16.88854">
        <ele>35.61</ele>
        <time>2019-12-01T08:36:10.999Z</time>
      </trkpt>
      <trkpt lat="15.14373" lon="-16.88842">
        <ele>35.49</ele>
        <time>2019-12-01T08:36:15.999Z</time>
      </trkpt>
      <trkpt lat="15.14353" lon="-16.88835">
        <ele>35.44</ele>
        <time>2019-12-01T08:36:20.999Z</time>
      </trkpt>
      <trkpt lat="15.14338" lon="-16.88843">
        <ele>35.44</ele>
        <time>2019-12-01T08:36:25.999Z</time>
      </trkpt>
      <trkpt lat="15.14329" lon="-16.88849">
        <ele>35.46</ele>
        <time>2019-12-01T08:36:30.000Z</time>
      </trkpt>
      <trkpt lat="15.14317" lon="-16.88856">
        <ele>35.5</ele>
        <time>2019-12-01T08:36:35.000Z</time>
      </trkpt>
      <trkpt lat="15.14304" lon="-16.88865">
        <ele>35.56</ele>
        <time>2019-12-01T08:36:40.000Z</time>
      </trkpt>
      <trkpt lat="15.14291" lon="-16.88874">
        <ele>35.63</ele>
        <time>2019-12-01T08:36:45.000Z</time>
      </trkpt>
      <trkpt lat="15.14281" lon="-16.88879">
        <ele>35.72</ele>
        <time>2019-12-01T08:36:50.000Z</time>
      </trkpt>
      <trkpt lat="15.14273" lon="-16.88886">
        <ele>37.09</ele>
        <time>2019-12-01T08:38:29.000Z</time>
      </trkpt>
      <trkpt lat="15.14265" lon="-16.88898">
        <ele>37.34</ele>
        <time>2019-12-01T08:38:34.000Z</time>
      </trkpt>
      <trkpt lat="15.14256" lon="-16.88913">
        <ele>38.24</ele>
        <time>2019-12-01T08:38:39.000Z</time>
      </trkpt>
      <trkpt lat="15.14248" lon="-16.88934">
        <ele>39.42</ele>
        <time>2019-12-01T08:38:44.000Z</time>
      </trkpt>
      <trkpt lat="15.14242" lon="-16.88954">
        <ele>39.9</ele>
        <time>2019-12-01T08:38:49.000Z</time>
      </trkpt>
      <trkpt lat="15.14236" lon="-16.88973">
        <ele>40.15</ele>
        <time>2019-12-01T08:38:54.000Z</time>
      </trkpt>
      <trkpt lat="15.1423" lon="-16.88991">
        <ele>40.31</ele>
        <time>2019-12-01T08:38:59.000Z</time>
      </trkpt>
      <trkpt lat="15.14224" lon="-16.8901">
        <ele>40.39</ele>
        <time>2019-12-01T08:39:04.000Z</time>
      </trkpt>
      <trkpt lat="15.14219" lon="-16.89029">
        <ele>40.31</ele>
        <time>2019-12-01T08:39:09.000Z</time>
      </trkpt>
      <trkpt lat="15.14213" lon="-16.89047">
        <ele>40.27</ele>
        <time>2019-12-01T08:39:14.000Z</time>
      </trkpt>
      <trkpt lat="15.14206" lon="-16.89063">
        <ele>40.27</ele>
        <time>2019-12-01T08:39:19.000Z</time>
      </trkpt>
      <trkpt lat="15.14201" lon="-16.89079">
        <ele>40.26</ele>
        <time>2019-12-01T08:39:24.000Z</time>
      </trkpt>
      <trkpt lat="15.14197" lon="-16.89095">
        <ele>40.26</ele>
        <time>2019-12-01T08:39:29.000Z</time>
      </trkpt>
      <trkpt lat="15.14192" lon="-16.8911">
        <ele>40.24</ele>
        <time>2019-12-01T08:39:34.000Z</time>
      </trkpt>
      <trkpt lat="15.14189" lon="-16.89125">
        <ele>40.22</ele>
        <time>2019-12-01T08:39:39.000Z</time>
      </trkpt>
      <trkpt lat="15.14184" lon="-16.8914">
        <ele>40.18</ele>
        <time>2019-12-01T08:39:44.000Z</time>
      </trkpt>
      <trkpt lat="15.14181" lon="-16.89152">
        <ele>40.14</ele>
        <time>2019-12-01T08:39:49.000Z</time>
      </trkpt>
      <trkpt lat="15.14179" lon="-16.89163">
        <ele>40.1</ele>
        <time>2019-12-01T08:39:54.000Z</time>
      </trkpt>
      <trkpt lat="15.14177" lon="-16.89172">
        <ele>40.05</ele>
        <time>2019-12-01T08:39:59.000Z</time>
      </trkpt>
      <trkpt lat="15.14175" lon="-16.89182">
        <ele>40.01</ele>
        <time>2019-12-01T08:40:04.000Z</time>
      </trkpt>
      <trkpt lat="15.1417" lon="-16.89192">
        <ele>39.99</ele>
        <time>2019-12-01T08:40:09.000Z</time>
      </trkpt>
      <trkpt lat="15.14168" lon="-16.89203">
        <ele>39.97</ele>
        <time>2019-12-01T08:40:14.000Z</time>
      </trkpt>
      <trkpt lat="15.14165" lon="-16.89212">
        <ele>39.97</ele>
        <time>2019-12-01T08:40:19.000Z</time>
      </trkpt>
      <trkpt lat="15.14164" lon="-16.89223">
        <ele>39.97</ele>
        <time>2019-12-01T08:40:24.000Z</time>
      </trkpt>
      <trkpt lat="15.14161" lon="-16.89234">
        <ele>39.98</ele>
        <time>2019-12-01T08:40:29.000Z</time>
      </trkpt>
      <trkpt lat="15.14156" lon="-16.89248">
        <ele>40.01</ele>
        <time>2019-12-01T08:40:34.000Z</time>
      </trkpt>
      <trkpt lat="15.14151" lon="-16.89262">
        <ele>40.05</ele>
        <time>2019-12-01T08:40:39.000Z</time>
      </trkpt>
      <trkpt lat="15.14148" lon="-16.8928">
        <ele>40.1</ele>
        <time>2019-12-01T08:40:44.000Z</time>
      </trkpt>
      <trkpt lat="15.14144" lon="-16.89297">
        <ele>40.17</ele>
        <time>2019-12-01T08:40:49.000Z</time>
      </trkpt>
      <trkpt lat="15.1414" lon="-16.89317">
        <ele>40.56</ele>
        <time>2019-12-01T08:40:54.000Z</time>
      </trkpt>
      <trkpt lat="15.14136" lon="-16.89339">
        <ele>40.97</ele>
        <time>2019-12-01T08:40:59.000Z</time>
      </trkpt>
      <trkpt lat="15.14131" lon="-16.89365">
        <ele>41.15</ele>
        <time>2019-12-01T08:41:04.000Z</time>
      </trkpt>
      <trkpt lat="15.14126" lon="-16.89392">
        <ele>41.25</ele>
        <time>2019-12-01T08:41:09.000Z</time>
      </trkpt>
      <trkpt lat="15.14119" lon="-16.89421">
        <ele>41.26</ele>
        <time>2019-12-01T08:41:14.000Z</time>
      </trkpt>
      <trkpt lat="15.14113" lon="-16.89447">
        <ele>41.29</ele>
        <time>2019-12-01T08:41:19.000Z</time>
      </trkpt>
      <trkpt lat="15.14108" lon="-16.89473">
        <ele>41.26</ele>
        <time>2019-12-01T08:41:24.000Z</time>
      </trkpt>
      <trkpt lat="15.14101" lon="-16.89499">
        <ele>41.22</ele>
        <time>2019-12-01T08:41:29.000Z</time>
      </trkpt>
      <trkpt lat="15.14096" lon="-16.89523">
        <ele>41.21</ele>
        <time>2019-12-01T08:41:34.000Z</time>
      </trkpt>
      <trkpt lat="15.1409" lon="-16.89547">
        <ele>41.13</ele>
        <time>2019-12-01T08:41:39.000Z</time>
      </trkpt>
      <trkpt lat="15.14084" lon="-16.89572">
        <ele>41.05</ele>
        <time>2019-12-01T08:41:44.000Z</time>
      </trkpt>
      <trkpt lat="15.14077" lon="-16.89595">
        <ele>40.96</ele>
        <time>2019-12-01T08:41:49.000Z</time>
      </trkpt>
      <trkpt lat="15.14072" lon="-16.89621">
        <ele>40.83</ele>
        <time>2019-12-01T08:41:54.000Z</time>
      </trkpt>
      <trkpt lat="15.14065" lon="-16.89652">
        <ele>40.62</ele>
        <time>2019-12-01T08:41:59.000Z</time>
      </trkpt>
      <trkpt lat="15.1406" lon="-16.89688">
        <ele>40.27</ele>
        <time>2019-12-01T08:42:04.000Z</time>
      </trkpt>
      <trkpt lat="15.14057" lon="-16.89725">
        <ele>39.71</ele>
        <time>2019-12-01T08:42:09.000Z</time>
      </trkpt>
      <trkpt lat="15.14057" lon="-16.89761">
        <ele>39.5</ele>
        <time>2019-12-01T08:42:14.000Z</time>
      </trkpt>
      <trkpt lat="15.14059" lon="-16.89791">
        <ele>39.19</ele>
        <time>2019-12-01T08:42:19.000Z</time>
      </trkpt>
      <trkpt lat="15.1406" lon="-16.89816">
        <ele>38.7</ele>
        <time>2019-12-01T08:42:24.000Z</time>
      </trkpt>
      <trkpt lat="15.1406" lon="-16.89838">
        <ele>38.38</ele>
        <time>2019-12-01T08:42:29.000Z</time>
      </trkpt>
      <trkpt lat="15.1406" lon="-16.89859">
        <ele>37.96</ele>
        <time>2019-12-01T08:42:34.000Z</time>
      </trkpt>
      <trkpt lat="15.14058" lon="-16.89877">
        <ele>37.46</ele>
        <time>2019-12-01T08:42:39.000Z</time>
      </trkpt>
      <trkpt lat="15.14055" lon="-16.89896">
        <ele>36.76</ele>
        <time>2019-12-01T08:42:44.000Z</time>
      </trkpt>
      <trkpt lat="15.14051" lon="-16.89915">
        <ele>35.97</ele>
        <time>2019-12-01T08:42:49.000Z</time>
      </trkpt>
      <trkpt lat="15.14045" lon="-16.89935">
        <ele>35.42</ele>
        <time>2019-12-01T08:42:54.000Z</time>
      </trkpt>
      <trkpt lat="15.1404" lon="-16.89956">
        <ele>35.02</ele>
        <time>2019-12-01T08:42:59.000Z</time>
      </trkpt>
      <trkpt lat="15.14033" lon="-16.89979">
        <ele>34.69</ele>
        <time>2019-12-01T08:43:04.000Z</time>
      </trkpt>
      <trkpt lat="15.14026" lon="-16.90003">
        <ele>34.42</ele>
        <time>2019-12-01T08:43:09.000Z</time>
      </trkpt>
      <trkpt lat="15.14019" lon="-16.90027">
        <ele>34.05</ele>
        <time>2019-12-01T08:43:14.000Z</time>
      </trkpt>
      <trkpt lat="15.14013" lon="-16.90051">
        <ele>33.65</ele>
        <time>2019-12-01T08:43:19.000Z</time>
      </trkpt>
      <trkpt lat="15.14006" lon="-16.90075">
        <ele>33.27</ele>
        <time>2019-12-01T08:43:24.000Z</time>
      </trkpt>
      <trkpt lat="15.14" lon="-16.901">
        <ele>32.88</ele>
        <time>2019-12-01T08:43:29.000Z</time>
      </trkpt>
      <trkpt lat="15.13993" lon="-16.90125">
        <ele>32.46</ele>
        <time>2019-12-01T08:43:34.000Z</time>
      </trkpt>
      <trkpt lat="15.13984" lon="-16.90152">
        <ele>32.22</ele>
        <time>2019-12-01T08:43:39.000Z</time>
      </trkpt>
      <trkpt lat="15.13975" lon="-16.90181">
        <ele>32.1</ele>
        <time>2019-12-01T08:43:44.000Z</time>
      </trkpt>
      <trkpt lat="15.13966" lon="-16.90209">
        <ele>31.89</ele>
        <time>2019-12-01T08:43:49.000Z</time>
      </trkpt>
      <trkpt lat="15.13957" lon="-16.90239">
        <ele>31.67</ele>
        <time>2019-12-01T08:43:54.000Z</time>
      </trkpt>
      <trkpt lat="15.13949" lon="-16.90269">
        <ele>31.54</ele>
        <time>2019-12-01T08:43:59.000Z</time>
      </trkpt>
      <trkpt lat="15.13941" lon="-16.90299">
        <ele>31.4</ele>
        <time>2019-12-01T08:44:04.000Z</time>
      </trkpt>
      <trkpt lat="15.13936" lon="-16.90328">
        <ele>31.28</ele>
        <time>2019-12-01T08:44:09.000Z</time>
      </trkpt>
      <trkpt lat="15.13932" lon="-16.90358">
        <ele>30.95</ele>
        <time>2019-12-01T08:44:14.000Z</time>
      </trkpt>
      <trkpt lat="15.13932" lon="-16.90391">
        <ele>30.48</ele>
        <time>2019-12-01T08:44:19.000Z</time>
      </trkpt>
      <trkpt lat="15.13936" lon="-16.90425">
        <ele>29.96</ele>
        <time>2019-12-01T08:44:24.000Z</time>
      </trkpt>
      <trkpt lat="15.13939" lon="-16.90461">
        <ele>29.4</ele>
        <time>2019-12-01T08:44:29.000Z</time>
      </trkpt>
      <trkpt lat="15.13943" lon="-16.90495">
        <ele>29.3</ele>
        <time>2019-12-01T08:44:34.000Z</time>
      </trkpt>
      <trkpt lat="15.13945" lon="-16.90525">
        <ele>29.33</ele>
        <time>2019-12-01T08:44:39.000Z</time>
      </trkpt>
      <trkpt lat="15.13944" lon="-16.90553">
        <ele>29.22</ele>
        <time>2019-12-01T08:44:44.000Z</time>
      </trkpt>
      <trkpt lat="15.13941" lon="-16.90578">
        <ele>28.95</ele>
        <time>2019-12-01T08:44:49.000Z</time>
      </trkpt>
      <trkpt lat="15.13934" lon="-16.90603">
        <ele>28.58</ele>
        <time>2019-12-01T08:44:54.000Z</time>
      </trkpt>
      <trkpt lat="15.13925" lon="-16.90629">
        <ele>28.47</ele>
        <time>2019-12-01T08:44:59.000Z</time>
      </trkpt>
      <trkpt lat="15.13916" lon="-16.90653">
        <ele>28.39</ele>
        <time>2019-12-01T08:45:04.000Z</time>
      </trkpt>
      <trkpt lat="15.13906" lon="-16.90673">
        <ele>28.35</ele>
        <time>2019-12-01T08:45:09.000Z</time>
      </trkpt>
      <trkpt lat="15.13892" lon="-16.90695">
        <ele>28.4</ele>
        <time>2019-12-01T08:45:14.000Z</time>
      </trkpt>
      <trkpt lat="15.13877" lon="-16.90714">
        <ele>28.46</ele>
        <time>2019-12-01T08:45:19.000Z</time>
      </trkpt>
      <trkpt lat="15.1386" lon="-16.90733">
        <ele>28.37</ele>
        <time>2019-12-01T08:45:24.000Z</time>
      </trkpt>
      <trkpt lat="15.13842" lon="-16.90748">
        <ele>28.45</ele>
        <time>2019-12-01T08:45:29.000Z</time>
      </trkpt>
      <trkpt lat="15.13824" lon="-16.9076">
        <ele>28.74</ele>
        <time>2019-12-01T08:45:34.000Z</time>
      </trkpt>
      <trkpt lat="15.13805" lon="-16.90772">
        <ele>28.66</ele>
        <time>2019-12-01T08:45:39.000Z</time>
      </trkpt>
      <trkpt lat="15.13786" lon="-16.90784">
        <ele>28.37</ele>
        <time>2019-12-01T08:45:44.000Z</time>
      </trkpt>
      <trkpt lat="15.13767" lon="-16.90795">
        <ele>28.2</ele>
        <time>2019-12-01T08:45:49.000Z</time>
      </trkpt>
      <trkpt lat="15.13747" lon="-16.90804">
        <ele>28.11</ele>
        <time>2019-12-01T08:45:54.000Z</time>
      </trkpt>
      <trkpt lat="15.13727" lon="-16.90811">
        <ele>28.21</ele>
        <time>2019-12-01T08:45:59.000Z</time>
      </trkpt>
      <trkpt lat="15.13707" lon="-16.90818">
        <ele>28.39</ele>
        <time>2019-12-01T08:46:04.000Z</time>
      </trkpt>
      <trkpt lat="15.13688" lon="-16.90822">
        <ele>28.52</ele>
        <time>2019-12-01T08:46:09.000Z</time>
      </trkpt>
      <trkpt lat="15.13668" lon="-16.90826">
        <ele>28.69</ele>
        <time>2019-12-01T08:46:14.000Z</time>
      </trkpt>
      <trkpt lat="15.13649" lon="-16.90828">
        <ele>28.83</ele>
        <time>2019-12-01T08:46:19.000Z</time>
      </trkpt>
      <trkpt lat="15.13631" lon="-16.90831">
        <ele>28.86</ele>
        <time>2019-12-01T08:46:24.000Z</time>
      </trkpt>
      <trkpt lat="15.13613" lon="-16.90834">
        <ele>28.89</ele>
        <time>2019-12-01T08:46:29.000Z</time>
      </trkpt>
      <trkpt lat="15.13595" lon="-16.90837">
        <ele>28.93</ele>
        <time>2019-12-01T08:46:34.000Z</time>
      </trkpt>
      <trkpt lat="15.13579" lon="-16.90839">
        <ele>28.99</ele>
        <time>2019-12-01T08:46:39.000Z</time>
      </trkpt>
      <trkpt lat="15.13562" lon="-16.90841">
        <ele>29.05</ele>
        <time>2019-12-01T08:46:44.000Z</time>
      </trkpt>
      <trkpt lat="15.13546" lon="-16.90844">
        <ele>29.11</ele>
        <time>2019-12-01T08:46:49.000Z</time>
      </trkpt>
      <trkpt lat="15.13528" lon="-16.90846">
        <ele>29.2</ele>
        <time>2019-12-01T08:46:54.000Z</time>
      </trkpt>
      <trkpt lat="15.13511" lon="-16.90848">
        <ele>29.31</ele>
        <time>2019-12-01T08:46:59.000Z</time>
      </trkpt>
      <trkpt lat="15.13494" lon="-16.9085">
        <ele>29.43</ele>
        <time>2019-12-01T08:47:04.000Z</time>
      </trkpt>
      <trkpt lat="15.13476" lon="-16.90853">
        <ele>29.56</ele>
        <time>2019-12-01T08:47:09.000Z</time>
      </trkpt>
      <trkpt lat="15.13457" lon="-16.90856">
        <ele>30.26</ele>
        <time>2019-12-01T08:47:14.000Z</time>
      </trkpt>
      <trkpt lat="15.13437" lon="-16.90859">
        <ele>31</ele>
        <time>2019-12-01T08:47:19.000Z</time>
      </trkpt>
      <trkpt lat="15.13416" lon="-16.90862">
        <ele>31.48</ele>
        <time>2019-12-01T08:47:24.000Z</time>
      </trkpt>
      <trkpt lat="15.13394" lon="-16.90864">
        <ele>31.82</ele>
        <time>2019-12-01T08:47:29.000Z</time>
      </trkpt>
      <trkpt lat="15.13375" lon="-16.90867">
        <ele>32.12</ele>
        <time>2019-12-01T08:47:34.000Z</time>
      </trkpt>
      <trkpt lat="15.13359" lon="-16.90871">
        <ele>32.18</ele>
        <time>2019-12-01T08:47:39.000Z</time>
      </trkpt>
      <trkpt lat="15.13345" lon="-16.90873">
        <ele>32.26</ele>
        <time>2019-12-01T08:47:44.000Z</time>
      </trkpt>
      <trkpt lat="15.13332" lon="-16.90875">
        <ele>32.36</ele>
        <time>2019-12-01T08:47:49.000Z</time>
      </trkpt>
      <trkpt lat="15.1332" lon="-16.90877">
        <ele>32.49</ele>
        <time>2019-12-01T08:47:54.000Z</time>
      </trkpt>
      <trkpt lat="15.13308" lon="-16.90878">
        <ele>32.64</ele>
        <time>2019-12-01T08:47:59.000Z</time>
      </trkpt>
      <trkpt lat="15.13298" lon="-16.9088">
        <ele>32.83</ele>
        <time>2019-12-01T08:48:04.000Z</time>
      </trkpt>
      <trkpt lat="15.13287" lon="-16.90882">
        <ele>33.05</ele>
        <time>2019-12-01T08:48:09.000Z</time>
      </trkpt>
      <trkpt lat="15.13276" lon="-16.90884">
        <ele>33.3</ele>
        <time>2019-12-01T08:48:14.000Z</time>
      </trkpt>
      <trkpt lat="15.13264" lon="-16.90886">
        <ele>33.58</ele>
        <time>2019-12-01T08:48:19.000Z</time>
      </trkpt>
      <trkpt lat="15.13253" lon="-16.90887">
        <ele>33.88</ele>
        <time>2019-12-01T08:48:24.000Z</time>
      </trkpt>
      <trkpt lat="15.13241" lon="-16.90889">
        <ele>34.19</ele>
        <time>2019-12-01T08:48:29.000Z</time>
      </trkpt>
      <trkpt lat="15.13229" lon="-16.9089">
        <ele>34.5</ele>
        <time>2019-12-01T08:48:34.000Z</time>
      </trkpt>
      <trkpt lat="15.13218" lon="-16.9089">
        <ele>34.79</ele>
        <time>2019-12-01T08:48:39.000Z</time>
      </trkpt>
      <trkpt lat="15.13206" lon="-16.90891">
        <ele>35.05</ele>
        <time>2019-12-01T08:48:44.000Z</time>
      </trkpt>
      <trkpt lat="15.1319" lon="-16.90891">
        <ele>35.3</ele>
        <time>2019-12-01T08:48:49.000Z</time>
      </trkpt>
      <trkpt lat="15.13173" lon="-16.90894">
        <ele>35.54</ele>
        <time>2019-12-01T08:48:54.000Z</time>
      </trkpt>
      <trkpt lat="15.13154" lon="-16.90898">
        <ele>36.02</ele>
        <time>2019-12-01T08:48:59.000Z</time>
      </trkpt>
      <trkpt lat="15.13132" lon="-16.90902">
        <ele>37.12</ele>
        <time>2019-12-01T08:49:04.000Z</time>
      </trkpt>
      <trkpt lat="15.13107" lon="-16.90906">
        <ele>37.77</ele>
        <time>2019-12-01T08:49:09.000Z</time>
      </trkpt>
      <trkpt lat="15.1308" lon="-16.90912">
        <ele>38.29</ele>
        <time>2019-12-01T08:49:14.000Z</time>
      </trkpt>
      <trkpt lat="15.13049" lon="-16.90917">
        <ele>38.58</ele>
        <time>2019-12-01T08:49:19.000Z</time>
      </trkpt>
      <trkpt lat="15.13013" lon="-16.90925">
        <ele>38.53</ele>
        <time>2019-12-01T08:49:24.000Z</time>
      </trkpt>
      <trkpt lat="15.12972" lon="-16.90932">
        <ele>38.13</ele>
        <time>2019-12-01T08:49:29.000Z</time>
      </trkpt>
      <trkpt lat="15.12927" lon="-16.90938">
        <ele>37.71</ele>
        <time>2019-12-01T08:49:34.000Z</time>
      </trkpt>
      <trkpt lat="15.12881" lon="-16.90945">
        <ele>37.29</ele>
        <time>2019-12-01T08:49:39.000Z</time>
      </trkpt>
      <trkpt lat="15.12836" lon="-16.90953">
        <ele>36.56</ele>
        <time>2019-12-01T08:49:44.000Z</time>
      </trkpt>
      <trkpt lat="15.12792" lon="-16.90956">
        <ele>36</ele>
        <time>2019-12-01T08:49:49.000Z</time>
      </trkpt>
      <trkpt lat="15.1275" lon="-16.90957">
        <ele>35.44</ele>
        <time>2019-12-01T08:49:54.000Z</time>
      </trkpt>
      <trkpt lat="15.1271" lon="-16.90957">
        <ele>35.12</ele>
        <time>2019-12-01T08:49:59.000Z</time>
      </trkpt>
      <trkpt lat="15.12674" lon="-16.90957">
        <ele>34.87</ele>
        <time>2019-12-01T08:50:04.000Z</time>
      </trkpt>
      <trkpt lat="15.12639" lon="-16.90957">
        <ele>34.8</ele>
        <time>2019-12-01T08:50:09.000Z</time>
      </trkpt>
      <trkpt lat="15.12606" lon="-16.90957">
        <ele>34.9</ele>
        <time>2019-12-01T08:50:14.000Z</time>
      </trkpt>
      <trkpt lat="15.12575" lon="-16.90957">
        <ele>35.25</ele>
        <time>2019-12-01T08:50:19.000Z</time>
      </trkpt>
      <trkpt lat="15.12544" lon="-16.90957">
        <ele>35.73</ele>
        <time>2019-12-01T08:50:24.000Z</time>
      </trkpt>
      <trkpt lat="15.12515" lon="-16.90956">
        <ele>36.01</ele>
        <time>2019-12-01T08:50:29.000Z</time>
      </trkpt>
      <trkpt lat="15.12488" lon="-16.90956">
        <ele>36.2</ele>
        <time>2019-12-01T08:50:34.000Z</time>
      </trkpt>
      <trkpt lat="15.12462" lon="-16.90956">
        <ele>36.41</ele>
        <time>2019-12-01T08:50:39.000Z</time>
      </trkpt>
      <trkpt lat="15.12435" lon="-16.90956">
        <ele>36.63</ele>
        <time>2019-12-01T08:50:44.000Z</time>
      </trkpt>
      <trkpt lat="15.12411" lon="-16.90956">
        <ele>37.01</ele>
        <time>2019-12-01T08:50:49.000Z</time>
      </trkpt>
      <trkpt lat="15.12388" lon="-16.90955">
        <ele>37.36</ele>
        <time>2019-12-01T08:50:54.000Z</time>
      </trkpt>
      <trkpt lat="15.12365" lon="-16.90955">
        <ele>37.65</ele>
        <time>2019-12-01T08:50:59.000Z</time>
      </trkpt>
      <trkpt lat="15.12342" lon="-16.90954">
        <ele>37.84</ele>
        <time>2019-12-01T08:51:04.000Z</time>
      </trkpt>
      <trkpt lat="15.12319" lon="-16.90954">
        <ele>37.81</ele>
        <time>2019-12-01T08:51:09.000Z</time>
      </trkpt>
      <trkpt lat="15.12293" lon="-16.90953">
        <ele>37.81</ele>
        <time>2019-12-01T08:51:13.999Z</time>
      </trkpt>
      <trkpt lat="15.12267" lon="-16.90954">
        <ele>37.88</ele>
        <time>2019-12-01T08:51:18.999Z</time>
      </trkpt>
      <trkpt lat="15.12243" lon="-16.90954">
        <ele>37.96</ele>
        <time>2019-12-01T08:51:23.999Z</time>
      </trkpt>
      <trkpt lat="15.12217" lon="-16.90953">
        <ele>38.19</ele>
        <time>2019-12-01T08:51:28.999Z</time>
      </trkpt>
      <trkpt lat="15.12191" lon="-16.90953">
        <ele>38.42</ele>
        <time>2019-12-01T08:51:33.999Z</time>
      </trkpt>
      <trkpt lat="15.12167" lon="-16.90953">
        <ele>38.64</ele>
        <time>2019-12-01T08:51:38.999Z</time>
      </trkpt>
      <trkpt lat="15.12144" lon="-16.90953">
        <ele>38.9</ele>
        <time>2019-12-01T08:51:43.999Z</time>
      </trkpt>
      <trkpt lat="15.12123" lon="-16.90953">
        <ele>39.13</ele>
        <time>2019-12-01T08:51:48.999Z</time>
      </trkpt>
      <trkpt lat="15.12103" lon="-16.90953">
        <ele>39.33</ele>
        <time>2019-12-01T08:51:53.999Z</time>
      </trkpt>
      <trkpt lat="15.12082" lon="-16.90952">
        <ele>39.58</ele>
        <time>2019-12-01T08:51:58.999Z</time>
      </trkpt>
      <trkpt lat="15.1206" lon="-16.90952">
        <ele>39.77</ele>
        <time>2019-12-01T08:52:03.999Z</time>
      </trkpt>
      <trkpt lat="15.12035" lon="-16.90952">
        <ele>39.8</ele>
        <time>2019-12-01T08:52:08.999Z</time>
      </trkpt>
      <trkpt lat="15.12008" lon="-16.90953">
        <ele>39.76</ele>
        <time>2019-12-01T08:52:13.999Z</time>
      </trkpt>
      <trkpt lat="15.11977" lon="-16.90953">
        <ele>39.44</ele>
        <time>2019-12-01T08:52:18.999Z</time>
      </trkpt>
      <trkpt lat="15.11942" lon="-16.90954">
        <ele>38.95</ele>
        <time>2019-12-01T08:52:23.999Z</time>
      </trkpt>
      <trkpt lat="15.11906" lon="-16.90954">
        <ele>38.76</ele>
        <time>2019-12-01T08:52:28.999Z</time>
      </trkpt>
      <trkpt lat="15.11873" lon="-16.90954">
        <ele>39.13</ele>
        <time>2019-12-01T08:52:33.999Z</time>
      </trkpt>
      <trkpt lat="15.11844" lon="-16.90954">
        <ele>39.79</ele>
        <time>2019-12-01T08:52:38.999Z</time>
      </trkpt>
      <trkpt lat="15.11822" lon="-16.90954">
        <ele>40.4</ele>
        <time>2019-12-01T08:52:43.999Z</time>
      </trkpt>
      <trkpt lat="15.11806" lon="-16.90954">
        <ele>40.49</ele>
        <time>2019-12-01T08:52:48.999Z</time>
      </trkpt>
      <trkpt lat="15.11792" lon="-16.90955">
        <ele>40.57</ele>
        <time>2019-12-01T08:52:53.999Z</time>
      </trkpt>
      <trkpt lat="15.11779" lon="-16.90957">
        <ele>40.66</ele>
        <time>2019-12-01T08:52:58.999Z</time>
      </trkpt>
      <trkpt lat="15.11764" lon="-16.90961">
        <ele>40.78</ele>
        <time>2019-12-01T08:53:03.999Z</time>
      </trkpt>
      <trkpt lat="15.11751" lon="-16.90963">
        <ele>40.95</ele>
        <time>2019-12-01T08:53:08.999Z</time>
      </trkpt>
      <trkpt lat="15.11739" lon="-16.90966">
        <ele>41.11</ele>
        <time>2019-12-01T08:53:13.999Z</time>
      </trkpt>
      <trkpt lat="15.11726" lon="-16.90969">
        <ele>41.26</ele>
        <time>2019-12-01T08:53:18.999Z</time>
      </trkpt>
      <trkpt lat="15.11714" lon="-16.90973">
        <ele>41.41</ele>
        <time>2019-12-01T08:53:23.999Z</time>
      </trkpt>
      <trkpt lat="15.11701" lon="-16.90978">
        <ele>41.54</ele>
        <time>2019-12-01T08:53:28.999Z</time>
      </trkpt>
      <trkpt lat="15.11686" lon="-16.90983">
        <ele>41.69</ele>
        <time>2019-12-01T08:53:33.999Z</time>
      </trkpt>
      <trkpt lat="15.11671" lon="-16.90989">
        <ele>41.86</ele>
        <time>2019-12-01T08:53:38.999Z</time>
      </trkpt>
      <trkpt lat="15.11655" lon="-16.90996">
        <ele>42.07</ele>
        <time>2019-12-01T08:53:43.999Z</time>
      </trkpt>
      <trkpt lat="15.11638" lon="-16.91003">
        <ele>42.3</ele>
        <time>2019-12-01T08:53:48.999Z</time>
      </trkpt>
      <trkpt lat="15.11622" lon="-16.91012">
        <ele>43.68</ele>
        <time>2019-12-01T08:53:53.999Z</time>
      </trkpt>
      <trkpt lat="15.11603" lon="-16.91023">
        <ele>43.86</ele>
        <time>2019-12-01T08:53:58.999Z</time>
      </trkpt>
      <trkpt lat="15.11582" lon="-16.91037">
        <ele>43.58</ele>
        <time>2019-12-01T08:54:03.999Z</time>
      </trkpt>
      <trkpt lat="15.11558" lon="-16.91052">
        <ele>43.13</ele>
        <time>2019-12-01T08:54:08.999Z</time>
      </trkpt>
      <trkpt lat="15.11533" lon="-16.91069">
        <ele>42.49</ele>
        <time>2019-12-01T08:54:13.999Z</time>
      </trkpt>
      <trkpt lat="15.11506" lon="-16.91087">
        <ele>42.01</ele>
        <time>2019-12-01T08:54:18.999Z</time>
      </trkpt>
      <trkpt lat="15.11478" lon="-16.91105">
        <ele>41.69</ele>
        <time>2019-12-01T08:54:23.999Z</time>
      </trkpt>
      <trkpt lat="15.11451" lon="-16.91122">
        <ele>41.62</ele>
        <time>2019-12-01T08:54:28.999Z</time>
      </trkpt>
      <trkpt lat="15.11424" lon="-16.9114">
        <ele>41.68</ele>
        <time>2019-12-01T08:54:33.999Z</time>
      </trkpt>
      <trkpt lat="15.11397" lon="-16.91157">
        <ele>41.71</ele>
        <time>2019-12-01T08:54:38.999Z</time>
      </trkpt>
      <trkpt lat="15.11371" lon="-16.91174">
        <ele>41.73</ele>
        <time>2019-12-01T08:54:43.999Z</time>
      </trkpt>
      <trkpt lat="15.11344" lon="-16.9119">
        <ele>41.68</ele>
        <time>2019-12-01T08:54:48.999Z</time>
      </trkpt>
      <trkpt lat="15.11319" lon="-16.91207">
        <ele>41.52</ele>
        <time>2019-12-01T08:54:53.999Z</time>
      </trkpt>
      <trkpt lat="15.11293" lon="-16.91223">
        <ele>41.29</ele>
        <time>2019-12-01T08:54:58.999Z</time>
      </trkpt>
      <trkpt lat="15.11267" lon="-16.9124">
        <ele>41.03</ele>
        <time>2019-12-01T08:55:03.999Z</time>
      </trkpt>
      <trkpt lat="15.11241" lon="-16.91257">
        <ele>40.76</ele>
        <time>2019-12-01T08:55:08.999Z</time>
      </trkpt>
      <trkpt lat="15.11215" lon="-16.91274">
        <ele>40.52</ele>
        <time>2019-12-01T08:55:13.999Z</time>
      </trkpt>
      <trkpt lat="15.11189" lon="-16.91291">
        <ele>40.39</ele>
        <time>2019-12-01T08:55:18.999Z</time>
      </trkpt>
      <trkpt lat="15.11163" lon="-16.91307">
        <ele>40.29</ele>
        <time>2019-12-01T08:55:23.999Z</time>
      </trkpt>
      <trkpt lat="15.11137" lon="-16.91324">
        <ele>40.23</ele>
        <time>2019-12-01T08:55:28.999Z</time>
      </trkpt>
      <trkpt lat="15.11111" lon="-16.91341">
        <ele>40.24</ele>
        <time>2019-12-01T08:55:33.999Z</time>
      </trkpt>
      <trkpt lat="15.11085" lon="-16.91357">
        <ele>40.38</ele>
        <time>2019-12-01T08:55:38.999Z</time>
      </trkpt>
      <trkpt lat="15.1106" lon="-16.91373">
        <ele>40.38</ele>
        <time>2019-12-01T08:55:43.999Z</time>
      </trkpt>
      <trkpt lat="15.11035" lon="-16.91389">
        <ele>40.17</ele>
        <time>2019-12-01T08:55:48.999Z</time>
      </trkpt>
      <trkpt lat="15.1101" lon="-16.91405">
        <ele>40.02</ele>
        <time>2019-12-01T08:55:53.999Z</time>
      </trkpt>
      <trkpt lat="15.10984" lon="-16.91421">
        <ele>39.81</ele>
        <time>2019-12-01T08:55:58.999Z</time>
      </trkpt>
      <trkpt lat="15.10957" lon="-16.91438">
        <ele>39.45</ele>
        <time>2019-12-01T08:56:03.999Z</time>
      </trkpt>
      <trkpt lat="15.10929" lon="-16.91456">
        <ele>38.99</ele>
        <time>2019-12-01T08:56:08.999Z</time>
      </trkpt>
      <trkpt lat="15.10898" lon="-16.91474">
        <ele>38.69</ele>
        <time>2019-12-01T08:56:13.999Z</time>
      </trkpt>
      <trkpt lat="15.10865" lon="-16.91488">
        <ele>38.49</ele>
        <time>2019-12-01T08:56:18.999Z</time>
      </trkpt>
      <trkpt lat="15.10831" lon="-16.915">
        <ele>38.34</ele>
        <time>2019-12-01T08:56:23.999Z</time>
      </trkpt>
      <trkpt lat="15.10798" lon="-16.91508">
        <ele>38.26</ele>
        <time>2019-12-01T08:56:28.999Z</time>
      </trkpt>
      <trkpt lat="15.10765" lon="-16.91513">
        <ele>37.92</ele>
        <time>2019-12-01T08:56:33.999Z</time>
      </trkpt>
      <trkpt lat="15.10732" lon="-16.91515">
        <ele>37.73</ele>
        <time>2019-12-01T08:56:38.999Z</time>
      </trkpt>
      <trkpt lat="15.107" lon="-16.91515">
        <ele>37.73</ele>
        <time>2019-12-01T08:56:43.999Z</time>
      </trkpt>
      <trkpt lat="15.10668" lon="-16.91511">
        <ele>37.53</ele>
        <time>2019-12-01T08:56:48.999Z</time>
      </trkpt>
      <trkpt lat="15.10637" lon="-16.91506">
        <ele>37.38</ele>
        <time>2019-12-01T08:56:53.999Z</time>
      </trkpt>
      <trkpt lat="15.10608" lon="-16.91499">
        <ele>37.37</ele>
        <time>2019-12-01T08:56:58.999Z</time>
      </trkpt>
      <trkpt lat="15.10582" lon="-16.9149">
        <ele>37.71</ele>
        <time>2019-12-01T08:57:03.999Z</time>
      </trkpt>
      <trkpt lat="15.10563" lon="-16.91482">
        <ele>38.13</ele>
        <time>2019-12-01T08:57:08.999Z</time>
      </trkpt>
      <trkpt lat="15.10545" lon="-16.91473">
        <ele>38.35</ele>
        <time>2019-12-01T08:57:13.999Z</time>
      </trkpt>
      <trkpt lat="15.10529" lon="-16.91465">
        <ele>38.36</ele>
        <time>2019-12-01T08:57:18.999Z</time>
      </trkpt>
      <trkpt lat="15.10513" lon="-16.91456">
        <ele>38.37</ele>
        <time>2019-12-01T08:57:23.999Z</time>
      </trkpt>
      <trkpt lat="15.10499" lon="-16.91448">
        <ele>38.4</ele>
        <time>2019-12-01T08:57:28.999Z</time>
      </trkpt>
      <trkpt lat="15.10484" lon="-16.91441">
        <ele>38.44</ele>
        <time>2019-12-01T08:57:33.999Z</time>
      </trkpt>
      <trkpt lat="15.1047" lon="-16.91434">
        <ele>38.5</ele>
        <time>2019-12-01T08:57:38.999Z</time>
      </trkpt>
      <trkpt lat="15.10455" lon="-16.91426">
        <ele>38.58</ele>
        <time>2019-12-01T08:57:43.999Z</time>
      </trkpt>
      <trkpt lat="15.1044" lon="-16.91419">
        <ele>38.69</ele>
        <time>2019-12-01T08:57:48.999Z</time>
      </trkpt>
      <trkpt lat="15.10424" lon="-16.91413">
        <ele>38.82</ele>
        <time>2019-12-01T08:57:53.999Z</time>
      </trkpt>
      <trkpt lat="15.10407" lon="-16.91408">
        <ele>39.19</ele>
        <time>2019-12-01T08:57:58.999Z</time>
      </trkpt>
      <trkpt lat="15.10386" lon="-16.91401">
        <ele>40.22</ele>
        <time>2019-12-01T08:58:03.999Z</time>
      </trkpt>
      <trkpt lat="15.10366" lon="-16.91395">
        <ele>40.72</ele>
        <time>2019-12-01T08:58:08.999Z</time>
      </trkpt>
      <trkpt lat="15.10342" lon="-16.9139">
        <ele>41.02</ele>
        <time>2019-12-01T08:58:13.999Z</time>
      </trkpt>
      <trkpt lat="15.10317" lon="-16.91384">
        <ele>41.36</ele>
        <time>2019-12-01T08:58:18.999Z</time>
      </trkpt>
      <trkpt lat="15.10288" lon="-16.91378">
        <ele>41.54</ele>
        <time>2019-12-01T08:58:23.999Z</time>
      </trkpt>
      <trkpt lat="15.10262" lon="-16.91372">
        <ele>41.61</ele>
        <time>2019-12-01T08:58:28.999Z</time>
      </trkpt>
      <trkpt lat="15.10237" lon="-16.91366">
        <ele>41.75</ele>
        <time>2019-12-01T08:58:33.999Z</time>
      </trkpt>
      <trkpt lat="15.10215" lon="-16.91361">
        <ele>42</ele>
        <time>2019-12-01T08:58:38.999Z</time>
      </trkpt>
      <trkpt lat="15.10194" lon="-16.91356">
        <ele>42.29</ele>
        <time>2019-12-01T08:58:43.999Z</time>
      </trkpt>
      <trkpt lat="15.10173" lon="-16.91352">
        <ele>42.53</ele>
        <time>2019-12-01T08:58:48.999Z</time>
      </trkpt>
      <trkpt lat="15.10153" lon="-16.91347">
        <ele>42.66</ele>
        <time>2019-12-01T08:58:53.999Z</time>
      </trkpt>
      <trkpt lat="15.10131" lon="-16.91341">
        <ele>42.81</ele>
        <time>2019-12-01T08:58:58.999Z</time>
      </trkpt>
      <trkpt lat="15.10109" lon="-16.91336">
        <ele>42.98</ele>
        <time>2019-12-01T08:59:03.999Z</time>
      </trkpt>
      <trkpt lat="15.10085" lon="-16.91331">
        <ele>43.15</ele>
        <time>2019-12-01T08:59:08.999Z</time>
      </trkpt>
      <trkpt lat="15.10059" lon="-16.91325">
        <ele>43.3</ele>
        <time>2019-12-01T08:59:13.999Z</time>
      </trkpt>
      <trkpt lat="15.10031" lon="-16.91319">
        <ele>43.41</ele>
        <time>2019-12-01T08:59:18.999Z</time>
      </trkpt>
      <trkpt lat="15.10005" lon="-16.91312">
        <ele>43.49</ele>
        <time>2019-12-01T08:59:23.999Z</time>
      </trkpt>
      <trkpt lat="15.09977" lon="-16.91306">
        <ele>43.43</ele>
        <time>2019-12-01T08:59:28.999Z</time>
      </trkpt>
      <trkpt lat="15.09948" lon="-16.91299">
        <ele>43.48</ele>
        <time>2019-12-01T08:59:33.999Z</time>
      </trkpt>
      <trkpt lat="15.0992" lon="-16.91292">
        <ele>43.24</ele>
        <time>2019-12-01T08:59:38.999Z</time>
      </trkpt>
      <trkpt lat="15.09888" lon="-16.91285">
        <ele>42.93</ele>
        <time>2019-12-01T08:59:43.999Z</time>
      </trkpt>
      <trkpt lat="15.09854" lon="-16.91278">
        <ele>42.5</ele>
        <time>2019-12-01T08:59:48.999Z</time>
      </trkpt>
      <trkpt lat="15.09818" lon="-16.9127">
        <ele>42.22</ele>
        <time>2019-12-01T08:59:53.999Z</time>
      </trkpt>
      <trkpt lat="15.09782" lon="-16.91262">
        <ele>42.03</ele>
        <time>2019-12-01T08:59:58.999Z</time>
      </trkpt>
      <trkpt lat="15.09748" lon="-16.91254">
        <ele>41.91</ele>
        <time>2019-12-01T09:00:03.999Z</time>
      </trkpt>
      <trkpt lat="15.09716" lon="-16.91245">
        <ele>41.76</ele>
        <time>2019-12-01T09:00:08.999Z</time>
      </trkpt>
      <trkpt lat="15.09686" lon="-16.91239">
        <ele>41.51</ele>
        <time>2019-12-01T09:00:13.999Z</time>
      </trkpt>
      <trkpt lat="15.09658" lon="-16.91233">
        <ele>41.38</ele>
        <time>2019-12-01T09:00:18.999Z</time>
      </trkpt>
      <trkpt lat="15.0963" lon="-16.91227">
        <ele>41.39</ele>
        <time>2019-12-01T09:00:23.999Z</time>
      </trkpt>
      <trkpt lat="15.09608" lon="-16.91222">
        <ele>41.61</ele>
        <time>2019-12-01T09:00:28.999Z</time>
      </trkpt>
      <trkpt lat="15.09586" lon="-16.91216">
        <ele>41.53</ele>
        <time>2019-12-01T09:00:33.999Z</time>
      </trkpt>
      <trkpt lat="15.09564" lon="-16.91212">
        <ele>41.39</ele>
        <time>2019-12-01T09:00:38.999Z</time>
      </trkpt>
      <trkpt lat="15.09543" lon="-16.91207">
        <ele>41.36</ele>
        <time>2019-12-01T09:00:43.999Z</time>
      </trkpt>
      <trkpt lat="15.09521" lon="-16.91201">
        <ele>41.37</ele>
        <time>2019-12-01T09:00:48.999Z</time>
      </trkpt>
      <trkpt lat="15.09496" lon="-16.91195">
        <ele>41.28</ele>
        <time>2019-12-01T09:00:53.999Z</time>
      </trkpt>
      <trkpt lat="15.09472" lon="-16.91191">
        <ele>41.15</ele>
        <time>2019-12-01T09:00:58.999Z</time>
      </trkpt>
      <trkpt lat="15.09445" lon="-16.91185">
        <ele>41.09</ele>
        <time>2019-12-01T09:01:03.999Z</time>
      </trkpt>
      <trkpt lat="15.09417" lon="-16.91179">
        <ele>41.04</ele>
        <time>2019-12-01T09:01:08.999Z</time>
      </trkpt>
      <trkpt lat="15.09387" lon="-16.91172">
        <ele>40.92</ele>
        <time>2019-12-01T09:01:13.999Z</time>
      </trkpt>
      <trkpt lat="15.09357" lon="-16.91164">
        <ele>40.71</ele>
        <time>2019-12-01T09:01:18.999Z</time>
      </trkpt>
      <trkpt lat="15.09328" lon="-16.91156">
        <ele>40.6</ele>
        <time>2019-12-01T09:01:23.999Z</time>
      </trkpt>
      <trkpt lat="15.09301" lon="-16.9115">
        <ele>40.5</ele>
        <time>2019-12-01T09:01:28.999Z</time>
      </trkpt>
      <trkpt lat="15.09274" lon="-16.91147">
        <ele>40.63</ele>
        <time>2019-12-01T09:01:33.999Z</time>
      </trkpt>
      <trkpt lat="15.09248" lon="-16.91144">
        <ele>40.9</ele>
        <time>2019-12-01T09:01:38.999Z</time>
      </trkpt>
      <trkpt lat="15.09222" lon="-16.91143">
        <ele>40.98</ele>
        <time>2019-12-01T09:01:43.999Z</time>
      </trkpt>
      <trkpt lat="15.09197" lon="-16.91144">
        <ele>40.99</ele>
        <time>2019-12-01T09:01:48.999Z</time>
      </trkpt>
      <trkpt lat="15.09172" lon="-16.91146">
        <ele>41.12</ele>
        <time>2019-12-01T09:01:53.999Z</time>
      </trkpt>
      <trkpt lat="15.09148" lon="-16.91151">
        <ele>41.32</ele>
        <time>2019-12-01T09:01:58.999Z</time>
      </trkpt>
      <trkpt lat="15.09124" lon="-16.91156">
        <ele>41.47</ele>
        <time>2019-12-01T09:02:03.999Z</time>
      </trkpt>
      <trkpt lat="15.09101" lon="-16.91162">
        <ele>41.61</ele>
        <time>2019-12-01T09:02:08.999Z</time>
      </trkpt>
      <trkpt lat="15.09079" lon="-16.91169">
        <ele>41.94</ele>
        <time>2019-12-01T09:02:13.999Z</time>
      </trkpt>
      <trkpt lat="15.09056" lon="-16.91178">
        <ele>42.24</ele>
        <time>2019-12-01T09:02:18.999Z</time>
      </trkpt>
      <trkpt lat="15.09031" lon="-16.9119">
        <ele>42.31</ele>
        <time>2019-12-01T09:02:23.999Z</time>
      </trkpt>
      <trkpt lat="15.09006" lon="-16.91202">
        <ele>42.12</ele>
        <time>2019-12-01T09:02:28.999Z</time>
      </trkpt>
      <trkpt lat="15.0898" lon="-16.91216">
        <ele>41.78</ele>
        <time>2019-12-01T09:02:33.999Z</time>
      </trkpt>
      <trkpt lat="15.08954" lon="-16.91229">
        <ele>41.49</ele>
        <time>2019-12-01T09:02:38.999Z</time>
      </trkpt>
      <trkpt lat="15.08928" lon="-16.91241">
        <ele>41.07</ele>
        <time>2019-12-01T09:02:43.999Z</time>
      </trkpt>
      <trkpt lat="15.08903" lon="-16.91254">
        <ele>40.73</ele>
        <time>2019-12-01T09:02:48.999Z</time>
      </trkpt>
      <trkpt lat="15.08879" lon="-16.91265">
        <ele>40.53</ele>
        <time>2019-12-01T09:02:53.999Z</time>
      </trkpt>
      <trkpt lat="15.08856" lon="-16.91276">
        <ele>40.5</ele>
        <time>2019-12-01T09:02:58.999Z</time>
      </trkpt>
      <trkpt lat="15.08837" lon="-16.91285">
        <ele>40.46</ele>
        <time>2019-12-01T09:03:03.999Z</time>
      </trkpt>
      <trkpt lat="15.08817" lon="-16.91295">
        <ele>40.45</ele>
        <time>2019-12-01T09:03:08.999Z</time>
      </trkpt>
      <trkpt lat="15.08798" lon="-16.91305">
        <ele>40.43</ele>
        <time>2019-12-01T09:03:13.999Z</time>
      </trkpt>
      <trkpt lat="15.08779" lon="-16.91315">
        <ele>40.45</ele>
        <time>2019-12-01T09:03:18.999Z</time>
      </trkpt>
      <trkpt lat="15.0876" lon="-16.91325">
        <ele>40.42</ele>
        <time>2019-12-01T09:03:23.999Z</time>
      </trkpt>
      <trkpt lat="15.08739" lon="-16.91336">
        <ele>40.39</ele>
        <time>2019-12-01T09:03:28.999Z</time>
      </trkpt>
      <trkpt lat="15.08719" lon="-16.91348">
        <ele>40.43</ele>
        <time>2019-12-01T09:03:33.999Z</time>
      </trkpt>
      <trkpt lat="15.08697" lon="-16.91361">
        <ele>40.35</ele>
        <time>2019-12-01T09:03:38.999Z</time>
      </trkpt>
      <trkpt lat="15.08674" lon="-16.91377">
        <ele>40.38</ele>
        <time>2019-12-01T09:03:43.999Z</time>
      </trkpt>
      <trkpt lat="15.0865" lon="-16.91395">
        <ele>40.48</ele>
        <time>2019-12-01T09:03:48.999Z</time>
      </trkpt>
      <trkpt lat="15.08625" lon="-16.91414">
        <ele>40.61</ele>
        <time>2019-12-01T09:03:53.999Z</time>
      </trkpt>
      <trkpt lat="15.086" lon="-16.91435">
        <ele>40.63</ele>
        <time>2019-12-01T09:03:58.999Z</time>
      </trkpt>
      <trkpt lat="15.08575" lon="-16.91458">
        <ele>40.29</ele>
        <time>2019-12-01T09:04:03.999Z</time>
      </trkpt>
      <trkpt lat="15.0855" lon="-16.9148">
        <ele>40.08</ele>
        <time>2019-12-01T09:04:08.999Z</time>
      </trkpt>
      <trkpt lat="15.08525" lon="-16.915">
        <ele>39.92</ele>
        <time>2019-12-01T09:04:13.999Z</time>
      </trkpt>
      <trkpt lat="15.08501" lon="-16.91521">
        <ele>39.75</ele>
        <time>2019-12-01T09:04:18.999Z</time>
      </trkpt>
      <trkpt lat="15.08479" lon="-16.9154">
        <ele>39.86</ele>
        <time>2019-12-01T09:04:23.999Z</time>
      </trkpt>
      <trkpt lat="15.08457" lon="-16.91559">
        <ele>39.77</ele>
        <time>2019-12-01T09:04:28.999Z</time>
      </trkpt>
      <trkpt lat="15.08436" lon="-16.91578">
        <ele>39.63</ele>
        <time>2019-12-01T09:04:33.999Z</time>
      </trkpt>
      <trkpt lat="15.08414" lon="-16.91595">
        <ele>39.61</ele>
        <time>2019-12-01T09:04:38.999Z</time>
      </trkpt>
      <trkpt lat="15.08392" lon="-16.91615">
        <ele>39.94</ele>
        <time>2019-12-01T09:04:43.999Z</time>
      </trkpt>
      <trkpt lat="15.08371" lon="-16.91632">
        <ele>40.5</ele>
        <time>2019-12-01T09:04:48.999Z</time>
      </trkpt>
      <trkpt lat="15.08352" lon="-16.91649">
        <ele>40.95</ele>
        <time>2019-12-01T09:04:53.999Z</time>
      </trkpt>
      <trkpt lat="15.08333" lon="-16.91666">
        <ele>41.23</ele>
        <time>2019-12-01T09:04:58.999Z</time>
      </trkpt>
      <trkpt lat="15.08314" lon="-16.91682">
        <ele>41.38</ele>
        <time>2019-12-01T09:05:03.999Z</time>
      </trkpt>
      <trkpt lat="15.08295" lon="-16.91698">
        <ele>41.36</ele>
        <time>2019-12-01T09:05:08.999Z</time>
      </trkpt>
      <trkpt lat="15.08278" lon="-16.91713">
        <ele>41.47</ele>
        <time>2019-12-01T09:05:13.999Z</time>
      </trkpt>
      <trkpt lat="15.08261" lon="-16.91729">
        <ele>41.6</ele>
        <time>2019-12-01T09:05:18.999Z</time>
      </trkpt>
      <trkpt lat="15.08243" lon="-16.91744">
        <ele>41.58</ele>
        <time>2019-12-01T09:05:23.999Z</time>
      </trkpt>
      <trkpt lat="15.08226" lon="-16.91759">
        <ele>41.63</ele>
        <time>2019-12-01T09:05:28.999Z</time>
      </trkpt>
      <trkpt lat="15.08209" lon="-16.91773">
        <ele>41.62</ele>
        <time>2019-12-01T09:05:33.999Z</time>
      </trkpt>
      <trkpt lat="15.08192" lon="-16.91787">
        <ele>41.63</ele>
        <time>2019-12-01T09:05:38.999Z</time>
      </trkpt>
      <trkpt lat="15.08174" lon="-16.91802">
        <ele>41.73</ele>
        <time>2019-12-01T09:05:43.999Z</time>
      </trkpt>
      <trkpt lat="15.0816" lon="-16.91814">
        <ele>41.92</ele>
        <time>2019-12-01T09:05:48.000Z</time>
      </trkpt>
      <trkpt lat="15.08142" lon="-16.91828">
        <ele>42.16</ele>
        <time>2019-12-01T09:05:53.000Z</time>
      </trkpt>
      <trkpt lat="15.08124" lon="-16.91842">
        <ele>42.39</ele>
        <time>2019-12-01T09:05:58.000Z</time>
      </trkpt>
      <trkpt lat="15.08106" lon="-16.91856">
        <ele>42.65</ele>
        <time>2019-12-01T09:06:03.000Z</time>
      </trkpt>
      <trkpt lat="15.08087" lon="-16.91872">
        <ele>43.01</ele>
        <time>2019-12-01T09:06:08.000Z</time>
      </trkpt>
      <trkpt lat="15.08069" lon="-16.91887">
        <ele>43.21</ele>
        <time>2019-12-01T09:06:13.000Z</time>
      </trkpt>
      <trkpt lat="15.08049" lon="-16.91903">
        <ele>43.28</ele>
        <time>2019-12-01T09:06:18.000Z</time>
      </trkpt>
      <trkpt lat="15.08027" lon="-16.91919">
        <ele>43.37</ele>
        <time>2019-12-01T09:06:23.000Z</time>
      </trkpt>
      <trkpt lat="15.08006" lon="-16.91937">
        <ele>43.61</ele>
        <time>2019-12-01T09:06:28.000Z</time>
      </trkpt>
      <trkpt lat="15.07984" lon="-16.91955">
        <ele>43.82</ele>
        <time>2019-12-01T09:06:33.000Z</time>
      </trkpt>
      <trkpt lat="15.07962" lon="-16.91973">
        <ele>44.09</ele>
        <time>2019-12-01T09:06:38.000Z</time>
      </trkpt>
      <trkpt lat="15.07943" lon="-16.91989">
        <ele>44.32</ele>
        <time>2019-12-01T09:06:43.000Z</time>
      </trkpt>
      <trkpt lat="15.07925" lon="-16.92004">
        <ele>44.46</ele>
        <time>2019-12-01T09:06:48.000Z</time>
      </trkpt>
      <trkpt lat="15.07909" lon="-16.92019">
        <ele>44.51</ele>
        <time>2019-12-01T09:06:53.000Z</time>
      </trkpt>
      <trkpt lat="15.07892" lon="-16.92032">
        <ele>44.53</ele>
        <time>2019-12-01T09:06:58.000Z</time>
      </trkpt>
      <trkpt lat="15.07877" lon="-16.92045">
        <ele>44.61</ele>
        <time>2019-12-01T09:07:03.000Z</time>
      </trkpt>
      <trkpt lat="15.07861" lon="-16.92058">
        <ele>44.73</ele>
        <time>2019-12-01T09:07:08.000Z</time>
      </trkpt>
      <trkpt lat="15.07845" lon="-16.92072">
        <ele>45.04</ele>
        <time>2019-12-01T09:07:13.000Z</time>
      </trkpt>
      <trkpt lat="15.07829" lon="-16.92085">
        <ele>45.26</ele>
        <time>2019-12-01T09:07:18.000Z</time>
      </trkpt>
      <trkpt lat="15.07812" lon="-16.92098">
        <ele>45.43</ele>
        <time>2019-12-01T09:07:23.000Z</time>
      </trkpt>
      <trkpt lat="15.07795" lon="-16.92112">
        <ele>45.58</ele>
        <time>2019-12-01T09:07:28.000Z</time>
      </trkpt>
      <trkpt lat="15.07778" lon="-16.92124">
        <ele>45.8</ele>
        <time>2019-12-01T09:07:33.000Z</time>
      </trkpt>
      <trkpt lat="15.07764" lon="-16.92137">
        <ele>46</ele>
        <time>2019-12-01T09:07:38.000Z</time>
      </trkpt>
      <trkpt lat="15.0775" lon="-16.92149">
        <ele>46.05</ele>
        <time>2019-12-01T09:07:43.000Z</time>
      </trkpt>
      <trkpt lat="15.07737" lon="-16.92161">
        <ele>46.06</ele>
        <time>2019-12-01T09:07:48.000Z</time>
      </trkpt>
      <trkpt lat="15.07723" lon="-16.92172">
        <ele>46.09</ele>
        <time>2019-12-01T09:07:53.000Z</time>
      </trkpt>
      <trkpt lat="15.07709" lon="-16.92183">
        <ele>46.15</ele>
        <time>2019-12-01T09:07:58.000Z</time>
      </trkpt>
      <trkpt lat="15.07696" lon="-16.92194">
        <ele>46.22</ele>
        <time>2019-12-01T09:08:03.000Z</time>
      </trkpt>
      <trkpt lat="15.07684" lon="-16.92204">
        <ele>46.3</ele>
        <time>2019-12-01T09:08:08.000Z</time>
      </trkpt>
      <trkpt lat="15.07669" lon="-16.92216">
        <ele>46.37</ele>
        <time>2019-12-01T09:08:13.000Z</time>
      </trkpt>
      <trkpt lat="15.07656" lon="-16.92226">
        <ele>46.47</ele>
        <time>2019-12-01T09:08:18.000Z</time>
      </trkpt>
      <trkpt lat="15.07643" lon="-16.92237">
        <ele>46.6</ele>
        <time>2019-12-01T09:08:23.000Z</time>
      </trkpt>
      <trkpt lat="15.0763" lon="-16.92248">
        <ele>46.77</ele>
        <time>2019-12-01T09:08:28.000Z</time>
      </trkpt>
      <trkpt lat="15.07616" lon="-16.92258">
        <ele>46.98</ele>
        <time>2019-12-01T09:08:33.000Z</time>
      </trkpt>
      <trkpt lat="15.07603" lon="-16.92269">
        <ele>47.22</ele>
        <time>2019-12-01T09:08:38.000Z</time>
      </trkpt>
      <trkpt lat="15.07589" lon="-16.92281">
        <ele>47.49</ele>
        <time>2019-12-01T09:08:43.000Z</time>
      </trkpt>
      <trkpt lat="15.07575" lon="-16.92292">
        <ele>47.75</ele>
        <time>2019-12-01T09:08:48.000Z</time>
      </trkpt>
      <trkpt lat="15.07562" lon="-16.92304">
        <ele>47.97</ele>
        <time>2019-12-01T09:08:53.000Z</time>
      </trkpt>
      <trkpt lat="15.07548" lon="-16.92316">
        <ele>48.16</ele>
        <time>2019-12-01T09:08:58.000Z</time>
      </trkpt>
      <trkpt lat="15.07535" lon="-16.92326">
        <ele>48.33</ele>
        <time>2019-12-01T09:09:03.000Z</time>
      </trkpt>
      <trkpt lat="15.07521" lon="-16.92339">
        <ele>48.52</ele>
        <time>2019-12-01T09:09:08.000Z</time>
      </trkpt>
      <trkpt lat="15.07508" lon="-16.92352">
        <ele>48.72</ele>
        <time>2019-12-01T09:09:13.000Z</time>
      </trkpt>
      <trkpt lat="15.07494" lon="-16.92365">
        <ele>50.06</ele>
        <time>2019-12-01T09:09:18.000Z</time>
      </trkpt>
      <trkpt lat="15.07481" lon="-16.92379">
        <ele>50.97</ele>
        <time>2019-12-01T09:09:23.000Z</time>
      </trkpt>
      <trkpt lat="15.07468" lon="-16.92393">
        <ele>51.44</ele>
        <time>2019-12-01T09:09:28.000Z</time>
      </trkpt>
      <trkpt lat="15.07454" lon="-16.92407">
        <ele>51.75</ele>
        <time>2019-12-01T09:09:33.000Z</time>
      </trkpt>
      <trkpt lat="15.07441" lon="-16.92422">
        <ele>51.97</ele>
        <time>2019-12-01T09:09:38.000Z</time>
      </trkpt>
      <trkpt lat="15.07429" lon="-16.92437">
        <ele>52.18</ele>
        <time>2019-12-01T09:09:43.000Z</time>
      </trkpt>
      <trkpt lat="15.07416" lon="-16.92453">
        <ele>52.35</ele>
        <time>2019-12-01T09:09:48.000Z</time>
      </trkpt>
      <trkpt lat="15.07403" lon="-16.92468">
        <ele>52.41</ele>
        <time>2019-12-01T09:09:53.000Z</time>
      </trkpt>
      <trkpt lat="15.07389" lon="-16.92484">
        <ele>52.37</ele>
        <time>2019-12-01T09:09:58.000Z</time>
      </trkpt>
      <trkpt lat="15.07375" lon="-16.92499">
        <ele>52.38</ele>
        <time>2019-12-01T09:10:03.000Z</time>
      </trkpt>
      <trkpt lat="15.07359" lon="-16.92516">
        <ele>52.44</ele>
        <time>2019-12-01T09:10:08.000Z</time>
      </trkpt>
      <trkpt lat="15.07346" lon="-16.92532">
        <ele>52.54</ele>
        <time>2019-12-01T09:10:13.000Z</time>
      </trkpt>
      <trkpt lat="15.07333" lon="-16.92548">
        <ele>52.6</ele>
        <time>2019-12-01T09:10:18.000Z</time>
      </trkpt>
      <trkpt lat="15.07319" lon="-16.92565">
        <ele>52.69</ele>
        <time>2019-12-01T09:10:23.000Z</time>
      </trkpt>
      <trkpt lat="15.07304" lon="-16.92582">
        <ele>52.76</ele>
        <time>2019-12-01T09:10:28.000Z</time>
      </trkpt>
      <trkpt lat="15.0729" lon="-16.926">
        <ele>52.83</ele>
        <time>2019-12-01T09:10:33.000Z</time>
      </trkpt>
      <trkpt lat="15.07274" lon="-16.92616">
        <ele>52.86</ele>
        <time>2019-12-01T09:10:38.000Z</time>
      </trkpt>
      <trkpt lat="15.07258" lon="-16.92634">
        <ele>52.92</ele>
        <time>2019-12-01T09:10:43.000Z</time>
      </trkpt>
      <trkpt lat="15.07242" lon="-16.92652">
        <ele>52.99</ele>
        <time>2019-12-01T09:10:48.000Z</time>
      </trkpt>
      <trkpt lat="15.07227" lon="-16.9267">
        <ele>53.04</ele>
        <time>2019-12-01T09:10:53.000Z</time>
      </trkpt>
      <trkpt lat="15.07211" lon="-16.92687">
        <ele>53.17</ele>
        <time>2019-12-01T09:10:58.000Z</time>
      </trkpt>
      <trkpt lat="15.07197" lon="-16.92704">
        <ele>53.36</ele>
        <time>2019-12-01T09:11:03.000Z</time>
      </trkpt>
      <trkpt lat="15.07182" lon="-16.92722">
        <ele>53.54</ele>
        <time>2019-12-01T09:11:08.000Z</time>
      </trkpt>
      <trkpt lat="15.07167" lon="-16.92739">
        <ele>53.68</ele>
        <time>2019-12-01T09:11:13.000Z</time>
      </trkpt>
      <trkpt lat="15.07152" lon="-16.92757">
        <ele>53.87</ele>
        <time>2019-12-01T09:11:18.000Z</time>
      </trkpt>
      <trkpt lat="15.07136" lon="-16.92777">
        <ele>54.06</ele>
        <time>2019-12-01T09:11:23.000Z</time>
      </trkpt>
      <trkpt lat="15.07119" lon="-16.92797">
        <ele>54.17</ele>
        <time>2019-12-01T09:11:28.000Z</time>
      </trkpt>
      <trkpt lat="15.07102" lon="-16.92816">
        <ele>54.26</ele>
        <time>2019-12-01T09:11:33.000Z</time>
      </trkpt>
      <trkpt lat="15.07084" lon="-16.92837">
        <ele>54.27</ele>
        <time>2019-12-01T09:11:38.000Z</time>
      </trkpt>
      <trkpt lat="15.07066" lon="-16.92858">
        <ele>54.25</ele>
        <time>2019-12-01T09:11:43.000Z</time>
      </trkpt>
      <trkpt lat="15.07049" lon="-16.92879">
        <ele>54.22</ele>
        <time>2019-12-01T09:11:48.000Z</time>
      </trkpt>
      <trkpt lat="15.07033" lon="-16.92898">
        <ele>54.19</ele>
        <time>2019-12-01T09:11:53.000Z</time>
      </trkpt>
      <trkpt lat="15.07018" lon="-16.92916">
        <ele>54.21</ele>
        <time>2019-12-01T09:11:58.000Z</time>
      </trkpt>
      <trkpt lat="15.07002" lon="-16.92934">
        <ele>54.3</ele>
        <time>2019-12-01T09:12:03.000Z</time>
      </trkpt>
      <trkpt lat="15.06988" lon="-16.92952">
        <ele>54.47</ele>
        <time>2019-12-01T09:12:08.000Z</time>
      </trkpt>
      <trkpt lat="15.06973" lon="-16.92967">
        <ele>54.57</ele>
        <time>2019-12-01T09:12:13.000Z</time>
      </trkpt>
      <trkpt lat="15.06959" lon="-16.92984">
        <ele>54.62</ele>
        <time>2019-12-01T09:12:18.000Z</time>
      </trkpt>
      <trkpt lat="15.06945" lon="-16.93">
        <ele>54.66</ele>
        <time>2019-12-01T09:12:23.000Z</time>
      </trkpt>
      <trkpt lat="15.06931" lon="-16.93017">
        <ele>54.69</ele>
        <time>2019-12-01T09:12:28.000Z</time>
      </trkpt>
      <trkpt lat="15.06916" lon="-16.93035">
        <ele>54.74</ele>
        <time>2019-12-01T09:12:33.000Z</time>
      </trkpt>
      <trkpt lat="15.06898" lon="-16.93056">
        <ele>54.77</ele>
        <time>2019-12-01T09:12:38.000Z</time>
      </trkpt>
      <trkpt lat="15.0688" lon="-16.93077">
        <ele>54.76</ele>
        <time>2019-12-01T09:12:43.000Z</time>
      </trkpt>
      <trkpt lat="15.0686" lon="-16.93101">
        <ele>54.71</ele>
        <time>2019-12-01T09:12:48.000Z</time>
      </trkpt>
      <trkpt lat="15.0684" lon="-16.93126">
        <ele>54.65</ele>
        <time>2019-12-01T09:12:53.000Z</time>
      </trkpt>
      <trkpt lat="15.06819" lon="-16.93151">
        <ele>54.37</ele>
        <time>2019-12-01T09:12:58.000Z</time>
      </trkpt>
      <trkpt lat="15.06796" lon="-16.93177">
        <ele>54.18</ele>
        <time>2019-12-01T09:13:03.000Z</time>
      </trkpt>
      <trkpt lat="15.06774" lon="-16.93202">
        <ele>53.99</ele>
        <time>2019-12-01T09:13:08.000Z</time>
      </trkpt>
      <trkpt lat="15.06752" lon="-16.93227">
        <ele>53.94</ele>
        <time>2019-12-01T09:13:13.000Z</time>
      </trkpt>
      <trkpt lat="15.06731" lon="-16.93252">
        <ele>53.86</ele>
        <time>2019-12-01T09:13:18.000Z</time>
      </trkpt>
      <trkpt lat="15.06712" lon="-16.93275">
        <ele>53.92</ele>
        <time>2019-12-01T09:13:23.000Z</time>
      </trkpt>
      <trkpt lat="15.06694" lon="-16.93296">
        <ele>53.96</ele>
        <time>2019-12-01T09:13:28.000Z</time>
      </trkpt>
      <trkpt lat="15.06675" lon="-16.93316">
        <ele>54.29</ele>
        <time>2019-12-01T09:13:33.000Z</time>
      </trkpt>
      <trkpt lat="15.06659" lon="-16.93336">
        <ele>54.65</ele>
        <time>2019-12-01T09:13:38.000Z</time>
      </trkpt>
      <trkpt lat="15.06643" lon="-16.93355">
        <ele>54.84</ele>
        <time>2019-12-01T09:13:43.000Z</time>
      </trkpt>
      <trkpt lat="15.06628" lon="-16.93373">
        <ele>54.99</ele>
        <time>2019-12-01T09:13:48.000Z</time>
      </trkpt>
      <trkpt lat="15.06613" lon="-16.93391">
        <ele>55.08</ele>
        <time>2019-12-01T09:13:53.000Z</time>
      </trkpt>
      <trkpt lat="15.06597" lon="-16.93409">
        <ele>55.06</ele>
        <time>2019-12-01T09:13:58.000Z</time>
      </trkpt>
      <trkpt lat="15.06582" lon="-16.93426">
        <ele>55.17</ele>
        <time>2019-12-01T09:14:03.000Z</time>
      </trkpt>
      <trkpt lat="15.06567" lon="-16.93443">
        <ele>55.15</ele>
        <time>2019-12-01T09:14:08.000Z</time>
      </trkpt>
      <trkpt lat="15.06552" lon="-16.93461">
        <ele>55.11</ele>
        <time>2019-12-01T09:14:13.000Z</time>
      </trkpt>
      <trkpt lat="15.06535" lon="-16.9348">
        <ele>55.07</ele>
        <time>2019-12-01T09:14:18.000Z</time>
      </trkpt>
      <trkpt lat="15.06518" lon="-16.935">
        <ele>55.07</ele>
        <time>2019-12-01T09:14:23.000Z</time>
      </trkpt>
      <trkpt lat="15.065" lon="-16.93522">
        <ele>54.86</ele>
        <time>2019-12-01T09:14:28.000Z</time>
      </trkpt>
      <trkpt lat="15.06481" lon="-16.93544">
        <ele>54.63</ele>
        <time>2019-12-01T09:14:33.000Z</time>
      </trkpt>
      <trkpt lat="15.06459" lon="-16.93567">
        <ele>54.89</ele>
        <time>2019-12-01T09:14:38.000Z</time>
      </trkpt>
      <trkpt lat="15.06441" lon="-16.9359">
        <ele>54.98</ele>
        <time>2019-12-01T09:14:43.000Z</time>
      </trkpt>
      <trkpt lat="15.06421" lon="-16.93614">
        <ele>54.73</ele>
        <time>2019-12-01T09:14:48.000Z</time>
      </trkpt>
      <trkpt lat="15.06402" lon="-16.93638">
        <ele>54.37</ele>
        <time>2019-12-01T09:14:53.000Z</time>
      </trkpt>
      <trkpt lat="15.06381" lon="-16.93663">
        <ele>54.18</ele>
        <time>2019-12-01T09:14:58.000Z</time>
      </trkpt>
      <trkpt lat="15.0636" lon="-16.93686">
        <ele>54.05</ele>
        <time>2019-12-01T09:15:03.000Z</time>
      </trkpt>
      <trkpt lat="15.0634" lon="-16.9371">
        <ele>53.97</ele>
        <time>2019-12-01T09:15:08.000Z</time>
      </trkpt>
      <trkpt lat="15.06321" lon="-16.93733">
        <ele>53.82</ele>
        <time>2019-12-01T09:15:13.000Z</time>
      </trkpt>
      <trkpt lat="15.06302" lon="-16.93756">
        <ele>53.72</ele>
        <time>2019-12-01T09:15:18.000Z</time>
      </trkpt>
      <trkpt lat="15.06283" lon="-16.93778">
        <ele>53.87</ele>
        <time>2019-12-01T09:15:23.000Z</time>
      </trkpt>
      <trkpt lat="15.06265" lon="-16.93799">
        <ele>54.14</ele>
        <time>2019-12-01T09:15:28.000Z</time>
      </trkpt>
      <trkpt lat="15.06248" lon="-16.93818">
        <ele>54.41</ele>
        <time>2019-12-01T09:15:33.000Z</time>
      </trkpt>
      <trkpt lat="15.06233" lon="-16.93835">
        <ele>54.81</ele>
        <time>2019-12-01T09:15:38.000Z</time>
      </trkpt>
      <trkpt lat="15.06216" lon="-16.93852">
        <ele>55.78</ele>
        <time>2019-12-01T09:15:43.000Z</time>
      </trkpt>
      <trkpt lat="15.06204" lon="-16.93866">
        <ele>56.67</ele>
        <time>2019-12-01T09:15:48.000Z</time>
      </trkpt>
      <trkpt lat="15.0619" lon="-16.93882">
        <ele>57.15</ele>
        <time>2019-12-01T09:15:53.000Z</time>
      </trkpt>
      <trkpt lat="15.06177" lon="-16.93897">
        <ele>57.29</ele>
        <time>2019-12-01T09:15:58.000Z</time>
      </trkpt>
      <trkpt lat="15.06162" lon="-16.93912">
        <ele>57.4</ele>
        <time>2019-12-01T09:16:03.000Z</time>
      </trkpt>
      <trkpt lat="15.06148" lon="-16.93929">
        <ele>57.34</ele>
        <time>2019-12-01T09:16:08.000Z</time>
      </trkpt>
      <trkpt lat="15.06133" lon="-16.93945">
        <ele>57.23</ele>
        <time>2019-12-01T09:16:13.000Z</time>
      </trkpt>
      <trkpt lat="15.06118" lon="-16.93962">
        <ele>57.16</ele>
        <time>2019-12-01T09:16:18.000Z</time>
      </trkpt>
      <trkpt lat="15.06102" lon="-16.93982">
        <ele>57.16</ele>
        <time>2019-12-01T09:16:23.000Z</time>
      </trkpt>
      <trkpt lat="15.06085" lon="-16.94">
        <ele>57.19</ele>
        <time>2019-12-01T09:16:28.000Z</time>
      </trkpt>
      <trkpt lat="15.06067" lon="-16.94021">
        <ele>57.17</ele>
        <time>2019-12-01T09:16:33.000Z</time>
      </trkpt>
      <trkpt lat="15.06049" lon="-16.94041">
        <ele>57.07</ele>
        <time>2019-12-01T09:16:38.000Z</time>
      </trkpt>
      <trkpt lat="15.06031" lon="-16.9406">
        <ele>56.95</ele>
        <time>2019-12-01T09:16:43.000Z</time>
      </trkpt>
      <trkpt lat="15.06014" lon="-16.9408">
        <ele>56.82</ele>
        <time>2019-12-01T09:16:48.000Z</time>
      </trkpt>
      <trkpt lat="15.05996" lon="-16.941">
        <ele>56.7</ele>
        <time>2019-12-01T09:16:53.000Z</time>
      </trkpt>
      <trkpt lat="15.05979" lon="-16.94119">
        <ele>56.65</ele>
        <time>2019-12-01T09:16:58.000Z</time>
      </trkpt>
      <trkpt lat="15.05962" lon="-16.94139">
        <ele>56.65</ele>
        <time>2019-12-01T09:17:03.000Z</time>
      </trkpt>
      <trkpt lat="15.05944" lon="-16.94159">
        <ele>56.59</ele>
        <time>2019-12-01T09:17:08.000Z</time>
      </trkpt>
      <trkpt lat="15.05927" lon="-16.94179">
        <ele>56.48</ele>
        <time>2019-12-01T09:17:13.000Z</time>
      </trkpt>
      <trkpt lat="15.0591" lon="-16.94199">
        <ele>56.52</ele>
        <time>2019-12-01T09:17:18.000Z</time>
      </trkpt>
      <trkpt lat="15.0589" lon="-16.94219">
        <ele>56.97</ele>
        <time>2019-12-01T09:17:23.000Z</time>
      </trkpt>
      <trkpt lat="15.05874" lon="-16.94237">
        <ele>57.14</ele>
        <time>2019-12-01T09:17:28.000Z</time>
      </trkpt>
      <trkpt lat="15.05857" lon="-16.94256">
        <ele>57.17</ele>
        <time>2019-12-01T09:17:33.000Z</time>
      </trkpt>
      <trkpt lat="15.0584" lon="-16.94276">
        <ele>57.08</ele>
        <time>2019-12-01T09:17:38.000Z</time>
      </trkpt>
      <trkpt lat="15.05821" lon="-16.94297">
        <ele>56.87</ele>
        <time>2019-12-01T09:17:43.000Z</time>
      </trkpt>
      <trkpt lat="15.05802" lon="-16.94318">
        <ele>56.65</ele>
        <time>2019-12-01T09:17:48.000Z</time>
      </trkpt>
      <trkpt lat="15.05783" lon="-16.9434">
        <ele>56.43</ele>
        <time>2019-12-01T09:17:53.000Z</time>
      </trkpt>
      <trkpt lat="15.05764" lon="-16.94362">
        <ele>56.16</ele>
        <time>2019-12-01T09:17:58.000Z</time>
      </trkpt>
      <trkpt lat="15.05744" lon="-16.94383">
        <ele>55.91</ele>
        <time>2019-12-01T09:18:03.000Z</time>
      </trkpt>
      <trkpt lat="15.05724" lon="-16.94407">
        <ele>55.78</ele>
        <time>2019-12-01T09:18:08.000Z</time>
      </trkpt>
      <trkpt lat="15.05704" lon="-16.94431">
        <ele>55.57</ele>
        <time>2019-12-01T09:18:13.000Z</time>
      </trkpt>
      <trkpt lat="15.05682" lon="-16.94455">
        <ele>55.41</ele>
        <time>2019-12-01T09:18:18.000Z</time>
      </trkpt>
      <trkpt lat="15.0566" lon="-16.9448">
        <ele>55.42</ele>
        <time>2019-12-01T09:18:23.000Z</time>
      </trkpt>
      <trkpt lat="15.05638" lon="-16.94505">
        <ele>55.27</ele>
        <time>2019-12-01T09:18:28.000Z</time>
      </trkpt>
      <trkpt lat="15.05615" lon="-16.9453">
        <ele>54.93</ele>
        <time>2019-12-01T09:18:33.000Z</time>
      </trkpt>
      <trkpt lat="15.05594" lon="-16.94554">
        <ele>54.49</ele>
        <time>2019-12-01T09:18:38.000Z</time>
      </trkpt>
      <trkpt lat="15.05571" lon="-16.94579">
        <ele>54.31</ele>
        <time>2019-12-01T09:18:43.000Z</time>
      </trkpt>
      <trkpt lat="15.05549" lon="-16.94602">
        <ele>54.23</ele>
        <time>2019-12-01T09:18:48.000Z</time>
      </trkpt>
      <trkpt lat="15.05527" lon="-16.94625">
        <ele>54.28</ele>
        <time>2019-12-01T09:18:53.000Z</time>
      </trkpt>
      <trkpt lat="15.05505" lon="-16.94649">
        <ele>54.31</ele>
        <time>2019-12-01T09:18:58.000Z</time>
      </trkpt>
      <trkpt lat="15.05485" lon="-16.94674">
        <ele>54.27</ele>
        <time>2019-12-01T09:19:03.000Z</time>
      </trkpt>
      <trkpt lat="15.05464" lon="-16.94697">
        <ele>54.35</ele>
        <time>2019-12-01T09:19:08.000Z</time>
      </trkpt>
      <trkpt lat="15.05444" lon="-16.9472">
        <ele>54.02</ele>
        <time>2019-12-01T09:19:13.000Z</time>
      </trkpt>
      <trkpt lat="15.05423" lon="-16.94742">
        <ele>53.7</ele>
        <time>2019-12-01T09:19:18.000Z</time>
      </trkpt>
      <trkpt lat="15.05403" lon="-16.94765">
        <ele>53.54</ele>
        <time>2019-12-01T09:19:23.000Z</time>
      </trkpt>
      <trkpt lat="15.05382" lon="-16.94788">
        <ele>53.27</ele>
        <time>2019-12-01T09:19:28.000Z</time>
      </trkpt>
      <trkpt lat="15.05362" lon="-16.94812">
        <ele>53.08</ele>
        <time>2019-12-01T09:19:33.000Z</time>
      </trkpt>
      <trkpt lat="15.05342" lon="-16.94835">
        <ele>52.9</ele>
        <time>2019-12-01T09:19:38.000Z</time>
      </trkpt>
      <trkpt lat="15.05322" lon="-16.94857">
        <ele>52.79</ele>
        <time>2019-12-01T09:19:43.000Z</time>
      </trkpt>
      <trkpt lat="15.05301" lon="-16.9488">
        <ele>52.62</ele>
        <time>2019-12-01T09:19:48.000Z</time>
      </trkpt>
      <trkpt lat="15.05282" lon="-16.94902">
        <ele>52.2</ele>
        <time>2019-12-01T09:19:53.000Z</time>
      </trkpt>
      <trkpt lat="15.05263" lon="-16.94923">
        <ele>51.83</ele>
        <time>2019-12-01T09:19:58.000Z</time>
      </trkpt>
      <trkpt lat="15.05242" lon="-16.94947">
        <ele>51.68</ele>
        <time>2019-12-01T09:20:03.000Z</time>
      </trkpt>
      <trkpt lat="15.05222" lon="-16.94969">
        <ele>51.53</ele>
        <time>2019-12-01T09:20:08.000Z</time>
      </trkpt>
      <trkpt lat="15.05201" lon="-16.94992">
        <ele>51.32</ele>
        <time>2019-12-01T09:20:12.999Z</time>
      </trkpt>
      <trkpt lat="15.05181" lon="-16.95016">
        <ele>51.33</ele>
        <time>2019-12-01T09:20:17.999Z</time>
      </trkpt>
      <trkpt lat="15.0516" lon="-16.95039">
        <ele>51.16</ele>
        <time>2019-12-01T09:20:22.999Z</time>
      </trkpt>
      <trkpt lat="15.0514" lon="-16.95061">
        <ele>51.06</ele>
        <time>2019-12-01T09:20:27.999Z</time>
      </trkpt>
      <trkpt lat="15.05119" lon="-16.95084">
        <ele>51.09</ele>
        <time>2019-12-01T09:20:32.999Z</time>
      </trkpt>
      <trkpt lat="15.051" lon="-16.95106">
        <ele>51.11</ele>
        <time>2019-12-01T09:20:37.999Z</time>
      </trkpt>
      <trkpt lat="15.05082" lon="-16.95127">
        <ele>51.11</ele>
        <time>2019-12-01T09:20:42.999Z</time>
      </trkpt>
      <trkpt lat="15.05063" lon="-16.95148">
        <ele>51.06</ele>
        <time>2019-12-01T09:20:47.999Z</time>
      </trkpt>
      <trkpt lat="15.05045" lon="-16.95168">
        <ele>51.11</ele>
        <time>2019-12-01T09:20:52.999Z</time>
      </trkpt>
      <trkpt lat="15.05026" lon="-16.95188">
        <ele>51.07</ele>
        <time>2019-12-01T09:20:57.999Z</time>
      </trkpt>
      <trkpt lat="15.05008" lon="-16.95209">
        <ele>51.1</ele>
        <time>2019-12-01T09:21:02.999Z</time>
      </trkpt>
      <trkpt lat="15.04989" lon="-16.9523">
        <ele>51.13</ele>
        <time>2019-12-01T09:21:07.999Z</time>
      </trkpt>
      <trkpt lat="15.0497" lon="-16.95251">
        <ele>51.21</ele>
        <time>2019-12-01T09:21:12.999Z</time>
      </trkpt>
      <trkpt lat="15.04952" lon="-16.95272">
        <ele>51.26</ele>
        <time>2019-12-01T09:21:17.999Z</time>
      </trkpt>
      <trkpt lat="15.04934" lon="-16.95293">
        <ele>51.3</ele>
        <time>2019-12-01T09:21:22.999Z</time>
      </trkpt>
      <trkpt lat="15.04915" lon="-16.95313">
        <ele>51.3</ele>
        <time>2019-12-01T09:21:27.999Z</time>
      </trkpt>
      <trkpt lat="15.04897" lon="-16.95334">
        <ele>51.25</ele>
        <time>2019-12-01T09:21:32.999Z</time>
      </trkpt>
      <trkpt lat="15.0488" lon="-16.95354">
        <ele>51.25</ele>
        <time>2019-12-01T09:21:37.999Z</time>
      </trkpt>
      <trkpt lat="15.04864" lon="-16.95373">
        <ele>51.34</ele>
        <time>2019-12-01T09:21:42.999Z</time>
      </trkpt>
      <trkpt lat="15.04849" lon="-16.95392">
        <ele>51.46</ele>
        <time>2019-12-01T09:21:47.999Z</time>
      </trkpt>
      <trkpt lat="15.04834" lon="-16.95412">
        <ele>51.54</ele>
        <time>2019-12-01T09:21:52.999Z</time>
      </trkpt>
      <trkpt lat="15.04819" lon="-16.95433">
        <ele>51.49</ele>
        <time>2019-12-01T09:21:57.999Z</time>
      </trkpt>
      <trkpt lat="15.04806" lon="-16.95456">
        <ele>51.49</ele>
        <time>2019-12-01T09:22:02.999Z</time>
      </trkpt>
      <trkpt lat="15.04791" lon="-16.95478">
        <ele>51.33</ele>
        <time>2019-12-01T09:22:07.999Z</time>
      </trkpt>
      <trkpt lat="15.04775" lon="-16.95501">
        <ele>51</ele>
        <time>2019-12-01T09:22:12.999Z</time>
      </trkpt>
      <trkpt lat="15.0476" lon="-16.95526">
        <ele>50.56</ele>
        <time>2019-12-01T09:22:17.999Z</time>
      </trkpt>
      <trkpt lat="15.04745" lon="-16.9555">
        <ele>50.18</ele>
        <time>2019-12-01T09:22:22.999Z</time>
      </trkpt>
      <trkpt lat="15.04729" lon="-16.95573">
        <ele>49.82</ele>
        <time>2019-12-01T09:22:27.999Z</time>
      </trkpt>
      <trkpt lat="15.04713" lon="-16.95597">
        <ele>49.44</ele>
        <time>2019-12-01T09:22:32.999Z</time>
      </trkpt>
      <trkpt lat="15.04696" lon="-16.95623">
        <ele>49.33</ele>
        <time>2019-12-01T09:22:37.999Z</time>
      </trkpt>
      <trkpt lat="15.0468" lon="-16.95648">
        <ele>49.38</ele>
        <time>2019-12-01T09:22:42.999Z</time>
      </trkpt>
      <trkpt lat="15.04664" lon="-16.95673">
        <ele>49.38</ele>
        <time>2019-12-01T09:22:47.999Z</time>
      </trkpt>
      <trkpt lat="15.04648" lon="-16.95697">
        <ele>49.44</ele>
        <time>2019-12-01T09:22:52.999Z</time>
      </trkpt>
      <trkpt lat="15.04632" lon="-16.95722">
        <ele>49.63</ele>
        <time>2019-12-01T09:22:57.999Z</time>
      </trkpt>
      <trkpt lat="15.04617" lon="-16.95746">
        <ele>49.79</ele>
        <time>2019-12-01T09:23:02.999Z</time>
      </trkpt>
      <trkpt lat="15.04601" lon="-16.95769">
        <ele>49.83</ele>
        <time>2019-12-01T09:23:07.999Z</time>
      </trkpt>
      <trkpt lat="15.04585" lon="-16.95794">
        <ele>49.71</ele>
        <time>2019-12-01T09:23:12.999Z</time>
      </trkpt>
      <trkpt lat="15.04569" lon="-16.95819">
        <ele>49.61</ele>
        <time>2019-12-01T09:23:17.999Z</time>
      </trkpt>
      <trkpt lat="15.04552" lon="-16.95844">
        <ele>49.52</ele>
        <time>2019-12-01T09:23:22.999Z</time>
      </trkpt>
      <trkpt lat="15.04537" lon="-16.95868">
        <ele>49.41</ele>
        <time>2019-12-01T09:23:27.999Z</time>
      </trkpt>
      <trkpt lat="15.04522" lon="-16.95892">
        <ele>49.19</ele>
        <time>2019-12-01T09:23:32.999Z</time>
      </trkpt>
      <trkpt lat="15.04507" lon="-16.95916">
        <ele>49.06</ele>
        <time>2019-12-01T09:23:37.999Z</time>
      </trkpt>
      <trkpt lat="15.04492" lon="-16.95937">
        <ele>49</ele>
        <time>2019-12-01T09:23:42.999Z</time>
      </trkpt>
      <trkpt lat="15.04476" lon="-16.95961">
        <ele>49</ele>
        <time>2019-12-01T09:23:47.999Z</time>
      </trkpt>
      <trkpt lat="15.0446" lon="-16.95985">
        <ele>48.96</ele>
        <time>2019-12-01T09:23:52.999Z</time>
      </trkpt>
      <trkpt lat="15.04445" lon="-16.96009">
        <ele>48.89</ele>
        <time>2019-12-01T09:23:57.999Z</time>
      </trkpt>
      <trkpt lat="15.0443" lon="-16.96032">
        <ele>48.8</ele>
        <time>2019-12-01T09:24:02.999Z</time>
      </trkpt>
      <trkpt lat="15.04415" lon="-16.96056">
        <ele>48.73</ele>
        <time>2019-12-01T09:24:07.999Z</time>
      </trkpt>
      <trkpt lat="15.04399" lon="-16.9608">
        <ele>48.72</ele>
        <time>2019-12-01T09:24:12.999Z</time>
      </trkpt>
      <trkpt lat="15.04383" lon="-16.96103">
        <ele>48.85</ele>
        <time>2019-12-01T09:24:17.999Z</time>
      </trkpt>
      <trkpt lat="15.04368" lon="-16.96126">
        <ele>48.89</ele>
        <time>2019-12-01T09:24:22.999Z</time>
      </trkpt>
      <trkpt lat="15.04354" lon="-16.96148">
        <ele>48.95</ele>
        <time>2019-12-01T09:24:27.999Z</time>
      </trkpt>
      <trkpt lat="15.0434" lon="-16.9617">
        <ele>49.04</ele>
        <time>2019-12-01T09:24:32.999Z</time>
      </trkpt>
      <trkpt lat="15.04326" lon="-16.96189">
        <ele>49.07</ele>
        <time>2019-12-01T09:24:37.999Z</time>
      </trkpt>
      <trkpt lat="15.04314" lon="-16.96209">
        <ele>49.16</ele>
        <time>2019-12-01T09:24:42.999Z</time>
      </trkpt>
      <trkpt lat="15.04301" lon="-16.96228">
        <ele>49.16</ele>
        <time>2019-12-01T09:24:47.999Z</time>
      </trkpt>
      <trkpt lat="15.04288" lon="-16.96248">
        <ele>49.2</ele>
        <time>2019-12-01T09:24:52.999Z</time>
      </trkpt>
      <trkpt lat="15.04275" lon="-16.96267">
        <ele>49.23</ele>
        <time>2019-12-01T09:24:57.999Z</time>
      </trkpt>
      <trkpt lat="15.04262" lon="-16.96287">
        <ele>49.16</ele>
        <time>2019-12-01T09:25:02.999Z</time>
      </trkpt>
      <trkpt lat="15.04248" lon="-16.96309">
        <ele>49.09</ele>
        <time>2019-12-01T09:25:07.999Z</time>
      </trkpt>
      <trkpt lat="15.04235" lon="-16.96331">
        <ele>48.98</ele>
        <time>2019-12-01T09:25:12.999Z</time>
      </trkpt>
      <trkpt lat="15.04219" lon="-16.96354">
        <ele>48.86</ele>
        <time>2019-12-01T09:25:17.999Z</time>
      </trkpt>
      <trkpt lat="15.04205" lon="-16.96377">
        <ele>48.81</ele>
        <time>2019-12-01T09:25:22.999Z</time>
      </trkpt>
      <trkpt lat="15.0419" lon="-16.96398">
        <ele>48.92</ele>
        <time>2019-12-01T09:25:27.999Z</time>
      </trkpt>
      <trkpt lat="15.04176" lon="-16.9642">
        <ele>48.83</ele>
        <time>2019-12-01T09:25:32.999Z</time>
      </trkpt>
      <trkpt lat="15.04161" lon="-16.96445">
        <ele>48.74</ele>
        <time>2019-12-01T09:25:37.999Z</time>
      </trkpt>
      <trkpt lat="15.04146" lon="-16.96468">
        <ele>48.73</ele>
        <time>2019-12-01T09:25:42.999Z</time>
      </trkpt>
      <trkpt lat="15.04132" lon="-16.96491">
        <ele>48.67</ele>
        <time>2019-12-01T09:25:47.999Z</time>
      </trkpt>
      <trkpt lat="15.04118" lon="-16.96512">
        <ele>48.58</ele>
        <time>2019-12-01T09:25:52.999Z</time>
      </trkpt>
      <trkpt lat="15.04102" lon="-16.96534">
        <ele>48.5</ele>
        <time>2019-12-01T09:25:57.999Z</time>
      </trkpt>
      <trkpt lat="15.04087" lon="-16.96557">
        <ele>48.42</ele>
        <time>2019-12-01T09:26:02.999Z</time>
      </trkpt>
      <trkpt lat="15.04071" lon="-16.96579">
        <ele>48.28</ele>
        <time>2019-12-01T09:26:07.999Z</time>
      </trkpt>
      <trkpt lat="15.04057" lon="-16.96605">
        <ele>48.09</ele>
        <time>2019-12-01T09:26:12.999Z</time>
      </trkpt>
      <trkpt lat="15.04043" lon="-16.9663">
        <ele>47.89</ele>
        <time>2019-12-01T09:26:17.999Z</time>
      </trkpt>
      <trkpt lat="15.04028" lon="-16.96653">
        <ele>47.71</ele>
        <time>2019-12-01T09:26:22.999Z</time>
      </trkpt>
      <trkpt lat="15.04014" lon="-16.96675">
        <ele>47.57</ele>
        <time>2019-12-01T09:26:27.999Z</time>
      </trkpt>
      <trkpt lat="15.04" lon="-16.96695">
        <ele>47.48</ele>
        <time>2019-12-01T09:26:32.999Z</time>
      </trkpt>
      <trkpt lat="15.03987" lon="-16.96716">
        <ele>47.43</ele>
        <time>2019-12-01T09:26:37.999Z</time>
      </trkpt>
      <trkpt lat="15.03973" lon="-16.96736">
        <ele>47.39</ele>
        <time>2019-12-01T09:26:42.999Z</time>
      </trkpt>
      <trkpt lat="15.03959" lon="-16.96756">
        <ele>47.35</ele>
        <time>2019-12-01T09:26:47.999Z</time>
      </trkpt>
      <trkpt lat="15.03945" lon="-16.96776">
        <ele>47.33</ele>
        <time>2019-12-01T09:26:52.999Z</time>
      </trkpt>
      <trkpt lat="15.03929" lon="-16.96794">
        <ele>47.3</ele>
        <time>2019-12-01T09:26:57.999Z</time>
      </trkpt>
      <trkpt lat="15.03914" lon="-16.96814">
        <ele>47.29</ele>
        <time>2019-12-01T09:27:02.999Z</time>
      </trkpt>
      <trkpt lat="15.03899" lon="-16.96833">
        <ele>47.24</ele>
        <time>2019-12-01T09:27:07.999Z</time>
      </trkpt>
      <trkpt lat="15.03884" lon="-16.96852">
        <ele>47.19</ele>
        <time>2019-12-01T09:27:12.999Z</time>
      </trkpt>
      <trkpt lat="15.0387" lon="-16.9687">
        <ele>47.1</ele>
        <time>2019-12-01T09:27:17.999Z</time>
      </trkpt>
      <trkpt lat="15.03855" lon="-16.96889">
        <ele>47.02</ele>
        <time>2019-12-01T09:27:22.999Z</time>
      </trkpt>
      <trkpt lat="15.03841" lon="-16.96908">
        <ele>46.96</ele>
        <time>2019-12-01T09:27:27.999Z</time>
      </trkpt>
      <trkpt lat="15.03826" lon="-16.96927">
        <ele>46.95</ele>
        <time>2019-12-01T09:27:32.999Z</time>
      </trkpt>
      <trkpt lat="15.03811" lon="-16.96945">
        <ele>46.92</ele>
        <time>2019-12-01T09:27:37.999Z</time>
      </trkpt>
      <trkpt lat="15.03795" lon="-16.96964">
        <ele>46.9</ele>
        <time>2019-12-01T09:27:42.999Z</time>
      </trkpt>
      <trkpt lat="15.0378" lon="-16.96983">
        <ele>46.9</ele>
        <time>2019-12-01T09:27:47.999Z</time>
      </trkpt>
      <trkpt lat="15.03765" lon="-16.97002">
        <ele>46.96</ele>
        <time>2019-12-01T09:27:52.999Z</time>
      </trkpt>
      <trkpt lat="15.0375" lon="-16.97021">
        <ele>47.02</ele>
        <time>2019-12-01T09:27:57.999Z</time>
      </trkpt>
      <trkpt lat="15.03735" lon="-16.9704">
        <ele>47.07</ele>
        <time>2019-12-01T09:28:02.999Z</time>
      </trkpt>
      <trkpt lat="15.03721" lon="-16.97059">
        <ele>47.11</ele>
        <time>2019-12-01T09:28:07.999Z</time>
      </trkpt>
      <trkpt lat="15.03706" lon="-16.97077">
        <ele>47.13</ele>
        <time>2019-12-01T09:28:12.999Z</time>
      </trkpt>
      <trkpt lat="15.03691" lon="-16.97096">
        <ele>47.17</ele>
        <time>2019-12-01T09:28:17.999Z</time>
      </trkpt>
      <trkpt lat="15.03677" lon="-16.97113">
        <ele>47.22</ele>
        <time>2019-12-01T09:28:22.999Z</time>
      </trkpt>
      <trkpt lat="15.03664" lon="-16.97131">
        <ele>47.28</ele>
        <time>2019-12-01T09:28:27.999Z</time>
      </trkpt>
      <trkpt lat="15.03651" lon="-16.97147">
        <ele>47.39</ele>
        <time>2019-12-01T09:28:32.999Z</time>
      </trkpt>
      <trkpt lat="15.03639" lon="-16.97162">
        <ele>47.52</ele>
        <time>2019-12-01T09:28:37.999Z</time>
      </trkpt>
      <trkpt lat="15.03627" lon="-16.97178">
        <ele>47.62</ele>
        <time>2019-12-01T09:28:42.999Z</time>
      </trkpt>
      <trkpt lat="15.03614" lon="-16.97194">
        <ele>47.7</ele>
        <time>2019-12-01T09:28:47.999Z</time>
      </trkpt>
      <trkpt lat="15.03601" lon="-16.9721">
        <ele>47.76</ele>
        <time>2019-12-01T09:28:52.999Z</time>
      </trkpt>
      <trkpt lat="15.03588" lon="-16.97228">
        <ele>47.8</ele>
        <time>2019-12-01T09:28:57.999Z</time>
      </trkpt>
      <trkpt lat="15.03573" lon="-16.97247">
        <ele>47.83</ele>
        <time>2019-12-01T09:29:02.999Z</time>
      </trkpt>
      <trkpt lat="15.03558" lon="-16.97266">
        <ele>47.82</ele>
        <time>2019-12-01T09:29:07.999Z</time>
      </trkpt>
      <trkpt lat="15.03542" lon="-16.97287">
        <ele>47.82</ele>
        <time>2019-12-01T09:29:12.999Z</time>
      </trkpt>
      <trkpt lat="15.03525" lon="-16.97309">
        <ele>47.79</ele>
        <time>2019-12-01T09:29:17.999Z</time>
      </trkpt>
      <trkpt lat="15.03506" lon="-16.97332">
        <ele>47.75</ele>
        <time>2019-12-01T09:29:22.999Z</time>
      </trkpt>
      <trkpt lat="15.03488" lon="-16.97356">
        <ele>47.7</ele>
        <time>2019-12-01T09:29:27.999Z</time>
      </trkpt>
      <trkpt lat="15.03468" lon="-16.9738">
        <ele>47.63</ele>
        <time>2019-12-01T09:29:32.999Z</time>
      </trkpt>
      <trkpt lat="15.03447" lon="-16.97405">
        <ele>47.58</ele>
        <time>2019-12-01T09:29:37.999Z</time>
      </trkpt>
      <trkpt lat="15.03427" lon="-16.97431">
        <ele>47.51</ele>
        <time>2019-12-01T09:29:42.999Z</time>
      </trkpt>
      <trkpt lat="15.03406" lon="-16.97457">
        <ele>47.42</ele>
        <time>2019-12-01T09:29:47.999Z</time>
      </trkpt>
      <trkpt lat="15.03386" lon="-16.97481">
        <ele>47.55</ele>
        <time>2019-12-01T09:29:52.999Z</time>
      </trkpt>
      <trkpt lat="15.03368" lon="-16.97505">
        <ele>47.26</ele>
        <time>2019-12-01T09:29:57.999Z</time>
      </trkpt>
      <trkpt lat="15.0335" lon="-16.97528">
        <ele>46.95</ele>
        <time>2019-12-01T09:30:02.999Z</time>
      </trkpt>
      <trkpt lat="15.03333" lon="-16.9755">
        <ele>46.95</ele>
        <time>2019-12-01T09:30:07.999Z</time>
      </trkpt>
      <trkpt lat="15.03316" lon="-16.97571">
        <ele>47.22</ele>
        <time>2019-12-01T09:30:12.999Z</time>
      </trkpt>
      <trkpt lat="15.03299" lon="-16.97591">
        <ele>47.33</ele>
        <time>2019-12-01T09:30:17.999Z</time>
      </trkpt>
      <trkpt lat="15.03281" lon="-16.97611">
        <ele>47.22</ele>
        <time>2019-12-01T09:30:22.999Z</time>
      </trkpt>
      <trkpt lat="15.03263" lon="-16.97631">
        <ele>47.34</ele>
        <time>2019-12-01T09:30:27.999Z</time>
      </trkpt>
      <trkpt lat="15.03243" lon="-16.9765">
        <ele>47.38</ele>
        <time>2019-12-01T09:30:32.999Z</time>
      </trkpt>
      <trkpt lat="15.03221" lon="-16.97671">
        <ele>47.26</ele>
        <time>2019-12-01T09:30:37.999Z</time>
      </trkpt>
      <trkpt lat="15.03198" lon="-16.97691">
        <ele>47</ele>
        <time>2019-12-01T09:30:42.999Z</time>
      </trkpt>
      <trkpt lat="15.03173" lon="-16.97711">
        <ele>46.92</ele>
        <time>2019-12-01T09:30:47.999Z</time>
      </trkpt>
      <trkpt lat="15.03148" lon="-16.97731">
        <ele>47.24</ele>
        <time>2019-12-01T09:30:52.999Z</time>
      </trkpt>
      <trkpt lat="15.03122" lon="-16.97749">
        <ele>47.68</ele>
        <time>2019-12-01T09:30:57.999Z</time>
      </trkpt>
      <trkpt lat="15.03094" lon="-16.97766">
        <ele>48.18</ele>
        <time>2019-12-01T09:31:02.999Z</time>
      </trkpt>
      <trkpt lat="15.03067" lon="-16.97783">
        <ele>48.81</ele>
        <time>2019-12-01T09:31:07.999Z</time>
      </trkpt>
      <trkpt lat="15.03041" lon="-16.97799">
        <ele>49.58</ele>
        <time>2019-12-01T09:31:12.999Z</time>
      </trkpt>
      <trkpt lat="15.03013" lon="-16.97815">
        <ele>50.25</ele>
        <time>2019-12-01T09:31:17.999Z</time>
      </trkpt>
      <trkpt lat="15.02986" lon="-16.97833">
        <ele>50.55</ele>
        <time>2019-12-01T09:31:22.999Z</time>
      </trkpt>
      <trkpt lat="15.02958" lon="-16.9785">
        <ele>50.46</ele>
        <time>2019-12-01T09:31:27.999Z</time>
      </trkpt>
      <trkpt lat="15.0293" lon="-16.97868">
        <ele>50.06</ele>
        <time>2019-12-01T09:31:32.999Z</time>
      </trkpt>
      <trkpt lat="15.02901" lon="-16.97886">
        <ele>49.67</ele>
        <time>2019-12-01T09:31:37.999Z</time>
      </trkpt>
      <trkpt lat="15.02871" lon="-16.97905">
        <ele>49.5</ele>
        <time>2019-12-01T09:31:42.999Z</time>
      </trkpt>
      <trkpt lat="15.02839" lon="-16.97924">
        <ele>49.1</ele>
        <time>2019-12-01T09:31:47.999Z</time>
      </trkpt>
      <trkpt lat="15.02808" lon="-16.97943">
        <ele>48.66</ele>
        <time>2019-12-01T09:31:52.999Z</time>
      </trkpt>
      <trkpt lat="15.02776" lon="-16.97962">
        <ele>48.22</ele>
        <time>2019-12-01T09:31:57.999Z</time>
      </trkpt>
      <trkpt lat="15.02746" lon="-16.97981">
        <ele>48.62</ele>
        <time>2019-12-01T09:32:02.999Z</time>
      </trkpt>
      <trkpt lat="15.02715" lon="-16.98001">
        <ele>49.01</ele>
        <time>2019-12-01T09:32:07.999Z</time>
      </trkpt>
      <trkpt lat="15.02685" lon="-16.9802">
        <ele>49.56</ele>
        <time>2019-12-01T09:32:12.999Z</time>
      </trkpt>
      <trkpt lat="15.02656" lon="-16.98038">
        <ele>50.25</ele>
        <time>2019-12-01T09:32:17.999Z</time>
      </trkpt>
      <trkpt lat="15.02627" lon="-16.98056">
        <ele>50.9</ele>
        <time>2019-12-01T09:32:22.999Z</time>
      </trkpt>
      <trkpt lat="15.02598" lon="-16.98074">
        <ele>51.55</ele>
        <time>2019-12-01T09:32:27.999Z</time>
      </trkpt>
      <trkpt lat="15.02568" lon="-16.98092">
        <ele>52.27</ele>
        <time>2019-12-01T09:32:32.999Z</time>
      </trkpt>
      <trkpt lat="15.02538" lon="-16.98111">
        <ele>52.96</ele>
        <time>2019-12-01T09:32:37.999Z</time>
      </trkpt>
      <trkpt lat="15.02508" lon="-16.9813">
        <ele>53.61</ele>
        <time>2019-12-01T09:32:42.999Z</time>
      </trkpt>
      <trkpt lat="15.02478" lon="-16.98148">
        <ele>53.63</ele>
        <time>2019-12-01T09:32:47.999Z</time>
      </trkpt>
      <trkpt lat="15.02448" lon="-16.98166">
        <ele>53.87</ele>
        <time>2019-12-01T09:32:52.999Z</time>
      </trkpt>
      <trkpt lat="15.02418" lon="-16.98184">
        <ele>53.77</ele>
        <time>2019-12-01T09:32:57.999Z</time>
      </trkpt>
      <trkpt lat="15.02387" lon="-16.98203">
        <ele>53.69</ele>
        <time>2019-12-01T09:33:02.999Z</time>
      </trkpt>
      <trkpt lat="15.02357" lon="-16.98222">
        <ele>53.93</ele>
        <time>2019-12-01T09:33:07.999Z</time>
      </trkpt>
      <trkpt lat="15.02327" lon="-16.9824">
        <ele>54.23</ele>
        <time>2019-12-01T09:33:12.999Z</time>
      </trkpt>
      <trkpt lat="15.02298" lon="-16.98258">
        <ele>54.56</ele>
        <time>2019-12-01T09:33:17.999Z</time>
      </trkpt>
      <trkpt lat="15.0227" lon="-16.98275">
        <ele>54.84</ele>
        <time>2019-12-01T09:33:22.999Z</time>
      </trkpt>
      <trkpt lat="15.02242" lon="-16.98293">
        <ele>54.76</ele>
        <time>2019-12-01T09:33:27.999Z</time>
      </trkpt>
      <trkpt lat="15.02214" lon="-16.98311">
        <ele>54.86</ele>
        <time>2019-12-01T09:33:32.999Z</time>
      </trkpt>
      <trkpt lat="15.02187" lon="-16.98328">
        <ele>54.85</ele>
        <time>2019-12-01T09:33:37.999Z</time>
      </trkpt>
      <trkpt lat="15.02158" lon="-16.98345">
        <ele>54.82</ele>
        <time>2019-12-01T09:33:42.999Z</time>
      </trkpt>
      <trkpt lat="15.02131" lon="-16.98363">
        <ele>54.81</ele>
        <time>2019-12-01T09:33:47.999Z</time>
      </trkpt>
      <trkpt lat="15.02102" lon="-16.9838">
        <ele>54.82</ele>
        <time>2019-12-01T09:33:52.999Z</time>
      </trkpt>
      <trkpt lat="15.02073" lon="-16.98397">
        <ele>54.88</ele>
        <time>2019-12-01T09:33:57.999Z</time>
      </trkpt>
      <trkpt lat="15.02044" lon="-16.98413">
        <ele>55.12</ele>
        <time>2019-12-01T09:34:02.999Z</time>
      </trkpt>
      <trkpt lat="15.02017" lon="-16.9843">
        <ele>55.66</ele>
        <time>2019-12-01T09:34:07.999Z</time>
      </trkpt>
      <trkpt lat="15.0199" lon="-16.98446">
        <ele>56.02</ele>
        <time>2019-12-01T09:34:12.999Z</time>
      </trkpt>
      <trkpt lat="15.01966" lon="-16.98462">
        <ele>56.04</ele>
        <time>2019-12-01T09:34:17.999Z</time>
      </trkpt>
      <trkpt lat="15.01948" lon="-16.98473">
        <ele>55.85</ele>
        <time>2019-12-01T09:34:22.000Z</time>
      </trkpt>
      <trkpt lat="15.01927" lon="-16.98487">
        <ele>55.75</ele>
        <time>2019-12-01T09:34:27.000Z</time>
      </trkpt>
      <trkpt lat="15.01904" lon="-16.98501">
        <ele>55.79</ele>
        <time>2019-12-01T09:34:32.000Z</time>
      </trkpt>
      <trkpt lat="15.0188" lon="-16.98515">
        <ele>55.66</ele>
        <time>2019-12-01T09:34:37.000Z</time>
      </trkpt>
      <trkpt lat="15.01854" lon="-16.98531">
        <ele>55.41</ele>
        <time>2019-12-01T09:34:42.000Z</time>
      </trkpt>
      <trkpt lat="15.01826" lon="-16.98549">
        <ele>55.12</ele>
        <time>2019-12-01T09:34:47.000Z</time>
      </trkpt>
      <trkpt lat="15.01797" lon="-16.98567">
        <ele>54.97</ele>
        <time>2019-12-01T09:34:52.000Z</time>
      </trkpt>
      <trkpt lat="15.01767" lon="-16.98584">
        <ele>54.92</ele>
        <time>2019-12-01T09:34:57.000Z</time>
      </trkpt>
      <trkpt lat="15.01739" lon="-16.98602">
        <ele>54.97</ele>
        <time>2019-12-01T09:35:02.000Z</time>
      </trkpt>
      <trkpt lat="15.01713" lon="-16.98619">
        <ele>55.1</ele>
        <time>2019-12-01T09:35:07.000Z</time>
      </trkpt>
      <trkpt lat="15.01691" lon="-16.98633">
        <ele>55.4</ele>
        <time>2019-12-01T09:35:12.000Z</time>
      </trkpt>
      <trkpt lat="15.01668" lon="-16.98647">
        <ele>55.71</ele>
        <time>2019-12-01T09:35:17.000Z</time>
      </trkpt>
      <trkpt lat="15.01647" lon="-16.9866">
        <ele>55.89</ele>
        <time>2019-12-01T09:35:22.000Z</time>
      </trkpt>
      <trkpt lat="15.01626" lon="-16.98674">
        <ele>55.93</ele>
        <time>2019-12-01T09:35:27.000Z</time>
      </trkpt>
      <trkpt lat="15.01605" lon="-16.98688">
        <ele>55.97</ele>
        <time>2019-12-01T09:35:32.000Z</time>
      </trkpt>
      <trkpt lat="15.01584" lon="-16.987">
        <ele>55.88</ele>
        <time>2019-12-01T09:35:37.000Z</time>
      </trkpt>
      <trkpt lat="15.01564" lon="-16.98712">
        <ele>55.78</ele>
        <time>2019-12-01T09:35:42.000Z</time>
      </trkpt>
      <trkpt lat="15.01544" lon="-16.98725">
        <ele>55.62</ele>
        <time>2019-12-01T09:35:47.000Z</time>
      </trkpt>
      <trkpt lat="15.01523" lon="-16.98738">
        <ele>55.51</ele>
        <time>2019-12-01T09:35:52.000Z</time>
      </trkpt>
      <trkpt lat="15.01501" lon="-16.98751">
        <ele>55.68</ele>
        <time>2019-12-01T09:35:57.000Z</time>
      </trkpt>
      <trkpt lat="15.01479" lon="-16.98764">
        <ele>55.94</ele>
        <time>2019-12-01T09:36:02.000Z</time>
      </trkpt>
      <trkpt lat="15.01456" lon="-16.98779">
        <ele>56.08</ele>
        <time>2019-12-01T09:36:07.000Z</time>
      </trkpt>
      <trkpt lat="15.01431" lon="-16.98794">
        <ele>56.27</ele>
        <time>2019-12-01T09:36:12.000Z</time>
      </trkpt>
      <trkpt lat="15.01404" lon="-16.9881">
        <ele>56.27</ele>
        <time>2019-12-01T09:36:17.000Z</time>
      </trkpt>
      <trkpt lat="15.01374" lon="-16.98828">
        <ele>56.04</ele>
        <time>2019-12-01T09:36:22.000Z</time>
      </trkpt>
      <trkpt lat="15.01344" lon="-16.98846">
        <ele>55.95</ele>
        <time>2019-12-01T09:36:27.000Z</time>
      </trkpt>
      <trkpt lat="15.01315" lon="-16.98866">
        <ele>55.99</ele>
        <time>2019-12-01T09:36:32.000Z</time>
      </trkpt>
      <trkpt lat="15.01287" lon="-16.98884">
        <ele>56.04</ele>
        <time>2019-12-01T09:36:37.000Z</time>
      </trkpt>
      <trkpt lat="15.01257" lon="-16.989">
        <ele>56.07</ele>
        <time>2019-12-01T09:36:42.000Z</time>
      </trkpt>
      <trkpt lat="15.01226" lon="-16.98916">
        <ele>55.95</ele>
        <time>2019-12-01T09:36:47.000Z</time>
      </trkpt>
      <trkpt lat="15.01193" lon="-16.9893">
        <ele>55.75</ele>
        <time>2019-12-01T09:36:52.000Z</time>
      </trkpt>
      <trkpt lat="15.01156" lon="-16.98943">
        <ele>55.59</ele>
        <time>2019-12-01T09:36:57.000Z</time>
      </trkpt>
      <trkpt lat="15.01116" lon="-16.98956">
        <ele>55.22</ele>
        <time>2019-12-01T09:37:02.000Z</time>
      </trkpt>
      <trkpt lat="15.01074" lon="-16.98967">
        <ele>54.99</ele>
        <time>2019-12-01T09:37:07.000Z</time>
      </trkpt>
      <trkpt lat="15.01032" lon="-16.98977">
        <ele>54.67</ele>
        <time>2019-12-01T09:37:12.000Z</time>
      </trkpt>
      <trkpt lat="15.00991" lon="-16.98983">
        <ele>54.62</ele>
        <time>2019-12-01T09:37:17.000Z</time>
      </trkpt>
      <trkpt lat="15.00952" lon="-16.98986">
        <ele>54.58</ele>
        <time>2019-12-01T09:37:22.000Z</time>
      </trkpt>
      <trkpt lat="15.00915" lon="-16.98988">
        <ele>54.38</ele>
        <time>2019-12-01T09:37:27.000Z</time>
      </trkpt>
      <trkpt lat="15.0088" lon="-16.98991">
        <ele>54.16</ele>
        <time>2019-12-01T09:37:32.000Z</time>
      </trkpt>
      <trkpt lat="15.00846" lon="-16.98993">
        <ele>53.84</ele>
        <time>2019-12-01T09:37:37.000Z</time>
      </trkpt>
      <trkpt lat="15.00813" lon="-16.98995">
        <ele>53.54</ele>
        <time>2019-12-01T09:37:42.000Z</time>
      </trkpt>
      <trkpt lat="15.00781" lon="-16.98996">
        <ele>53.39</ele>
        <time>2019-12-01T09:37:47.000Z</time>
      </trkpt>
      <trkpt lat="15.00751" lon="-16.98997">
        <ele>53.33</ele>
        <time>2019-12-01T09:37:52.000Z</time>
      </trkpt>
      <trkpt lat="15.00721" lon="-16.98998">
        <ele>53.17</ele>
        <time>2019-12-01T09:37:57.000Z</time>
      </trkpt>
      <trkpt lat="15.00694" lon="-16.98999">
        <ele>53.16</ele>
        <time>2019-12-01T09:38:02.000Z</time>
      </trkpt>
      <trkpt lat="15.00666" lon="-16.99001">
        <ele>53.19</ele>
        <time>2019-12-01T09:38:07.000Z</time>
      </trkpt>
      <trkpt lat="15.00639" lon="-16.99002">
        <ele>53.01</ele>
        <time>2019-12-01T09:38:12.000Z</time>
      </trkpt>
      <trkpt lat="15.00613" lon="-16.99003">
        <ele>52.82</ele>
        <time>2019-12-01T09:38:17.000Z</time>
      </trkpt>
      <trkpt lat="15.00589" lon="-16.99004">
        <ele>52.77</ele>
        <time>2019-12-01T09:38:22.000Z</time>
      </trkpt>
      <trkpt lat="15.00564" lon="-16.99006">
        <ele>52.78</ele>
        <time>2019-12-01T09:38:27.000Z</time>
      </trkpt>
      <trkpt lat="15.00539" lon="-16.99008">
        <ele>52.81</ele>
        <time>2019-12-01T09:38:32.000Z</time>
      </trkpt>
      <trkpt lat="15.00514" lon="-16.99011">
        <ele>52.91</ele>
        <time>2019-12-01T09:38:37.000Z</time>
      </trkpt>
      <trkpt lat="15.0049" lon="-16.99014">
        <ele>53</ele>
        <time>2019-12-01T09:38:42.000Z</time>
      </trkpt>
      <trkpt lat="15.00468" lon="-16.99018">
        <ele>53.13</ele>
        <time>2019-12-01T09:38:47.000Z</time>
      </trkpt>
      <trkpt lat="15.00447" lon="-16.99022">
        <ele>53.53</ele>
        <time>2019-12-01T09:38:52.000Z</time>
      </trkpt>
      <trkpt lat="15.00426" lon="-16.99028">
        <ele>53.96</ele>
        <time>2019-12-01T09:38:57.000Z</time>
      </trkpt>
      <trkpt lat="15.00407" lon="-16.99035">
        <ele>54.06</ele>
        <time>2019-12-01T09:39:02.000Z</time>
      </trkpt>
      <trkpt lat="15.0039" lon="-16.99043">
        <ele>54.12</ele>
        <time>2019-12-01T09:39:07.000Z</time>
      </trkpt>
      <trkpt lat="15.00374" lon="-16.9905">
        <ele>54.16</ele>
        <time>2019-12-01T09:39:12.000Z</time>
      </trkpt>
      <trkpt lat="15.00358" lon="-16.9906">
        <ele>54.23</ele>
        <time>2019-12-01T09:39:17.000Z</time>
      </trkpt>
      <trkpt lat="15.00342" lon="-16.9907">
        <ele>54.28</ele>
        <time>2019-12-01T09:39:22.000Z</time>
      </trkpt>
      <trkpt lat="15.00326" lon="-16.99081">
        <ele>54.27</ele>
        <time>2019-12-01T09:39:27.000Z</time>
      </trkpt>
      <trkpt lat="15.00312" lon="-16.99091">
        <ele>54.22</ele>
        <time>2019-12-01T09:39:32.000Z</time>
      </trkpt>
      <trkpt lat="15.00299" lon="-16.99102">
        <ele>54.17</ele>
        <time>2019-12-01T09:39:37.000Z</time>
      </trkpt>
      <trkpt lat="15.00287" lon="-16.99113">
        <ele>54.15</ele>
        <time>2019-12-01T09:39:42.000Z</time>
      </trkpt>
      <trkpt lat="15.00274" lon="-16.99124">
        <ele>54.17</ele>
        <time>2019-12-01T09:39:47.000Z</time>
      </trkpt>
      <trkpt lat="15.00264" lon="-16.99135">
        <ele>54.21</ele>
        <time>2019-12-01T09:39:52.000Z</time>
      </trkpt>
      <trkpt lat="15.00252" lon="-16.99145">
        <ele>54.27</ele>
        <time>2019-12-01T09:39:57.000Z</time>
      </trkpt>
      <trkpt lat="15.00241" lon="-16.99157">
        <ele>54.33</ele>
        <time>2019-12-01T09:40:02.000Z</time>
      </trkpt>
      <trkpt lat="15.0023" lon="-16.99168">
        <ele>54.43</ele>
        <time>2019-12-01T09:40:07.000Z</time>
      </trkpt>
      <trkpt lat="15.0022" lon="-16.9918">
        <ele>54.57</ele>
        <time>2019-12-01T09:40:12.000Z</time>
      </trkpt>
      <trkpt lat="15.00211" lon="-16.99193">
        <ele>54.72</ele>
        <time>2019-12-01T09:40:17.000Z</time>
      </trkpt>
      <trkpt lat="15.002" lon="-16.99207">
        <ele>54.91</ele>
        <time>2019-12-01T09:40:22.000Z</time>
      </trkpt>
      <trkpt lat="15.00189" lon="-16.99221">
        <ele>55.12</ele>
        <time>2019-12-01T09:40:27.000Z</time>
      </trkpt>
      <trkpt lat="15.00178" lon="-16.99236">
        <ele>55.99</ele>
        <time>2019-12-01T09:40:32.000Z</time>
      </trkpt>
      <trkpt lat="15.00167" lon="-16.99253">
        <ele>57.18</ele>
        <time>2019-12-01T09:40:37.000Z</time>
      </trkpt>
      <trkpt lat="15.00156" lon="-16.99272">
        <ele>57.8</ele>
        <time>2019-12-01T09:40:42.000Z</time>
      </trkpt>
      <trkpt lat="15.00145" lon="-16.99291">
        <ele>58.27</ele>
        <time>2019-12-01T09:40:47.000Z</time>
      </trkpt>
      <trkpt lat="15.00133" lon="-16.99309">
        <ele>58.5</ele>
        <time>2019-12-01T09:40:52.000Z</time>
      </trkpt>
      <trkpt lat="15.00122" lon="-16.99329">
        <ele>58.47</ele>
        <time>2019-12-01T09:40:57.000Z</time>
      </trkpt>
      <trkpt lat="15.0011" lon="-16.99348">
        <ele>58.43</ele>
        <time>2019-12-01T09:41:02.000Z</time>
      </trkpt>
      <trkpt lat="15.00098" lon="-16.99368">
        <ele>58.19</ele>
        <time>2019-12-01T09:41:07.000Z</time>
      </trkpt>
      <trkpt lat="15.00086" lon="-16.99387">
        <ele>57.89</ele>
        <time>2019-12-01T09:41:12.000Z</time>
      </trkpt>
      <trkpt lat="15.00074" lon="-16.99407">
        <ele>57.63</ele>
        <time>2019-12-01T09:41:17.000Z</time>
      </trkpt>
      <trkpt lat="15.00061" lon="-16.99428">
        <ele>57.52</ele>
        <time>2019-12-01T09:41:22.000Z</time>
      </trkpt>
      <trkpt lat="15.00049" lon="-16.99447">
        <ele>57.56</ele>
        <time>2019-12-01T09:41:27.000Z</time>
      </trkpt>
      <trkpt lat="15.00036" lon="-16.99468">
        <ele>57.7</ele>
        <time>2019-12-01T09:41:32.000Z</time>
      </trkpt>
      <trkpt lat="15.00022" lon="-16.99488">
        <ele>57.79</ele>
        <time>2019-12-01T09:41:37.000Z</time>
      </trkpt>
      <trkpt lat="15.0001" lon="-16.99508">
        <ele>57.85</ele>
        <time>2019-12-01T09:41:42.000Z</time>
      </trkpt>
      <trkpt lat="14.99999" lon="-16.99527">
        <ele>57.93</ele>
        <time>2019-12-01T09:41:47.000Z</time>
      </trkpt>
      <trkpt lat="14.99988" lon="-16.99545">
        <ele>58.2</ele>
        <time>2019-12-01T09:41:52.000Z</time>
      </trkpt>
      <trkpt lat="14.99977" lon="-16.99562">
        <ele>58.46</ele>
        <time>2019-12-01T09:41:57.000Z</time>
      </trkpt>
      <trkpt lat="14.99968" lon="-16.99579">
        <ele>58.7</ele>
        <time>2019-12-01T09:42:02.000Z</time>
      </trkpt>
      <trkpt lat="14.99959" lon="-16.99593">
        <ele>58.74</ele>
        <time>2019-12-01T09:42:07.000Z</time>
      </trkpt>
      <trkpt lat="14.99951" lon="-16.99607">
        <ele>58.81</ele>
        <time>2019-12-01T09:42:12.000Z</time>
      </trkpt>
      <trkpt lat="14.99942" lon="-16.9962">
        <ele>58.9</ele>
        <time>2019-12-01T09:42:17.000Z</time>
      </trkpt>
      <trkpt lat="14.99934" lon="-16.99632">
        <ele>59.01</ele>
        <time>2019-12-01T09:42:22.000Z</time>
      </trkpt>
      <trkpt lat="14.99926" lon="-16.99644">
        <ele>59.14</ele>
        <time>2019-12-01T09:42:27.000Z</time>
      </trkpt>
      <trkpt lat="14.99919" lon="-16.99657">
        <ele>59.27</ele>
        <time>2019-12-01T09:42:32.000Z</time>
      </trkpt>
      <trkpt lat="14.99911" lon="-16.9967">
        <ele>59.41</ele>
        <time>2019-12-01T09:42:37.000Z</time>
      </trkpt>
      <trkpt lat="14.99903" lon="-16.99682">
        <ele>59.53</ele>
        <time>2019-12-01T09:42:42.000Z</time>
      </trkpt>
      <trkpt lat="14.99896" lon="-16.99695">
        <ele>59.68</ele>
        <time>2019-12-01T09:42:47.000Z</time>
      </trkpt>
      <trkpt lat="14.99889" lon="-16.99706">
        <ele>59.81</ele>
        <time>2019-12-01T09:42:52.000Z</time>
      </trkpt>
      <trkpt lat="14.99882" lon="-16.99718">
        <ele>59.83</ele>
        <time>2019-12-01T09:42:57.000Z</time>
      </trkpt>
      <trkpt lat="14.99874" lon="-16.99731">
        <ele>59.76</ele>
        <time>2019-12-01T09:43:02.000Z</time>
      </trkpt>
      <trkpt lat="14.99866" lon="-16.99745">
        <ele>59.6</ele>
        <time>2019-12-01T09:43:07.000Z</time>
      </trkpt>
      <trkpt lat="14.99857" lon="-16.99761">
        <ele>59.38</ele>
        <time>2019-12-01T09:43:12.000Z</time>
      </trkpt>
      <trkpt lat="14.99847" lon="-16.99776">
        <ele>59.12</ele>
        <time>2019-12-01T09:43:17.000Z</time>
      </trkpt>
      <trkpt lat="14.99838" lon="-16.99793">
        <ele>57.8</ele>
        <time>2019-12-01T09:43:22.000Z</time>
      </trkpt>
      <trkpt lat="14.99826" lon="-16.99811">
        <ele>56.53</ele>
        <time>2019-12-01T09:43:27.000Z</time>
      </trkpt>
      <trkpt lat="14.99814" lon="-16.99832">
        <ele>55.98</ele>
        <time>2019-12-01T09:43:32.000Z</time>
      </trkpt>
      <trkpt lat="14.99801" lon="-16.9985">
        <ele>55.65</ele>
        <time>2019-12-01T09:43:37.000Z</time>
      </trkpt>
      <trkpt lat="14.99787" lon="-16.99872">
        <ele>55.38</ele>
        <time>2019-12-01T09:43:42.000Z</time>
      </trkpt>
      <trkpt lat="14.99774" lon="-16.99894">
        <ele>54.97</ele>
        <time>2019-12-01T09:43:47.000Z</time>
      </trkpt>
      <trkpt lat="14.99759" lon="-16.99917">
        <ele>54.55</ele>
        <time>2019-12-01T09:43:52.000Z</time>
      </trkpt>
      <trkpt lat="14.99745" lon="-16.99941">
        <ele>54.27</ele>
        <time>2019-12-01T09:43:57.000Z</time>
      </trkpt>
      <trkpt lat="14.99729" lon="-16.99966">
        <ele>54.08</ele>
        <time>2019-12-01T09:44:02.000Z</time>
      </trkpt>
      <trkpt lat="14.99713" lon="-16.9999">
        <ele>53.99</ele>
        <time>2019-12-01T09:44:07.000Z</time>
      </trkpt>
      <trkpt lat="14.99698" lon="-17.00014">
        <ele>53.82</ele>
        <time>2019-12-01T09:44:12.000Z</time>
      </trkpt>
      <trkpt lat="14.99685" lon="-17.00037">
        <ele>53.77</ele>
        <time>2019-12-01T09:44:17.000Z</time>
      </trkpt>
      <trkpt lat="14.9967" lon="-17.0006">
        <ele>53.67</ele>
        <time>2019-12-01T09:44:22.000Z</time>
      </trkpt>
      <trkpt lat="14.99656" lon="-17.00082">
        <ele>53.45</ele>
        <time>2019-12-01T09:44:27.000Z</time>
      </trkpt>
      <trkpt lat="14.99643" lon="-17.00106">
        <ele>53.13</ele>
        <time>2019-12-01T09:44:32.000Z</time>
      </trkpt>
      <trkpt lat="14.9963" lon="-17.00128">
        <ele>52.85</ele>
        <time>2019-12-01T09:44:37.000Z</time>
      </trkpt>
      <trkpt lat="14.99617" lon="-17.00151">
        <ele>52.74</ele>
        <time>2019-12-01T09:44:42.000Z</time>
      </trkpt>
      <trkpt lat="14.99601" lon="-17.00174">
        <ele>52.49</ele>
        <time>2019-12-01T09:44:47.000Z</time>
      </trkpt>
      <trkpt lat="14.99587" lon="-17.00199">
        <ele>52.22</ele>
        <time>2019-12-01T09:44:52.000Z</time>
      </trkpt>
      <trkpt lat="14.99574" lon="-17.00219">
        <ele>51.9</ele>
        <time>2019-12-01T09:44:57.000Z</time>
      </trkpt>
      <trkpt lat="14.99561" lon="-17.00238">
        <ele>51.49</ele>
        <time>2019-12-01T09:45:02.000Z</time>
      </trkpt>
      <trkpt lat="14.99549" lon="-17.00258">
        <ele>51.09</ele>
        <time>2019-12-01T09:45:07.000Z</time>
      </trkpt>
      <trkpt lat="14.99536" lon="-17.00277">
        <ele>50.81</ele>
        <time>2019-12-01T09:45:12.000Z</time>
      </trkpt>
      <trkpt lat="14.99524" lon="-17.00296">
        <ele>50.63</ele>
        <time>2019-12-01T09:45:17.000Z</time>
      </trkpt>
      <trkpt lat="14.99511" lon="-17.00316">
        <ele>50.44</ele>
        <time>2019-12-01T09:45:22.000Z</time>
      </trkpt>
      <trkpt lat="14.99497" lon="-17.00335">
        <ele>50.2</ele>
        <time>2019-12-01T09:45:27.000Z</time>
      </trkpt>
      <trkpt lat="14.99482" lon="-17.00353">
        <ele>49.95</ele>
        <time>2019-12-01T09:45:32.000Z</time>
      </trkpt>
      <trkpt lat="14.99466" lon="-17.00371">
        <ele>49.72</ele>
        <time>2019-12-01T09:45:37.000Z</time>
      </trkpt>
      <trkpt lat="14.9945" lon="-17.00387">
        <ele>49.47</ele>
        <time>2019-12-01T09:45:42.000Z</time>
      </trkpt>
      <trkpt lat="14.99433" lon="-17.00403">
        <ele>49.19</ele>
        <time>2019-12-01T09:45:47.000Z</time>
      </trkpt>
      <trkpt lat="14.99417" lon="-17.00419">
        <ele>48.94</ele>
        <time>2019-12-01T09:45:52.000Z</time>
      </trkpt>
      <trkpt lat="14.994" lon="-17.00435">
        <ele>48.71</ele>
        <time>2019-12-01T09:45:57.000Z</time>
      </trkpt>
      <trkpt lat="14.99383" lon="-17.0045">
        <ele>48.46</ele>
        <time>2019-12-01T09:46:02.000Z</time>
      </trkpt>
      <trkpt lat="14.9937" lon="-17.00463">
        <ele>48.33</ele>
        <time>2019-12-01T09:46:07.000Z</time>
      </trkpt>
      <trkpt lat="14.99356" lon="-17.00477">
        <ele>48.16</ele>
        <time>2019-12-01T09:46:12.000Z</time>
      </trkpt>
      <trkpt lat="14.99342" lon="-17.00492">
        <ele>48.01</ele>
        <time>2019-12-01T09:46:17.000Z</time>
      </trkpt>
      <trkpt lat="14.99328" lon="-17.00506">
        <ele>47.98</ele>
        <time>2019-12-01T09:46:22.000Z</time>
      </trkpt>
      <trkpt lat="14.99312" lon="-17.00513">
        <ele>47.98</ele>
        <time>2019-12-01T09:46:27.000Z</time>
      </trkpt>
      <trkpt lat="14.99323" lon="-17.00514">
        <ele>48.03</ele>
        <time>2019-12-01T09:46:50.000Z</time>
      </trkpt>
      <trkpt lat="14.99314" lon="-17.00511">
        <ele>48.52</ele>
        <time>2019-12-01T09:47:44.000Z</time>
      </trkpt>
      <trkpt lat="14.99306" lon="-17.00507">
        <ele>48.66</ele>
        <time>2019-12-01T09:47:57.000Z</time>
      </trkpt>
      <trkpt lat="14.99298" lon="-17.00502">
        <ele>49.39</ele>
        <time>2019-12-01T09:48:39.999Z</time>
      </trkpt>
      <trkpt lat="14.99302" lon="-17.00511">
        <ele>50.2</ele>
        <time>2019-12-01T09:57:32.999Z</time>
      </trkpt>
      <trkpt lat="14.99298" lon="-17.00519">
        <ele>50.26</ele>
        <time>2019-12-01T09:57:47.999Z</time>
      </trkpt>
      <trkpt lat="14.9929" lon="-17.0053">
        <ele>50.29</ele>
        <time>2019-12-01T09:57:52.999Z</time>
      </trkpt>
      <trkpt lat="14.99281" lon="-17.00542">
        <ele>50.31</ele>
        <time>2019-12-01T09:57:57.999Z</time>
      </trkpt>
      <trkpt lat="14.9927" lon="-17.00556">
        <ele>50.32</ele>
        <time>2019-12-01T09:58:02.999Z</time>
      </trkpt>
      <trkpt lat="14.9926" lon="-17.00572">
        <ele>50.4</ele>
        <time>2019-12-01T09:58:07.999Z</time>
      </trkpt>
      <trkpt lat="14.99249" lon="-17.0059">
        <ele>50.41</ele>
        <time>2019-12-01T09:58:12.999Z</time>
      </trkpt>
      <trkpt lat="14.99235" lon="-17.00604">
        <ele>50.41</ele>
        <time>2019-12-01T09:58:17.999Z</time>
      </trkpt>
      <trkpt lat="14.99225" lon="-17.00617">
        <ele>50.4</ele>
        <time>2019-12-01T09:58:22.999Z</time>
      </trkpt>
      <trkpt lat="14.99214" lon="-17.00633">
        <ele>50.37</ele>
        <time>2019-12-01T09:58:27.999Z</time>
      </trkpt>
      <trkpt lat="14.99202" lon="-17.00649">
        <ele>50.37</ele>
        <time>2019-12-01T09:58:32.999Z</time>
      </trkpt>
      <trkpt lat="14.99191" lon="-17.00664">
        <ele>50.35</ele>
        <time>2019-12-01T09:58:37.999Z</time>
      </trkpt>
      <trkpt lat="14.99181" lon="-17.00678">
        <ele>50.33</ele>
        <time>2019-12-01T09:58:42.999Z</time>
      </trkpt>
      <trkpt lat="14.9917" lon="-17.00693">
        <ele>50.22</ele>
        <time>2019-12-01T09:58:47.999Z</time>
      </trkpt>
      <trkpt lat="14.99157" lon="-17.0071">
        <ele>50.15</ele>
        <time>2019-12-01T09:58:52.999Z</time>
      </trkpt>
      <trkpt lat="14.99145" lon="-17.00728">
        <ele>50.13</ele>
        <time>2019-12-01T09:58:57.999Z</time>
      </trkpt>
      <trkpt lat="14.99132" lon="-17.00743">
        <ele>50.09</ele>
        <time>2019-12-01T09:59:02.999Z</time>
      </trkpt>
      <trkpt lat="14.99119" lon="-17.00759">
        <ele>50.03</ele>
        <time>2019-12-01T09:59:07.999Z</time>
      </trkpt>
      <trkpt lat="14.99107" lon="-17.00774">
        <ele>50</ele>
        <time>2019-12-01T09:59:12.999Z</time>
      </trkpt>
      <trkpt lat="14.99097" lon="-17.00786">
        <ele>49.98</ele>
        <time>2019-12-01T09:59:17.999Z</time>
      </trkpt>
      <trkpt lat="14.9909" lon="-17.00797">
        <ele>49.96</ele>
        <time>2019-12-01T09:59:22.999Z</time>
      </trkpt>
      <trkpt lat="14.99082" lon="-17.00804">
        <ele>50.47</ele>
        <time>2019-12-01T10:05:43.000Z</time>
      </trkpt>
      <trkpt lat="14.99071" lon="-17.00813">
        <ele>50.48</ele>
        <time>2019-12-01T10:05:48.000Z</time>
      </trkpt>
      <trkpt lat="14.99061" lon="-17.00825">
        <ele>50.49</ele>
        <time>2019-12-01T10:05:53.000Z</time>
      </trkpt>
      <trkpt lat="14.99048" lon="-17.00839">
        <ele>50.5</ele>
        <time>2019-12-01T10:05:58.000Z</time>
      </trkpt>
      <trkpt lat="14.99034" lon="-17.00852">
        <ele>50.57</ele>
        <time>2019-12-01T10:06:03.000Z</time>
      </trkpt>
      <trkpt lat="14.99019" lon="-17.00866">
        <ele>50.73</ele>
        <time>2019-12-01T10:06:08.000Z</time>
      </trkpt>
      <trkpt lat="14.99004" lon="-17.00878">
        <ele>50.8</ele>
        <time>2019-12-01T10:06:13.000Z</time>
      </trkpt>
      <trkpt lat="14.9899" lon="-17.0089">
        <ele>50.8</ele>
        <time>2019-12-01T10:06:18.000Z</time>
      </trkpt>
      <trkpt lat="14.98978" lon="-17.00901">
        <ele>50.81</ele>
        <time>2019-12-01T10:06:23.000Z</time>
      </trkpt>
      <trkpt lat="14.98964" lon="-17.00915">
        <ele>50.89</ele>
        <time>2019-12-01T10:06:28.000Z</time>
      </trkpt>
      <trkpt lat="14.98949" lon="-17.00929">
        <ele>51.01</ele>
        <time>2019-12-01T10:06:33.000Z</time>
      </trkpt>
      <trkpt lat="14.98935" lon="-17.0094">
        <ele>51.07</ele>
        <time>2019-12-01T10:06:38.000Z</time>
      </trkpt>
      <trkpt lat="14.98921" lon="-17.00953">
        <ele>51.11</ele>
        <time>2019-12-01T10:06:43.000Z</time>
      </trkpt>
      <trkpt lat="14.98906" lon="-17.00965">
        <ele>51.11</ele>
        <time>2019-12-01T10:06:48.000Z</time>
      </trkpt>
      <trkpt lat="14.98891" lon="-17.00978">
        <ele>51.15</ele>
        <time>2019-12-01T10:06:53.000Z</time>
      </trkpt>
      <trkpt lat="14.98873" lon="-17.00991">
        <ele>51.27</ele>
        <time>2019-12-01T10:06:58.000Z</time>
      </trkpt>
      <trkpt lat="14.98858" lon="-17.01006">
        <ele>51.44</ele>
        <time>2019-12-01T10:07:03.000Z</time>
      </trkpt>
      <trkpt lat="14.98844" lon="-17.01021">
        <ele>51.48</ele>
        <time>2019-12-01T10:07:08.000Z</time>
      </trkpt>
      <trkpt lat="14.98827" lon="-17.01037">
        <ele>51.47</ele>
        <time>2019-12-01T10:07:13.000Z</time>
      </trkpt>
      <trkpt lat="14.9881" lon="-17.01052">
        <ele>51.46</ele>
        <time>2019-12-01T10:07:18.000Z</time>
      </trkpt>
      <trkpt lat="14.98794" lon="-17.01068">
        <ele>51.43</ele>
        <time>2019-12-01T10:07:23.000Z</time>
      </trkpt>
      <trkpt lat="14.98776" lon="-17.01085">
        <ele>51.42</ele>
        <time>2019-12-01T10:07:28.000Z</time>
      </trkpt>
      <trkpt lat="14.98756" lon="-17.01102">
        <ele>51.37</ele>
        <time>2019-12-01T10:07:33.000Z</time>
      </trkpt>
      <trkpt lat="14.98737" lon="-17.0112">
        <ele>51.32</ele>
        <time>2019-12-01T10:07:38.000Z</time>
      </trkpt>
      <trkpt lat="14.98718" lon="-17.01138">
        <ele>51.25</ele>
        <time>2019-12-01T10:07:43.000Z</time>
      </trkpt>
      <trkpt lat="14.98698" lon="-17.01156">
        <ele>51.23</ele>
        <time>2019-12-01T10:07:48.000Z</time>
      </trkpt>
      <trkpt lat="14.98678" lon="-17.01173">
        <ele>51.18</ele>
        <time>2019-12-01T10:07:53.000Z</time>
      </trkpt>
      <trkpt lat="14.98659" lon="-17.01191">
        <ele>51.1</ele>
        <time>2019-12-01T10:07:58.000Z</time>
      </trkpt>
      <trkpt lat="14.9864" lon="-17.01207">
        <ele>51.12</ele>
        <time>2019-12-01T10:08:03.000Z</time>
      </trkpt>
      <trkpt lat="14.98623" lon="-17.01224">
        <ele>51.17</ele>
        <time>2019-12-01T10:08:08.000Z</time>
      </trkpt>
      <trkpt lat="14.98605" lon="-17.0124">
        <ele>51.21</ele>
        <time>2019-12-01T10:08:13.000Z</time>
      </trkpt>
      <trkpt lat="14.98587" lon="-17.01258">
        <ele>51.22</ele>
        <time>2019-12-01T10:08:18.000Z</time>
      </trkpt>
      <trkpt lat="14.98568" lon="-17.01274">
        <ele>51.23</ele>
        <time>2019-12-01T10:08:23.000Z</time>
      </trkpt>
      <trkpt lat="14.9855" lon="-17.0129">
        <ele>51.25</ele>
        <time>2019-12-01T10:08:28.000Z</time>
      </trkpt>
      <trkpt lat="14.98533" lon="-17.01305">
        <ele>51.28</ele>
        <time>2019-12-01T10:08:33.000Z</time>
      </trkpt>
      <trkpt lat="14.98515" lon="-17.01322">
        <ele>51.25</ele>
        <time>2019-12-01T10:08:38.000Z</time>
      </trkpt>
      <trkpt lat="14.98498" lon="-17.01338">
        <ele>51.21</ele>
        <time>2019-12-01T10:08:43.000Z</time>
      </trkpt>
      <trkpt lat="14.98481" lon="-17.01354">
        <ele>51.16</ele>
        <time>2019-12-01T10:08:48.000Z</time>
      </trkpt>
      <trkpt lat="14.98464" lon="-17.01369">
        <ele>51.17</ele>
        <time>2019-12-01T10:08:53.000Z</time>
      </trkpt>
      <trkpt lat="14.98447" lon="-17.01385">
        <ele>51.25</ele>
        <time>2019-12-01T10:08:58.000Z</time>
      </trkpt>
      <trkpt lat="14.9843" lon="-17.014">
        <ele>51.3</ele>
        <time>2019-12-01T10:09:03.000Z</time>
      </trkpt>
      <trkpt lat="14.98413" lon="-17.01415">
        <ele>51.33</ele>
        <time>2019-12-01T10:09:08.000Z</time>
      </trkpt>
      <trkpt lat="14.98396" lon="-17.01431">
        <ele>51.33</ele>
        <time>2019-12-01T10:09:13.000Z</time>
      </trkpt>
      <trkpt lat="14.98379" lon="-17.01447">
        <ele>51.35</ele>
        <time>2019-12-01T10:09:18.000Z</time>
      </trkpt>
      <trkpt lat="14.98363" lon="-17.01463">
        <ele>51.38</ele>
        <time>2019-12-01T10:09:23.000Z</time>
      </trkpt>
      <trkpt lat="14.98347" lon="-17.01479">
        <ele>51.43</ele>
        <time>2019-12-01T10:09:28.000Z</time>
      </trkpt>
      <trkpt lat="14.98329" lon="-17.01495">
        <ele>51.53</ele>
        <time>2019-12-01T10:09:33.000Z</time>
      </trkpt>
      <trkpt lat="14.98311" lon="-17.01511">
        <ele>51.52</ele>
        <time>2019-12-01T10:09:38.000Z</time>
      </trkpt>
      <trkpt lat="14.98293" lon="-17.01527">
        <ele>51.5</ele>
        <time>2019-12-01T10:09:43.000Z</time>
      </trkpt>
      <trkpt lat="14.98275" lon="-17.01543">
        <ele>51.48</ele>
        <time>2019-12-01T10:09:48.000Z</time>
      </trkpt>
      <trkpt lat="14.98258" lon="-17.01559">
        <ele>51.45</ele>
        <time>2019-12-01T10:09:53.000Z</time>
      </trkpt>
      <trkpt lat="14.98241" lon="-17.01573">
        <ele>51.42</ele>
        <time>2019-12-01T10:09:58.000Z</time>
      </trkpt>
      <trkpt lat="14.98225" lon="-17.0159">
        <ele>51.47</ele>
        <time>2019-12-01T10:10:03.000Z</time>
      </trkpt>
      <trkpt lat="14.98209" lon="-17.01605">
        <ele>51.48</ele>
        <time>2019-12-01T10:10:08.000Z</time>
      </trkpt>
      <trkpt lat="14.98194" lon="-17.0162">
        <ele>51.54</ele>
        <time>2019-12-01T10:10:13.000Z</time>
      </trkpt>
      <trkpt lat="14.98176" lon="-17.01635">
        <ele>51.63</ele>
        <time>2019-12-01T10:10:18.000Z</time>
      </trkpt>
      <trkpt lat="14.98158" lon="-17.01653">
        <ele>51.8</ele>
        <time>2019-12-01T10:10:23.000Z</time>
      </trkpt>
      <trkpt lat="14.98138" lon="-17.0167">
        <ele>52.02</ele>
        <time>2019-12-01T10:10:28.000Z</time>
      </trkpt>
      <trkpt lat="14.98118" lon="-17.01687">
        <ele>52.13</ele>
        <time>2019-12-01T10:10:33.000Z</time>
      </trkpt>
      <trkpt lat="14.98099" lon="-17.01705">
        <ele>52.13</ele>
        <time>2019-12-01T10:10:38.000Z</time>
      </trkpt>
      <trkpt lat="14.98079" lon="-17.01723">
        <ele>52.18</ele>
        <time>2019-12-01T10:10:43.000Z</time>
      </trkpt>
      <trkpt lat="14.9806" lon="-17.0174">
        <ele>52.22</ele>
        <time>2019-12-01T10:10:48.000Z</time>
      </trkpt>
      <trkpt lat="14.98042" lon="-17.01759">
        <ele>52.14</ele>
        <time>2019-12-01T10:10:53.000Z</time>
      </trkpt>
      <trkpt lat="14.98025" lon="-17.01778">
        <ele>52.02</ele>
        <time>2019-12-01T10:10:58.000Z</time>
      </trkpt>
      <trkpt lat="14.98007" lon="-17.01797">
        <ele>51.91</ele>
        <time>2019-12-01T10:11:03.000Z</time>
      </trkpt>
      <trkpt lat="14.97993" lon="-17.01818">
        <ele>51.8</ele>
        <time>2019-12-01T10:11:08.000Z</time>
      </trkpt>
      <trkpt lat="14.97978" lon="-17.01839">
        <ele>51.7</ele>
        <time>2019-12-01T10:11:13.000Z</time>
      </trkpt>
      <trkpt lat="14.97963" lon="-17.01861">
        <ele>51.74</ele>
        <time>2019-12-01T10:11:18.000Z</time>
      </trkpt>
      <trkpt lat="14.97947" lon="-17.01885">
        <ele>51.8</ele>
        <time>2019-12-01T10:11:23.000Z</time>
      </trkpt>
      <trkpt lat="14.97932" lon="-17.01911">
        <ele>51.73</ele>
        <time>2019-12-01T10:11:28.000Z</time>
      </trkpt>
      <trkpt lat="14.97916" lon="-17.0194">
        <ele>51.62</ele>
        <time>2019-12-01T10:11:33.000Z</time>
      </trkpt>
      <trkpt lat="14.97901" lon="-17.01969">
        <ele>51.53</ele>
        <time>2019-12-01T10:11:38.000Z</time>
      </trkpt>
      <trkpt lat="14.97886" lon="-17.01997">
        <ele>51.51</ele>
        <time>2019-12-01T10:11:43.000Z</time>
      </trkpt>
      <trkpt lat="14.97871" lon="-17.02026">
        <ele>51.53</ele>
        <time>2019-12-01T10:11:48.000Z</time>
      </trkpt>
      <trkpt lat="14.97856" lon="-17.02055">
        <ele>51.52</ele>
        <time>2019-12-01T10:11:53.000Z</time>
      </trkpt>
      <trkpt lat="14.97841" lon="-17.02083">
        <ele>51.65</ele>
        <time>2019-12-01T10:11:58.000Z</time>
      </trkpt>
      <trkpt lat="14.97827" lon="-17.02112">
        <ele>51.61</ele>
        <time>2019-12-01T10:12:03.000Z</time>
      </trkpt>
      <trkpt lat="14.97812" lon="-17.0214">
        <ele>51.48</ele>
        <time>2019-12-01T10:12:08.000Z</time>
      </trkpt>
      <trkpt lat="14.97798" lon="-17.02168">
        <ele>51.39</ele>
        <time>2019-12-01T10:12:13.000Z</time>
      </trkpt>
      <trkpt lat="14.97784" lon="-17.02195">
        <ele>51.47</ele>
        <time>2019-12-01T10:12:18.000Z</time>
      </trkpt>
      <trkpt lat="14.9777" lon="-17.02221">
        <ele>51.52</ele>
        <time>2019-12-01T10:12:23.000Z</time>
      </trkpt>
      <trkpt lat="14.97755" lon="-17.02247">
        <ele>51.44</ele>
        <time>2019-12-01T10:12:28.000Z</time>
      </trkpt>
      <trkpt lat="14.9774" lon="-17.02274">
        <ele>51.16</ele>
        <time>2019-12-01T10:12:33.000Z</time>
      </trkpt>
      <trkpt lat="14.97724" lon="-17.023">
        <ele>51.33</ele>
        <time>2019-12-01T10:12:38.000Z</time>
      </trkpt>
      <trkpt lat="14.97708" lon="-17.02326">
        <ele>51.72</ele>
        <time>2019-12-01T10:12:43.000Z</time>
      </trkpt>
      <trkpt lat="14.97689" lon="-17.02351">
        <ele>51.93</ele>
        <time>2019-12-01T10:12:48.000Z</time>
      </trkpt>
      <trkpt lat="14.97672" lon="-17.02375">
        <ele>51.93</ele>
        <time>2019-12-01T10:12:53.000Z</time>
      </trkpt>
      <trkpt lat="14.97653" lon="-17.02399">
        <ele>52.59</ele>
        <time>2019-12-01T10:12:58.000Z</time>
      </trkpt>
      <trkpt lat="14.97634" lon="-17.02423">
        <ele>53.21</ele>
        <time>2019-12-01T10:13:03.000Z</time>
      </trkpt>
      <trkpt lat="14.97614" lon="-17.02446">
        <ele>53.4</ele>
        <time>2019-12-01T10:13:08.000Z</time>
      </trkpt>
      <trkpt lat="14.97595" lon="-17.02469">
        <ele>53.06</ele>
        <time>2019-12-01T10:13:13.000Z</time>
      </trkpt>
      <trkpt lat="14.97576" lon="-17.02494">
        <ele>52.46</ele>
        <time>2019-12-01T10:13:18.000Z</time>
      </trkpt>
      <trkpt lat="14.97555" lon="-17.02519">
        <ele>51.99</ele>
        <time>2019-12-01T10:13:23.000Z</time>
      </trkpt>
      <trkpt lat="14.97541" lon="-17.0255">
        <ele>52.14</ele>
        <time>2019-12-01T10:13:28.000Z</time>
      </trkpt>
      <trkpt lat="14.97518" lon="-17.02575">
        <ele>52.66</ele>
        <time>2019-12-01T10:13:33.000Z</time>
      </trkpt>
      <trkpt lat="14.97496" lon="-17.02601">
        <ele>53.48</ele>
        <time>2019-12-01T10:13:38.000Z</time>
      </trkpt>
      <trkpt lat="14.97472" lon="-17.02627">
        <ele>54.14</ele>
        <time>2019-12-01T10:13:43.000Z</time>
      </trkpt>
      <trkpt lat="14.97449" lon="-17.02654">
        <ele>54.02</ele>
        <time>2019-12-01T10:13:48.000Z</time>
      </trkpt>
      <trkpt lat="14.97427" lon="-17.0268">
        <ele>53.28</ele>
        <time>2019-12-01T10:13:53.000Z</time>
      </trkpt>
      <trkpt lat="14.97406" lon="-17.02706">
        <ele>52.44</ele>
        <time>2019-12-01T10:13:58.000Z</time>
      </trkpt>
      <trkpt lat="14.97385" lon="-17.02732">
        <ele>51.81</ele>
        <time>2019-12-01T10:14:03.000Z</time>
      </trkpt>
      <trkpt lat="14.97364" lon="-17.02759">
        <ele>51.07</ele>
        <time>2019-12-01T10:14:08.000Z</time>
      </trkpt>
      <trkpt lat="14.97345" lon="-17.02787">
        <ele>50.3</ele>
        <time>2019-12-01T10:14:13.000Z</time>
      </trkpt>
      <trkpt lat="14.97327" lon="-17.02816">
        <ele>49.41</ele>
        <time>2019-12-01T10:14:18.000Z</time>
      </trkpt>
      <trkpt lat="14.9731" lon="-17.02847">
        <ele>48.77</ele>
        <time>2019-12-01T10:14:23.000Z</time>
      </trkpt>
      <trkpt lat="14.97293" lon="-17.02877">
        <ele>48.11</ele>
        <time>2019-12-01T10:14:28.000Z</time>
      </trkpt>
      <trkpt lat="14.97278" lon="-17.02909">
        <ele>47.84</ele>
        <time>2019-12-01T10:14:33.000Z</time>
      </trkpt>
      <trkpt lat="14.97264" lon="-17.0294">
        <ele>47.61</ele>
        <time>2019-12-01T10:14:38.000Z</time>
      </trkpt>
      <trkpt lat="14.97251" lon="-17.02968">
        <ele>47.63</ele>
        <time>2019-12-01T10:14:43.000Z</time>
      </trkpt>
      <trkpt lat="14.97238" lon="-17.02997">
        <ele>47.59</ele>
        <time>2019-12-01T10:14:48.000Z</time>
      </trkpt>
      <trkpt lat="14.97224" lon="-17.03023">
        <ele>47.8</ele>
        <time>2019-12-01T10:14:53.000Z</time>
      </trkpt>
      <trkpt lat="14.97212" lon="-17.0305">
        <ele>47.89</ele>
        <time>2019-12-01T10:14:58.000Z</time>
      </trkpt>
      <trkpt lat="14.972" lon="-17.03074">
        <ele>48.03</ele>
        <time>2019-12-01T10:15:03.000Z</time>
      </trkpt>
      <trkpt lat="14.97189" lon="-17.03097">
        <ele>48.2</ele>
        <time>2019-12-01T10:15:08.000Z</time>
      </trkpt>
      <trkpt lat="14.97178" lon="-17.03119">
        <ele>48.42</ele>
        <time>2019-12-01T10:15:13.000Z</time>
      </trkpt>
      <trkpt lat="14.97167" lon="-17.0314">
        <ele>48.63</ele>
        <time>2019-12-01T10:15:18.000Z</time>
      </trkpt>
      <trkpt lat="14.97158" lon="-17.03161">
        <ele>49.04</ele>
        <time>2019-12-01T10:15:23.000Z</time>
      </trkpt>
      <trkpt lat="14.97146" lon="-17.03185">
        <ele>48.97</ele>
        <time>2019-12-01T10:15:28.000Z</time>
      </trkpt>
      <trkpt lat="14.97135" lon="-17.03207">
        <ele>48.95</ele>
        <time>2019-12-01T10:15:33.000Z</time>
      </trkpt>
      <trkpt lat="14.97124" lon="-17.0323">
        <ele>48.88</ele>
        <time>2019-12-01T10:15:38.000Z</time>
      </trkpt>
      <trkpt lat="14.97113" lon="-17.03253">
        <ele>48.72</ele>
        <time>2019-12-01T10:15:43.000Z</time>
      </trkpt>
      <trkpt lat="14.97101" lon="-17.03276">
        <ele>48.55</ele>
        <time>2019-12-01T10:15:48.000Z</time>
      </trkpt>
      <trkpt lat="14.9709" lon="-17.033">
        <ele>48.87</ele>
        <time>2019-12-01T10:15:53.000Z</time>
      </trkpt>
      <trkpt lat="14.97081" lon="-17.03322">
        <ele>49.11</ele>
        <time>2019-12-01T10:15:58.000Z</time>
      </trkpt>
      <trkpt lat="14.9707" lon="-17.03345">
        <ele>48.96</ele>
        <time>2019-12-01T10:16:03.000Z</time>
      </trkpt>
      <trkpt lat="14.97058" lon="-17.03368">
        <ele>48.66</ele>
        <time>2019-12-01T10:16:08.000Z</time>
      </trkpt>
      <trkpt lat="14.97044" lon="-17.03392">
        <ele>48.07</ele>
        <time>2019-12-01T10:16:13.000Z</time>
      </trkpt>
      <trkpt lat="14.97029" lon="-17.03415">
        <ele>47.45</ele>
        <time>2019-12-01T10:16:18.000Z</time>
      </trkpt>
      <trkpt lat="14.97013" lon="-17.03439">
        <ele>46.86</ele>
        <time>2019-12-01T10:16:23.000Z</time>
      </trkpt>
      <trkpt lat="14.96993" lon="-17.03462">
        <ele>46.37</ele>
        <time>2019-12-01T10:16:28.000Z</time>
      </trkpt>
      <trkpt lat="14.96976" lon="-17.03484">
        <ele>45.92</ele>
        <time>2019-12-01T10:16:33.000Z</time>
      </trkpt>
      <trkpt lat="14.96954" lon="-17.03507">
        <ele>45.48</ele>
        <time>2019-12-01T10:16:38.000Z</time>
      </trkpt>
      <trkpt lat="14.96932" lon="-17.03529">
        <ele>45.21</ele>
        <time>2019-12-01T10:16:43.000Z</time>
      </trkpt>
      <trkpt lat="14.96909" lon="-17.03551">
        <ele>45.09</ele>
        <time>2019-12-01T10:16:48.000Z</time>
      </trkpt>
      <trkpt lat="14.96888" lon="-17.03573">
        <ele>44.92</ele>
        <time>2019-12-01T10:16:53.000Z</time>
      </trkpt>
      <trkpt lat="14.96867" lon="-17.03595">
        <ele>44.78</ele>
        <time>2019-12-01T10:16:57.999Z</time>
      </trkpt>
      <trkpt lat="14.96847" lon="-17.03616">
        <ele>44.71</ele>
        <time>2019-12-01T10:17:02.999Z</time>
      </trkpt>
      <trkpt lat="14.96829" lon="-17.03634">
        <ele>45.17</ele>
        <time>2019-12-01T10:17:07.999Z</time>
      </trkpt>
      <trkpt lat="14.9681" lon="-17.03651">
        <ele>45.58</ele>
        <time>2019-12-01T10:17:12.999Z</time>
      </trkpt>
      <trkpt lat="14.96793" lon="-17.03665">
        <ele>45.81</ele>
        <time>2019-12-01T10:17:17.999Z</time>
      </trkpt>
      <trkpt lat="14.96779" lon="-17.03683">
        <ele>46.35</ele>
        <time>2019-12-01T10:17:22.999Z</time>
      </trkpt>
      <trkpt lat="14.96763" lon="-17.03699">
        <ele>47.09</ele>
        <time>2019-12-01T10:17:27.999Z</time>
      </trkpt>
      <trkpt lat="14.96745" lon="-17.03715">
        <ele>47.33</ele>
        <time>2019-12-01T10:17:32.999Z</time>
      </trkpt>
      <trkpt lat="14.96726" lon="-17.03731">
        <ele>47.59</ele>
        <time>2019-12-01T10:17:37.999Z</time>
      </trkpt>
      <trkpt lat="14.9671" lon="-17.03749">
        <ele>47.84</ele>
        <time>2019-12-01T10:17:42.999Z</time>
      </trkpt>
      <trkpt lat="14.96692" lon="-17.03767">
        <ele>48.11</ele>
        <time>2019-12-01T10:17:47.999Z</time>
      </trkpt>
      <trkpt lat="14.96672" lon="-17.03785">
        <ele>48.04</ele>
        <time>2019-12-01T10:17:52.999Z</time>
      </trkpt>
      <trkpt lat="14.96652" lon="-17.03804">
        <ele>47.71</ele>
        <time>2019-12-01T10:17:57.999Z</time>
      </trkpt>
      <trkpt lat="14.96633" lon="-17.03826">
        <ele>47.53</ele>
        <time>2019-12-01T10:18:02.999Z</time>
      </trkpt>
      <trkpt lat="14.96612" lon="-17.03844">
        <ele>47.64</ele>
        <time>2019-12-01T10:18:07.999Z</time>
      </trkpt>
      <trkpt lat="14.96591" lon="-17.03863">
        <ele>47.76</ele>
        <time>2019-12-01T10:18:12.999Z</time>
      </trkpt>
      <trkpt lat="14.96572" lon="-17.03883">
        <ele>47.77</ele>
        <time>2019-12-01T10:18:17.999Z</time>
      </trkpt>
      <trkpt lat="14.96554" lon="-17.03903">
        <ele>47.67</ele>
        <time>2019-12-01T10:18:22.999Z</time>
      </trkpt>
      <trkpt lat="14.96535" lon="-17.03923">
        <ele>47.51</ele>
        <time>2019-12-01T10:18:27.999Z</time>
      </trkpt>
      <trkpt lat="14.96516" lon="-17.03943">
        <ele>47.29</ele>
        <time>2019-12-01T10:18:32.999Z</time>
      </trkpt>
      <trkpt lat="14.96496" lon="-17.03962">
        <ele>47.14</ele>
        <time>2019-12-01T10:18:37.999Z</time>
      </trkpt>
      <trkpt lat="14.96476" lon="-17.03983">
        <ele>47.04</ele>
        <time>2019-12-01T10:18:42.999Z</time>
      </trkpt>
      <trkpt lat="14.96457" lon="-17.04003">
        <ele>47.31</ele>
        <time>2019-12-01T10:18:47.999Z</time>
      </trkpt>
      <trkpt lat="14.96436" lon="-17.04023">
        <ele>47.47</ele>
        <time>2019-12-01T10:18:52.999Z</time>
      </trkpt>
      <trkpt lat="14.96417" lon="-17.04042">
        <ele>47.52</ele>
        <time>2019-12-01T10:18:57.999Z</time>
      </trkpt>
      <trkpt lat="14.96398" lon="-17.0406">
        <ele>47.51</ele>
        <time>2019-12-01T10:19:02.999Z</time>
      </trkpt>
      <trkpt lat="14.9638" lon="-17.04078">
        <ele>47.52</ele>
        <time>2019-12-01T10:19:07.999Z</time>
      </trkpt>
      <trkpt lat="14.96363" lon="-17.04094">
        <ele>47.52</ele>
        <time>2019-12-01T10:19:12.999Z</time>
      </trkpt>
      <trkpt lat="14.96347" lon="-17.0411">
        <ele>47.5</ele>
        <time>2019-12-01T10:19:17.999Z</time>
      </trkpt>
      <trkpt lat="14.96331" lon="-17.04126">
        <ele>47.53</ele>
        <time>2019-12-01T10:19:22.999Z</time>
      </trkpt>
      <trkpt lat="14.96314" lon="-17.04142">
        <ele>47.56</ele>
        <time>2019-12-01T10:19:27.999Z</time>
      </trkpt>
      <trkpt lat="14.96297" lon="-17.04158">
        <ele>47.58</ele>
        <time>2019-12-01T10:19:32.999Z</time>
      </trkpt>
      <trkpt lat="14.9628" lon="-17.04174">
        <ele>47.58</ele>
        <time>2019-12-01T10:19:37.999Z</time>
      </trkpt>
      <trkpt lat="14.96263" lon="-17.0419">
        <ele>47.5</ele>
        <time>2019-12-01T10:19:42.999Z</time>
      </trkpt>
      <trkpt lat="14.96246" lon="-17.04208">
        <ele>47.44</ele>
        <time>2019-12-01T10:19:47.999Z</time>
      </trkpt>
      <trkpt lat="14.96228" lon="-17.04226">
        <ele>47.39</ele>
        <time>2019-12-01T10:19:52.999Z</time>
      </trkpt>
      <trkpt lat="14.96211" lon="-17.04243">
        <ele>47.32</ele>
        <time>2019-12-01T10:19:57.999Z</time>
      </trkpt>
      <trkpt lat="14.96194" lon="-17.04261">
        <ele>47.24</ele>
        <time>2019-12-01T10:20:02.999Z</time>
      </trkpt>
      <trkpt lat="14.96176" lon="-17.0428">
        <ele>47.13</ele>
        <time>2019-12-01T10:20:07.999Z</time>
      </trkpt>
      <trkpt lat="14.96159" lon="-17.04299">
        <ele>46.96</ele>
        <time>2019-12-01T10:20:12.999Z</time>
      </trkpt>
      <trkpt lat="14.96141" lon="-17.04319">
        <ele>46.76</ele>
        <time>2019-12-01T10:20:17.999Z</time>
      </trkpt>
      <trkpt lat="14.96123" lon="-17.04338">
        <ele>46.53</ele>
        <time>2019-12-01T10:20:22.999Z</time>
      </trkpt>
      <trkpt lat="14.96106" lon="-17.04357">
        <ele>46.39</ele>
        <time>2019-12-01T10:20:27.999Z</time>
      </trkpt>
      <trkpt lat="14.9609" lon="-17.04378">
        <ele>46.26</ele>
        <time>2019-12-01T10:20:32.999Z</time>
      </trkpt>
      <trkpt lat="14.96073" lon="-17.04398">
        <ele>46.06</ele>
        <time>2019-12-01T10:20:37.999Z</time>
      </trkpt>
      <trkpt lat="14.96057" lon="-17.04418">
        <ele>45.88</ele>
        <time>2019-12-01T10:20:42.999Z</time>
      </trkpt>
      <trkpt lat="14.9604" lon="-17.04438">
        <ele>45.68</ele>
        <time>2019-12-01T10:20:47.999Z</time>
      </trkpt>
      <trkpt lat="14.96024" lon="-17.04457">
        <ele>45.52</ele>
        <time>2019-12-01T10:20:52.999Z</time>
      </trkpt>
      <trkpt lat="14.96008" lon="-17.04477">
        <ele>45.32</ele>
        <time>2019-12-01T10:20:57.999Z</time>
      </trkpt>
      <trkpt lat="14.95992" lon="-17.04496">
        <ele>45.1</ele>
        <time>2019-12-01T10:21:02.999Z</time>
      </trkpt>
      <trkpt lat="14.95977" lon="-17.04515">
        <ele>44.91</ele>
        <time>2019-12-01T10:21:07.999Z</time>
      </trkpt>
      <trkpt lat="14.95961" lon="-17.04535">
        <ele>44.8</ele>
        <time>2019-12-01T10:21:12.999Z</time>
      </trkpt>
      <trkpt lat="14.95945" lon="-17.04554">
        <ele>44.69</ele>
        <time>2019-12-01T10:21:17.999Z</time>
      </trkpt>
      <trkpt lat="14.95928" lon="-17.04574">
        <ele>44.55</ele>
        <time>2019-12-01T10:21:22.999Z</time>
      </trkpt>
      <trkpt lat="14.95911" lon="-17.04595">
        <ele>44.38</ele>
        <time>2019-12-01T10:21:27.999Z</time>
      </trkpt>
      <trkpt lat="14.95893" lon="-17.04618">
        <ele>44.21</ele>
        <time>2019-12-01T10:21:32.999Z</time>
      </trkpt>
      <trkpt lat="14.95874" lon="-17.04641">
        <ele>44.04</ele>
        <time>2019-12-01T10:21:37.999Z</time>
      </trkpt>
      <trkpt lat="14.95855" lon="-17.04666">
        <ele>43.89</ele>
        <time>2019-12-01T10:21:42.999Z</time>
      </trkpt>
      <trkpt lat="14.95834" lon="-17.04691">
        <ele>43.86</ele>
        <time>2019-12-01T10:21:47.999Z</time>
      </trkpt>
      <trkpt lat="14.95813" lon="-17.04716">
        <ele>43.77</ele>
        <time>2019-12-01T10:21:52.999Z</time>
      </trkpt>
      <trkpt lat="14.95793" lon="-17.04741">
        <ele>43.74</ele>
        <time>2019-12-01T10:21:57.999Z</time>
      </trkpt>
      <trkpt lat="14.95772" lon="-17.04763">
        <ele>43.68</ele>
        <time>2019-12-01T10:22:02.999Z</time>
      </trkpt>
      <trkpt lat="14.95751" lon="-17.04785">
        <ele>43.78</ele>
        <time>2019-12-01T10:22:07.999Z</time>
      </trkpt>
      <trkpt lat="14.9573" lon="-17.04807">
        <ele>43.91</ele>
        <time>2019-12-01T10:22:12.999Z</time>
      </trkpt>
      <trkpt lat="14.95707" lon="-17.04828">
        <ele>43.73</ele>
        <time>2019-12-01T10:22:17.999Z</time>
      </trkpt>
      <trkpt lat="14.95684" lon="-17.04849">
        <ele>44.1</ele>
        <time>2019-12-01T10:22:22.999Z</time>
      </trkpt>
      <trkpt lat="14.95661" lon="-17.04869">
        <ele>44.75</ele>
        <time>2019-12-01T10:22:27.999Z</time>
      </trkpt>
      <trkpt lat="14.95638" lon="-17.04887">
        <ele>45.03</ele>
        <time>2019-12-01T10:22:32.999Z</time>
      </trkpt>
      <trkpt lat="14.95615" lon="-17.04905">
        <ele>45.19</ele>
        <time>2019-12-01T10:22:37.999Z</time>
      </trkpt>
      <trkpt lat="14.95591" lon="-17.0492">
        <ele>45.42</ele>
        <time>2019-12-01T10:22:42.999Z</time>
      </trkpt>
      <trkpt lat="14.95567" lon="-17.04935">
        <ele>45.53</ele>
        <time>2019-12-01T10:22:47.999Z</time>
      </trkpt>
      <trkpt lat="14.95542" lon="-17.04948">
        <ele>45.87</ele>
        <time>2019-12-01T10:22:52.999Z</time>
      </trkpt>
      <trkpt lat="14.95515" lon="-17.04959">
        <ele>45.96</ele>
        <time>2019-12-01T10:22:57.999Z</time>
      </trkpt>
      <trkpt lat="14.95488" lon="-17.0497">
        <ele>45.67</ele>
        <time>2019-12-01T10:23:02.999Z</time>
      </trkpt>
      <trkpt lat="14.9546" lon="-17.04979">
        <ele>45.37</ele>
        <time>2019-12-01T10:23:07.999Z</time>
      </trkpt>
      <trkpt lat="14.95429" lon="-17.04989">
        <ele>44.92</ele>
        <time>2019-12-01T10:23:12.999Z</time>
      </trkpt>
      <trkpt lat="14.95394" lon="-17.04996">
        <ele>44.5</ele>
        <time>2019-12-01T10:23:17.999Z</time>
      </trkpt>
      <trkpt lat="14.95358" lon="-17.05001">
        <ele>44.56</ele>
        <time>2019-12-01T10:23:22.999Z</time>
      </trkpt>
      <trkpt lat="14.95323" lon="-17.05004">
        <ele>44.82</ele>
        <time>2019-12-01T10:23:27.999Z</time>
      </trkpt>
      <trkpt lat="14.95288" lon="-17.05007">
        <ele>45.15</ele>
        <time>2019-12-01T10:23:32.999Z</time>
      </trkpt>
      <trkpt lat="14.95251" lon="-17.05008">
        <ele>45.35</ele>
        <time>2019-12-01T10:23:37.999Z</time>
      </trkpt>
      <trkpt lat="14.95214" lon="-17.05008">
        <ele>45.27</ele>
        <time>2019-12-01T10:23:42.999Z</time>
      </trkpt>
      <trkpt lat="14.95178" lon="-17.05008">
        <ele>45.3</ele>
        <time>2019-12-01T10:23:47.999Z</time>
      </trkpt>
      <trkpt lat="14.95142" lon="-17.05009">
        <ele>45.34</ele>
        <time>2019-12-01T10:23:52.999Z</time>
      </trkpt>
      <trkpt lat="14.95107" lon="-17.05012">
        <ele>45.19</ele>
        <time>2019-12-01T10:23:57.999Z</time>
      </trkpt>
      <trkpt lat="14.95073" lon="-17.05014">
        <ele>45.47</ele>
        <time>2019-12-01T10:24:02.999Z</time>
      </trkpt>
      <trkpt lat="14.9504" lon="-17.05018">
        <ele>45.66</ele>
        <time>2019-12-01T10:24:07.999Z</time>
      </trkpt>
      <trkpt lat="14.95007" lon="-17.05019">
        <ele>46.16</ele>
        <time>2019-12-01T10:24:12.999Z</time>
      </trkpt>
      <trkpt lat="14.94975" lon="-17.0502">
        <ele>46.89</ele>
        <time>2019-12-01T10:24:17.999Z</time>
      </trkpt>
      <trkpt lat="14.94942" lon="-17.0502">
        <ele>47.66</ele>
        <time>2019-12-01T10:24:22.999Z</time>
      </trkpt>
      <trkpt lat="14.94909" lon="-17.05021">
        <ele>48.26</ele>
        <time>2019-12-01T10:24:27.999Z</time>
      </trkpt>
      <trkpt lat="14.94873" lon="-17.05023">
        <ele>49.05</ele>
        <time>2019-12-01T10:24:32.999Z</time>
      </trkpt>
      <trkpt lat="14.94839" lon="-17.05024">
        <ele>49.79</ele>
        <time>2019-12-01T10:24:37.999Z</time>
      </trkpt>
      <trkpt lat="14.94806" lon="-17.05026">
        <ele>50.34</ele>
        <time>2019-12-01T10:24:42.999Z</time>
      </trkpt>
      <trkpt lat="14.94774" lon="-17.05026">
        <ele>50.85</ele>
        <time>2019-12-01T10:24:47.999Z</time>
      </trkpt>
      <trkpt lat="14.94741" lon="-17.05029">
        <ele>51.32</ele>
        <time>2019-12-01T10:24:52.999Z</time>
      </trkpt>
      <trkpt lat="14.94708" lon="-17.0503">
        <ele>51.66</ele>
        <time>2019-12-01T10:24:57.999Z</time>
      </trkpt>
      <trkpt lat="14.94674" lon="-17.05032">
        <ele>52.12</ele>
        <time>2019-12-01T10:25:02.999Z</time>
      </trkpt>
      <trkpt lat="14.9464" lon="-17.0503">
        <ele>52.52</ele>
        <time>2019-12-01T10:25:07.999Z</time>
      </trkpt>
      <trkpt lat="14.94607" lon="-17.05034">
        <ele>52.75</ele>
        <time>2019-12-01T10:25:12.999Z</time>
      </trkpt>
      <trkpt lat="14.94574" lon="-17.05035">
        <ele>53.18</ele>
        <time>2019-12-01T10:25:17.999Z</time>
      </trkpt>
      <trkpt lat="14.94544" lon="-17.05036">
        <ele>53.69</ele>
        <time>2019-12-01T10:25:22.999Z</time>
      </trkpt>
      <trkpt lat="14.94513" lon="-17.05037">
        <ele>53.91</ele>
        <time>2019-12-01T10:25:27.999Z</time>
      </trkpt>
      <trkpt lat="14.94483" lon="-17.05037">
        <ele>53.91</ele>
        <time>2019-12-01T10:25:32.999Z</time>
      </trkpt>
      <trkpt lat="14.9445" lon="-17.0504">
        <ele>53.97</ele>
        <time>2019-12-01T10:25:37.999Z</time>
      </trkpt>
      <trkpt lat="14.94416" lon="-17.05042">
        <ele>54</ele>
        <time>2019-12-01T10:25:42.999Z</time>
      </trkpt>
      <trkpt lat="14.94382" lon="-17.05044">
        <ele>54.04</ele>
        <time>2019-12-01T10:25:47.999Z</time>
      </trkpt>
      <trkpt lat="14.94348" lon="-17.05044">
        <ele>54.22</ele>
        <time>2019-12-01T10:25:52.999Z</time>
      </trkpt>
      <trkpt lat="14.94315" lon="-17.05046">
        <ele>54.27</ele>
        <time>2019-12-01T10:25:57.999Z</time>
      </trkpt>
      <trkpt lat="14.94284" lon="-17.05046">
        <ele>54.39</ele>
        <time>2019-12-01T10:26:02.999Z</time>
      </trkpt>
      <trkpt lat="14.94255" lon="-17.05048">
        <ele>54.44</ele>
        <time>2019-12-01T10:26:07.999Z</time>
      </trkpt>
      <trkpt lat="14.94226" lon="-17.0505">
        <ele>54.51</ele>
        <time>2019-12-01T10:26:12.999Z</time>
      </trkpt>
      <trkpt lat="14.94196" lon="-17.05054">
        <ele>54.5</ele>
        <time>2019-12-01T10:26:17.999Z</time>
      </trkpt>
      <trkpt lat="14.94165" lon="-17.05056">
        <ele>54.22</ele>
        <time>2019-12-01T10:26:22.999Z</time>
      </trkpt>
      <trkpt lat="14.94132" lon="-17.05061">
        <ele>54.01</ele>
        <time>2019-12-01T10:26:27.999Z</time>
      </trkpt>
      <trkpt lat="14.94098" lon="-17.05066">
        <ele>53.88</ele>
        <time>2019-12-01T10:26:32.999Z</time>
      </trkpt>
      <trkpt lat="14.94064" lon="-17.05072">
        <ele>54.1</ele>
        <time>2019-12-01T10:26:37.999Z</time>
      </trkpt>
      <trkpt lat="14.94033" lon="-17.05075">
        <ele>54.31</ele>
        <time>2019-12-01T10:26:42.999Z</time>
      </trkpt>
      <trkpt lat="14.94001" lon="-17.05081">
        <ele>53.99</ele>
        <time>2019-12-01T10:26:47.999Z</time>
      </trkpt>
      <trkpt lat="14.9397" lon="-17.05085">
        <ele>53.81</ele>
        <time>2019-12-01T10:26:52.999Z</time>
      </trkpt>
      <trkpt lat="14.93939" lon="-17.05086">
        <ele>53.89</ele>
        <time>2019-12-01T10:26:57.999Z</time>
      </trkpt>
      <trkpt lat="14.93906" lon="-17.05092">
        <ele>53.58</ele>
        <time>2019-12-01T10:27:02.999Z</time>
      </trkpt>
      <trkpt lat="14.93875" lon="-17.05098">
        <ele>53.64</ele>
        <time>2019-12-01T10:27:07.999Z</time>
      </trkpt>
      <trkpt lat="14.93842" lon="-17.05103">
        <ele>53.72</ele>
        <time>2019-12-01T10:27:12.999Z</time>
      </trkpt>
      <trkpt lat="14.9381" lon="-17.05107">
        <ele>54.1</ele>
        <time>2019-12-01T10:27:17.999Z</time>
      </trkpt>
      <trkpt lat="14.93779" lon="-17.05111">
        <ele>54.52</ele>
        <time>2019-12-01T10:27:22.999Z</time>
      </trkpt>
      <trkpt lat="14.93748" lon="-17.05115">
        <ele>54.66</ele>
        <time>2019-12-01T10:27:27.999Z</time>
      </trkpt>
      <trkpt lat="14.93718" lon="-17.05119">
        <ele>54.73</ele>
        <time>2019-12-01T10:27:32.999Z</time>
      </trkpt>
      <trkpt lat="14.93688" lon="-17.05123">
        <ele>54.72</ele>
        <time>2019-12-01T10:27:37.999Z</time>
      </trkpt>
      <trkpt lat="14.93657" lon="-17.05127">
        <ele>54.86</ele>
        <time>2019-12-01T10:27:42.999Z</time>
      </trkpt>
      <trkpt lat="14.93624" lon="-17.05132">
        <ele>54.92</ele>
        <time>2019-12-01T10:27:47.999Z</time>
      </trkpt>
      <trkpt lat="14.93591" lon="-17.05136">
        <ele>55.11</ele>
        <time>2019-12-01T10:27:52.999Z</time>
      </trkpt>
      <trkpt lat="14.93556" lon="-17.0514">
        <ele>55.22</ele>
        <time>2019-12-01T10:27:57.999Z</time>
      </trkpt>
      <trkpt lat="14.93519" lon="-17.05145">
        <ele>55.23</ele>
        <time>2019-12-01T10:28:02.999Z</time>
      </trkpt>
      <trkpt lat="14.93483" lon="-17.0515">
        <ele>55.34</ele>
        <time>2019-12-01T10:28:07.999Z</time>
      </trkpt>
      <trkpt lat="14.93448" lon="-17.05153">
        <ele>55.24</ele>
        <time>2019-12-01T10:28:12.999Z</time>
      </trkpt>
      <trkpt lat="14.93413" lon="-17.05157">
        <ele>55.18</ele>
        <time>2019-12-01T10:28:17.999Z</time>
      </trkpt>
      <trkpt lat="14.93379" lon="-17.05164">
        <ele>55.14</ele>
        <time>2019-12-01T10:28:22.999Z</time>
      </trkpt>
      <trkpt lat="14.93345" lon="-17.05168">
        <ele>54.99</ele>
        <time>2019-12-01T10:28:27.999Z</time>
      </trkpt>
      <trkpt lat="14.93313" lon="-17.05172">
        <ele>54.83</ele>
        <time>2019-12-01T10:28:32.999Z</time>
      </trkpt>
      <trkpt lat="14.93281" lon="-17.05175">
        <ele>54.78</ele>
        <time>2019-12-01T10:28:37.999Z</time>
      </trkpt>
      <trkpt lat="14.9325" lon="-17.0518">
        <ele>54.68</ele>
        <time>2019-12-01T10:28:42.999Z</time>
      </trkpt>
      <trkpt lat="14.93221" lon="-17.05183">
        <ele>54.69</ele>
        <time>2019-12-01T10:28:47.999Z</time>
      </trkpt>
      <trkpt lat="14.93193" lon="-17.05187">
        <ele>54.57</ele>
        <time>2019-12-01T10:28:52.999Z</time>
      </trkpt>
      <trkpt lat="14.93169" lon="-17.05191">
        <ele>54.32</ele>
        <time>2019-12-01T10:28:57.999Z</time>
      </trkpt>
      <trkpt lat="14.93145" lon="-17.05194">
        <ele>54.12</ele>
        <time>2019-12-01T10:29:02.999Z</time>
      </trkpt>
      <trkpt lat="14.93122" lon="-17.05197">
        <ele>53.92</ele>
        <time>2019-12-01T10:29:07.999Z</time>
      </trkpt>
      <trkpt lat="14.93098" lon="-17.05199">
        <ele>53.86</ele>
        <time>2019-12-01T10:29:12.999Z</time>
      </trkpt>
      <trkpt lat="14.93072" lon="-17.05203">
        <ele>53.87</ele>
        <time>2019-12-01T10:29:17.999Z</time>
      </trkpt>
      <trkpt lat="14.93044" lon="-17.05206">
        <ele>53.76</ele>
        <time>2019-12-01T10:29:22.999Z</time>
      </trkpt>
      <trkpt lat="14.93015" lon="-17.0521">
        <ele>53.52</ele>
        <time>2019-12-01T10:29:27.999Z</time>
      </trkpt>
      <trkpt lat="14.92986" lon="-17.05214">
        <ele>53.29</ele>
        <time>2019-12-01T10:29:32.999Z</time>
      </trkpt>
      <trkpt lat="14.92955" lon="-17.05218">
        <ele>53.11</ele>
        <time>2019-12-01T10:29:37.999Z</time>
      </trkpt>
      <trkpt lat="14.92925" lon="-17.05222">
        <ele>52.97</ele>
        <time>2019-12-01T10:29:42.999Z</time>
      </trkpt>
      <trkpt lat="14.92897" lon="-17.05225">
        <ele>52.67</ele>
        <time>2019-12-01T10:29:47.999Z</time>
      </trkpt>
      <trkpt lat="14.92867" lon="-17.05233">
        <ele>52.24</ele>
        <time>2019-12-01T10:29:52.999Z</time>
      </trkpt>
      <trkpt lat="14.92838" lon="-17.05241">
        <ele>51.94</ele>
        <time>2019-12-01T10:29:57.999Z</time>
      </trkpt>
      <trkpt lat="14.9281" lon="-17.05251">
        <ele>51.78</ele>
        <time>2019-12-01T10:30:02.999Z</time>
      </trkpt>
      <trkpt lat="14.92784" lon="-17.05263">
        <ele>51.69</ele>
        <time>2019-12-01T10:30:07.999Z</time>
      </trkpt>
      <trkpt lat="14.92759" lon="-17.05275">
        <ele>51.58</ele>
        <time>2019-12-01T10:30:12.999Z</time>
      </trkpt>
      <trkpt lat="14.92735" lon="-17.05288">
        <ele>51.52</ele>
        <time>2019-12-01T10:30:17.999Z</time>
      </trkpt>
      <trkpt lat="14.92713" lon="-17.05302">
        <ele>51.32</ele>
        <time>2019-12-01T10:30:22.999Z</time>
      </trkpt>
      <trkpt lat="14.92693" lon="-17.05316">
        <ele>51.01</ele>
        <time>2019-12-01T10:30:27.999Z</time>
      </trkpt>
      <trkpt lat="14.92673" lon="-17.05329">
        <ele>50.35</ele>
        <time>2019-12-01T10:30:32.999Z</time>
      </trkpt>
      <trkpt lat="14.92653" lon="-17.05342">
        <ele>49.46</ele>
        <time>2019-12-01T10:30:37.999Z</time>
      </trkpt>
      <trkpt lat="14.92632" lon="-17.05354">
        <ele>48.67</ele>
        <time>2019-12-01T10:30:42.999Z</time>
      </trkpt>
      <trkpt lat="14.92612" lon="-17.05368">
        <ele>47.98</ele>
        <time>2019-12-01T10:30:47.999Z</time>
      </trkpt>
      <trkpt lat="14.92589" lon="-17.05382">
        <ele>47.25</ele>
        <time>2019-12-01T10:30:52.999Z</time>
      </trkpt>
      <trkpt lat="14.92567" lon="-17.05396">
        <ele>46.74</ele>
        <time>2019-12-01T10:30:57.999Z</time>
      </trkpt>
      <trkpt lat="14.92545" lon="-17.0541">
        <ele>46.42</ele>
        <time>2019-12-01T10:31:02.999Z</time>
      </trkpt>
      <trkpt lat="14.92527" lon="-17.05422">
        <ele>46.28</ele>
        <time>2019-12-01T10:31:07.000Z</time>
      </trkpt>
      <trkpt lat="14.92506" lon="-17.05438">
        <ele>46.33</ele>
        <time>2019-12-01T10:31:12.000Z</time>
      </trkpt>
      <trkpt lat="14.92484" lon="-17.05455">
        <ele>46.4</ele>
        <time>2019-12-01T10:31:17.000Z</time>
      </trkpt>
      <trkpt lat="14.92462" lon="-17.05474">
        <ele>46.46</ele>
        <time>2019-12-01T10:31:22.000Z</time>
      </trkpt>
      <trkpt lat="14.92441" lon="-17.05494">
        <ele>46.34</ele>
        <time>2019-12-01T10:31:27.000Z</time>
      </trkpt>
      <trkpt lat="14.92419" lon="-17.05514">
        <ele>46.11</ele>
        <time>2019-12-01T10:31:32.000Z</time>
      </trkpt>
      <trkpt lat="14.92395" lon="-17.05535">
        <ele>45.8</ele>
        <time>2019-12-01T10:31:37.000Z</time>
      </trkpt>
      <trkpt lat="14.92371" lon="-17.05557">
        <ele>45.58</ele>
        <time>2019-12-01T10:31:42.000Z</time>
      </trkpt>
      <trkpt lat="14.92348" lon="-17.05579">
        <ele>45.28</ele>
        <time>2019-12-01T10:31:47.000Z</time>
      </trkpt>
      <trkpt lat="14.92323" lon="-17.05602">
        <ele>45.06</ele>
        <time>2019-12-01T10:31:52.000Z</time>
      </trkpt>
      <trkpt lat="14.92298" lon="-17.05624">
        <ele>44.9</ele>
        <time>2019-12-01T10:31:57.000Z</time>
      </trkpt>
      <trkpt lat="14.92273" lon="-17.05647">
        <ele>44.88</ele>
        <time>2019-12-01T10:32:02.000Z</time>
      </trkpt>
      <trkpt lat="14.92249" lon="-17.0567">
        <ele>44.65</ele>
        <time>2019-12-01T10:32:07.000Z</time>
      </trkpt>
      <trkpt lat="14.92226" lon="-17.05693">
        <ele>44.3</ele>
        <time>2019-12-01T10:32:12.000Z</time>
      </trkpt>
      <trkpt lat="14.92203" lon="-17.05715">
        <ele>43.78</ele>
        <time>2019-12-01T10:32:17.000Z</time>
      </trkpt>
      <trkpt lat="14.9218" lon="-17.05736">
        <ele>43.37</ele>
        <time>2019-12-01T10:32:22.000Z</time>
      </trkpt>
      <trkpt lat="14.92159" lon="-17.05759">
        <ele>42.78</ele>
        <time>2019-12-01T10:32:27.000Z</time>
      </trkpt>
      <trkpt lat="14.92135" lon="-17.0578">
        <ele>42.09</ele>
        <time>2019-12-01T10:32:32.000Z</time>
      </trkpt>
      <trkpt lat="14.92113" lon="-17.05801">
        <ele>41.67</ele>
        <time>2019-12-01T10:32:37.000Z</time>
      </trkpt>
      <trkpt lat="14.9209" lon="-17.05822">
        <ele>41.39</ele>
        <time>2019-12-01T10:32:42.000Z</time>
      </trkpt>
      <trkpt lat="14.92068" lon="-17.05844">
        <ele>41.24</ele>
        <time>2019-12-01T10:32:47.000Z</time>
      </trkpt>
      <trkpt lat="14.92046" lon="-17.05865">
        <ele>40.83</ele>
        <time>2019-12-01T10:32:52.000Z</time>
      </trkpt>
      <trkpt lat="14.92025" lon="-17.05886">
        <ele>40.31</ele>
        <time>2019-12-01T10:32:57.000Z</time>
      </trkpt>
      <trkpt lat="14.92004" lon="-17.05908">
        <ele>39.72</ele>
        <time>2019-12-01T10:33:02.000Z</time>
      </trkpt>
      <trkpt lat="14.91983" lon="-17.05928">
        <ele>39.13</ele>
        <time>2019-12-01T10:33:07.000Z</time>
      </trkpt>
      <trkpt lat="14.91962" lon="-17.05947">
        <ele>38.84</ele>
        <time>2019-12-01T10:33:12.000Z</time>
      </trkpt>
      <trkpt lat="14.91943" lon="-17.05965">
        <ele>38.66</ele>
        <time>2019-12-01T10:33:17.000Z</time>
      </trkpt>
      <trkpt lat="14.91926" lon="-17.05982">
        <ele>38.56</ele>
        <time>2019-12-01T10:33:22.000Z</time>
      </trkpt>
      <trkpt lat="14.91909" lon="-17.05999">
        <ele>38.21</ele>
        <time>2019-12-01T10:33:27.000Z</time>
      </trkpt>
      <trkpt lat="14.9189" lon="-17.06017">
        <ele>37.73</ele>
        <time>2019-12-01T10:33:32.000Z</time>
      </trkpt>
      <trkpt lat="14.91872" lon="-17.06035">
        <ele>37.25</ele>
        <time>2019-12-01T10:33:37.000Z</time>
      </trkpt>
      <trkpt lat="14.91853" lon="-17.06053">
        <ele>36.91</ele>
        <time>2019-12-01T10:33:42.000Z</time>
      </trkpt>
      <trkpt lat="14.91834" lon="-17.06071">
        <ele>36.58</ele>
        <time>2019-12-01T10:33:47.000Z</time>
      </trkpt>
      <trkpt lat="14.91813" lon="-17.06091">
        <ele>36.29</ele>
        <time>2019-12-01T10:33:52.000Z</time>
      </trkpt>
      <trkpt lat="14.91791" lon="-17.06112">
        <ele>36.29</ele>
        <time>2019-12-01T10:33:57.000Z</time>
      </trkpt>
      <trkpt lat="14.9177" lon="-17.06132">
        <ele>36.39</ele>
        <time>2019-12-01T10:34:02.000Z</time>
      </trkpt>
      <trkpt lat="14.91749" lon="-17.06151">
        <ele>36.4</ele>
        <time>2019-12-01T10:34:07.000Z</time>
      </trkpt>
      <trkpt lat="14.91729" lon="-17.0617">
        <ele>36.38</ele>
        <time>2019-12-01T10:34:12.000Z</time>
      </trkpt>
      <trkpt lat="14.9171" lon="-17.06189">
        <ele>36.47</ele>
        <time>2019-12-01T10:34:17.000Z</time>
      </trkpt>
      <trkpt lat="14.91689" lon="-17.06208">
        <ele>36.52</ele>
        <time>2019-12-01T10:34:22.000Z</time>
      </trkpt>
      <trkpt lat="14.9167" lon="-17.06226">
        <ele>36.54</ele>
        <time>2019-12-01T10:34:27.000Z</time>
      </trkpt>
      <trkpt lat="14.91651" lon="-17.06244">
        <ele>36.58</ele>
        <time>2019-12-01T10:34:32.000Z</time>
      </trkpt>
      <trkpt lat="14.91632" lon="-17.06262">
        <ele>36.54</ele>
        <time>2019-12-01T10:34:37.000Z</time>
      </trkpt>
      <trkpt lat="14.91613" lon="-17.06279">
        <ele>36.53</ele>
        <time>2019-12-01T10:34:42.000Z</time>
      </trkpt>
      <trkpt lat="14.91595" lon="-17.06296">
        <ele>36.43</ele>
        <time>2019-12-01T10:34:47.000Z</time>
      </trkpt>
      <trkpt lat="14.91576" lon="-17.06314">
        <ele>36.27</ele>
        <time>2019-12-01T10:34:52.000Z</time>
      </trkpt>
      <trkpt lat="14.91556" lon="-17.06333">
        <ele>36.18</ele>
        <time>2019-12-01T10:34:57.000Z</time>
      </trkpt>
      <trkpt lat="14.91536" lon="-17.06351">
        <ele>36.14</ele>
        <time>2019-12-01T10:35:02.000Z</time>
      </trkpt>
      <trkpt lat="14.91516" lon="-17.06371">
        <ele>36.08</ele>
        <time>2019-12-01T10:35:07.000Z</time>
      </trkpt>
      <trkpt lat="14.91496" lon="-17.06389">
        <ele>36</ele>
        <time>2019-12-01T10:35:12.000Z</time>
      </trkpt>
      <trkpt lat="14.91476" lon="-17.06408">
        <ele>35.96</ele>
        <time>2019-12-01T10:35:17.000Z</time>
      </trkpt>
      <trkpt lat="14.91455" lon="-17.06427">
        <ele>35.96</ele>
        <time>2019-12-01T10:35:22.000Z</time>
      </trkpt>
      <trkpt lat="14.91434" lon="-17.06445">
        <ele>35.94</ele>
        <time>2019-12-01T10:35:27.000Z</time>
      </trkpt>
      <trkpt lat="14.91412" lon="-17.0646">
        <ele>35.88</ele>
        <time>2019-12-01T10:35:32.000Z</time>
      </trkpt>
      <trkpt lat="14.91389" lon="-17.06475">
        <ele>35.71</ele>
        <time>2019-12-01T10:35:37.000Z</time>
      </trkpt>
      <trkpt lat="14.91367" lon="-17.06492">
        <ele>35.37</ele>
        <time>2019-12-01T10:35:42.000Z</time>
      </trkpt>
      <trkpt lat="14.91343" lon="-17.06509">
        <ele>34.82</ele>
        <time>2019-12-01T10:35:47.000Z</time>
      </trkpt>
      <trkpt lat="14.91318" lon="-17.06528">
        <ele>34.31</ele>
        <time>2019-12-01T10:35:52.000Z</time>
      </trkpt>
      <trkpt lat="14.91293" lon="-17.06546">
        <ele>33.82</ele>
        <time>2019-12-01T10:35:57.000Z</time>
      </trkpt>
      <trkpt lat="14.91268" lon="-17.06564">
        <ele>33.46</ele>
        <time>2019-12-01T10:36:02.000Z</time>
      </trkpt>
      <trkpt lat="14.91244" lon="-17.06582">
        <ele>33.09</ele>
        <time>2019-12-01T10:36:07.000Z</time>
      </trkpt>
      <trkpt lat="14.91219" lon="-17.066">
        <ele>32.61</ele>
        <time>2019-12-01T10:36:12.000Z</time>
      </trkpt>
      <trkpt lat="14.91195" lon="-17.06618">
        <ele>32.14</ele>
        <time>2019-12-01T10:36:17.000Z</time>
      </trkpt>
      <trkpt lat="14.9117" lon="-17.06636">
        <ele>31.84</ele>
        <time>2019-12-01T10:36:22.000Z</time>
      </trkpt>
      <trkpt lat="14.91147" lon="-17.06654">
        <ele>31.76</ele>
        <time>2019-12-01T10:36:27.000Z</time>
      </trkpt>
      <trkpt lat="14.91123" lon="-17.06672">
        <ele>31.54</ele>
        <time>2019-12-01T10:36:32.000Z</time>
      </trkpt>
      <trkpt lat="14.91099" lon="-17.0669">
        <ele>31.27</ele>
        <time>2019-12-01T10:36:37.000Z</time>
      </trkpt>
      <trkpt lat="14.91075" lon="-17.06708">
        <ele>30.95</ele>
        <time>2019-12-01T10:36:42.000Z</time>
      </trkpt>
      <trkpt lat="14.9105" lon="-17.06727">
        <ele>30.55</ele>
        <time>2019-12-01T10:36:47.000Z</time>
      </trkpt>
      <trkpt lat="14.91024" lon="-17.06746">
        <ele>30.23</ele>
        <time>2019-12-01T10:36:52.000Z</time>
      </trkpt>
      <trkpt lat="14.90998" lon="-17.06766">
        <ele>29.6</ele>
        <time>2019-12-01T10:36:57.000Z</time>
      </trkpt>
      <trkpt lat="14.90969" lon="-17.06787">
        <ele>29.29</ele>
        <time>2019-12-01T10:37:02.000Z</time>
      </trkpt>
      <trkpt lat="14.9094" lon="-17.06808">
        <ele>28.63</ele>
        <time>2019-12-01T10:37:07.000Z</time>
      </trkpt>
      <trkpt lat="14.9091" lon="-17.06831">
        <ele>27.96</ele>
        <time>2019-12-01T10:37:12.000Z</time>
      </trkpt>
      <trkpt lat="14.90881" lon="-17.06852">
        <ele>27.41</ele>
        <time>2019-12-01T10:37:17.000Z</time>
      </trkpt>
      <trkpt lat="14.90854" lon="-17.06872">
        <ele>26.98</ele>
        <time>2019-12-01T10:37:22.000Z</time>
      </trkpt>
      <trkpt lat="14.90827" lon="-17.06892">
        <ele>26.73</ele>
        <time>2019-12-01T10:37:27.000Z</time>
      </trkpt>
      <trkpt lat="14.908" lon="-17.06911">
        <ele>26.85</ele>
        <time>2019-12-01T10:37:32.000Z</time>
      </trkpt>
      <trkpt lat="14.90774" lon="-17.06931">
        <ele>26.85</ele>
        <time>2019-12-01T10:37:37.000Z</time>
      </trkpt>
      <trkpt lat="14.90746" lon="-17.06952">
        <ele>26.59</ele>
        <time>2019-12-01T10:37:42.000Z</time>
      </trkpt>
      <trkpt lat="14.90719" lon="-17.06973">
        <ele>26.25</ele>
        <time>2019-12-01T10:37:47.000Z</time>
      </trkpt>
      <trkpt lat="14.90692" lon="-17.06993">
        <ele>25.73</ele>
        <time>2019-12-01T10:37:52.000Z</time>
      </trkpt>
      <trkpt lat="14.90666" lon="-17.07013">
        <ele>25.1</ele>
        <time>2019-12-01T10:37:57.000Z</time>
      </trkpt>
      <trkpt lat="14.90639" lon="-17.07033">
        <ele>24.6</ele>
        <time>2019-12-01T10:38:02.000Z</time>
      </trkpt>
      <trkpt lat="14.90611" lon="-17.07053">
        <ele>24.29</ele>
        <time>2019-12-01T10:38:07.000Z</time>
      </trkpt>
      <trkpt lat="14.90585" lon="-17.07073">
        <ele>24.33</ele>
        <time>2019-12-01T10:38:12.000Z</time>
      </trkpt>
      <trkpt lat="14.9056" lon="-17.07092">
        <ele>24.59</ele>
        <time>2019-12-01T10:38:17.000Z</time>
      </trkpt>
      <trkpt lat="14.90535" lon="-17.07111">
        <ele>24.8</ele>
        <time>2019-12-01T10:38:22.000Z</time>
      </trkpt>
      <trkpt lat="14.90511" lon="-17.07129">
        <ele>25.18</ele>
        <time>2019-12-01T10:38:27.000Z</time>
      </trkpt>
      <trkpt lat="14.9049" lon="-17.07145">
        <ele>25.29</ele>
        <time>2019-12-01T10:38:32.000Z</time>
      </trkpt>
      <trkpt lat="14.90468" lon="-17.0716">
        <ele>25.6</ele>
        <time>2019-12-01T10:38:37.000Z</time>
      </trkpt>
      <trkpt lat="14.90448" lon="-17.07175">
        <ele>25.9</ele>
        <time>2019-12-01T10:38:42.000Z</time>
      </trkpt>
      <trkpt lat="14.90427" lon="-17.07191">
        <ele>26.09</ele>
        <time>2019-12-01T10:38:47.000Z</time>
      </trkpt>
      <trkpt lat="14.90406" lon="-17.07207">
        <ele>26.32</ele>
        <time>2019-12-01T10:38:52.000Z</time>
      </trkpt>
      <trkpt lat="14.90385" lon="-17.07223">
        <ele>26.49</ele>
        <time>2019-12-01T10:38:57.000Z</time>
      </trkpt>
      <trkpt lat="14.90365" lon="-17.07239">
        <ele>26.81</ele>
        <time>2019-12-01T10:39:02.000Z</time>
      </trkpt>
      <trkpt lat="14.90343" lon="-17.07256">
        <ele>27.07</ele>
        <time>2019-12-01T10:39:07.000Z</time>
      </trkpt>
      <trkpt lat="14.90322" lon="-17.07272">
        <ele>27.21</ele>
        <time>2019-12-01T10:39:12.000Z</time>
      </trkpt>
      <trkpt lat="14.903" lon="-17.07288">
        <ele>27.43</ele>
        <time>2019-12-01T10:39:17.000Z</time>
      </trkpt>
      <trkpt lat="14.90279" lon="-17.07303">
        <ele>27.74</ele>
        <time>2019-12-01T10:39:22.000Z</time>
      </trkpt>
      <trkpt lat="14.90259" lon="-17.07319">
        <ele>27.86</ele>
        <time>2019-12-01T10:39:27.000Z</time>
      </trkpt>
      <trkpt lat="14.90238" lon="-17.07334">
        <ele>27.91</ele>
        <time>2019-12-01T10:39:32.000Z</time>
      </trkpt>
      <trkpt lat="14.90217" lon="-17.07347">
        <ele>27.9</ele>
        <time>2019-12-01T10:39:37.000Z</time>
      </trkpt>
      <trkpt lat="14.90196" lon="-17.0736">
        <ele>27.87</ele>
        <time>2019-12-01T10:39:42.000Z</time>
      </trkpt>
      <trkpt lat="14.90174" lon="-17.07371">
        <ele>27.9</ele>
        <time>2019-12-01T10:39:47.000Z</time>
      </trkpt>
      <trkpt lat="14.90151" lon="-17.07381">
        <ele>28.04</ele>
        <time>2019-12-01T10:39:52.000Z</time>
      </trkpt>
      <trkpt lat="14.90129" lon="-17.07389">
        <ele>28.21</ele>
        <time>2019-12-01T10:39:57.000Z</time>
      </trkpt>
      <trkpt lat="14.90105" lon="-17.07396">
        <ele>28.47</ele>
        <time>2019-12-01T10:40:02.000Z</time>
      </trkpt>
      <trkpt lat="14.90082" lon="-17.07402">
        <ele>28.85</ele>
        <time>2019-12-01T10:40:07.000Z</time>
      </trkpt>
      <trkpt lat="14.9006" lon="-17.07406">
        <ele>29.23</ele>
        <time>2019-12-01T10:40:12.000Z</time>
      </trkpt>
      <trkpt lat="14.90037" lon="-17.0741">
        <ele>29.65</ele>
        <time>2019-12-01T10:40:17.000Z</time>
      </trkpt>
      <trkpt lat="14.90016" lon="-17.07414">
        <ele>30.02</ele>
        <time>2019-12-01T10:40:22.000Z</time>
      </trkpt>
      <trkpt lat="14.89996" lon="-17.07418">
        <ele>30.42</ele>
        <time>2019-12-01T10:40:27.000Z</time>
      </trkpt>
      <trkpt lat="14.89978" lon="-17.07421">
        <ele>30.6</ele>
        <time>2019-12-01T10:40:32.000Z</time>
      </trkpt>
      <trkpt lat="14.89961" lon="-17.07424">
        <ele>30.72</ele>
        <time>2019-12-01T10:40:37.000Z</time>
      </trkpt>
      <trkpt lat="14.89945" lon="-17.07427">
        <ele>30.89</ele>
        <time>2019-12-01T10:40:42.000Z</time>
      </trkpt>
      <trkpt lat="14.89929" lon="-17.07429">
        <ele>31.08</ele>
        <time>2019-12-01T10:40:47.000Z</time>
      </trkpt>
      <trkpt lat="14.89915" lon="-17.07432">
        <ele>31.32</ele>
        <time>2019-12-01T10:40:52.000Z</time>
      </trkpt>
      <trkpt lat="14.89902" lon="-17.07434">
        <ele>31.57</ele>
        <time>2019-12-01T10:40:57.000Z</time>
      </trkpt>
      <trkpt lat="14.89888" lon="-17.07437">
        <ele>31.87</ele>
        <time>2019-12-01T10:41:02.000Z</time>
      </trkpt>
      <trkpt lat="14.89874" lon="-17.0744">
        <ele>32.19</ele>
        <time>2019-12-01T10:41:07.000Z</time>
      </trkpt>
      <trkpt lat="14.89859" lon="-17.07444">
        <ele>32.53</ele>
        <time>2019-12-01T10:41:12.000Z</time>
      </trkpt>
      <trkpt lat="14.89844" lon="-17.07447">
        <ele>32.88</ele>
        <time>2019-12-01T10:41:17.000Z</time>
      </trkpt>
      <trkpt lat="14.89828" lon="-17.07452">
        <ele>33.2</ele>
        <time>2019-12-01T10:41:22.000Z</time>
      </trkpt>
      <trkpt lat="14.89812" lon="-17.07456">
        <ele>33.52</ele>
        <time>2019-12-01T10:41:27.000Z</time>
      </trkpt>
      <trkpt lat="14.89795" lon="-17.07462">
        <ele>34.7</ele>
        <time>2019-12-01T10:41:32.000Z</time>
      </trkpt>
      <trkpt lat="14.89776" lon="-17.0747">
        <ele>36.33</ele>
        <time>2019-12-01T10:41:37.000Z</time>
      </trkpt>
      <trkpt lat="14.89757" lon="-17.07478">
        <ele>37.08</ele>
        <time>2019-12-01T10:41:42.000Z</time>
      </trkpt>
      <trkpt lat="14.89737" lon="-17.07485">
        <ele>37.69</ele>
        <time>2019-12-01T10:41:47.000Z</time>
      </trkpt>
      <trkpt lat="14.89718" lon="-17.07493">
        <ele>38.15</ele>
        <time>2019-12-01T10:41:52.000Z</time>
      </trkpt>
      <trkpt lat="14.897" lon="-17.075">
        <ele>38.52</ele>
        <time>2019-12-01T10:41:57.000Z</time>
      </trkpt>
      <trkpt lat="14.8968" lon="-17.07508">
        <ele>38.81</ele>
        <time>2019-12-01T10:42:02.000Z</time>
      </trkpt>
      <trkpt lat="14.8966" lon="-17.07517">
        <ele>39.02</ele>
        <time>2019-12-01T10:42:07.000Z</time>
      </trkpt>
      <trkpt lat="14.8964" lon="-17.07525">
        <ele>39.21</ele>
        <time>2019-12-01T10:42:12.000Z</time>
      </trkpt>
      <trkpt lat="14.89619" lon="-17.07533">
        <ele>39.4</ele>
        <time>2019-12-01T10:42:17.000Z</time>
      </trkpt>
      <trkpt lat="14.89597" lon="-17.07542">
        <ele>39.66</ele>
        <time>2019-12-01T10:42:22.000Z</time>
      </trkpt>
      <trkpt lat="14.89576" lon="-17.07551">
        <ele>39.96</ele>
        <time>2019-12-01T10:42:27.000Z</time>
      </trkpt>
      <trkpt lat="14.89554" lon="-17.0756">
        <ele>40.2</ele>
        <time>2019-12-01T10:42:32.000Z</time>
      </trkpt>
      <trkpt lat="14.89532" lon="-17.07569">
        <ele>40.41</ele>
        <time>2019-12-01T10:42:37.000Z</time>
      </trkpt>
      <trkpt lat="14.89511" lon="-17.07577">
        <ele>40.61</ele>
        <time>2019-12-01T10:42:42.000Z</time>
      </trkpt>
      <trkpt lat="14.89493" lon="-17.07585">
        <ele>40.86</ele>
        <time>2019-12-01T10:42:47.000Z</time>
      </trkpt>
      <trkpt lat="14.89475" lon="-17.07592">
        <ele>41.35</ele>
        <time>2019-12-01T10:42:52.000Z</time>
      </trkpt>
      <trkpt lat="14.89458" lon="-17.07599">
        <ele>41.44</ele>
        <time>2019-12-01T10:42:57.000Z</time>
      </trkpt>
      <trkpt lat="14.89442" lon="-17.07605">
        <ele>41.54</ele>
        <time>2019-12-01T10:43:02.000Z</time>
      </trkpt>
      <trkpt lat="14.89427" lon="-17.0761">
        <ele>41.65</ele>
        <time>2019-12-01T10:43:07.000Z</time>
      </trkpt>
      <trkpt lat="14.89411" lon="-17.07617">
        <ele>41.77</ele>
        <time>2019-12-01T10:43:12.000Z</time>
      </trkpt>
      <trkpt lat="14.89396" lon="-17.07623">
        <ele>41.91</ele>
        <time>2019-12-01T10:43:17.000Z</time>
      </trkpt>
      <trkpt lat="14.89382" lon="-17.07629">
        <ele>42.07</ele>
        <time>2019-12-01T10:43:22.000Z</time>
      </trkpt>
      <trkpt lat="14.89367" lon="-17.07636">
        <ele>42.23</ele>
        <time>2019-12-01T10:43:27.000Z</time>
      </trkpt>
      <trkpt lat="14.89352" lon="-17.07642">
        <ele>42.4</ele>
        <time>2019-12-01T10:43:32.000Z</time>
      </trkpt>
      <trkpt lat="14.89338" lon="-17.07648">
        <ele>42.59</ele>
        <time>2019-12-01T10:43:37.000Z</time>
      </trkpt>
      <trkpt lat="14.89321" lon="-17.07655">
        <ele>42.79</ele>
        <time>2019-12-01T10:43:42.000Z</time>
      </trkpt>
      <trkpt lat="14.89306" lon="-17.0766">
        <ele>44.09</ele>
        <time>2019-12-01T10:43:47.000Z</time>
      </trkpt>
      <trkpt lat="14.89286" lon="-17.07668">
        <ele>44.58</ele>
        <time>2019-12-01T10:43:52.000Z</time>
      </trkpt>
      <trkpt lat="14.89267" lon="-17.07676">
        <ele>44.84</ele>
        <time>2019-12-01T10:43:57.000Z</time>
      </trkpt>
      <trkpt lat="14.89248" lon="-17.07684">
        <ele>45.08</ele>
        <time>2019-12-01T10:44:02.000Z</time>
      </trkpt>
      <trkpt lat="14.8923" lon="-17.07691">
        <ele>45.28</ele>
        <time>2019-12-01T10:44:07.000Z</time>
      </trkpt>
      <trkpt lat="14.89211" lon="-17.07699">
        <ele>45.42</ele>
        <time>2019-12-01T10:44:12.000Z</time>
      </trkpt>
      <trkpt lat="14.8919" lon="-17.07708">
        <ele>45.57</ele>
        <time>2019-12-01T10:44:17.000Z</time>
      </trkpt>
      <trkpt lat="14.89171" lon="-17.07716">
        <ele>45.73</ele>
        <time>2019-12-01T10:44:22.000Z</time>
      </trkpt>
      <trkpt lat="14.89152" lon="-17.07724">
        <ele>45.86</ele>
        <time>2019-12-01T10:44:27.000Z</time>
      </trkpt>
      <trkpt lat="14.89137" lon="-17.07729">
        <ele>45.88</ele>
        <time>2019-12-01T10:44:32.000Z</time>
      </trkpt>
      <trkpt lat="14.89119" lon="-17.07737">
        <ele>46.01</ele>
        <time>2019-12-01T10:44:37.000Z</time>
      </trkpt>
      <trkpt lat="14.891" lon="-17.07744">
        <ele>46.11</ele>
        <time>2019-12-01T10:44:42.000Z</time>
      </trkpt>
      <trkpt lat="14.89083" lon="-17.07751">
        <ele>46.22</ele>
        <time>2019-12-01T10:44:47.000Z</time>
      </trkpt>
      <trkpt lat="14.89066" lon="-17.07759">
        <ele>46.28</ele>
        <time>2019-12-01T10:44:52.000Z</time>
      </trkpt>
      <trkpt lat="14.89049" lon="-17.07765">
        <ele>46.35</ele>
        <time>2019-12-01T10:44:57.000Z</time>
      </trkpt>
      <trkpt lat="14.89032" lon="-17.07772">
        <ele>46.43</ele>
        <time>2019-12-01T10:45:02.000Z</time>
      </trkpt>
      <trkpt lat="14.89015" lon="-17.07779">
        <ele>46.53</ele>
        <time>2019-12-01T10:45:07.000Z</time>
      </trkpt>
      <trkpt lat="14.88998" lon="-17.07787">
        <ele>46.95</ele>
        <time>2019-12-01T10:45:12.000Z</time>
      </trkpt>
      <trkpt lat="14.88981" lon="-17.07792">
        <ele>47.33</ele>
        <time>2019-12-01T10:45:17.000Z</time>
      </trkpt>
      <trkpt lat="14.88964" lon="-17.07799">
        <ele>47.7</ele>
        <time>2019-12-01T10:45:21.999Z</time>
      </trkpt>
      <trkpt lat="14.88947" lon="-17.07804">
        <ele>47.77</ele>
        <time>2019-12-01T10:45:26.999Z</time>
      </trkpt>
      <trkpt lat="14.8893" lon="-17.07811">
        <ele>47.86</ele>
        <time>2019-12-01T10:45:31.999Z</time>
      </trkpt>
      <trkpt lat="14.88913" lon="-17.07819">
        <ele>47.96</ele>
        <time>2019-12-01T10:45:36.999Z</time>
      </trkpt>
      <trkpt lat="14.88896" lon="-17.07826">
        <ele>48.29</ele>
        <time>2019-12-01T10:45:41.999Z</time>
      </trkpt>
      <trkpt lat="14.88879" lon="-17.07833">
        <ele>48.54</ele>
        <time>2019-12-01T10:45:46.999Z</time>
      </trkpt>
      <trkpt lat="14.88862" lon="-17.0784">
        <ele>49.04</ele>
        <time>2019-12-01T10:45:51.999Z</time>
      </trkpt>
      <trkpt lat="14.88843" lon="-17.07847">
        <ele>49.47</ele>
        <time>2019-12-01T10:45:56.999Z</time>
      </trkpt>
      <trkpt lat="14.88826" lon="-17.07853">
        <ele>49.71</ele>
        <time>2019-12-01T10:46:01.999Z</time>
      </trkpt>
      <trkpt lat="14.88808" lon="-17.07859">
        <ele>49.83</ele>
        <time>2019-12-01T10:46:06.999Z</time>
      </trkpt>
      <trkpt lat="14.88793" lon="-17.07866">
        <ele>49.89</ele>
        <time>2019-12-01T10:46:11.999Z</time>
      </trkpt>
      <trkpt lat="14.88776" lon="-17.07873">
        <ele>49.9</ele>
        <time>2019-12-01T10:46:16.999Z</time>
      </trkpt>
      <trkpt lat="14.88758" lon="-17.07879">
        <ele>49.9</ele>
        <time>2019-12-01T10:46:21.999Z</time>
      </trkpt>
      <trkpt lat="14.8874" lon="-17.07887">
        <ele>49.89</ele>
        <time>2019-12-01T10:46:26.999Z</time>
      </trkpt>
      <trkpt lat="14.88722" lon="-17.07893">
        <ele>49.9</ele>
        <time>2019-12-01T10:46:31.999Z</time>
      </trkpt>
      <trkpt lat="14.88706" lon="-17.07901">
        <ele>49.92</ele>
        <time>2019-12-01T10:46:36.999Z</time>
      </trkpt>
      <trkpt lat="14.88691" lon="-17.07906">
        <ele>49.95</ele>
        <time>2019-12-01T10:46:41.999Z</time>
      </trkpt>
      <trkpt lat="14.88677" lon="-17.07911">
        <ele>49.97</ele>
        <time>2019-12-01T10:46:46.999Z</time>
      </trkpt>
      <trkpt lat="14.88661" lon="-17.07915">
        <ele>49.98</ele>
        <time>2019-12-01T10:46:51.999Z</time>
      </trkpt>
      <trkpt lat="14.88644" lon="-17.07919">
        <ele>49.98</ele>
        <time>2019-12-01T10:46:56.999Z</time>
      </trkpt>
      <trkpt lat="14.8863" lon="-17.07923">
        <ele>49.98</ele>
        <time>2019-12-01T10:47:01.999Z</time>
      </trkpt>
      <trkpt lat="14.88612" lon="-17.07926">
        <ele>49.98</ele>
        <time>2019-12-01T10:47:06.999Z</time>
      </trkpt>
      <trkpt lat="14.88594" lon="-17.0793">
        <ele>50</ele>
        <time>2019-12-01T10:47:11.999Z</time>
      </trkpt>
      <trkpt lat="14.88576" lon="-17.07935">
        <ele>50.03</ele>
        <time>2019-12-01T10:47:16.999Z</time>
      </trkpt>
      <trkpt lat="14.8856" lon="-17.07939">
        <ele>50.06</ele>
        <time>2019-12-01T10:47:21.999Z</time>
      </trkpt>
      <trkpt lat="14.88545" lon="-17.07943">
        <ele>50.1</ele>
        <time>2019-12-01T10:47:26.999Z</time>
      </trkpt>
      <trkpt lat="14.88529" lon="-17.07947">
        <ele>50.12</ele>
        <time>2019-12-01T10:47:31.999Z</time>
      </trkpt>
      <trkpt lat="14.88511" lon="-17.07951">
        <ele>50.22</ele>
        <time>2019-12-01T10:47:36.999Z</time>
      </trkpt>
      <trkpt lat="14.88492" lon="-17.07955">
        <ele>50.33</ele>
        <time>2019-12-01T10:47:41.999Z</time>
      </trkpt>
      <trkpt lat="14.88473" lon="-17.07961">
        <ele>50.35</ele>
        <time>2019-12-01T10:47:46.999Z</time>
      </trkpt>
      <trkpt lat="14.88454" lon="-17.07966">
        <ele>50.28</ele>
        <time>2019-12-01T10:47:51.999Z</time>
      </trkpt>
      <trkpt lat="14.88435" lon="-17.0797">
        <ele>50.23</ele>
        <time>2019-12-01T10:47:56.999Z</time>
      </trkpt>
      <trkpt lat="14.88415" lon="-17.07975">
        <ele>50.2</ele>
        <time>2019-12-01T10:48:01.999Z</time>
      </trkpt>
      <trkpt lat="14.88394" lon="-17.0798">
        <ele>50.19</ele>
        <time>2019-12-01T10:48:06.999Z</time>
      </trkpt>
      <trkpt lat="14.88374" lon="-17.07985">
        <ele>50.2</ele>
        <time>2019-12-01T10:48:11.999Z</time>
      </trkpt>
      <trkpt lat="14.88353" lon="-17.0799">
        <ele>50.26</ele>
        <time>2019-12-01T10:48:16.999Z</time>
      </trkpt>
      <trkpt lat="14.88333" lon="-17.07995">
        <ele>50.33</ele>
        <time>2019-12-01T10:48:21.999Z</time>
      </trkpt>
      <trkpt lat="14.88314" lon="-17.07999">
        <ele>50.35</ele>
        <time>2019-12-01T10:48:26.999Z</time>
      </trkpt>
      <trkpt lat="14.88294" lon="-17.08006">
        <ele>50.33</ele>
        <time>2019-12-01T10:48:31.999Z</time>
      </trkpt>
      <trkpt lat="14.88274" lon="-17.08012">
        <ele>50.27</ele>
        <time>2019-12-01T10:48:36.999Z</time>
      </trkpt>
      <trkpt lat="14.88251" lon="-17.08016">
        <ele>50.22</ele>
        <time>2019-12-01T10:48:41.999Z</time>
      </trkpt>
      <trkpt lat="14.88226" lon="-17.08023">
        <ele>50.21</ele>
        <time>2019-12-01T10:48:46.999Z</time>
      </trkpt>
      <trkpt lat="14.88202" lon="-17.08029">
        <ele>50.17</ele>
        <time>2019-12-01T10:48:51.999Z</time>
      </trkpt>
      <trkpt lat="14.88179" lon="-17.08037">
        <ele>50.14</ele>
        <time>2019-12-01T10:48:56.999Z</time>
      </trkpt>
      <trkpt lat="14.88154" lon="-17.08045">
        <ele>50.14</ele>
        <time>2019-12-01T10:49:01.999Z</time>
      </trkpt>
      <trkpt lat="14.88127" lon="-17.08055">
        <ele>50.21</ele>
        <time>2019-12-01T10:49:06.999Z</time>
      </trkpt>
      <trkpt lat="14.88102" lon="-17.08066">
        <ele>50.28</ele>
        <time>2019-12-01T10:49:11.999Z</time>
      </trkpt>
      <trkpt lat="14.88075" lon="-17.08076">
        <ele>50.34</ele>
        <time>2019-12-01T10:49:16.999Z</time>
      </trkpt>
      <trkpt lat="14.88047" lon="-17.08086">
        <ele>50.38</ele>
        <time>2019-12-01T10:49:21.999Z</time>
      </trkpt>
      <trkpt lat="14.88018" lon="-17.08097">
        <ele>50.53</ele>
        <time>2019-12-01T10:49:26.999Z</time>
      </trkpt>
      <trkpt lat="14.87989" lon="-17.08106">
        <ele>50.78</ele>
        <time>2019-12-01T10:49:31.999Z</time>
      </trkpt>
      <trkpt lat="14.87962" lon="-17.08117">
        <ele>51.04</ele>
        <time>2019-12-01T10:49:36.999Z</time>
      </trkpt>
      <trkpt lat="14.87935" lon="-17.08127">
        <ele>51.36</ele>
        <time>2019-12-01T10:49:41.999Z</time>
      </trkpt>
      <trkpt lat="14.8791" lon="-17.08137">
        <ele>51.66</ele>
        <time>2019-12-01T10:49:46.999Z</time>
      </trkpt>
      <trkpt lat="14.87885" lon="-17.08147">
        <ele>52.12</ele>
        <time>2019-12-01T10:49:51.999Z</time>
      </trkpt>
      <trkpt lat="14.87862" lon="-17.08156">
        <ele>52.71</ele>
        <time>2019-12-01T10:49:56.999Z</time>
      </trkpt>
      <trkpt lat="14.87841" lon="-17.08163">
        <ele>53.12</ele>
        <time>2019-12-01T10:50:01.999Z</time>
      </trkpt>
      <trkpt lat="14.8782" lon="-17.08171">
        <ele>53.5</ele>
        <time>2019-12-01T10:50:06.999Z</time>
      </trkpt>
      <trkpt lat="14.87799" lon="-17.08179">
        <ele>53.74</ele>
        <time>2019-12-01T10:50:11.999Z</time>
      </trkpt>
      <trkpt lat="14.87776" lon="-17.08188">
        <ele>53.8</ele>
        <time>2019-12-01T10:50:16.999Z</time>
      </trkpt>
      <trkpt lat="14.87754" lon="-17.08197">
        <ele>53.99</ele>
        <time>2019-12-01T10:50:21.999Z</time>
      </trkpt>
      <trkpt lat="14.87732" lon="-17.08205">
        <ele>54.17</ele>
        <time>2019-12-01T10:50:26.999Z</time>
      </trkpt>
      <trkpt lat="14.87707" lon="-17.08213">
        <ele>54.33</ele>
        <time>2019-12-01T10:50:31.999Z</time>
      </trkpt>
      <trkpt lat="14.87682" lon="-17.08222">
        <ele>54.52</ele>
        <time>2019-12-01T10:50:36.999Z</time>
      </trkpt>
      <trkpt lat="14.87655" lon="-17.08234">
        <ele>54.84</ele>
        <time>2019-12-01T10:50:41.999Z</time>
      </trkpt>
      <trkpt lat="14.87628" lon="-17.08246">
        <ele>55.21</ele>
        <time>2019-12-01T10:50:46.999Z</time>
      </trkpt>
      <trkpt lat="14.876" lon="-17.08261">
        <ele>55.45</ele>
        <time>2019-12-01T10:50:51.999Z</time>
      </trkpt>
      <trkpt lat="14.87571" lon="-17.08278">
        <ele>55.65</ele>
        <time>2019-12-01T10:50:56.999Z</time>
      </trkpt>
      <trkpt lat="14.87542" lon="-17.08294">
        <ele>55.91</ele>
        <time>2019-12-01T10:51:01.999Z</time>
      </trkpt>
      <trkpt lat="14.87516" lon="-17.08315">
        <ele>56.27</ele>
        <time>2019-12-01T10:51:06.999Z</time>
      </trkpt>
      <trkpt lat="14.87493" lon="-17.08335">
        <ele>56.62</ele>
        <time>2019-12-01T10:51:11.999Z</time>
      </trkpt>
      <trkpt lat="14.87472" lon="-17.08355">
        <ele>56.42</ele>
        <time>2019-12-01T10:51:16.999Z</time>
      </trkpt>
      <trkpt lat="14.87451" lon="-17.08374">
        <ele>56.36</ele>
        <time>2019-12-01T10:51:21.999Z</time>
      </trkpt>
      <trkpt lat="14.87429" lon="-17.08393">
        <ele>56.68</ele>
        <time>2019-12-01T10:51:26.999Z</time>
      </trkpt>
      <trkpt lat="14.87408" lon="-17.08413">
        <ele>57.11</ele>
        <time>2019-12-01T10:51:31.999Z</time>
      </trkpt>
      <trkpt lat="14.87387" lon="-17.08433">
        <ele>57.61</ele>
        <time>2019-12-01T10:51:36.999Z</time>
      </trkpt>
      <trkpt lat="14.87365" lon="-17.08452">
        <ele>57.82</ele>
        <time>2019-12-01T10:51:41.999Z</time>
      </trkpt>
      <trkpt lat="14.87344" lon="-17.08472">
        <ele>57.89</ele>
        <time>2019-12-01T10:51:46.999Z</time>
      </trkpt>
      <trkpt lat="14.87323" lon="-17.08492">
        <ele>57.83</ele>
        <time>2019-12-01T10:51:51.999Z</time>
      </trkpt>
      <trkpt lat="14.87301" lon="-17.08511">
        <ele>57.69</ele>
        <time>2019-12-01T10:51:56.999Z</time>
      </trkpt>
      <trkpt lat="14.87281" lon="-17.08531">
        <ele>57.56</ele>
        <time>2019-12-01T10:52:01.999Z</time>
      </trkpt>
      <trkpt lat="14.87261" lon="-17.08549">
        <ele>57.58</ele>
        <time>2019-12-01T10:52:06.999Z</time>
      </trkpt>
      <trkpt lat="14.87241" lon="-17.08568">
        <ele>57.84</ele>
        <time>2019-12-01T10:52:11.999Z</time>
      </trkpt>
      <trkpt lat="14.87218" lon="-17.08588">
        <ele>58.17</ele>
        <time>2019-12-01T10:52:16.999Z</time>
      </trkpt>
      <trkpt lat="14.87195" lon="-17.0861">
        <ele>58.63</ele>
        <time>2019-12-01T10:52:21.999Z</time>
      </trkpt>
      <trkpt lat="14.87174" lon="-17.08629">
        <ele>58.69</ele>
        <time>2019-12-01T10:52:26.999Z</time>
      </trkpt>
      <trkpt lat="14.87153" lon="-17.08648">
        <ele>58.49</ele>
        <time>2019-12-01T10:52:31.999Z</time>
      </trkpt>
      <trkpt lat="14.87132" lon="-17.08667">
        <ele>58.15</ele>
        <time>2019-12-01T10:52:36.999Z</time>
      </trkpt>
      <trkpt lat="14.87111" lon="-17.08687">
        <ele>57.87</ele>
        <time>2019-12-01T10:52:41.999Z</time>
      </trkpt>
      <trkpt lat="14.8709" lon="-17.08706">
        <ele>57.76</ele>
        <time>2019-12-01T10:52:46.999Z</time>
      </trkpt>
      <trkpt lat="14.87069" lon="-17.08725">
        <ele>57.66</ele>
        <time>2019-12-01T10:52:51.999Z</time>
      </trkpt>
      <trkpt lat="14.87048" lon="-17.08744">
        <ele>57.62</ele>
        <time>2019-12-01T10:52:56.999Z</time>
      </trkpt>
      <trkpt lat="14.87026" lon="-17.08763">
        <ele>57.85</ele>
        <time>2019-12-01T10:53:01.999Z</time>
      </trkpt>
      <trkpt lat="14.87005" lon="-17.08782">
        <ele>58.04</ele>
        <time>2019-12-01T10:53:06.999Z</time>
      </trkpt>
      <trkpt lat="14.86984" lon="-17.08801">
        <ele>58.07</ele>
        <time>2019-12-01T10:53:11.999Z</time>
      </trkpt>
      <trkpt lat="14.86963" lon="-17.08821">
        <ele>58.08</ele>
        <time>2019-12-01T10:53:16.999Z</time>
      </trkpt>
      <trkpt lat="14.86943" lon="-17.08839">
        <ele>57.76</ele>
        <time>2019-12-01T10:53:21.999Z</time>
      </trkpt>
      <trkpt lat="14.86923" lon="-17.08858">
        <ele>57.69</ele>
        <time>2019-12-01T10:53:26.999Z</time>
      </trkpt>
      <trkpt lat="14.86902" lon="-17.08878">
        <ele>57.66</ele>
        <time>2019-12-01T10:53:31.999Z</time>
      </trkpt>
      <trkpt lat="14.86882" lon="-17.08897">
        <ele>57.83</ele>
        <time>2019-12-01T10:53:36.999Z</time>
      </trkpt>
      <trkpt lat="14.86861" lon="-17.08916">
        <ele>57.95</ele>
        <time>2019-12-01T10:53:41.999Z</time>
      </trkpt>
      <trkpt lat="14.86839" lon="-17.08936">
        <ele>57.99</ele>
        <time>2019-12-01T10:53:46.999Z</time>
      </trkpt>
      <trkpt lat="14.86817" lon="-17.08956">
        <ele>58.09</ele>
        <time>2019-12-01T10:53:51.999Z</time>
      </trkpt>
      <trkpt lat="14.86797" lon="-17.08975">
        <ele>58.07</ele>
        <time>2019-12-01T10:53:56.999Z</time>
      </trkpt>
      <trkpt lat="14.86775" lon="-17.08995">
        <ele>58.04</ele>
        <time>2019-12-01T10:54:01.999Z</time>
      </trkpt>
      <trkpt lat="14.86752" lon="-17.09015">
        <ele>58.05</ele>
        <time>2019-12-01T10:54:06.999Z</time>
      </trkpt>
      <trkpt lat="14.86727" lon="-17.09033">
        <ele>58.22</ele>
        <time>2019-12-01T10:54:11.999Z</time>
      </trkpt>
      <trkpt lat="14.86702" lon="-17.09052">
        <ele>58.43</ele>
        <time>2019-12-01T10:54:16.999Z</time>
      </trkpt>
      <trkpt lat="14.86676" lon="-17.09072">
        <ele>58.52</ele>
        <time>2019-12-01T10:54:21.999Z</time>
      </trkpt>
      <trkpt lat="14.86649" lon="-17.09093">
        <ele>58.69</ele>
        <time>2019-12-01T10:54:26.999Z</time>
      </trkpt>
      <trkpt lat="14.86621" lon="-17.09115">
        <ele>58.86</ele>
        <time>2019-12-01T10:54:31.999Z</time>
      </trkpt>
      <trkpt lat="14.86594" lon="-17.09137">
        <ele>58.97</ele>
        <time>2019-12-01T10:54:36.999Z</time>
      </trkpt>
      <trkpt lat="14.86565" lon="-17.09159">
        <ele>59.69</ele>
        <time>2019-12-01T10:54:41.999Z</time>
      </trkpt>
      <trkpt lat="14.86538" lon="-17.09181">
        <ele>60.49</ele>
        <time>2019-12-01T10:54:46.999Z</time>
      </trkpt>
      <trkpt lat="14.86511" lon="-17.09203">
        <ele>61.05</ele>
        <time>2019-12-01T10:54:51.999Z</time>
      </trkpt>
      <trkpt lat="14.86484" lon="-17.09224">
        <ele>61.4</ele>
        <time>2019-12-01T10:54:56.999Z</time>
      </trkpt>
      <trkpt lat="14.86458" lon="-17.09245">
        <ele>61.81</ele>
        <time>2019-12-01T10:55:01.999Z</time>
      </trkpt>
      <trkpt lat="14.86431" lon="-17.09266">
        <ele>62.17</ele>
        <time>2019-12-01T10:55:06.999Z</time>
      </trkpt>
      <trkpt lat="14.86405" lon="-17.09286">
        <ele>62.22</ele>
        <time>2019-12-01T10:55:11.999Z</time>
      </trkpt>
      <trkpt lat="14.8638" lon="-17.09306">
        <ele>62.2</ele>
        <time>2019-12-01T10:55:16.999Z</time>
      </trkpt>
      <trkpt lat="14.86356" lon="-17.09324">
        <ele>62.17</ele>
        <time>2019-12-01T10:55:21.999Z</time>
      </trkpt>
      <trkpt lat="14.86334" lon="-17.09342">
        <ele>62.26</ele>
        <time>2019-12-01T10:55:26.999Z</time>
      </trkpt>
      <trkpt lat="14.86315" lon="-17.09357">
        <ele>62.09</ele>
        <time>2019-12-01T10:55:31.999Z</time>
      </trkpt>
      <trkpt lat="14.86298" lon="-17.09371">
        <ele>61.69</ele>
        <time>2019-12-01T10:55:36.999Z</time>
      </trkpt>
      <trkpt lat="14.86281" lon="-17.09384">
        <ele>61.39</ele>
        <time>2019-12-01T10:55:41.999Z</time>
      </trkpt>
      <trkpt lat="14.86264" lon="-17.09397">
        <ele>61.5</ele>
        <time>2019-12-01T10:55:46.999Z</time>
      </trkpt>
      <trkpt lat="14.86247" lon="-17.09411">
        <ele>61.33</ele>
        <time>2019-12-01T10:55:51.999Z</time>
      </trkpt>
      <trkpt lat="14.8623" lon="-17.09424">
        <ele>61.16</ele>
        <time>2019-12-01T10:55:56.999Z</time>
      </trkpt>
      <trkpt lat="14.86212" lon="-17.09438">
        <ele>61.16</ele>
        <time>2019-12-01T10:56:01.999Z</time>
      </trkpt>
      <trkpt lat="14.86194" lon="-17.09452">
        <ele>61.25</ele>
        <time>2019-12-01T10:56:06.999Z</time>
      </trkpt>
      <trkpt lat="14.86174" lon="-17.09467">
        <ele>61.04</ele>
        <time>2019-12-01T10:56:11.999Z</time>
      </trkpt>
      <trkpt lat="14.86154" lon="-17.09483">
        <ele>60.17</ele>
        <time>2019-12-01T10:56:16.999Z</time>
      </trkpt>
      <trkpt lat="14.86132" lon="-17.095">
        <ele>59.76</ele>
        <time>2019-12-01T10:56:21.999Z</time>
      </trkpt>
      <trkpt lat="14.8611" lon="-17.09516">
        <ele>59.54</ele>
        <time>2019-12-01T10:56:26.999Z</time>
      </trkpt>
      <trkpt lat="14.86087" lon="-17.09536">
        <ele>59.23</ele>
        <time>2019-12-01T10:56:31.999Z</time>
      </trkpt>
      <trkpt lat="14.86062" lon="-17.09555">
        <ele>59.02</ele>
        <time>2019-12-01T10:56:36.999Z</time>
      </trkpt>
      <trkpt lat="14.86036" lon="-17.09576">
        <ele>58.93</ele>
        <time>2019-12-01T10:56:41.999Z</time>
      </trkpt>
      <trkpt lat="14.8601" lon="-17.09596">
        <ele>58.95</ele>
        <time>2019-12-01T10:56:46.999Z</time>
      </trkpt>
      <trkpt lat="14.85983" lon="-17.09618">
        <ele>58.9</ele>
        <time>2019-12-01T10:56:51.999Z</time>
      </trkpt>
      <trkpt lat="14.85955" lon="-17.09639">
        <ele>58.34</ele>
        <time>2019-12-01T10:56:56.999Z</time>
      </trkpt>
      <trkpt lat="14.85928" lon="-17.09661">
        <ele>57.97</ele>
        <time>2019-12-01T10:57:01.999Z</time>
      </trkpt>
      <trkpt lat="14.85901" lon="-17.09682">
        <ele>57.91</ele>
        <time>2019-12-01T10:57:06.999Z</time>
      </trkpt>
      <trkpt lat="14.85875" lon="-17.09702">
        <ele>57.83</ele>
        <time>2019-12-01T10:57:11.999Z</time>
      </trkpt>
      <trkpt lat="14.85849" lon="-17.09723">
        <ele>57.56</ele>
        <time>2019-12-01T10:57:16.999Z</time>
      </trkpt>
      <trkpt lat="14.85824" lon="-17.09742">
        <ele>57.43</ele>
        <time>2019-12-01T10:57:21.999Z</time>
      </trkpt>
      <trkpt lat="14.85802" lon="-17.0976">
        <ele>57.51</ele>
        <time>2019-12-01T10:57:26.999Z</time>
      </trkpt>
      <trkpt lat="14.85782" lon="-17.09775">
        <ele>57.94</ele>
        <time>2019-12-01T10:57:31.999Z</time>
      </trkpt>
      <trkpt lat="14.85763" lon="-17.09791">
        <ele>58.06</ele>
        <time>2019-12-01T10:57:36.999Z</time>
      </trkpt>
      <trkpt lat="14.85744" lon="-17.09806">
        <ele>58.03</ele>
        <time>2019-12-01T10:57:41.999Z</time>
      </trkpt>
      <trkpt lat="14.85727" lon="-17.09819">
        <ele>58.09</ele>
        <time>2019-12-01T10:57:46.999Z</time>
      </trkpt>
      <trkpt lat="14.8571" lon="-17.09834">
        <ele>58.25</ele>
        <time>2019-12-01T10:57:51.999Z</time>
      </trkpt>
      <trkpt lat="14.85693" lon="-17.0985">
        <ele>58.08</ele>
        <time>2019-12-01T10:57:56.999Z</time>
      </trkpt>
      <trkpt lat="14.85677" lon="-17.09866">
        <ele>57.91</ele>
        <time>2019-12-01T10:58:01.999Z</time>
      </trkpt>
      <trkpt lat="14.85662" lon="-17.09881">
        <ele>57.76</ele>
        <time>2019-12-01T10:58:06.999Z</time>
      </trkpt>
      <trkpt lat="14.85645" lon="-17.09899">
        <ele>57.66</ele>
        <time>2019-12-01T10:58:11.999Z</time>
      </trkpt>
      <trkpt lat="14.8563" lon="-17.09918">
        <ele>57.4</ele>
        <time>2019-12-01T10:58:16.999Z</time>
      </trkpt>
      <trkpt lat="14.85614" lon="-17.09938">
        <ele>57.21</ele>
        <time>2019-12-01T10:58:21.999Z</time>
      </trkpt>
      <trkpt lat="14.85597" lon="-17.09959">
        <ele>57.09</ele>
        <time>2019-12-01T10:58:26.999Z</time>
      </trkpt>
      <trkpt lat="14.85579" lon="-17.09979">
        <ele>57.01</ele>
        <time>2019-12-01T10:58:31.999Z</time>
      </trkpt>
      <trkpt lat="14.85562" lon="-17.10001">
        <ele>56.95</ele>
        <time>2019-12-01T10:58:36.999Z</time>
      </trkpt>
      <trkpt lat="14.85544" lon="-17.10022">
        <ele>57.03</ele>
        <time>2019-12-01T10:58:41.999Z</time>
      </trkpt>
      <trkpt lat="14.85528" lon="-17.10042">
        <ele>57.07</ele>
        <time>2019-12-01T10:58:46.999Z</time>
      </trkpt>
      <trkpt lat="14.85512" lon="-17.10061">
        <ele>56.47</ele>
        <time>2019-12-01T10:58:51.999Z</time>
      </trkpt>
      <trkpt lat="14.85497" lon="-17.10079">
        <ele>55.88</ele>
        <time>2019-12-01T10:58:56.999Z</time>
      </trkpt>
      <trkpt lat="14.8548" lon="-17.10099">
        <ele>55.28</ele>
        <time>2019-12-01T10:59:01.999Z</time>
      </trkpt>
      <trkpt lat="14.85465" lon="-17.10119">
        <ele>55.01</ele>
        <time>2019-12-01T10:59:06.999Z</time>
      </trkpt>
      <trkpt lat="14.85449" lon="-17.10138">
        <ele>55.04</ele>
        <time>2019-12-01T10:59:11.999Z</time>
      </trkpt>
      <trkpt lat="14.85433" lon="-17.10157">
        <ele>55.33</ele>
        <time>2019-12-01T10:59:16.999Z</time>
      </trkpt>
      <trkpt lat="14.85419" lon="-17.10176">
        <ele>55.63</ele>
        <time>2019-12-01T10:59:21.999Z</time>
      </trkpt>
      <trkpt lat="14.85407" lon="-17.1019">
        <ele>55.86</ele>
        <time>2019-12-01T10:59:26.000Z</time>
      </trkpt>
      <trkpt lat="14.85393" lon="-17.10207">
        <ele>56.08</ele>
        <time>2019-12-01T10:59:31.000Z</time>
      </trkpt>
      <trkpt lat="14.85378" lon="-17.10225">
        <ele>56.32</ele>
        <time>2019-12-01T10:59:36.000Z</time>
      </trkpt>
      <trkpt lat="14.85365" lon="-17.1024">
        <ele>56.31</ele>
        <time>2019-12-01T10:59:41.000Z</time>
      </trkpt>
      <trkpt lat="14.85349" lon="-17.1026">
        <ele>56.19</ele>
        <time>2019-12-01T10:59:46.000Z</time>
      </trkpt>
      <trkpt lat="14.85331" lon="-17.10281">
        <ele>56.01</ele>
        <time>2019-12-01T10:59:51.000Z</time>
      </trkpt>
      <trkpt lat="14.85315" lon="-17.10301">
        <ele>55.59</ele>
        <time>2019-12-01T10:59:56.000Z</time>
      </trkpt>
      <trkpt lat="14.85297" lon="-17.10322">
        <ele>55.12</ele>
        <time>2019-12-01T11:00:01.000Z</time>
      </trkpt>
      <trkpt lat="14.8528" lon="-17.10344">
        <ele>54.72</ele>
        <time>2019-12-01T11:00:06.000Z</time>
      </trkpt>
      <trkpt lat="14.85262" lon="-17.10366">
        <ele>54.5</ele>
        <time>2019-12-01T11:00:11.000Z</time>
      </trkpt>
      <trkpt lat="14.85243" lon="-17.10387">
        <ele>54.26</ele>
        <time>2019-12-01T11:00:16.000Z</time>
      </trkpt>
      <trkpt lat="14.85227" lon="-17.10407">
        <ele>53.87</ele>
        <time>2019-12-01T11:00:21.000Z</time>
      </trkpt>
      <trkpt lat="14.85209" lon="-17.10429">
        <ele>53.52</ele>
        <time>2019-12-01T11:00:26.000Z</time>
      </trkpt>
      <trkpt lat="14.85192" lon="-17.10449">
        <ele>53.03</ele>
        <time>2019-12-01T11:00:31.000Z</time>
      </trkpt>
      <trkpt lat="14.85175" lon="-17.10472">
        <ele>52.58</ele>
        <time>2019-12-01T11:00:36.000Z</time>
      </trkpt>
      <trkpt lat="14.85155" lon="-17.10495">
        <ele>52.13</ele>
        <time>2019-12-01T11:00:41.000Z</time>
      </trkpt>
      <trkpt lat="14.85135" lon="-17.1052">
        <ele>51.52</ele>
        <time>2019-12-01T11:00:46.000Z</time>
      </trkpt>
      <trkpt lat="14.85114" lon="-17.10547">
        <ele>50.92</ele>
        <time>2019-12-01T11:00:51.000Z</time>
      </trkpt>
      <trkpt lat="14.85092" lon="-17.10573">
        <ele>50.28</ele>
        <time>2019-12-01T11:00:56.000Z</time>
      </trkpt>
      <trkpt lat="14.8507" lon="-17.106">
        <ele>49.75</ele>
        <time>2019-12-01T11:01:01.000Z</time>
      </trkpt>
      <trkpt lat="14.85048" lon="-17.10627">
        <ele>49.07</ele>
        <time>2019-12-01T11:01:06.000Z</time>
      </trkpt>
      <trkpt lat="14.85027" lon="-17.10654">
        <ele>48.48</ele>
        <time>2019-12-01T11:01:11.000Z</time>
      </trkpt>
      <trkpt lat="14.85005" lon="-17.1068">
        <ele>47.85</ele>
        <time>2019-12-01T11:01:16.000Z</time>
      </trkpt>
      <trkpt lat="14.84985" lon="-17.10706">
        <ele>47.21</ele>
        <time>2019-12-01T11:01:21.000Z</time>
      </trkpt>
      <trkpt lat="14.84967" lon="-17.10732">
        <ele>46.76</ele>
        <time>2019-12-01T11:01:26.000Z</time>
      </trkpt>
      <trkpt lat="14.84951" lon="-17.10757">
        <ele>46.27</ele>
        <time>2019-12-01T11:01:31.000Z</time>
      </trkpt>
      <trkpt lat="14.84937" lon="-17.1078">
        <ele>45.91</ele>
        <time>2019-12-01T11:01:36.000Z</time>
      </trkpt>
      <trkpt lat="14.84924" lon="-17.10803">
        <ele>45.51</ele>
        <time>2019-12-01T11:01:41.000Z</time>
      </trkpt>
      <trkpt lat="14.84911" lon="-17.10826">
        <ele>45.21</ele>
        <time>2019-12-01T11:01:46.000Z</time>
      </trkpt>
      <trkpt lat="14.84898" lon="-17.10852">
        <ele>45.07</ele>
        <time>2019-12-01T11:01:51.000Z</time>
      </trkpt>
      <trkpt lat="14.84887" lon="-17.10875">
        <ele>45.13</ele>
        <time>2019-12-01T11:01:56.000Z</time>
      </trkpt>
      <trkpt lat="14.84876" lon="-17.10899">
        <ele>45.46</ele>
        <time>2019-12-01T11:02:01.000Z</time>
      </trkpt>
      <trkpt lat="14.84865" lon="-17.10922">
        <ele>45.53</ele>
        <time>2019-12-01T11:02:06.000Z</time>
      </trkpt>
      <trkpt lat="14.84854" lon="-17.10947">
        <ele>45.4</ele>
        <time>2019-12-01T11:02:11.000Z</time>
      </trkpt>
      <trkpt lat="14.84842" lon="-17.10971">
        <ele>45.13</ele>
        <time>2019-12-01T11:02:16.000Z</time>
      </trkpt>
      <trkpt lat="14.84831" lon="-17.10995">
        <ele>44.77</ele>
        <time>2019-12-01T11:02:21.000Z</time>
      </trkpt>
      <trkpt lat="14.84819" lon="-17.1102">
        <ele>44.54</ele>
        <time>2019-12-01T11:02:26.000Z</time>
      </trkpt>
      <trkpt lat="14.84807" lon="-17.11045">
        <ele>44.31</ele>
        <time>2019-12-01T11:02:31.000Z</time>
      </trkpt>
      <trkpt lat="14.84794" lon="-17.11073">
        <ele>44.16</ele>
        <time>2019-12-01T11:02:36.000Z</time>
      </trkpt>
      <trkpt lat="14.84781" lon="-17.11102">
        <ele>44.19</ele>
        <time>2019-12-01T11:02:41.000Z</time>
      </trkpt>
      <trkpt lat="14.84766" lon="-17.11132">
        <ele>44.29</ele>
        <time>2019-12-01T11:02:46.000Z</time>
      </trkpt>
      <trkpt lat="14.84752" lon="-17.11161">
        <ele>44.48</ele>
        <time>2019-12-01T11:02:51.000Z</time>
      </trkpt>
      <trkpt lat="14.84738" lon="-17.11191">
        <ele>44.77</ele>
        <time>2019-12-01T11:02:56.000Z</time>
      </trkpt>
      <trkpt lat="14.84724" lon="-17.11221">
        <ele>45.1</ele>
        <time>2019-12-01T11:03:01.000Z</time>
      </trkpt>
      <trkpt lat="14.84711" lon="-17.1125">
        <ele>45.33</ele>
        <time>2019-12-01T11:03:06.000Z</time>
      </trkpt>
      <trkpt lat="14.84697" lon="-17.11279">
        <ele>45.55</ele>
        <time>2019-12-01T11:03:11.000Z</time>
      </trkpt>
      <trkpt lat="14.84683" lon="-17.11309">
        <ele>45.69</ele>
        <time>2019-12-01T11:03:16.000Z</time>
      </trkpt>
      <trkpt lat="14.84668" lon="-17.1134">
        <ele>45.68</ele>
        <time>2019-12-01T11:03:21.000Z</time>
      </trkpt>
      <trkpt lat="14.84654" lon="-17.11371">
        <ele>45.74</ele>
        <time>2019-12-01T11:03:26.000Z</time>
      </trkpt>
      <trkpt lat="14.8464" lon="-17.11401">
        <ele>45.86</ele>
        <time>2019-12-01T11:03:31.000Z</time>
      </trkpt>
      <trkpt lat="14.84626" lon="-17.1143">
        <ele>45.87</ele>
        <time>2019-12-01T11:03:36.000Z</time>
      </trkpt>
      <trkpt lat="14.84611" lon="-17.1146">
        <ele>45.76</ele>
        <time>2019-12-01T11:03:41.000Z</time>
      </trkpt>
      <trkpt lat="14.84597" lon="-17.11491">
        <ele>45.68</ele>
        <time>2019-12-01T11:03:46.000Z</time>
      </trkpt>
      <trkpt lat="14.84583" lon="-17.11521">
        <ele>45.67</ele>
        <time>2019-12-01T11:03:51.000Z</time>
      </trkpt>
      <trkpt lat="14.84569" lon="-17.11551">
        <ele>45.74</ele>
        <time>2019-12-01T11:03:56.000Z</time>
      </trkpt>
      <trkpt lat="14.84555" lon="-17.11581">
        <ele>45.76</ele>
        <time>2019-12-01T11:04:01.000Z</time>
      </trkpt>
      <trkpt lat="14.84541" lon="-17.11609">
        <ele>45.88</ele>
        <time>2019-12-01T11:04:06.000Z</time>
      </trkpt>
      <trkpt lat="14.84528" lon="-17.11638">
        <ele>45.81</ele>
        <time>2019-12-01T11:04:11.000Z</time>
      </trkpt>
      <trkpt lat="14.84514" lon="-17.11666">
        <ele>45.93</ele>
        <time>2019-12-01T11:04:16.000Z</time>
      </trkpt>
      <trkpt lat="14.84502" lon="-17.11694">
        <ele>45.7</ele>
        <time>2019-12-01T11:04:21.000Z</time>
      </trkpt>
      <trkpt lat="14.84488" lon="-17.11723">
        <ele>45.7</ele>
        <time>2019-12-01T11:04:26.000Z</time>
      </trkpt>
      <trkpt lat="14.84475" lon="-17.11752">
        <ele>45.63</ele>
        <time>2019-12-01T11:04:31.000Z</time>
      </trkpt>
      <trkpt lat="14.84462" lon="-17.1178">
        <ele>45.65</ele>
        <time>2019-12-01T11:04:36.000Z</time>
      </trkpt>
      <trkpt lat="14.84448" lon="-17.11807">
        <ele>45.66</ele>
        <time>2019-12-01T11:04:41.000Z</time>
      </trkpt>
      <trkpt lat="14.84436" lon="-17.11834">
        <ele>45.53</ele>
        <time>2019-12-01T11:04:46.000Z</time>
      </trkpt>
      <trkpt lat="14.84423" lon="-17.11861">
        <ele>45.47</ele>
        <time>2019-12-01T11:04:51.000Z</time>
      </trkpt>
      <trkpt lat="14.8441" lon="-17.11888">
        <ele>45.65</ele>
        <time>2019-12-01T11:04:56.000Z</time>
      </trkpt>
      <trkpt lat="14.84398" lon="-17.11914">
        <ele>45.65</ele>
        <time>2019-12-01T11:05:01.000Z</time>
      </trkpt>
      <trkpt lat="14.84386" lon="-17.11939">
        <ele>45.46</ele>
        <time>2019-12-01T11:05:06.000Z</time>
      </trkpt>
      <trkpt lat="14.84375" lon="-17.11963">
        <ele>45.37</ele>
        <time>2019-12-01T11:05:11.000Z</time>
      </trkpt>
      <trkpt lat="14.84364" lon="-17.11986">
        <ele>44.99</ele>
        <time>2019-12-01T11:05:16.000Z</time>
      </trkpt>
      <trkpt lat="14.84352" lon="-17.12012">
        <ele>44.69</ele>
        <time>2019-12-01T11:05:21.000Z</time>
      </trkpt>
      <trkpt lat="14.8434" lon="-17.12038">
        <ele>44.6</ele>
        <time>2019-12-01T11:05:26.000Z</time>
      </trkpt>
      <trkpt lat="14.84327" lon="-17.12065">
        <ele>44.52</ele>
        <time>2019-12-01T11:05:31.000Z</time>
      </trkpt>
      <trkpt lat="14.84314" lon="-17.12093">
        <ele>44.21</ele>
        <time>2019-12-01T11:05:36.000Z</time>
      </trkpt>
      <trkpt lat="14.84296" lon="-17.12124">
        <ele>43.78</ele>
        <time>2019-12-01T11:05:41.000Z</time>
      </trkpt>
      <trkpt lat="14.84276" lon="-17.12158">
        <ele>43.31</ele>
        <time>2019-12-01T11:05:46.000Z</time>
      </trkpt>
      <trkpt lat="14.84257" lon="-17.12192">
        <ele>42.71</ele>
        <time>2019-12-01T11:05:51.000Z</time>
      </trkpt>
      <trkpt lat="14.84238" lon="-17.12225">
        <ele>42.36</ele>
        <time>2019-12-01T11:05:56.000Z</time>
      </trkpt>
      <trkpt lat="14.84218" lon="-17.12255">
        <ele>41.6</ele>
        <time>2019-12-01T11:06:01.000Z</time>
      </trkpt>
      <trkpt lat="14.84198" lon="-17.1228">
        <ele>41.1</ele>
        <time>2019-12-01T11:06:06.000Z</time>
      </trkpt>
      <trkpt lat="14.84181" lon="-17.12299">
        <ele>40.47</ele>
        <time>2019-12-01T11:06:11.000Z</time>
      </trkpt>
      <trkpt lat="14.84169" lon="-17.1231">
        <ele>39.98</ele>
        <time>2019-12-01T11:06:16.000Z</time>
      </trkpt>
      <trkpt lat="14.84154" lon="-17.12323">
        <ele>39.4</ele>
        <time>2019-12-01T11:06:21.000Z</time>
      </trkpt>
      <trkpt lat="14.84137" lon="-17.12336">
        <ele>39.38</ele>
        <time>2019-12-01T11:06:26.000Z</time>
      </trkpt>
      <trkpt lat="14.84123" lon="-17.12346">
        <ele>39.35</ele>
        <time>2019-12-01T11:06:31.000Z</time>
      </trkpt>
      <trkpt lat="14.8411" lon="-17.12355">
        <ele>39.33</ele>
        <time>2019-12-01T11:06:36.000Z</time>
      </trkpt>
      <trkpt lat="14.84096" lon="-17.12364">
        <ele>39.32</ele>
        <time>2019-12-01T11:06:41.000Z</time>
      </trkpt>
      <trkpt lat="14.84083" lon="-17.12372">
        <ele>39.36</ele>
        <time>2019-12-01T11:06:46.000Z</time>
      </trkpt>
      <trkpt lat="14.8407" lon="-17.12378">
        <ele>39.39</ele>
        <time>2019-12-01T11:06:51.000Z</time>
      </trkpt>
      <trkpt lat="14.84057" lon="-17.12385">
        <ele>39.39</ele>
        <time>2019-12-01T11:06:56.000Z</time>
      </trkpt>
      <trkpt lat="14.84044" lon="-17.12393">
        <ele>39.34</ele>
        <time>2019-12-01T11:07:01.000Z</time>
      </trkpt>
      <trkpt lat="14.84032" lon="-17.12399">
        <ele>39.28</ele>
        <time>2019-12-01T11:07:06.000Z</time>
      </trkpt>
      <trkpt lat="14.84019" lon="-17.12406">
        <ele>39.19</ele>
        <time>2019-12-01T11:07:11.000Z</time>
      </trkpt>
      <trkpt lat="14.84006" lon="-17.12414">
        <ele>39.12</ele>
        <time>2019-12-01T11:07:16.000Z</time>
      </trkpt>
      <trkpt lat="14.83993" lon="-17.12419">
        <ele>39.08</ele>
        <time>2019-12-01T11:07:21.000Z</time>
      </trkpt>
      <trkpt lat="14.83982" lon="-17.12424">
        <ele>39.11</ele>
        <time>2019-12-01T11:07:26.000Z</time>
      </trkpt>
      <trkpt lat="14.83971" lon="-17.12429">
        <ele>39.19</ele>
        <time>2019-12-01T11:07:31.000Z</time>
      </trkpt>
      <trkpt lat="14.8396" lon="-17.12434">
        <ele>39.33</ele>
        <time>2019-12-01T11:07:36.000Z</time>
      </trkpt>
      <trkpt lat="14.83948" lon="-17.12441">
        <ele>39.52</ele>
        <time>2019-12-01T11:07:41.000Z</time>
      </trkpt>
      <trkpt lat="14.83936" lon="-17.12447">
        <ele>39.77</ele>
        <time>2019-12-01T11:07:46.000Z</time>
      </trkpt>
      <trkpt lat="14.83924" lon="-17.12453">
        <ele>40.06</ele>
        <time>2019-12-01T11:07:51.000Z</time>
      </trkpt>
      <trkpt lat="14.83913" lon="-17.1246">
        <ele>40.38</ele>
        <time>2019-12-01T11:07:56.000Z</time>
      </trkpt>
      <trkpt lat="14.83901" lon="-17.12467">
        <ele>40.72</ele>
        <time>2019-12-01T11:08:01.000Z</time>
      </trkpt>
      <trkpt lat="14.8389" lon="-17.12476">
        <ele>41.09</ele>
        <time>2019-12-01T11:08:06.000Z</time>
      </trkpt>
      <trkpt lat="14.83873" lon="-17.12489">
        <ele>41.45</ele>
        <time>2019-12-01T11:08:11.000Z</time>
      </trkpt>
      <trkpt lat="14.8386" lon="-17.125">
        <ele>41.77</ele>
        <time>2019-12-01T11:08:16.000Z</time>
      </trkpt>
      <trkpt lat="14.83849" lon="-17.1251">
        <ele>42.04</ele>
        <time>2019-12-01T11:08:21.000Z</time>
      </trkpt>
      <trkpt lat="14.83837" lon="-17.12521">
        <ele>42.28</ele>
        <time>2019-12-01T11:08:26.000Z</time>
      </trkpt>
      <trkpt lat="14.83826" lon="-17.12532">
        <ele>42.54</ele>
        <time>2019-12-01T11:08:31.000Z</time>
      </trkpt>
      <trkpt lat="14.83817" lon="-17.12541">
        <ele>42.81</ele>
        <time>2019-12-01T11:08:36.000Z</time>
      </trkpt>
      <trkpt lat="14.83807" lon="-17.1255">
        <ele>43.08</ele>
        <time>2019-12-01T11:08:41.000Z</time>
      </trkpt>
      <trkpt lat="14.83798" lon="-17.12558">
        <ele>43.31</ele>
        <time>2019-12-01T11:08:46.000Z</time>
      </trkpt>
      <trkpt lat="14.83788" lon="-17.12567">
        <ele>43.53</ele>
        <time>2019-12-01T11:08:51.000Z</time>
      </trkpt>
      <trkpt lat="14.83778" lon="-17.12578">
        <ele>43.76</ele>
        <time>2019-12-01T11:08:56.000Z</time>
      </trkpt>
      <trkpt lat="14.83769" lon="-17.12587">
        <ele>44.05</ele>
        <time>2019-12-01T11:09:01.000Z</time>
      </trkpt>
      <trkpt lat="14.83759" lon="-17.12596">
        <ele>44.37</ele>
        <time>2019-12-01T11:09:06.000Z</time>
      </trkpt>
      <trkpt lat="14.83749" lon="-17.12605">
        <ele>44.7</ele>
        <time>2019-12-01T11:09:11.000Z</time>
      </trkpt>
      <trkpt lat="14.83739" lon="-17.12616">
        <ele>45</ele>
        <time>2019-12-01T11:09:16.000Z</time>
      </trkpt>
      <trkpt lat="14.83731" lon="-17.12624">
        <ele>45.19</ele>
        <time>2019-12-01T11:09:21.000Z</time>
      </trkpt>
      <trkpt lat="14.83719" lon="-17.12633">
        <ele>45.76</ele>
        <time>2019-12-01T11:09:26.000Z</time>
      </trkpt>
      <trkpt lat="14.83704" lon="-17.12647">
        <ele>46.43</ele>
        <time>2019-12-01T11:09:31.000Z</time>
      </trkpt>
      <trkpt lat="14.8369" lon="-17.12662">
        <ele>46.53</ele>
        <time>2019-12-01T11:09:36.000Z</time>
      </trkpt>
      <trkpt lat="14.83673" lon="-17.12677">
        <ele>46.49</ele>
        <time>2019-12-01T11:09:41.000Z</time>
      </trkpt>
      <trkpt lat="14.83657" lon="-17.12693">
        <ele>46.22</ele>
        <time>2019-12-01T11:09:46.000Z</time>
      </trkpt>
      <trkpt lat="14.8364" lon="-17.12709">
        <ele>45.73</ele>
        <time>2019-12-01T11:09:51.000Z</time>
      </trkpt>
      <trkpt lat="14.83625" lon="-17.12724">
        <ele>45.34</ele>
        <time>2019-12-01T11:09:56.000Z</time>
      </trkpt>
      <trkpt lat="14.83611" lon="-17.12739">
        <ele>44.72</ele>
        <time>2019-12-01T11:10:01.000Z</time>
      </trkpt>
      <trkpt lat="14.83595" lon="-17.12752">
        <ele>44.28</ele>
        <time>2019-12-01T11:10:06.000Z</time>
      </trkpt>
      <trkpt lat="14.8358" lon="-17.12765">
        <ele>44.36</ele>
        <time>2019-12-01T11:10:11.000Z</time>
      </trkpt>
      <trkpt lat="14.83565" lon="-17.12779">
        <ele>44.53</ele>
        <time>2019-12-01T11:10:16.000Z</time>
      </trkpt>
      <trkpt lat="14.83551" lon="-17.12794">
        <ele>44.3</ele>
        <time>2019-12-01T11:10:21.000Z</time>
      </trkpt>
      <trkpt lat="14.83536" lon="-17.12808">
        <ele>43.67</ele>
        <time>2019-12-01T11:10:26.000Z</time>
      </trkpt>
      <trkpt lat="14.83521" lon="-17.12824">
        <ele>43.14</ele>
        <time>2019-12-01T11:10:31.000Z</time>
      </trkpt>
      <trkpt lat="14.83506" lon="-17.12839">
        <ele>42.82</ele>
        <time>2019-12-01T11:10:36.000Z</time>
      </trkpt>
      <trkpt lat="14.8349" lon="-17.12853">
        <ele>42.71</ele>
        <time>2019-12-01T11:10:41.000Z</time>
      </trkpt>
      <trkpt lat="14.83475" lon="-17.12867">
        <ele>42.34</ele>
        <time>2019-12-01T11:10:46.000Z</time>
      </trkpt>
      <trkpt lat="14.8346" lon="-17.12881">
        <ele>42.36</ele>
        <time>2019-12-01T11:10:51.000Z</time>
      </trkpt>
      <trkpt lat="14.83445" lon="-17.12897">
        <ele>42.22</ele>
        <time>2019-12-01T11:10:56.000Z</time>
      </trkpt>
      <trkpt lat="14.83431" lon="-17.12911">
        <ele>42.15</ele>
        <time>2019-12-01T11:11:01.000Z</time>
      </trkpt>
      <trkpt lat="14.83418" lon="-17.12924">
        <ele>42.12</ele>
        <time>2019-12-01T11:11:06.000Z</time>
      </trkpt>
      <trkpt lat="14.83406" lon="-17.12937">
        <ele>42.09</ele>
        <time>2019-12-01T11:11:11.000Z</time>
      </trkpt>
      <trkpt lat="14.83392" lon="-17.12951">
        <ele>42.03</ele>
        <time>2019-12-01T11:11:16.000Z</time>
      </trkpt>
      <trkpt lat="14.83379" lon="-17.12965">
        <ele>41.84</ele>
        <time>2019-12-01T11:11:21.000Z</time>
      </trkpt>
      <trkpt lat="14.83365" lon="-17.1298">
        <ele>41.6</ele>
        <time>2019-12-01T11:11:26.000Z</time>
      </trkpt>
      <trkpt lat="14.83351" lon="-17.12997">
        <ele>41.37</ele>
        <time>2019-12-01T11:11:31.000Z</time>
      </trkpt>
      <trkpt lat="14.83338" lon="-17.13015">
        <ele>41.18</ele>
        <time>2019-12-01T11:11:36.000Z</time>
      </trkpt>
      <trkpt lat="14.83325" lon="-17.13034">
        <ele>41</ele>
        <time>2019-12-01T11:11:41.000Z</time>
      </trkpt>
      <trkpt lat="14.83312" lon="-17.13056">
        <ele>40.9</ele>
        <time>2019-12-01T11:11:46.000Z</time>
      </trkpt>
      <trkpt lat="14.83299" lon="-17.13078">
        <ele>40.89</ele>
        <time>2019-12-01T11:11:51.000Z</time>
      </trkpt>
      <trkpt lat="14.83288" lon="-17.13102">
        <ele>40.97</ele>
        <time>2019-12-01T11:11:56.000Z</time>
      </trkpt>
      <trkpt lat="14.83278" lon="-17.13129">
        <ele>41.08</ele>
        <time>2019-12-01T11:12:01.000Z</time>
      </trkpt>
      <trkpt lat="14.83269" lon="-17.13156">
        <ele>41.15</ele>
        <time>2019-12-01T11:12:06.000Z</time>
      </trkpt>
      <trkpt lat="14.83261" lon="-17.13183">
        <ele>41.19</ele>
        <time>2019-12-01T11:12:11.000Z</time>
      </trkpt>
      <trkpt lat="14.83255" lon="-17.13211">
        <ele>41.22</ele>
        <time>2019-12-01T11:12:16.000Z</time>
      </trkpt>
      <trkpt lat="14.83252" lon="-17.13238">
        <ele>41.45</ele>
        <time>2019-12-01T11:12:21.000Z</time>
      </trkpt>
      <trkpt lat="14.8325" lon="-17.13265">
        <ele>41.68</ele>
        <time>2019-12-01T11:12:26.000Z</time>
      </trkpt>
      <trkpt lat="14.83251" lon="-17.1329">
        <ele>41.87</ele>
        <time>2019-12-01T11:12:31.000Z</time>
      </trkpt>
      <trkpt lat="14.83252" lon="-17.13312">
        <ele>42.13</ele>
        <time>2019-12-01T11:12:36.000Z</time>
      </trkpt>
      <trkpt lat="14.83253" lon="-17.13333">
        <ele>42.36</ele>
        <time>2019-12-01T11:12:41.000Z</time>
      </trkpt>
      <trkpt lat="14.83257" lon="-17.13354">
        <ele>42.55</ele>
        <time>2019-12-01T11:12:46.000Z</time>
      </trkpt>
      <trkpt lat="14.83261" lon="-17.13379">
        <ele>42.78</ele>
        <time>2019-12-01T11:12:51.000Z</time>
      </trkpt>
      <trkpt lat="14.83264" lon="-17.13401">
        <ele>42.93</ele>
        <time>2019-12-01T11:12:56.000Z</time>
      </trkpt>
      <trkpt lat="14.83268" lon="-17.13423">
        <ele>43.03</ele>
        <time>2019-12-01T11:13:01.000Z</time>
      </trkpt>
      <trkpt lat="14.83272" lon="-17.13449">
        <ele>43.18</ele>
        <time>2019-12-01T11:13:06.000Z</time>
      </trkpt>
      <trkpt lat="14.83274" lon="-17.13476">
        <ele>43.37</ele>
        <time>2019-12-01T11:13:11.000Z</time>
      </trkpt>
      <trkpt lat="14.83278" lon="-17.13502">
        <ele>43.68</ele>
        <time>2019-12-01T11:13:16.000Z</time>
      </trkpt>
      <trkpt lat="14.83284" lon="-17.13528">
        <ele>43.94</ele>
        <time>2019-12-01T11:13:21.000Z</time>
      </trkpt>
      <trkpt lat="14.83285" lon="-17.13551">
        <ele>44.11</ele>
        <time>2019-12-01T11:13:26.000Z</time>
      </trkpt>
      <trkpt lat="14.83286" lon="-17.13574">
        <ele>44.25</ele>
        <time>2019-12-01T11:13:30.999Z</time>
      </trkpt>
      <trkpt lat="14.83288" lon="-17.13596">
        <ele>44.54</ele>
        <time>2019-12-01T11:13:35.999Z</time>
      </trkpt>
      <trkpt lat="14.83291" lon="-17.13614">
        <ele>44.83</ele>
        <time>2019-12-01T11:13:40.999Z</time>
      </trkpt>
      <trkpt lat="14.83294" lon="-17.13634">
        <ele>45.15</ele>
        <time>2019-12-01T11:13:45.999Z</time>
      </trkpt>
      <trkpt lat="14.83298" lon="-17.13653">
        <ele>45.36</ele>
        <time>2019-12-01T11:13:50.999Z</time>
      </trkpt>
      <trkpt lat="14.83302" lon="-17.13673">
        <ele>45.5</ele>
        <time>2019-12-01T11:13:55.999Z</time>
      </trkpt>
      <trkpt lat="14.83305" lon="-17.13696">
        <ele>45.55</ele>
        <time>2019-12-01T11:14:00.999Z</time>
      </trkpt>
      <trkpt lat="14.83304" lon="-17.13715">
        <ele>45.6</ele>
        <time>2019-12-01T11:14:05.999Z</time>
      </trkpt>
      <trkpt lat="14.83301" lon="-17.13735">
        <ele>45.58</ele>
        <time>2019-12-01T11:14:10.999Z</time>
      </trkpt>
      <trkpt lat="14.8328" lon="-17.1374">
        <ele>45.56</ele>
        <time>2019-12-01T11:14:15.999Z</time>
      </trkpt>
      <trkpt lat="14.83264" lon="-17.13737">
        <ele>45.57</ele>
        <time>2019-12-01T11:14:20.999Z</time>
      </trkpt>
      <trkpt lat="14.83254" lon="-17.13735">
        <ele>48.1</ele>
        <time>2019-12-01T11:20:19.999Z</time>
      </trkpt>
      <trkpt lat="14.83239" lon="-17.13731">
        <ele>48.31</ele>
        <time>2019-12-01T11:20:24.999Z</time>
      </trkpt>
      <trkpt lat="14.83224" lon="-17.13725">
        <ele>48.49</ele>
        <time>2019-12-01T11:20:29.999Z</time>
      </trkpt>
      <trkpt lat="14.83212" lon="-17.13722">
        <ele>48.66</ele>
        <time>2019-12-01T11:20:34.999Z</time>
      </trkpt>
      <trkpt lat="14.83202" lon="-17.13719">
        <ele>48.8</ele>
        <time>2019-12-01T11:20:39.999Z</time>
      </trkpt>
      <trkpt lat="14.83187" lon="-17.13715">
        <ele>48.93</ele>
        <time>2019-12-01T11:20:44.999Z</time>
      </trkpt>
      <trkpt lat="14.83169" lon="-17.13711">
        <ele>49.2</ele>
        <time>2019-12-01T11:20:49.999Z</time>
      </trkpt>
      <trkpt lat="14.8315" lon="-17.13707">
        <ele>49.81</ele>
        <time>2019-12-01T11:20:54.999Z</time>
      </trkpt>
      <trkpt lat="14.8313" lon="-17.13702">
        <ele>49.99</ele>
        <time>2019-12-01T11:20:59.999Z</time>
      </trkpt>
      <trkpt lat="14.83112" lon="-17.13696">
        <ele>50.02</ele>
        <time>2019-12-01T11:21:04.999Z</time>
      </trkpt>
      <trkpt lat="14.83091" lon="-17.13691">
        <ele>49.99</ele>
        <time>2019-12-01T11:21:09.999Z</time>
      </trkpt>
      <trkpt lat="14.83074" lon="-17.13688">
        <ele>49.95</ele>
        <time>2019-12-01T11:21:14.999Z</time>
      </trkpt>
      <trkpt lat="14.83056" lon="-17.13685">
        <ele>49.85</ele>
        <time>2019-12-01T11:21:19.999Z</time>
      </trkpt>
      <trkpt lat="14.8304" lon="-17.13679">
        <ele>49.81</ele>
        <time>2019-12-01T11:21:24.999Z</time>
      </trkpt>
      <trkpt lat="14.83025" lon="-17.13675">
        <ele>49.76</ele>
        <time>2019-12-01T11:21:29.999Z</time>
      </trkpt>
      <trkpt lat="14.83006" lon="-17.1367">
        <ele>49.7</ele>
        <time>2019-12-01T11:21:34.999Z</time>
      </trkpt>
      <trkpt lat="14.82988" lon="-17.13667">
        <ele>49.65</ele>
        <time>2019-12-01T11:21:39.999Z</time>
      </trkpt>
      <trkpt lat="14.82968" lon="-17.13666">
        <ele>49.59</ele>
        <time>2019-12-01T11:21:44.999Z</time>
      </trkpt>
      <trkpt lat="14.82951" lon="-17.13676">
        <ele>49.43</ele>
        <time>2019-12-01T11:21:49.999Z</time>
      </trkpt>
      <trkpt lat="14.82943" lon="-17.1369">
        <ele>49.39</ele>
        <time>2019-12-01T11:21:54.999Z</time>
      </trkpt>
      <trkpt lat="14.82936" lon="-17.13705">
        <ele>49.35</ele>
        <time>2019-12-01T11:21:59.999Z</time>
      </trkpt>
      <trkpt lat="14.82932" lon="-17.13719">
        <ele>49.3</ele>
        <time>2019-12-01T11:22:04.999Z</time>
      </trkpt>
      <trkpt lat="14.82925" lon="-17.13735">
        <ele>49.16</ele>
        <time>2019-12-01T11:22:09.999Z</time>
      </trkpt>
      <trkpt lat="14.82918" lon="-17.13751">
        <ele>49.1</ele>
        <time>2019-12-01T11:22:14.999Z</time>
      </trkpt>
      <trkpt lat="14.8291" lon="-17.13771">
        <ele>48.73</ele>
        <time>2019-12-01T11:22:19.999Z</time>
      </trkpt>
      <trkpt lat="14.82902" lon="-17.13789">
        <ele>48.68</ele>
        <time>2019-12-01T11:22:24.999Z</time>
      </trkpt>
      <trkpt lat="14.82894" lon="-17.13807">
        <ele>48.65</ele>
        <time>2019-12-01T11:22:29.999Z</time>
      </trkpt>
      <trkpt lat="14.82888" lon="-17.13824">
        <ele>48.56</ele>
        <time>2019-12-01T11:22:34.999Z</time>
      </trkpt>
      <trkpt lat="14.82881" lon="-17.13842">
        <ele>48.31</ele>
        <time>2019-12-01T11:22:39.999Z</time>
      </trkpt>
      <trkpt lat="14.82873" lon="-17.1386">
        <ele>48.17</ele>
        <time>2019-12-01T11:22:44.999Z</time>
      </trkpt>
      <trkpt lat="14.82864" lon="-17.13878">
        <ele>48.1</ele>
        <time>2019-12-01T11:22:49.999Z</time>
      </trkpt>
      <trkpt lat="14.82856" lon="-17.13898">
        <ele>48.11</ele>
        <time>2019-12-01T11:22:54.999Z</time>
      </trkpt>
      <trkpt lat="14.82848" lon="-17.13918">
        <ele>48.13</ele>
        <time>2019-12-01T11:22:59.999Z</time>
      </trkpt>
      <trkpt lat="14.82838" lon="-17.13941">
        <ele>48.13</ele>
        <time>2019-12-01T11:23:04.999Z</time>
      </trkpt>
      <trkpt lat="14.8283" lon="-17.13962">
        <ele>48.13</ele>
        <time>2019-12-01T11:23:09.999Z</time>
      </trkpt>
      <trkpt lat="14.82821" lon="-17.13984">
        <ele>48.09</ele>
        <time>2019-12-01T11:23:14.999Z</time>
      </trkpt>
      <trkpt lat="14.82811" lon="-17.14008">
        <ele>48.04</ele>
        <time>2019-12-01T11:23:19.999Z</time>
      </trkpt>
      <trkpt lat="14.82801" lon="-17.14033">
        <ele>47.96</ele>
        <time>2019-12-01T11:23:24.999Z</time>
      </trkpt>
      <trkpt lat="14.82791" lon="-17.14056">
        <ele>47.88</ele>
        <time>2019-12-01T11:23:29.999Z</time>
      </trkpt>
      <trkpt lat="14.82781" lon="-17.14081">
        <ele>47.83</ele>
        <time>2019-12-01T11:23:34.999Z</time>
      </trkpt>
      <trkpt lat="14.82769" lon="-17.14108">
        <ele>47.83</ele>
        <time>2019-12-01T11:23:39.999Z</time>
      </trkpt>
      <trkpt lat="14.82756" lon="-17.14136">
        <ele>47.83</ele>
        <time>2019-12-01T11:23:44.999Z</time>
      </trkpt>
      <trkpt lat="14.82744" lon="-17.14164">
        <ele>47.84</ele>
        <time>2019-12-01T11:23:49.999Z</time>
      </trkpt>
      <trkpt lat="14.82732" lon="-17.14191">
        <ele>47.84</ele>
        <time>2019-12-01T11:23:54.999Z</time>
      </trkpt>
      <trkpt lat="14.82719" lon="-17.14221">
        <ele>47.84</ele>
        <time>2019-12-01T11:23:59.999Z</time>
      </trkpt>
      <trkpt lat="14.82709" lon="-17.14247">
        <ele>47.88</ele>
        <time>2019-12-01T11:24:04.999Z</time>
      </trkpt>
      <trkpt lat="14.82696" lon="-17.14276">
        <ele>47.96</ele>
        <time>2019-12-01T11:24:09.999Z</time>
      </trkpt>
      <trkpt lat="14.82683" lon="-17.14306">
        <ele>48.2</ele>
        <time>2019-12-01T11:24:14.999Z</time>
      </trkpt>
      <trkpt lat="14.82671" lon="-17.14335">
        <ele>48.46</ele>
        <time>2019-12-01T11:24:19.999Z</time>
      </trkpt>
      <trkpt lat="14.8266" lon="-17.14364">
        <ele>48.69</ele>
        <time>2019-12-01T11:24:24.999Z</time>
      </trkpt>
      <trkpt lat="14.82649" lon="-17.14393">
        <ele>49.11</ele>
        <time>2019-12-01T11:24:29.999Z</time>
      </trkpt>
      <trkpt lat="14.82638" lon="-17.14419">
        <ele>49.76</ele>
        <time>2019-12-01T11:24:34.999Z</time>
      </trkpt>
      <trkpt lat="14.82627" lon="-17.14444">
        <ele>50.18</ele>
        <time>2019-12-01T11:24:39.999Z</time>
      </trkpt>
      <trkpt lat="14.82616" lon="-17.14469">
        <ele>50.25</ele>
        <time>2019-12-01T11:24:44.999Z</time>
      </trkpt>
      <trkpt lat="14.82607" lon="-17.14492">
        <ele>50.14</ele>
        <time>2019-12-01T11:24:49.999Z</time>
      </trkpt>
      <trkpt lat="14.82597" lon="-17.14515">
        <ele>50.6</ele>
        <time>2019-12-01T11:24:54.999Z</time>
      </trkpt>
      <trkpt lat="14.82588" lon="-17.14538">
        <ele>51.21</ele>
        <time>2019-12-01T11:24:59.999Z</time>
      </trkpt>
      <trkpt lat="14.82578" lon="-17.14562">
        <ele>51.64</ele>
        <time>2019-12-01T11:25:04.999Z</time>
      </trkpt>
      <trkpt lat="14.82568" lon="-17.14585">
        <ele>51.71</ele>
        <time>2019-12-01T11:25:09.999Z</time>
      </trkpt>
      <trkpt lat="14.82559" lon="-17.14607">
        <ele>51.46</ele>
        <time>2019-12-01T11:25:14.999Z</time>
      </trkpt>
      <trkpt lat="14.8255" lon="-17.1463">
        <ele>51.3</ele>
        <time>2019-12-01T11:25:19.999Z</time>
      </trkpt>
      <trkpt lat="14.8254" lon="-17.14653">
        <ele>50.97</ele>
        <time>2019-12-01T11:25:24.999Z</time>
      </trkpt>
      <trkpt lat="14.82529" lon="-17.14678">
        <ele>51.1</ele>
        <time>2019-12-01T11:25:29.999Z</time>
      </trkpt>
      <trkpt lat="14.82519" lon="-17.14703">
        <ele>51.38</ele>
        <time>2019-12-01T11:25:34.999Z</time>
      </trkpt>
      <trkpt lat="14.82508" lon="-17.14729">
        <ele>51.78</ele>
        <time>2019-12-01T11:25:39.999Z</time>
      </trkpt>
      <trkpt lat="14.82498" lon="-17.14754">
        <ele>52.12</ele>
        <time>2019-12-01T11:25:44.999Z</time>
      </trkpt>
      <trkpt lat="14.82488" lon="-17.14778">
        <ele>52.57</ele>
        <time>2019-12-01T11:25:49.999Z</time>
      </trkpt>
      <trkpt lat="14.8248" lon="-17.14797">
        <ele>52.83</ele>
        <time>2019-12-01T11:25:54.999Z</time>
      </trkpt>
      <trkpt lat="14.82471" lon="-17.14817">
        <ele>53.09</ele>
        <time>2019-12-01T11:25:59.999Z</time>
      </trkpt>
      <trkpt lat="14.82463" lon="-17.14837">
        <ele>53.42</ele>
        <time>2019-12-01T11:26:04.999Z</time>
      </trkpt>
      <trkpt lat="14.82454" lon="-17.14856">
        <ele>53.92</ele>
        <time>2019-12-01T11:26:09.999Z</time>
      </trkpt>
      <trkpt lat="14.82447" lon="-17.14873">
        <ele>53.85</ele>
        <time>2019-12-01T11:26:14.999Z</time>
      </trkpt>
      <trkpt lat="14.82438" lon="-17.14892">
        <ele>54.07</ele>
        <time>2019-12-01T11:26:19.999Z</time>
      </trkpt>
      <trkpt lat="14.8243" lon="-17.14911">
        <ele>54.5</ele>
        <time>2019-12-01T11:26:24.999Z</time>
      </trkpt>
      <trkpt lat="14.8242" lon="-17.14929">
        <ele>54.87</ele>
        <time>2019-12-01T11:26:29.999Z</time>
      </trkpt>
      <trkpt lat="14.82409" lon="-17.14949">
        <ele>55.35</ele>
        <time>2019-12-01T11:26:34.999Z</time>
      </trkpt>
      <trkpt lat="14.82397" lon="-17.1497">
        <ele>55.85</ele>
        <time>2019-12-01T11:26:39.999Z</time>
      </trkpt>
      <trkpt lat="14.82384" lon="-17.1499">
        <ele>56.43</ele>
        <time>2019-12-01T11:26:44.999Z</time>
      </trkpt>
      <trkpt lat="14.8237" lon="-17.15012">
        <ele>57.11</ele>
        <time>2019-12-01T11:26:49.999Z</time>
      </trkpt>
      <trkpt lat="14.82355" lon="-17.15033">
        <ele>57.97</ele>
        <time>2019-12-01T11:26:54.999Z</time>
      </trkpt>
      <trkpt lat="14.82339" lon="-17.15054">
        <ele>58.75</ele>
        <time>2019-12-01T11:26:59.999Z</time>
      </trkpt>
      <trkpt lat="14.82322" lon="-17.15075">
        <ele>59.35</ele>
        <time>2019-12-01T11:27:04.999Z</time>
      </trkpt>
      <trkpt lat="14.82305" lon="-17.15096">
        <ele>59.81</ele>
        <time>2019-12-01T11:27:09.999Z</time>
      </trkpt>
      <trkpt lat="14.82287" lon="-17.15116">
        <ele>59.9</ele>
        <time>2019-12-01T11:27:14.999Z</time>
      </trkpt>
      <trkpt lat="14.82266" lon="-17.15135">
        <ele>60.15</ele>
        <time>2019-12-01T11:27:19.999Z</time>
      </trkpt>
      <trkpt lat="14.82252" lon="-17.15149">
        <ele>60.28</ele>
        <time>2019-12-01T11:27:24.000Z</time>
      </trkpt>
      <trkpt lat="14.82236" lon="-17.15171">
        <ele>59.95</ele>
        <time>2019-12-01T11:27:29.000Z</time>
      </trkpt>
      <trkpt lat="14.82219" lon="-17.15192">
        <ele>59.73</ele>
        <time>2019-12-01T11:27:34.000Z</time>
      </trkpt>
      <trkpt lat="14.822" lon="-17.15211">
        <ele>59.56</ele>
        <time>2019-12-01T11:27:39.000Z</time>
      </trkpt>
      <trkpt lat="14.82182" lon="-17.15232">
        <ele>59.36</ele>
        <time>2019-12-01T11:27:44.000Z</time>
      </trkpt>
      <trkpt lat="14.82163" lon="-17.15254">
        <ele>59.46</ele>
        <time>2019-12-01T11:27:49.000Z</time>
      </trkpt>
      <trkpt lat="14.82144" lon="-17.15274">
        <ele>59.55</ele>
        <time>2019-12-01T11:27:54.000Z</time>
      </trkpt>
      <trkpt lat="14.82123" lon="-17.15295">
        <ele>59.59</ele>
        <time>2019-12-01T11:27:59.000Z</time>
      </trkpt>
      <trkpt lat="14.82105" lon="-17.15316">
        <ele>60.02</ele>
        <time>2019-12-01T11:28:04.000Z</time>
      </trkpt>
      <trkpt lat="14.82084" lon="-17.15336">
        <ele>60.23</ele>
        <time>2019-12-01T11:28:09.000Z</time>
      </trkpt>
      <trkpt lat="14.82068" lon="-17.15356">
        <ele>59.98</ele>
        <time>2019-12-01T11:28:14.000Z</time>
      </trkpt>
      <trkpt lat="14.8205" lon="-17.15378">
        <ele>59.3</ele>
        <time>2019-12-01T11:28:19.000Z</time>
      </trkpt>
      <trkpt lat="14.8203" lon="-17.154">
        <ele>58.78</ele>
        <time>2019-12-01T11:28:24.000Z</time>
      </trkpt>
      <trkpt lat="14.8201" lon="-17.15423">
        <ele>58.05</ele>
        <time>2019-12-01T11:28:29.000Z</time>
      </trkpt>
      <trkpt lat="14.81991" lon="-17.15443">
        <ele>57.32</ele>
        <time>2019-12-01T11:28:34.000Z</time>
      </trkpt>
      <trkpt lat="14.81972" lon="-17.15463">
        <ele>56.68</ele>
        <time>2019-12-01T11:28:39.000Z</time>
      </trkpt>
      <trkpt lat="14.81957" lon="-17.15483">
        <ele>56.04</ele>
        <time>2019-12-01T11:28:44.000Z</time>
      </trkpt>
      <trkpt lat="14.81938" lon="-17.15502">
        <ele>55.37</ele>
        <time>2019-12-01T11:28:49.000Z</time>
      </trkpt>
      <trkpt lat="14.81918" lon="-17.15524">
        <ele>54.78</ele>
        <time>2019-12-01T11:28:54.000Z</time>
      </trkpt>
      <trkpt lat="14.81899" lon="-17.15545">
        <ele>54.44</ele>
        <time>2019-12-01T11:28:59.000Z</time>
      </trkpt>
      <trkpt lat="14.8188" lon="-17.15567">
        <ele>54.02</ele>
        <time>2019-12-01T11:29:04.000Z</time>
      </trkpt>
      <trkpt lat="14.81858" lon="-17.1559">
        <ele>53.36</ele>
        <time>2019-12-01T11:29:09.000Z</time>
      </trkpt>
      <trkpt lat="14.81839" lon="-17.1561">
        <ele>52.79</ele>
        <time>2019-12-01T11:29:14.000Z</time>
      </trkpt>
      <trkpt lat="14.8182" lon="-17.15631">
        <ele>52.29</ele>
        <time>2019-12-01T11:29:19.000Z</time>
      </trkpt>
      <trkpt lat="14.81803" lon="-17.15652">
        <ele>51.81</ele>
        <time>2019-12-01T11:29:24.000Z</time>
      </trkpt>
      <trkpt lat="14.81785" lon="-17.15673">
        <ele>51.33</ele>
        <time>2019-12-01T11:29:29.000Z</time>
      </trkpt>
      <trkpt lat="14.81764" lon="-17.15693">
        <ele>50.89</ele>
        <time>2019-12-01T11:29:34.000Z</time>
      </trkpt>
      <trkpt lat="14.81744" lon="-17.15715">
        <ele>50.61</ele>
        <time>2019-12-01T11:29:39.000Z</time>
      </trkpt>
      <trkpt lat="14.81722" lon="-17.1574">
        <ele>50.38</ele>
        <time>2019-12-01T11:29:44.000Z</time>
      </trkpt>
      <trkpt lat="14.81702" lon="-17.15764">
        <ele>50.22</ele>
        <time>2019-12-01T11:29:49.000Z</time>
      </trkpt>
      <trkpt lat="14.81681" lon="-17.15787">
        <ele>50.07</ele>
        <time>2019-12-01T11:29:54.000Z</time>
      </trkpt>
      <trkpt lat="14.81658" lon="-17.15809">
        <ele>49.78</ele>
        <time>2019-12-01T11:29:59.000Z</time>
      </trkpt>
      <trkpt lat="14.81636" lon="-17.15833">
        <ele>49.07</ele>
        <time>2019-12-01T11:30:04.000Z</time>
      </trkpt>
      <trkpt lat="14.81615" lon="-17.15857">
        <ele>48.61</ele>
        <time>2019-12-01T11:30:09.000Z</time>
      </trkpt>
      <trkpt lat="14.81592" lon="-17.1588">
        <ele>48.21</ele>
        <time>2019-12-01T11:30:14.000Z</time>
      </trkpt>
      <trkpt lat="14.81571" lon="-17.15904">
        <ele>47.73</ele>
        <time>2019-12-01T11:30:19.000Z</time>
      </trkpt>
      <trkpt lat="14.8155" lon="-17.15928">
        <ele>47.42</ele>
        <time>2019-12-01T11:30:24.000Z</time>
      </trkpt>
      <trkpt lat="14.81532" lon="-17.15952">
        <ele>46.93</ele>
        <time>2019-12-01T11:30:29.000Z</time>
      </trkpt>
      <trkpt lat="14.81515" lon="-17.15977">
        <ele>46.63</ele>
        <time>2019-12-01T11:30:34.000Z</time>
      </trkpt>
      <trkpt lat="14.81497" lon="-17.16003">
        <ele>46.33</ele>
        <time>2019-12-01T11:30:39.000Z</time>
      </trkpt>
      <trkpt lat="14.8148" lon="-17.16029">
        <ele>46.01</ele>
        <time>2019-12-01T11:30:44.000Z</time>
      </trkpt>
      <trkpt lat="14.81463" lon="-17.16056">
        <ele>45.83</ele>
        <time>2019-12-01T11:30:49.000Z</time>
      </trkpt>
      <trkpt lat="14.81449" lon="-17.16084">
        <ele>45.62</ele>
        <time>2019-12-01T11:30:54.000Z</time>
      </trkpt>
      <trkpt lat="14.81435" lon="-17.16113">
        <ele>45.26</ele>
        <time>2019-12-01T11:30:59.000Z</time>
      </trkpt>
      <trkpt lat="14.81422" lon="-17.16141">
        <ele>44.92</ele>
        <time>2019-12-01T11:31:04.000Z</time>
      </trkpt>
      <trkpt lat="14.81409" lon="-17.16171">
        <ele>44.78</ele>
        <time>2019-12-01T11:31:09.000Z</time>
      </trkpt>
      <trkpt lat="14.81398" lon="-17.162">
        <ele>44.63</ele>
        <time>2019-12-01T11:31:14.000Z</time>
      </trkpt>
      <trkpt lat="14.81388" lon="-17.1623">
        <ele>44.64</ele>
        <time>2019-12-01T11:31:19.000Z</time>
      </trkpt>
      <trkpt lat="14.81379" lon="-17.16259">
        <ele>44.48</ele>
        <time>2019-12-01T11:31:24.000Z</time>
      </trkpt>
      <trkpt lat="14.81372" lon="-17.16288">
        <ele>44.21</ele>
        <time>2019-12-01T11:31:29.000Z</time>
      </trkpt>
      <trkpt lat="14.81365" lon="-17.16317">
        <ele>44.08</ele>
        <time>2019-12-01T11:31:34.000Z</time>
      </trkpt>
      <trkpt lat="14.81358" lon="-17.16347">
        <ele>44.06</ele>
        <time>2019-12-01T11:31:39.000Z</time>
      </trkpt>
      <trkpt lat="14.81352" lon="-17.16377">
        <ele>44.24</ele>
        <time>2019-12-01T11:31:44.000Z</time>
      </trkpt>
      <trkpt lat="14.81344" lon="-17.16408">
        <ele>43.99</ele>
        <time>2019-12-01T11:31:49.000Z</time>
      </trkpt>
      <trkpt lat="14.81337" lon="-17.16438">
        <ele>43.71</ele>
        <time>2019-12-01T11:31:54.000Z</time>
      </trkpt>
      <trkpt lat="14.81329" lon="-17.16469">
        <ele>43.44</ele>
        <time>2019-12-01T11:31:59.000Z</time>
      </trkpt>
      <trkpt lat="14.81322" lon="-17.16498">
        <ele>43.39</ele>
        <time>2019-12-01T11:32:04.000Z</time>
      </trkpt>
      <trkpt lat="14.81316" lon="-17.16525">
        <ele>43.31</ele>
        <time>2019-12-01T11:32:09.000Z</time>
      </trkpt>
      <trkpt lat="14.81308" lon="-17.16556">
        <ele>43.64</ele>
        <time>2019-12-01T11:32:14.000Z</time>
      </trkpt>
      <trkpt lat="14.81302" lon="-17.16586">
        <ele>44.01</ele>
        <time>2019-12-01T11:32:19.000Z</time>
      </trkpt>
      <trkpt lat="14.81295" lon="-17.16616">
        <ele>44.41</ele>
        <time>2019-12-01T11:32:24.000Z</time>
      </trkpt>
      <trkpt lat="14.81289" lon="-17.16647">
        <ele>44.5</ele>
        <time>2019-12-01T11:32:29.000Z</time>
      </trkpt>
      <trkpt lat="14.81283" lon="-17.16676">
        <ele>44.29</ele>
        <time>2019-12-01T11:32:34.000Z</time>
      </trkpt>
      <trkpt lat="14.81275" lon="-17.16704">
        <ele>43.95</ele>
        <time>2019-12-01T11:32:39.000Z</time>
      </trkpt>
      <trkpt lat="14.81267" lon="-17.16731">
        <ele>43.46</ele>
        <time>2019-12-01T11:32:44.000Z</time>
      </trkpt>
      <trkpt lat="14.81258" lon="-17.16761">
        <ele>43.27</ele>
        <time>2019-12-01T11:32:49.000Z</time>
      </trkpt>
      <trkpt lat="14.81247" lon="-17.1679">
        <ele>43.24</ele>
        <time>2019-12-01T11:32:54.000Z</time>
      </trkpt>
      <trkpt lat="14.81236" lon="-17.1682">
        <ele>43.33</ele>
        <time>2019-12-01T11:32:59.000Z</time>
      </trkpt>
      <trkpt lat="14.81223" lon="-17.16848">
        <ele>43.84</ele>
        <time>2019-12-01T11:33:04.000Z</time>
      </trkpt>
      <trkpt lat="14.8121" lon="-17.16876">
        <ele>44.35</ele>
        <time>2019-12-01T11:33:09.000Z</time>
      </trkpt>
      <trkpt lat="14.81196" lon="-17.16903">
        <ele>45.08</ele>
        <time>2019-12-01T11:33:14.000Z</time>
      </trkpt>
      <trkpt lat="14.81182" lon="-17.16928">
        <ele>45.64</ele>
        <time>2019-12-01T11:33:19.000Z</time>
      </trkpt>
      <trkpt lat="14.81168" lon="-17.16952">
        <ele>45.61</ele>
        <time>2019-12-01T11:33:24.000Z</time>
      </trkpt>
      <trkpt lat="14.81155" lon="-17.16974">
        <ele>45.3</ele>
        <time>2019-12-01T11:33:29.000Z</time>
      </trkpt>
      <trkpt lat="14.81143" lon="-17.16994">
        <ele>44.9</ele>
        <time>2019-12-01T11:33:34.000Z</time>
      </trkpt>
      <trkpt lat="14.81132" lon="-17.17013">
        <ele>44.07</ele>
        <time>2019-12-01T11:33:39.000Z</time>
      </trkpt>
      <trkpt lat="14.81119" lon="-17.17037">
        <ele>43.39</ele>
        <time>2019-12-01T11:33:44.000Z</time>
      </trkpt>
      <trkpt lat="14.81103" lon="-17.17063">
        <ele>42.63</ele>
        <time>2019-12-01T11:33:49.000Z</time>
      </trkpt>
      <trkpt lat="14.81089" lon="-17.1709">
        <ele>41.78</ele>
        <time>2019-12-01T11:33:54.000Z</time>
      </trkpt>
      <trkpt lat="14.81073" lon="-17.17116">
        <ele>40.88</ele>
        <time>2019-12-01T11:33:59.000Z</time>
      </trkpt>
      <trkpt lat="14.81058" lon="-17.17142">
        <ele>39.86</ele>
        <time>2019-12-01T11:34:04.000Z</time>
      </trkpt>
      <trkpt lat="14.81041" lon="-17.17169">
        <ele>38.59</ele>
        <time>2019-12-01T11:34:09.000Z</time>
      </trkpt>
      <trkpt lat="14.81023" lon="-17.17196">
        <ele>37.76</ele>
        <time>2019-12-01T11:34:14.000Z</time>
      </trkpt>
      <trkpt lat="14.81009" lon="-17.17222">
        <ele>37.58</ele>
        <time>2019-12-01T11:34:19.000Z</time>
      </trkpt>
      <trkpt lat="14.80994" lon="-17.17249">
        <ele>37.66</ele>
        <time>2019-12-01T11:34:24.000Z</time>
      </trkpt>
      <trkpt lat="14.80977" lon="-17.17278">
        <ele>37.19</ele>
        <time>2019-12-01T11:34:29.000Z</time>
      </trkpt>
      <trkpt lat="14.80959" lon="-17.17306">
        <ele>36.28</ele>
        <time>2019-12-01T11:34:34.000Z</time>
      </trkpt>
      <trkpt lat="14.80942" lon="-17.17335">
        <ele>35.69</ele>
        <time>2019-12-01T11:34:39.000Z</time>
      </trkpt>
      <trkpt lat="14.80923" lon="-17.17364">
        <ele>35.23</ele>
        <time>2019-12-01T11:34:44.000Z</time>
      </trkpt>
      <trkpt lat="14.80907" lon="-17.17393">
        <ele>34.48</ele>
        <time>2019-12-01T11:34:49.000Z</time>
      </trkpt>
      <trkpt lat="14.80891" lon="-17.17422">
        <ele>33.57</ele>
        <time>2019-12-01T11:34:54.000Z</time>
      </trkpt>
      <trkpt lat="14.80875" lon="-17.17449">
        <ele>32.04</ele>
        <time>2019-12-01T11:34:59.000Z</time>
      </trkpt>
      <trkpt lat="14.8086" lon="-17.17474">
        <ele>31.04</ele>
        <time>2019-12-01T11:35:04.000Z</time>
      </trkpt>
      <trkpt lat="14.80845" lon="-17.17497">
        <ele>30.63</ele>
        <time>2019-12-01T11:35:09.000Z</time>
      </trkpt>
      <trkpt lat="14.8083" lon="-17.17522">
        <ele>30.28</ele>
        <time>2019-12-01T11:35:14.000Z</time>
      </trkpt>
      <trkpt lat="14.80814" lon="-17.17548">
        <ele>30.07</ele>
        <time>2019-12-01T11:35:19.000Z</time>
      </trkpt>
      <trkpt lat="14.80799" lon="-17.17573">
        <ele>29.44</ele>
        <time>2019-12-01T11:35:24.000Z</time>
      </trkpt>
      <trkpt lat="14.80784" lon="-17.176">
        <ele>29.16</ele>
        <time>2019-12-01T11:35:29.000Z</time>
      </trkpt>
      <trkpt lat="14.80767" lon="-17.17627">
        <ele>28.86</ele>
        <time>2019-12-01T11:35:34.000Z</time>
      </trkpt>
      <trkpt lat="14.80751" lon="-17.17655">
        <ele>28.61</ele>
        <time>2019-12-01T11:35:39.000Z</time>
      </trkpt>
      <trkpt lat="14.80734" lon="-17.17682">
        <ele>28.46</ele>
        <time>2019-12-01T11:35:44.000Z</time>
      </trkpt>
      <trkpt lat="14.80717" lon="-17.17709">
        <ele>28.04</ele>
        <time>2019-12-01T11:35:49.000Z</time>
      </trkpt>
      <trkpt lat="14.807" lon="-17.17737">
        <ele>27.59</ele>
        <time>2019-12-01T11:35:54.000Z</time>
      </trkpt>
      <trkpt lat="14.80683" lon="-17.17765">
        <ele>28.16</ele>
        <time>2019-12-01T11:35:59.000Z</time>
      </trkpt>
      <trkpt lat="14.80667" lon="-17.17793">
        <ele>28.76</ele>
        <time>2019-12-01T11:36:04.000Z</time>
      </trkpt>
      <trkpt lat="14.8065" lon="-17.17823">
        <ele>28.6</ele>
        <time>2019-12-01T11:36:09.000Z</time>
      </trkpt>
      <trkpt lat="14.80629" lon="-17.17852">
        <ele>28.02</ele>
        <time>2019-12-01T11:36:14.000Z</time>
      </trkpt>
      <trkpt lat="14.80613" lon="-17.17882">
        <ele>28</ele>
        <time>2019-12-01T11:36:19.000Z</time>
      </trkpt>
      <trkpt lat="14.80597" lon="-17.17911">
        <ele>27.42</ele>
        <time>2019-12-01T11:36:24.000Z</time>
      </trkpt>
      <trkpt lat="14.80578" lon="-17.17938">
        <ele>27.1</ele>
        <time>2019-12-01T11:36:29.000Z</time>
      </trkpt>
      <trkpt lat="14.8056" lon="-17.17966">
        <ele>26.67</ele>
        <time>2019-12-01T11:36:34.000Z</time>
      </trkpt>
      <trkpt lat="14.80544" lon="-17.17995">
        <ele>25.61</ele>
        <time>2019-12-01T11:36:39.000Z</time>
      </trkpt>
      <trkpt lat="14.80528" lon="-17.18023">
        <ele>25.89</ele>
        <time>2019-12-01T11:36:44.000Z</time>
      </trkpt>
      <trkpt lat="14.80512" lon="-17.18051">
        <ele>26.89</ele>
        <time>2019-12-01T11:36:49.000Z</time>
      </trkpt>
      <trkpt lat="14.80496" lon="-17.18079">
        <ele>26.82</ele>
        <time>2019-12-01T11:36:54.000Z</time>
      </trkpt>
      <trkpt lat="14.80479" lon="-17.18105">
        <ele>26.61</ele>
        <time>2019-12-01T11:36:59.000Z</time>
      </trkpt>
      <trkpt lat="14.80462" lon="-17.18133">
        <ele>26.45</ele>
        <time>2019-12-01T11:37:04.000Z</time>
      </trkpt>
      <trkpt lat="14.80446" lon="-17.18159">
        <ele>26.9</ele>
        <time>2019-12-01T11:37:09.000Z</time>
      </trkpt>
      <trkpt lat="14.80429" lon="-17.18186">
        <ele>27.61</ele>
        <time>2019-12-01T11:37:14.000Z</time>
      </trkpt>
      <trkpt lat="14.80415" lon="-17.18208">
        <ele>28.17</ele>
        <time>2019-12-01T11:37:19.000Z</time>
      </trkpt>
      <trkpt lat="14.80403" lon="-17.18227">
        <ele>28.38</ele>
        <time>2019-12-01T11:37:24.000Z</time>
      </trkpt>
      <trkpt lat="14.80394" lon="-17.18242">
        <ele>28.78</ele>
        <time>2019-12-01T11:37:29.000Z</time>
      </trkpt>
      <trkpt lat="14.80381" lon="-17.18264">
        <ele>28.94</ele>
        <time>2019-12-01T11:37:34.000Z</time>
      </trkpt>
      <trkpt lat="14.80368" lon="-17.18291">
        <ele>28.44</ele>
        <time>2019-12-01T11:37:39.000Z</time>
      </trkpt>
      <trkpt lat="14.80352" lon="-17.1832">
        <ele>28.01</ele>
        <time>2019-12-01T11:37:44.000Z</time>
      </trkpt>
      <trkpt lat="14.80337" lon="-17.18344">
        <ele>27.33</ele>
        <time>2019-12-01T11:37:49.000Z</time>
      </trkpt>
      <trkpt lat="14.80323" lon="-17.18368">
        <ele>26.37</ele>
        <time>2019-12-01T11:37:54.000Z</time>
      </trkpt>
      <trkpt lat="14.80309" lon="-17.1839">
        <ele>25.5</ele>
        <time>2019-12-01T11:37:59.000Z</time>
      </trkpt>
      <trkpt lat="14.80296" lon="-17.18411">
        <ele>25.07</ele>
        <time>2019-12-01T11:38:04.000Z</time>
      </trkpt>
      <trkpt lat="14.80283" lon="-17.18432">
        <ele>25.87</ele>
        <time>2019-12-01T11:38:09.000Z</time>
      </trkpt>
      <trkpt lat="14.8027" lon="-17.18454">
        <ele>27.11</ele>
        <time>2019-12-01T11:38:14.000Z</time>
      </trkpt>
      <trkpt lat="14.80256" lon="-17.18477">
        <ele>28.62</ele>
        <time>2019-12-01T11:38:19.000Z</time>
      </trkpt>
      <trkpt lat="14.80243" lon="-17.18494">
        <ele>29.48</ele>
        <time>2019-12-01T11:38:24.000Z</time>
      </trkpt>
      <trkpt lat="14.80231" lon="-17.18513">
        <ele>29.5</ele>
        <time>2019-12-01T11:38:29.000Z</time>
      </trkpt>
      <trkpt lat="14.80216" lon="-17.18533">
        <ele>29.27</ele>
        <time>2019-12-01T11:38:34.000Z</time>
      </trkpt>
      <trkpt lat="14.80201" lon="-17.18553">
        <ele>28.94</ele>
        <time>2019-12-01T11:38:39.000Z</time>
      </trkpt>
      <trkpt lat="14.80188" lon="-17.18571">
        <ele>28.68</ele>
        <time>2019-12-01T11:38:44.000Z</time>
      </trkpt>
      <trkpt lat="14.80174" lon="-17.18588">
        <ele>28.54</ele>
        <time>2019-12-01T11:38:49.000Z</time>
      </trkpt>
      <trkpt lat="14.80162" lon="-17.18602">
        <ele>28.46</ele>
        <time>2019-12-01T11:38:54.000Z</time>
      </trkpt>
      <trkpt lat="14.80146" lon="-17.1862">
        <ele>28.48</ele>
        <time>2019-12-01T11:38:59.000Z</time>
      </trkpt>
      <trkpt lat="14.80132" lon="-17.18638">
        <ele>28.65</ele>
        <time>2019-12-01T11:39:04.000Z</time>
      </trkpt>
      <trkpt lat="14.80118" lon="-17.18657">
        <ele>28.65</ele>
        <time>2019-12-01T11:39:09.000Z</time>
      </trkpt>
      <trkpt lat="14.80103" lon="-17.18675">
        <ele>28.6</ele>
        <time>2019-12-01T11:39:14.000Z</time>
      </trkpt>
      <trkpt lat="14.80089" lon="-17.18694">
        <ele>28.47</ele>
        <time>2019-12-01T11:39:19.000Z</time>
      </trkpt>
      <trkpt lat="14.80074" lon="-17.18712">
        <ele>28.26</ele>
        <time>2019-12-01T11:39:24.000Z</time>
      </trkpt>
      <trkpt lat="14.80059" lon="-17.1873">
        <ele>28.12</ele>
        <time>2019-12-01T11:39:29.000Z</time>
      </trkpt>
      <trkpt lat="14.80045" lon="-17.18748">
        <ele>27.97</ele>
        <time>2019-12-01T11:39:34.000Z</time>
      </trkpt>
      <trkpt lat="14.8003" lon="-17.18765">
        <ele>27.89</ele>
        <time>2019-12-01T11:39:39.000Z</time>
      </trkpt>
      <trkpt lat="14.80015" lon="-17.18784">
        <ele>27.78</ele>
        <time>2019-12-01T11:39:44.000Z</time>
      </trkpt>
      <trkpt lat="14.79999" lon="-17.18805">
        <ele>27.59</ele>
        <time>2019-12-01T11:39:49.000Z</time>
      </trkpt>
      <trkpt lat="14.79982" lon="-17.18825">
        <ele>27.34</ele>
        <time>2019-12-01T11:39:54.000Z</time>
      </trkpt>
      <trkpt lat="14.79966" lon="-17.18846">
        <ele>27.1</ele>
        <time>2019-12-01T11:39:59.000Z</time>
      </trkpt>
      <trkpt lat="14.79948" lon="-17.18868">
        <ele>26.87</ele>
        <time>2019-12-01T11:40:04.000Z</time>
      </trkpt>
      <trkpt lat="14.79931" lon="-17.18889">
        <ele>26.67</ele>
        <time>2019-12-01T11:40:09.000Z</time>
      </trkpt>
      <trkpt lat="14.79915" lon="-17.18908">
        <ele>26.48</ele>
        <time>2019-12-01T11:40:14.000Z</time>
      </trkpt>
      <trkpt lat="14.799" lon="-17.18926">
        <ele>26.27</ele>
        <time>2019-12-01T11:40:19.000Z</time>
      </trkpt>
      <trkpt lat="14.79885" lon="-17.18945">
        <ele>26.09</ele>
        <time>2019-12-01T11:40:24.000Z</time>
      </trkpt>
      <trkpt lat="14.79868" lon="-17.18965">
        <ele>25.98</ele>
        <time>2019-12-01T11:40:29.000Z</time>
      </trkpt>
      <trkpt lat="14.79852" lon="-17.18987">
        <ele>26.12</ele>
        <time>2019-12-01T11:40:34.000Z</time>
      </trkpt>
      <trkpt lat="14.79835" lon="-17.19006">
        <ele>26.29</ele>
        <time>2019-12-01T11:40:39.000Z</time>
      </trkpt>
      <trkpt lat="14.79818" lon="-17.19026">
        <ele>26.32</ele>
        <time>2019-12-01T11:40:44.000Z</time>
      </trkpt>
      <trkpt lat="14.798" lon="-17.19047">
        <ele>26.36</ele>
        <time>2019-12-01T11:40:49.000Z</time>
      </trkpt>
      <trkpt lat="14.79787" lon="-17.19068">
        <ele>26.35</ele>
        <time>2019-12-01T11:40:54.000Z</time>
      </trkpt>
      <trkpt lat="14.79774" lon="-17.19091">
        <ele>26.29</ele>
        <time>2019-12-01T11:40:59.000Z</time>
      </trkpt>
      <trkpt lat="14.7976" lon="-17.19114">
        <ele>26.14</ele>
        <time>2019-12-01T11:41:04.000Z</time>
      </trkpt>
      <trkpt lat="14.79744" lon="-17.19138">
        <ele>25.98</ele>
        <time>2019-12-01T11:41:09.000Z</time>
      </trkpt>
      <trkpt lat="14.79728" lon="-17.19161">
        <ele>25.83</ele>
        <time>2019-12-01T11:41:14.000Z</time>
      </trkpt>
      <trkpt lat="14.79712" lon="-17.19185">
        <ele>25.82</ele>
        <time>2019-12-01T11:41:19.000Z</time>
      </trkpt>
      <trkpt lat="14.79696" lon="-17.1921">
        <ele>25.89</ele>
        <time>2019-12-01T11:41:23.999Z</time>
      </trkpt>
      <trkpt lat="14.79681" lon="-17.19233">
        <ele>25.98</ele>
        <time>2019-12-01T11:41:28.999Z</time>
      </trkpt>
      <trkpt lat="14.79667" lon="-17.19256">
        <ele>26</ele>
        <time>2019-12-01T11:41:33.999Z</time>
      </trkpt>
      <trkpt lat="14.79653" lon="-17.19279">
        <ele>25.96</ele>
        <time>2019-12-01T11:41:38.999Z</time>
      </trkpt>
      <trkpt lat="14.79637" lon="-17.19303">
        <ele>25.88</ele>
        <time>2019-12-01T11:41:43.999Z</time>
      </trkpt>
      <trkpt lat="14.79621" lon="-17.19327">
        <ele>25.81</ele>
        <time>2019-12-01T11:41:48.999Z</time>
      </trkpt>
      <trkpt lat="14.79605" lon="-17.19351">
        <ele>25.8</ele>
        <time>2019-12-01T11:41:53.999Z</time>
      </trkpt>
      <trkpt lat="14.7959" lon="-17.19375">
        <ele>25.78</ele>
        <time>2019-12-01T11:41:58.999Z</time>
      </trkpt>
      <trkpt lat="14.79574" lon="-17.19399">
        <ele>25.72</ele>
        <time>2019-12-01T11:42:03.999Z</time>
      </trkpt>
      <trkpt lat="14.79557" lon="-17.19426">
        <ele>25.68</ele>
        <time>2019-12-01T11:42:08.999Z</time>
      </trkpt>
      <trkpt lat="14.79541" lon="-17.19451">
        <ele>25.65</ele>
        <time>2019-12-01T11:42:13.999Z</time>
      </trkpt>
      <trkpt lat="14.79523" lon="-17.19479">
        <ele>25.62</ele>
        <time>2019-12-01T11:42:18.999Z</time>
      </trkpt>
      <trkpt lat="14.79505" lon="-17.19505">
        <ele>25.71</ele>
        <time>2019-12-01T11:42:23.999Z</time>
      </trkpt>
      <trkpt lat="14.79489" lon="-17.1953">
        <ele>25.84</ele>
        <time>2019-12-01T11:42:28.999Z</time>
      </trkpt>
      <trkpt lat="14.79472" lon="-17.19556">
        <ele>26.03</ele>
        <time>2019-12-01T11:42:33.999Z</time>
      </trkpt>
      <trkpt lat="14.79456" lon="-17.19582">
        <ele>26.39</ele>
        <time>2019-12-01T11:42:38.999Z</time>
      </trkpt>
      <trkpt lat="14.79436" lon="-17.19611">
        <ele>26.81</ele>
        <time>2019-12-01T11:42:43.999Z</time>
      </trkpt>
      <trkpt lat="14.79418" lon="-17.19639">
        <ele>27.2</ele>
        <time>2019-12-01T11:42:48.999Z</time>
      </trkpt>
      <trkpt lat="14.79401" lon="-17.19667">
        <ele>27.97</ele>
        <time>2019-12-01T11:42:53.999Z</time>
      </trkpt>
      <trkpt lat="14.79384" lon="-17.19694">
        <ele>28.73</ele>
        <time>2019-12-01T11:42:58.999Z</time>
      </trkpt>
      <trkpt lat="14.79367" lon="-17.1972">
        <ele>29.39</ele>
        <time>2019-12-01T11:43:03.999Z</time>
      </trkpt>
      <trkpt lat="14.79349" lon="-17.19747">
        <ele>30.09</ele>
        <time>2019-12-01T11:43:08.999Z</time>
      </trkpt>
      <trkpt lat="14.79333" lon="-17.19775">
        <ele>30.68</ele>
        <time>2019-12-01T11:43:13.999Z</time>
      </trkpt>
      <trkpt lat="14.79316" lon="-17.19802">
        <ele>30.92</ele>
        <time>2019-12-01T11:43:18.999Z</time>
      </trkpt>
      <trkpt lat="14.79299" lon="-17.1983">
        <ele>30.63</ele>
        <time>2019-12-01T11:43:23.999Z</time>
      </trkpt>
      <trkpt lat="14.7928" lon="-17.19858">
        <ele>30.3</ele>
        <time>2019-12-01T11:43:28.999Z</time>
      </trkpt>
      <trkpt lat="14.79262" lon="-17.19886">
        <ele>29.96</ele>
        <time>2019-12-01T11:43:33.999Z</time>
      </trkpt>
      <trkpt lat="14.79245" lon="-17.19913">
        <ele>29.65</ele>
        <time>2019-12-01T11:43:38.999Z</time>
      </trkpt>
      <trkpt lat="14.79229" lon="-17.19941">
        <ele>29.2</ele>
        <time>2019-12-01T11:43:43.999Z</time>
      </trkpt>
      <trkpt lat="14.79213" lon="-17.19968">
        <ele>28.6</ele>
        <time>2019-12-01T11:43:48.999Z</time>
      </trkpt>
      <trkpt lat="14.79195" lon="-17.19996">
        <ele>28.07</ele>
        <time>2019-12-01T11:43:53.999Z</time>
      </trkpt>
      <trkpt lat="14.79175" lon="-17.20024">
        <ele>27.64</ele>
        <time>2019-12-01T11:43:58.999Z</time>
      </trkpt>
      <trkpt lat="14.79158" lon="-17.20052">
        <ele>27.25</ele>
        <time>2019-12-01T11:44:03.999Z</time>
      </trkpt>
      <trkpt lat="14.79142" lon="-17.20078">
        <ele>26.89</ele>
        <time>2019-12-01T11:44:08.999Z</time>
      </trkpt>
      <trkpt lat="14.79127" lon="-17.20102">
        <ele>26.88</ele>
        <time>2019-12-01T11:44:13.999Z</time>
      </trkpt>
      <trkpt lat="14.79112" lon="-17.20125">
        <ele>27</ele>
        <time>2019-12-01T11:44:18.999Z</time>
      </trkpt>
      <trkpt lat="14.79097" lon="-17.20148">
        <ele>27.34</ele>
        <time>2019-12-01T11:44:23.999Z</time>
      </trkpt>
      <trkpt lat="14.79082" lon="-17.20174">
        <ele>27.69</ele>
        <time>2019-12-01T11:44:28.999Z</time>
      </trkpt>
      <trkpt lat="14.79068" lon="-17.20201">
        <ele>27.72</ele>
        <time>2019-12-01T11:44:33.999Z</time>
      </trkpt>
      <trkpt lat="14.79055" lon="-17.20228">
        <ele>27.6</ele>
        <time>2019-12-01T11:44:38.999Z</time>
      </trkpt>
      <trkpt lat="14.79043" lon="-17.20257">
        <ele>27.34</ele>
        <time>2019-12-01T11:44:43.999Z</time>
      </trkpt>
      <trkpt lat="14.79033" lon="-17.20287">
        <ele>27.18</ele>
        <time>2019-12-01T11:44:48.999Z</time>
      </trkpt>
      <trkpt lat="14.79024" lon="-17.20315">
        <ele>27.1</ele>
        <time>2019-12-01T11:44:53.999Z</time>
      </trkpt>
      <trkpt lat="14.79014" lon="-17.20341">
        <ele>27.09</ele>
        <time>2019-12-01T11:44:58.999Z</time>
      </trkpt>
      <trkpt lat="14.79001" lon="-17.20368">
        <ele>26.95</ele>
        <time>2019-12-01T11:45:03.999Z</time>
      </trkpt>
      <trkpt lat="14.78987" lon="-17.20396">
        <ele>26.52</ele>
        <time>2019-12-01T11:45:08.999Z</time>
      </trkpt>
      <trkpt lat="14.78972" lon="-17.20425">
        <ele>26.1</ele>
        <time>2019-12-01T11:45:13.999Z</time>
      </trkpt>
      <trkpt lat="14.78955" lon="-17.20454">
        <ele>26.15</ele>
        <time>2019-12-01T11:45:18.999Z</time>
      </trkpt>
      <trkpt lat="14.78938" lon="-17.20484">
        <ele>27.46</ele>
        <time>2019-12-01T11:45:23.999Z</time>
      </trkpt>
      <trkpt lat="14.78925" lon="-17.20511">
        <ele>28.21</ele>
        <time>2019-12-01T11:45:28.999Z</time>
      </trkpt>
      <trkpt lat="14.7891" lon="-17.20537">
        <ele>28.26</ele>
        <time>2019-12-01T11:45:33.999Z</time>
      </trkpt>
      <trkpt lat="14.78895" lon="-17.20564">
        <ele>28.22</ele>
        <time>2019-12-01T11:45:38.999Z</time>
      </trkpt>
      <trkpt lat="14.78879" lon="-17.20591">
        <ele>28.25</ele>
        <time>2019-12-01T11:45:43.999Z</time>
      </trkpt>
      <trkpt lat="14.78865" lon="-17.20619">
        <ele>28.38</ele>
        <time>2019-12-01T11:45:48.999Z</time>
      </trkpt>
      <trkpt lat="14.78849" lon="-17.20645">
        <ele>28.78</ele>
        <time>2019-12-01T11:45:53.999Z</time>
      </trkpt>
      <trkpt lat="14.78835" lon="-17.20669">
        <ele>28.62</ele>
        <time>2019-12-01T11:45:58.999Z</time>
      </trkpt>
      <trkpt lat="14.78824" lon="-17.20693">
        <ele>28.24</ele>
        <time>2019-12-01T11:46:03.999Z</time>
      </trkpt>
      <trkpt lat="14.78811" lon="-17.20717">
        <ele>27.96</ele>
        <time>2019-12-01T11:46:08.999Z</time>
      </trkpt>
      <trkpt lat="14.78797" lon="-17.20741">
        <ele>28.16</ele>
        <time>2019-12-01T11:46:13.999Z</time>
      </trkpt>
      <trkpt lat="14.78784" lon="-17.20765">
        <ele>27.9</ele>
        <time>2019-12-01T11:46:18.999Z</time>
      </trkpt>
      <trkpt lat="14.78771" lon="-17.20791">
        <ele>27.64</ele>
        <time>2019-12-01T11:46:23.999Z</time>
      </trkpt>
      <trkpt lat="14.78757" lon="-17.20815">
        <ele>27.39</ele>
        <time>2019-12-01T11:46:28.999Z</time>
      </trkpt>
      <trkpt lat="14.78745" lon="-17.20841">
        <ele>27.31</ele>
        <time>2019-12-01T11:46:33.999Z</time>
      </trkpt>
      <trkpt lat="14.78731" lon="-17.20865">
        <ele>27.48</ele>
        <time>2019-12-01T11:46:38.999Z</time>
      </trkpt>
      <trkpt lat="14.78715" lon="-17.20892">
        <ele>27.84</ele>
        <time>2019-12-01T11:46:43.999Z</time>
      </trkpt>
      <trkpt lat="14.78699" lon="-17.20917">
        <ele>27.79</ele>
        <time>2019-12-01T11:46:48.999Z</time>
      </trkpt>
      <trkpt lat="14.78676" lon="-17.20943">
        <ele>27.65</ele>
        <time>2019-12-01T11:46:53.999Z</time>
      </trkpt>
      <trkpt lat="14.78652" lon="-17.20964">
        <ele>27.65</ele>
        <time>2019-12-01T11:46:58.999Z</time>
      </trkpt>
      <trkpt lat="14.78628" lon="-17.20988">
        <ele>27.37</ele>
        <time>2019-12-01T11:47:03.999Z</time>
      </trkpt>
      <trkpt lat="14.78605" lon="-17.21013">
        <ele>27.45</ele>
        <time>2019-12-01T11:47:08.999Z</time>
      </trkpt>
      <trkpt lat="14.78586" lon="-17.21042">
        <ele>28.07</ele>
        <time>2019-12-01T11:47:13.999Z</time>
      </trkpt>
      <trkpt lat="14.78573" lon="-17.21074">
        <ele>28.17</ele>
        <time>2019-12-01T11:47:18.999Z</time>
      </trkpt>
      <trkpt lat="14.78569" lon="-17.21108">
        <ele>28.12</ele>
        <time>2019-12-01T11:47:23.999Z</time>
      </trkpt>
      <trkpt lat="14.78562" lon="-17.21141">
        <ele>28.1</ele>
        <time>2019-12-01T11:47:28.999Z</time>
      </trkpt>
      <trkpt lat="14.78558" lon="-17.21172">
        <ele>28.41</ele>
        <time>2019-12-01T11:47:33.999Z</time>
      </trkpt>
      <trkpt lat="14.78559" lon="-17.21201">
        <ele>28.23</ele>
        <time>2019-12-01T11:47:38.999Z</time>
      </trkpt>
      <trkpt lat="14.78562" lon="-17.21229">
        <ele>28.03</ele>
        <time>2019-12-01T11:47:43.999Z</time>
      </trkpt>
      <trkpt lat="14.78569" lon="-17.21254">
        <ele>28.19</ele>
        <time>2019-12-01T11:47:48.999Z</time>
      </trkpt>
      <trkpt lat="14.78574" lon="-17.21276">
        <ele>28.25</ele>
        <time>2019-12-01T11:47:53.999Z</time>
      </trkpt>
      <trkpt lat="14.78579" lon="-17.21295">
        <ele>28.36</ele>
        <time>2019-12-01T11:47:58.999Z</time>
      </trkpt>
      <trkpt lat="14.78583" lon="-17.21313">
        <ele>28.36</ele>
        <time>2019-12-01T11:48:03.999Z</time>
      </trkpt>
      <trkpt lat="14.78587" lon="-17.21333">
        <ele>28.39</ele>
        <time>2019-12-01T11:48:08.999Z</time>
      </trkpt>
      <trkpt lat="14.78591" lon="-17.21354">
        <ele>28.23</ele>
        <time>2019-12-01T11:48:13.999Z</time>
      </trkpt>
      <trkpt lat="14.78592" lon="-17.21375">
        <ele>28.09</ele>
        <time>2019-12-01T11:48:18.999Z</time>
      </trkpt>
      <trkpt lat="14.78591" lon="-17.21398">
        <ele>28.08</ele>
        <time>2019-12-01T11:48:23.999Z</time>
      </trkpt>
      <trkpt lat="14.78589" lon="-17.21422">
        <ele>28.02</ele>
        <time>2019-12-01T11:48:28.999Z</time>
      </trkpt>
      <trkpt lat="14.78586" lon="-17.21444">
        <ele>27.97</ele>
        <time>2019-12-01T11:48:33.999Z</time>
      </trkpt>
      <trkpt lat="14.78585" lon="-17.21458">
        <ele>27.94</ele>
        <time>2019-12-01T11:48:38.999Z</time>
      </trkpt>
      <trkpt lat="14.78584" lon="-17.21468">
        <ele>27.85</ele>
        <time>2019-12-01T11:48:50.999Z</time>
      </trkpt>
      <trkpt lat="14.7858" lon="-17.21486">
        <ele>27.56</ele>
        <time>2019-12-01T11:48:55.999Z</time>
      </trkpt>
      <trkpt lat="14.78577" lon="-17.21508">
        <ele>27.16</ele>
        <time>2019-12-01T11:49:00.999Z</time>
      </trkpt>
      <trkpt lat="14.78574" lon="-17.21529">
        <ele>26.97</ele>
        <time>2019-12-01T11:49:05.999Z</time>
      </trkpt>
      <trkpt lat="14.78572" lon="-17.21549">
        <ele>26.84</ele>
        <time>2019-12-01T11:49:10.999Z</time>
      </trkpt>
      <trkpt lat="14.7857" lon="-17.21571">
        <ele>26.59</ele>
        <time>2019-12-01T11:49:15.999Z</time>
      </trkpt>
      <trkpt lat="14.78564" lon="-17.21595">
        <ele>26.37</ele>
        <time>2019-12-01T11:49:20.999Z</time>
      </trkpt>
      <trkpt lat="14.78557" lon="-17.21618">
        <ele>26.21</ele>
        <time>2019-12-01T11:49:25.999Z</time>
      </trkpt>
      <trkpt lat="14.78548" lon="-17.21641">
        <ele>26.02</ele>
        <time>2019-12-01T11:49:30.999Z</time>
      </trkpt>
      <trkpt lat="14.78533" lon="-17.21661">
        <ele>25.77</ele>
        <time>2019-12-01T11:49:35.999Z</time>
      </trkpt>
      <trkpt lat="14.78517" lon="-17.21681">
        <ele>25.67</ele>
        <time>2019-12-01T11:49:40.999Z</time>
      </trkpt>
      <trkpt lat="14.78499" lon="-17.217">
        <ele>25.61</ele>
        <time>2019-12-01T11:49:45.999Z</time>
      </trkpt>
      <trkpt lat="14.78481" lon="-17.21717">
        <ele>25.53</ele>
        <time>2019-12-01T11:49:50.999Z</time>
      </trkpt>
      <trkpt lat="14.78464" lon="-17.21736">
        <ele>25.43</ele>
        <time>2019-12-01T11:49:55.999Z</time>
      </trkpt>
      <trkpt lat="14.78446" lon="-17.21754">
        <ele>25.31</ele>
        <time>2019-12-01T11:50:00.999Z</time>
      </trkpt>
      <trkpt lat="14.78429" lon="-17.21772">
        <ele>25.27</ele>
        <time>2019-12-01T11:50:05.999Z</time>
      </trkpt>
      <trkpt lat="14.78411" lon="-17.21792">
        <ele>25.21</ele>
        <time>2019-12-01T11:50:10.999Z</time>
      </trkpt>
      <trkpt lat="14.78391" lon="-17.21812">
        <ele>25.19</ele>
        <time>2019-12-01T11:50:15.999Z</time>
      </trkpt>
      <trkpt lat="14.78371" lon="-17.21833">
        <ele>25.16</ele>
        <time>2019-12-01T11:50:20.999Z</time>
      </trkpt>
      <trkpt lat="14.78352" lon="-17.21855">
        <ele>25.18</ele>
        <time>2019-12-01T11:50:25.999Z</time>
      </trkpt>
      <trkpt lat="14.78332" lon="-17.21876">
        <ele>25.23</ele>
        <time>2019-12-01T11:50:30.999Z</time>
      </trkpt>
      <trkpt lat="14.78307" lon="-17.21897">
        <ele>25.3</ele>
        <time>2019-12-01T11:50:35.999Z</time>
      </trkpt>
      <trkpt lat="14.78279" lon="-17.21919">
        <ele>25.34</ele>
        <time>2019-12-01T11:50:40.999Z</time>
      </trkpt>
      <trkpt lat="14.78252" lon="-17.21941">
        <ele>25.51</ele>
        <time>2019-12-01T11:50:45.999Z</time>
      </trkpt>
      <trkpt lat="14.78226" lon="-17.21961">
        <ele>25.82</ele>
        <time>2019-12-01T11:50:50.999Z</time>
      </trkpt>
      <trkpt lat="14.782" lon="-17.21981">
        <ele>26.07</ele>
        <time>2019-12-01T11:50:55.999Z</time>
      </trkpt>
      <trkpt lat="14.78174" lon="-17.22001">
        <ele>26.15</ele>
        <time>2019-12-01T11:51:00.999Z</time>
      </trkpt>
      <trkpt lat="14.78149" lon="-17.2202">
        <ele>26.27</ele>
        <time>2019-12-01T11:51:05.999Z</time>
      </trkpt>
      <trkpt lat="14.78125" lon="-17.22037">
        <ele>26.3</ele>
        <time>2019-12-01T11:51:10.999Z</time>
      </trkpt>
      <trkpt lat="14.781" lon="-17.22053">
        <ele>26.74</ele>
        <time>2019-12-01T11:51:15.999Z</time>
      </trkpt>
      <trkpt lat="14.78076" lon="-17.22068">
        <ele>26.93</ele>
        <time>2019-12-01T11:51:20.999Z</time>
      </trkpt>
      <trkpt lat="14.78052" lon="-17.22086">
        <ele>27.04</ele>
        <time>2019-12-01T11:51:25.999Z</time>
      </trkpt>
      <trkpt lat="14.78028" lon="-17.22104">
        <ele>26.99</ele>
        <time>2019-12-01T11:51:30.999Z</time>
      </trkpt>
      <trkpt lat="14.78005" lon="-17.22125">
        <ele>27.04</ele>
        <time>2019-12-01T11:51:35.999Z</time>
      </trkpt>
      <trkpt lat="14.77984" lon="-17.22148">
        <ele>26.99</ele>
        <time>2019-12-01T11:51:40.999Z</time>
      </trkpt>
      <trkpt lat="14.77964" lon="-17.22173">
        <ele>27.01</ele>
        <time>2019-12-01T11:51:45.999Z</time>
      </trkpt>
      <trkpt lat="14.77943" lon="-17.22198">
        <ele>27.07</ele>
        <time>2019-12-01T11:51:50.999Z</time>
      </trkpt>
      <trkpt lat="14.77925" lon="-17.22224">
        <ele>26.96</ele>
        <time>2019-12-01T11:51:55.999Z</time>
      </trkpt>
      <trkpt lat="14.77906" lon="-17.22248">
        <ele>26.59</ele>
        <time>2019-12-01T11:52:00.999Z</time>
      </trkpt>
      <trkpt lat="14.77886" lon="-17.22273">
        <ele>26.59</ele>
        <time>2019-12-01T11:52:05.999Z</time>
      </trkpt>
      <trkpt lat="14.77866" lon="-17.22298">
        <ele>26.98</ele>
        <time>2019-12-01T11:52:10.999Z</time>
      </trkpt>
      <trkpt lat="14.7785" lon="-17.22326">
        <ele>27.59</ele>
        <time>2019-12-01T11:52:15.999Z</time>
      </trkpt>
      <trkpt lat="14.77839" lon="-17.22356">
        <ele>27.76</ele>
        <time>2019-12-01T11:52:20.999Z</time>
      </trkpt>
      <trkpt lat="14.77828" lon="-17.22386">
        <ele>27.67</ele>
        <time>2019-12-01T11:52:25.999Z</time>
      </trkpt>
      <trkpt lat="14.77819" lon="-17.22415">
        <ele>27.49</ele>
        <time>2019-12-01T11:52:30.999Z</time>
      </trkpt>
      <trkpt lat="14.77813" lon="-17.22436">
        <ele>27.43</ele>
        <time>2019-12-01T11:52:35.999Z</time>
      </trkpt>
      <trkpt lat="14.77805" lon="-17.22456">
        <ele>27.87</ele>
        <time>2019-12-01T11:52:40.999Z</time>
      </trkpt>
      <trkpt lat="14.77796" lon="-17.22478">
        <ele>28.32</ele>
        <time>2019-12-01T11:52:45.999Z</time>
      </trkpt>
      <trkpt lat="14.7778" lon="-17.22496">
        <ele>28.82</ele>
        <time>2019-12-01T11:52:50.999Z</time>
      </trkpt>
      <trkpt lat="14.77766" lon="-17.22513">
        <ele>29.78</ele>
        <time>2019-12-01T11:52:55.999Z</time>
      </trkpt>
      <trkpt lat="14.77748" lon="-17.22524">
        <ele>30.35</ele>
        <time>2019-12-01T11:53:00.999Z</time>
      </trkpt>
      <trkpt lat="14.77732" lon="-17.22533">
        <ele>30.38</ele>
        <time>2019-12-01T11:53:05.999Z</time>
      </trkpt>
      <trkpt lat="14.77715" lon="-17.2254">
        <ele>30.36</ele>
        <time>2019-12-01T11:53:10.999Z</time>
      </trkpt>
      <trkpt lat="14.77696" lon="-17.22547">
        <ele>30.39</ele>
        <time>2019-12-01T11:53:15.999Z</time>
      </trkpt>
      <trkpt lat="14.77678" lon="-17.22554">
        <ele>30.45</ele>
        <time>2019-12-01T11:53:20.999Z</time>
      </trkpt>
      <trkpt lat="14.77656" lon="-17.2256">
        <ele>30.4</ele>
        <time>2019-12-01T11:53:25.999Z</time>
      </trkpt>
      <trkpt lat="14.77635" lon="-17.22566">
        <ele>29.97</ele>
        <time>2019-12-01T11:53:30.999Z</time>
      </trkpt>
      <trkpt lat="14.77614" lon="-17.22573">
        <ele>29.87</ele>
        <time>2019-12-01T11:53:35.999Z</time>
      </trkpt>
      <trkpt lat="14.77593" lon="-17.22579">
        <ele>29.87</ele>
        <time>2019-12-01T11:53:40.999Z</time>
      </trkpt>
      <trkpt lat="14.77573" lon="-17.22587">
        <ele>29.95</ele>
        <time>2019-12-01T11:53:45.999Z</time>
      </trkpt>
      <trkpt lat="14.77552" lon="-17.22594">
        <ele>30.03</ele>
        <time>2019-12-01T11:53:50.999Z</time>
      </trkpt>
      <trkpt lat="14.7753" lon="-17.22601">
        <ele>30.04</ele>
        <time>2019-12-01T11:53:55.999Z</time>
      </trkpt>
      <trkpt lat="14.77507" lon="-17.22608">
        <ele>30.06</ele>
        <time>2019-12-01T11:54:00.999Z</time>
      </trkpt>
      <trkpt lat="14.77482" lon="-17.22616">
        <ele>30.03</ele>
        <time>2019-12-01T11:54:05.999Z</time>
      </trkpt>
      <trkpt lat="14.77457" lon="-17.22625">
        <ele>30.03</ele>
        <time>2019-12-01T11:54:10.999Z</time>
      </trkpt>
      <trkpt lat="14.77431" lon="-17.22633">
        <ele>30.02</ele>
        <time>2019-12-01T11:54:15.999Z</time>
      </trkpt>
      <trkpt lat="14.77411" lon="-17.2264">
        <ele>30.04</ele>
        <time>2019-12-01T11:54:20.999Z</time>
      </trkpt>
      <trkpt lat="14.77404" lon="-17.22646">
        <ele>29.48</ele>
        <time>2019-12-01T11:56:28.000Z</time>
      </trkpt>
      <trkpt lat="14.77406" lon="-17.22655">
        <ele>29.53</ele>
        <time>2019-12-01T12:01:34.000Z</time>
      </trkpt>
      <trkpt lat="14.77413" lon="-17.2266">
        <ele>29.66</ele>
        <time>2019-12-01T12:02:53.000Z</time>
      </trkpt>
      <trkpt lat="14.77403" lon="-17.22657">
        <ele>29.76</ele>
        <time>2019-12-01T12:03:16.000Z</time>
      </trkpt>
      <trkpt lat="14.77394" lon="-17.22655">
        <ele>29.89</ele>
        <time>2019-12-01T12:03:23.000Z</time>
      </trkpt>
      <trkpt lat="14.77384" lon="-17.22654">
        <ele>29.97</ele>
        <time>2019-12-01T12:03:28.000Z</time>
      </trkpt>
      <trkpt lat="14.77375" lon="-17.22657">
        <ele>30.24</ele>
        <time>2019-12-01T12:03:49.000Z</time>
      </trkpt>
      <trkpt lat="14.77368" lon="-17.22664">
        <ele>30.45</ele>
        <time>2019-12-01T12:03:58.000Z</time>
      </trkpt>
      <trkpt lat="14.7736" lon="-17.2267">
        <ele>30.63</ele>
        <time>2019-12-01T12:04:06.000Z</time>
      </trkpt>
      <trkpt lat="14.77351" lon="-17.22674">
        <ele>30.88</ele>
        <time>2019-12-01T12:04:19.000Z</time>
      </trkpt>
      <trkpt lat="14.77342" lon="-17.22674">
        <ele>31.07</ele>
        <time>2019-12-01T12:04:43.000Z</time>
      </trkpt>
      <trkpt lat="14.77333" lon="-17.22676">
        <ele>31.2</ele>
        <time>2019-12-01T12:04:53.000Z</time>
      </trkpt>
      <trkpt lat="14.77325" lon="-17.22682">
        <ele>31.3</ele>
        <time>2019-12-01T12:05:02.000Z</time>
      </trkpt>
      <trkpt lat="14.77334" lon="-17.22687">
        <ele>31.5</ele>
        <time>2019-12-01T12:06:24.000Z</time>
      </trkpt>
      <trkpt lat="14.77327" lon="-17.22694">
        <ele>39.59</ele>
        <time>2019-12-01T12:38:49.999Z</time>
      </trkpt>
      <trkpt lat="14.7732" lon="-17.22688">
        <ele>42.79</ele>
        <time>2019-12-01T12:54:48.000Z</time>
      </trkpt>
      <trkpt lat="14.77327" lon="-17.22682">
        <ele>43.09</ele>
        <time>2019-12-01T13:13:34.999Z</time>
      </trkpt>
      <trkpt lat="14.77322" lon="-17.22673">
        <ele>43.02</ele>
        <time>2019-12-01T13:13:48.999Z</time>
      </trkpt>
      <trkpt lat="14.77314" lon="-17.22676">
        <ele>42.94</ele>
        <time>2019-12-01T13:13:57.999Z</time>
      </trkpt>
      <trkpt lat="14.77303" lon="-17.22679">
        <ele>42.85</ele>
        <time>2019-12-01T13:14:13.999Z</time>
      </trkpt>
      <trkpt lat="14.77288" lon="-17.22683">
        <ele>42.81</ele>
        <time>2019-12-01T13:14:18.999Z</time>
      </trkpt>
      <trkpt lat="14.77273" lon="-17.22688">
        <ele>42.77</ele>
        <time>2019-12-01T13:14:23.999Z</time>
      </trkpt>
      <trkpt lat="14.77257" lon="-17.22694">
        <ele>42.73</ele>
        <time>2019-12-01T13:14:28.999Z</time>
      </trkpt>
      <trkpt lat="14.7724" lon="-17.227">
        <ele>42.68</ele>
        <time>2019-12-01T13:14:33.999Z</time>
      </trkpt>
      <trkpt lat="14.77222" lon="-17.22705">
        <ele>42.64</ele>
        <time>2019-12-01T13:14:38.999Z</time>
      </trkpt>
      <trkpt lat="14.77203" lon="-17.2271">
        <ele>42.58</ele>
        <time>2019-12-01T13:14:43.999Z</time>
      </trkpt>
      <trkpt lat="14.77186" lon="-17.22715">
        <ele>42.31</ele>
        <time>2019-12-01T13:14:48.999Z</time>
      </trkpt>
      <trkpt lat="14.77168" lon="-17.22719">
        <ele>42.05</ele>
        <time>2019-12-01T13:14:53.999Z</time>
      </trkpt>
      <trkpt lat="14.77144" lon="-17.22725">
        <ele>41.87</ele>
        <time>2019-12-01T13:14:58.999Z</time>
      </trkpt>
      <trkpt lat="14.7712" lon="-17.22733">
        <ele>41.75</ele>
        <time>2019-12-01T13:15:03.999Z</time>
      </trkpt>
      <trkpt lat="14.77097" lon="-17.22742">
        <ele>41.64</ele>
        <time>2019-12-01T13:15:08.999Z</time>
      </trkpt>
      <trkpt lat="14.77073" lon="-17.2275">
        <ele>41.52</ele>
        <time>2019-12-01T13:15:13.999Z</time>
      </trkpt>
      <trkpt lat="14.7705" lon="-17.22758">
        <ele>41.42</ele>
        <time>2019-12-01T13:15:18.999Z</time>
      </trkpt>
      <trkpt lat="14.7703" lon="-17.22767">
        <ele>41.31</ele>
        <time>2019-12-01T13:15:23.999Z</time>
      </trkpt>
      <trkpt lat="14.77011" lon="-17.22773">
        <ele>41.21</ele>
        <time>2019-12-01T13:15:28.999Z</time>
      </trkpt>
      <trkpt lat="14.76991" lon="-17.22778">
        <ele>41.06</ele>
        <time>2019-12-01T13:15:33.999Z</time>
      </trkpt>
      <trkpt lat="14.76969" lon="-17.22783">
        <ele>40.93</ele>
        <time>2019-12-01T13:15:38.999Z</time>
      </trkpt>
      <trkpt lat="14.76951" lon="-17.22788">
        <ele>40.89</ele>
        <time>2019-12-01T13:15:43.999Z</time>
      </trkpt>
      <trkpt lat="14.76941" lon="-17.22801">
        <ele>40.87</ele>
        <time>2019-12-01T13:15:48.999Z</time>
      </trkpt>
      <trkpt lat="14.76946" lon="-17.22819">
        <ele>40.85</ele>
        <time>2019-12-01T13:15:53.999Z</time>
      </trkpt>
      <trkpt lat="14.76952" lon="-17.22833">
        <ele>40.82</ele>
        <time>2019-12-01T13:15:58.999Z</time>
      </trkpt>
      <trkpt lat="14.76956" lon="-17.22841">
        <ele>40.77</ele>
        <time>2019-12-01T13:16:04.999Z</time>
      </trkpt>
      <trkpt lat="14.7696" lon="-17.22852">
        <ele>40.7</ele>
        <time>2019-12-01T13:16:26.999Z</time>
      </trkpt>
      <trkpt lat="14.76965" lon="-17.22869">
        <ele>40.66</ele>
        <time>2019-12-01T13:16:31.999Z</time>
      </trkpt>
      <trkpt lat="14.76974" lon="-17.22889">
        <ele>40.35</ele>
        <time>2019-12-01T13:16:36.999Z</time>
      </trkpt>
      <trkpt lat="14.76983" lon="-17.2291">
        <ele>40.16</ele>
        <time>2019-12-01T13:16:41.999Z</time>
      </trkpt>
      <trkpt lat="14.76993" lon="-17.22931">
        <ele>40.03</ele>
        <time>2019-12-01T13:16:46.999Z</time>
      </trkpt>
      <trkpt lat="14.77002" lon="-17.22955">
        <ele>39.88</ele>
        <time>2019-12-01T13:16:51.999Z</time>
      </trkpt>
      <trkpt lat="14.77011" lon="-17.22978">
        <ele>39.73</ele>
        <time>2019-12-01T13:16:56.999Z</time>
      </trkpt>
      <trkpt lat="14.77022" lon="-17.23003">
        <ele>39.54</ele>
        <time>2019-12-01T13:17:01.999Z</time>
      </trkpt>
      <trkpt lat="14.7703" lon="-17.23024">
        <ele>39.36</ele>
        <time>2019-12-01T13:17:06.999Z</time>
      </trkpt>
      <trkpt lat="14.77037" lon="-17.23046">
        <ele>39.26</ele>
        <time>2019-12-01T13:17:11.999Z</time>
      </trkpt>
      <trkpt lat="14.77045" lon="-17.23071">
        <ele>39.11</ele>
        <time>2019-12-01T13:17:16.999Z</time>
      </trkpt>
      <trkpt lat="14.77051" lon="-17.23096">
        <ele>38.95</ele>
        <time>2019-12-01T13:17:21.999Z</time>
      </trkpt>
      <trkpt lat="14.77056" lon="-17.23122">
        <ele>38.81</ele>
        <time>2019-12-01T13:17:26.999Z</time>
      </trkpt>
      <trkpt lat="14.7706" lon="-17.23149">
        <ele>38.74</ele>
        <time>2019-12-01T13:17:31.999Z</time>
      </trkpt>
      <trkpt lat="14.77064" lon="-17.23174">
        <ele>38.66</ele>
        <time>2019-12-01T13:17:36.999Z</time>
      </trkpt>
      <trkpt lat="14.77069" lon="-17.23199">
        <ele>38.55</ele>
        <time>2019-12-01T13:17:41.999Z</time>
      </trkpt>
      <trkpt lat="14.77073" lon="-17.23224">
        <ele>38.41</ele>
        <time>2019-12-01T13:17:46.999Z</time>
      </trkpt>
      <trkpt lat="14.77079" lon="-17.2325">
        <ele>38.23</ele>
        <time>2019-12-01T13:17:51.999Z</time>
      </trkpt>
      <trkpt lat="14.77082" lon="-17.23275">
        <ele>38.08</ele>
        <time>2019-12-01T13:17:56.999Z</time>
      </trkpt>
      <trkpt lat="14.77086" lon="-17.23301">
        <ele>37.96</ele>
        <time>2019-12-01T13:18:01.999Z</time>
      </trkpt>
      <trkpt lat="14.7709" lon="-17.23326">
        <ele>37.84</ele>
        <time>2019-12-01T13:18:06.999Z</time>
      </trkpt>
      <trkpt lat="14.77095" lon="-17.23352">
        <ele>37.67</ele>
        <time>2019-12-01T13:18:11.999Z</time>
      </trkpt>
      <trkpt lat="14.77098" lon="-17.23377">
        <ele>37.5</ele>
        <time>2019-12-01T13:18:16.999Z</time>
      </trkpt>
      <trkpt lat="14.77103" lon="-17.23403">
        <ele>37.3</ele>
        <time>2019-12-01T13:18:21.999Z</time>
      </trkpt>
      <trkpt lat="14.77108" lon="-17.23427">
        <ele>37.08</ele>
        <time>2019-12-01T13:18:26.999Z</time>
      </trkpt>
      <trkpt lat="14.77111" lon="-17.2345">
        <ele>36.87</ele>
        <time>2019-12-01T13:18:31.999Z</time>
      </trkpt>
      <trkpt lat="14.77115" lon="-17.23472">
        <ele>36.72</ele>
        <time>2019-12-01T13:18:36.999Z</time>
      </trkpt>
      <trkpt lat="14.77119" lon="-17.23497">
        <ele>36.59</ele>
        <time>2019-12-01T13:18:41.999Z</time>
      </trkpt>
      <trkpt lat="14.77123" lon="-17.2352">
        <ele>36.47</ele>
        <time>2019-12-01T13:18:46.999Z</time>
      </trkpt>
      <trkpt lat="14.77127" lon="-17.23543">
        <ele>36.34</ele>
        <time>2019-12-01T13:18:51.999Z</time>
      </trkpt>
      <trkpt lat="14.7713" lon="-17.23561">
        <ele>36.27</ele>
        <time>2019-12-01T13:18:56.000Z</time>
      </trkpt>
      <trkpt lat="14.77133" lon="-17.23585">
        <ele>36.16</ele>
        <time>2019-12-01T13:19:01.000Z</time>
      </trkpt>
      <trkpt lat="14.77138" lon="-17.23609">
        <ele>36.05</ele>
        <time>2019-12-01T13:19:06.000Z</time>
      </trkpt>
      <trkpt lat="14.77142" lon="-17.23633">
        <ele>35.95</ele>
        <time>2019-12-01T13:19:11.000Z</time>
      </trkpt>
      <trkpt lat="14.77147" lon="-17.2366">
        <ele>35.87</ele>
        <time>2019-12-01T13:19:16.000Z</time>
      </trkpt>
      <trkpt lat="14.77151" lon="-17.23684">
        <ele>35.87</ele>
        <time>2019-12-01T13:19:21.000Z</time>
      </trkpt>
      <trkpt lat="14.77156" lon="-17.23711">
        <ele>35.86</ele>
        <time>2019-12-01T13:19:26.000Z</time>
      </trkpt>
      <trkpt lat="14.7716" lon="-17.23735">
        <ele>35.81</ele>
        <time>2019-12-01T13:19:31.000Z</time>
      </trkpt>
      <trkpt lat="14.77164" lon="-17.23762">
        <ele>35.75</ele>
        <time>2019-12-01T13:19:36.000Z</time>
      </trkpt>
      <trkpt lat="14.77169" lon="-17.23788">
        <ele>35.72</ele>
        <time>2019-12-01T13:19:41.000Z</time>
      </trkpt>
      <trkpt lat="14.77173" lon="-17.23816">
        <ele>35.67</ele>
        <time>2019-12-01T13:19:46.000Z</time>
      </trkpt>
      <trkpt lat="14.77177" lon="-17.23843">
        <ele>35.61</ele>
        <time>2019-12-01T13:19:51.000Z</time>
      </trkpt>
      <trkpt lat="14.77182" lon="-17.23871">
        <ele>35.54</ele>
        <time>2019-12-01T13:19:56.000Z</time>
      </trkpt>
      <trkpt lat="14.77187" lon="-17.23898">
        <ele>35.48</ele>
        <time>2019-12-01T13:20:01.000Z</time>
      </trkpt>
      <trkpt lat="14.77191" lon="-17.23926">
        <ele>35.38</ele>
        <time>2019-12-01T13:20:06.000Z</time>
      </trkpt>
      <trkpt lat="14.77195" lon="-17.23954">
        <ele>35.27</ele>
        <time>2019-12-01T13:20:11.000Z</time>
      </trkpt>
      <trkpt lat="14.772" lon="-17.23981">
        <ele>35.15</ele>
        <time>2019-12-01T13:20:16.000Z</time>
      </trkpt>
      <trkpt lat="14.77205" lon="-17.24007">
        <ele>35.07</ele>
        <time>2019-12-01T13:20:21.000Z</time>
      </trkpt>
      <trkpt lat="14.7721" lon="-17.24035">
        <ele>34.97</ele>
        <time>2019-12-01T13:20:26.000Z</time>
      </trkpt>
      <trkpt lat="14.77214" lon="-17.24061">
        <ele>34.9</ele>
        <time>2019-12-01T13:20:31.000Z</time>
      </trkpt>
      <trkpt lat="14.77219" lon="-17.24088">
        <ele>34.85</ele>
        <time>2019-12-01T13:20:36.000Z</time>
      </trkpt>
      <trkpt lat="14.77223" lon="-17.24115">
        <ele>34.76</ele>
        <time>2019-12-01T13:20:41.000Z</time>
      </trkpt>
      <trkpt lat="14.77228" lon="-17.24143">
        <ele>34.76</ele>
        <time>2019-12-01T13:20:46.000Z</time>
      </trkpt>
      <trkpt lat="14.77235" lon="-17.2417">
        <ele>34.68</ele>
        <time>2019-12-01T13:20:51.000Z</time>
      </trkpt>
      <trkpt lat="14.77249" lon="-17.242">
        <ele>34.5</ele>
        <time>2019-12-01T13:20:56.000Z</time>
      </trkpt>
      <trkpt lat="14.77266" lon="-17.24227">
        <ele>34.29</ele>
        <time>2019-12-01T13:21:01.000Z</time>
      </trkpt>
      <trkpt lat="14.77283" lon="-17.24255">
        <ele>33.97</ele>
        <time>2019-12-01T13:21:06.000Z</time>
      </trkpt>
      <trkpt lat="14.77301" lon="-17.24285">
        <ele>33.66</ele>
        <time>2019-12-01T13:21:11.000Z</time>
      </trkpt>
      <trkpt lat="14.77319" lon="-17.24314">
        <ele>33.34</ele>
        <time>2019-12-01T13:21:16.000Z</time>
      </trkpt>
      <trkpt lat="14.77335" lon="-17.24342">
        <ele>33.06</ele>
        <time>2019-12-01T13:21:21.000Z</time>
      </trkpt>
      <trkpt lat="14.7735" lon="-17.24368">
        <ele>32.69</ele>
        <time>2019-12-01T13:21:26.000Z</time>
      </trkpt>
      <trkpt lat="14.77364" lon="-17.24392">
        <ele>32.25</ele>
        <time>2019-12-01T13:21:31.000Z</time>
      </trkpt>
      <trkpt lat="14.77379" lon="-17.24419">
        <ele>31.97</ele>
        <time>2019-12-01T13:21:36.000Z</time>
      </trkpt>
      <trkpt lat="14.77394" lon="-17.24443">
        <ele>31.73</ele>
        <time>2019-12-01T13:21:41.000Z</time>
      </trkpt>
      <trkpt lat="14.77408" lon="-17.24467">
        <ele>31.43</ele>
        <time>2019-12-01T13:21:46.000Z</time>
      </trkpt>
      <trkpt lat="14.77423" lon="-17.2449">
        <ele>31.11</ele>
        <time>2019-12-01T13:21:51.000Z</time>
      </trkpt>
      <trkpt lat="14.77437" lon="-17.24514">
        <ele>30.66</ele>
        <time>2019-12-01T13:21:56.000Z</time>
      </trkpt>
      <trkpt lat="14.77451" lon="-17.24537">
        <ele>30.41</ele>
        <time>2019-12-01T13:22:01.000Z</time>
      </trkpt>
      <trkpt lat="14.77465" lon="-17.24559">
        <ele>30.41</ele>
        <time>2019-12-01T13:22:06.000Z</time>
      </trkpt>
      <trkpt lat="14.77479" lon="-17.24582">
        <ele>30.25</ele>
        <time>2019-12-01T13:22:11.000Z</time>
      </trkpt>
      <trkpt lat="14.77493" lon="-17.24605">
        <ele>30.08</ele>
        <time>2019-12-01T13:22:16.000Z</time>
      </trkpt>
      <trkpt lat="14.77506" lon="-17.24627">
        <ele>29.89</ele>
        <time>2019-12-01T13:22:21.000Z</time>
      </trkpt>
      <trkpt lat="14.7752" lon="-17.24651">
        <ele>29.82</ele>
        <time>2019-12-01T13:22:26.000Z</time>
      </trkpt>
      <trkpt lat="14.77533" lon="-17.24672">
        <ele>29.86</ele>
        <time>2019-12-01T13:22:31.000Z</time>
      </trkpt>
      <trkpt lat="14.77549" lon="-17.24695">
        <ele>29.87</ele>
        <time>2019-12-01T13:22:36.000Z</time>
      </trkpt>
      <trkpt lat="14.77561" lon="-17.24717">
        <ele>29.85</ele>
        <time>2019-12-01T13:22:41.000Z</time>
      </trkpt>
      <trkpt lat="14.77573" lon="-17.24738">
        <ele>29.84</ele>
        <time>2019-12-01T13:22:46.000Z</time>
      </trkpt>
      <trkpt lat="14.77588" lon="-17.24761">
        <ele>29.82</ele>
        <time>2019-12-01T13:22:51.000Z</time>
      </trkpt>
      <trkpt lat="14.776" lon="-17.24782">
        <ele>29.77</ele>
        <time>2019-12-01T13:22:56.000Z</time>
      </trkpt>
      <trkpt lat="14.77612" lon="-17.24803">
        <ele>29.58</ele>
        <time>2019-12-01T13:23:01.000Z</time>
      </trkpt>
      <trkpt lat="14.77625" lon="-17.24824">
        <ele>29.49</ele>
        <time>2019-12-01T13:23:06.000Z</time>
      </trkpt>
      <trkpt lat="14.77637" lon="-17.24845">
        <ele>29.53</ele>
        <time>2019-12-01T13:23:11.000Z</time>
      </trkpt>
      <trkpt lat="14.77649" lon="-17.24865">
        <ele>29.54</ele>
        <time>2019-12-01T13:23:16.000Z</time>
      </trkpt>
      <trkpt lat="14.77661" lon="-17.24887">
        <ele>29.37</ele>
        <time>2019-12-01T13:23:21.000Z</time>
      </trkpt>
      <trkpt lat="14.77672" lon="-17.24906">
        <ele>29.09</ele>
        <time>2019-12-01T13:23:26.000Z</time>
      </trkpt>
      <trkpt lat="14.77683" lon="-17.24927">
        <ele>28.81</ele>
        <time>2019-12-01T13:23:31.000Z</time>
      </trkpt>
      <trkpt lat="14.77694" lon="-17.24948">
        <ele>28.65</ele>
        <time>2019-12-01T13:23:36.000Z</time>
      </trkpt>
      <trkpt lat="14.77706" lon="-17.24967">
        <ele>28.56</ele>
        <time>2019-12-01T13:23:41.000Z</time>
      </trkpt>
      <trkpt lat="14.7772" lon="-17.24987">
        <ele>28.51</ele>
        <time>2019-12-01T13:23:46.000Z</time>
      </trkpt>
      <trkpt lat="14.77731" lon="-17.25006">
        <ele>28.39</ele>
        <time>2019-12-01T13:23:51.000Z</time>
      </trkpt>
      <trkpt lat="14.77743" lon="-17.25025">
        <ele>28.37</ele>
        <time>2019-12-01T13:23:56.000Z</time>
      </trkpt>
      <trkpt lat="14.77754" lon="-17.25044">
        <ele>28.39</ele>
        <time>2019-12-01T13:24:01.000Z</time>
      </trkpt>
      <trkpt lat="14.77767" lon="-17.25065">
        <ele>28.39</ele>
        <time>2019-12-01T13:24:06.000Z</time>
      </trkpt>
      <trkpt lat="14.7778" lon="-17.25087">
        <ele>28.31</ele>
        <time>2019-12-01T13:24:11.000Z</time>
      </trkpt>
      <trkpt lat="14.77793" lon="-17.25108">
        <ele>28.16</ele>
        <time>2019-12-01T13:24:16.000Z</time>
      </trkpt>
      <trkpt lat="14.77807" lon="-17.25132">
        <ele>27.96</ele>
        <time>2019-12-01T13:24:21.000Z</time>
      </trkpt>
      <trkpt lat="14.77823" lon="-17.25158">
        <ele>27.69</ele>
        <time>2019-12-01T13:24:26.000Z</time>
      </trkpt>
      <trkpt lat="14.77837" lon="-17.25183">
        <ele>27.44</ele>
        <time>2019-12-01T13:24:31.000Z</time>
      </trkpt>
      <trkpt lat="14.77853" lon="-17.25209">
        <ele>27.07</ele>
        <time>2019-12-01T13:24:36.000Z</time>
      </trkpt>
      <trkpt lat="14.77866" lon="-17.25237">
        <ele>26.78</ele>
        <time>2019-12-01T13:24:41.000Z</time>
      </trkpt>
      <trkpt lat="14.77876" lon="-17.25264">
        <ele>26.38</ele>
        <time>2019-12-01T13:24:46.000Z</time>
      </trkpt>
      <trkpt lat="14.77884" lon="-17.25291">
        <ele>25.93</ele>
        <time>2019-12-01T13:24:51.000Z</time>
      </trkpt>
      <trkpt lat="14.77891" lon="-17.25321">
        <ele>25.43</ele>
        <time>2019-12-01T13:24:56.000Z</time>
      </trkpt>
      <trkpt lat="14.77899" lon="-17.25351">
        <ele>25</ele>
        <time>2019-12-01T13:25:01.000Z</time>
      </trkpt>
      <trkpt lat="14.77907" lon="-17.25379">
        <ele>24.69</ele>
        <time>2019-12-01T13:25:06.000Z</time>
      </trkpt>
      <trkpt lat="14.77914" lon="-17.25408">
        <ele>24.48</ele>
        <time>2019-12-01T13:25:11.000Z</time>
      </trkpt>
      <trkpt lat="14.77921" lon="-17.25438">
        <ele>24.17</ele>
        <time>2019-12-01T13:25:16.000Z</time>
      </trkpt>
      <trkpt lat="14.77927" lon="-17.25465">
        <ele>23.86</ele>
        <time>2019-12-01T13:25:21.000Z</time>
      </trkpt>
      <trkpt lat="14.77934" lon="-17.25489">
        <ele>23.59</ele>
        <time>2019-12-01T13:25:26.000Z</time>
      </trkpt>
      <trkpt lat="14.7794" lon="-17.25513">
        <ele>23.48</ele>
        <time>2019-12-01T13:25:31.000Z</time>
      </trkpt>
      <trkpt lat="14.77946" lon="-17.25538">
        <ele>23.39</ele>
        <time>2019-12-01T13:25:36.000Z</time>
      </trkpt>
      <trkpt lat="14.77952" lon="-17.25563">
        <ele>23.39</ele>
        <time>2019-12-01T13:25:41.000Z</time>
      </trkpt>
      <trkpt lat="14.77958" lon="-17.25586">
        <ele>23.43</ele>
        <time>2019-12-01T13:25:46.000Z</time>
      </trkpt>
      <trkpt lat="14.77962" lon="-17.25608">
        <ele>23.45</ele>
        <time>2019-12-01T13:25:51.000Z</time>
      </trkpt>
      <trkpt lat="14.77967" lon="-17.25631">
        <ele>23.39</ele>
        <time>2019-12-01T13:25:56.000Z</time>
      </trkpt>
      <trkpt lat="14.77972" lon="-17.25655">
        <ele>23.25</ele>
        <time>2019-12-01T13:26:01.000Z</time>
      </trkpt>
      <trkpt lat="14.77976" lon="-17.25678">
        <ele>23.23</ele>
        <time>2019-12-01T13:26:06.000Z</time>
      </trkpt>
      <trkpt lat="14.77979" lon="-17.25701">
        <ele>23.27</ele>
        <time>2019-12-01T13:26:11.000Z</time>
      </trkpt>
      <trkpt lat="14.77982" lon="-17.25726">
        <ele>23.33</ele>
        <time>2019-12-01T13:26:16.000Z</time>
      </trkpt>
      <trkpt lat="14.77985" lon="-17.25752">
        <ele>23.49</ele>
        <time>2019-12-01T13:26:21.000Z</time>
      </trkpt>
      <trkpt lat="14.77988" lon="-17.25776">
        <ele>23.64</ele>
        <time>2019-12-01T13:26:26.000Z</time>
      </trkpt>
      <trkpt lat="14.7799" lon="-17.258">
        <ele>23.79</ele>
        <time>2019-12-01T13:26:31.000Z</time>
      </trkpt>
      <trkpt lat="14.77993" lon="-17.25824">
        <ele>23.93</ele>
        <time>2019-12-01T13:26:36.000Z</time>
      </trkpt>
      <trkpt lat="14.77995" lon="-17.25848">
        <ele>23.89</ele>
        <time>2019-12-01T13:26:41.000Z</time>
      </trkpt>
      <trkpt lat="14.77999" lon="-17.25871">
        <ele>23.93</ele>
        <time>2019-12-01T13:26:46.000Z</time>
      </trkpt>
      <trkpt lat="14.78002" lon="-17.25894">
        <ele>24</ele>
        <time>2019-12-01T13:26:51.000Z</time>
      </trkpt>
      <trkpt lat="14.78004" lon="-17.25916">
        <ele>24.05</ele>
        <time>2019-12-01T13:26:56.000Z</time>
      </trkpt>
      <trkpt lat="14.78006" lon="-17.25938">
        <ele>24.12</ele>
        <time>2019-12-01T13:27:01.000Z</time>
      </trkpt>
      <trkpt lat="14.78008" lon="-17.25961">
        <ele>24.18</ele>
        <time>2019-12-01T13:27:06.000Z</time>
      </trkpt>
      <trkpt lat="14.78011" lon="-17.25985">
        <ele>24.15</ele>
        <time>2019-12-01T13:27:11.000Z</time>
      </trkpt>
      <trkpt lat="14.78013" lon="-17.26007">
        <ele>24.12</ele>
        <time>2019-12-01T13:27:16.000Z</time>
      </trkpt>
      <trkpt lat="14.78016" lon="-17.26031">
        <ele>24.25</ele>
        <time>2019-12-01T13:27:21.000Z</time>
      </trkpt>
      <trkpt lat="14.78019" lon="-17.26053">
        <ele>24.42</ele>
        <time>2019-12-01T13:27:26.000Z</time>
      </trkpt>
      <trkpt lat="14.78022" lon="-17.26077">
        <ele>24.59</ele>
        <time>2019-12-01T13:27:31.000Z</time>
      </trkpt>
      <trkpt lat="14.78024" lon="-17.26099">
        <ele>24.63</ele>
        <time>2019-12-01T13:27:36.000Z</time>
      </trkpt>
      <trkpt lat="14.78025" lon="-17.26121">
        <ele>24.67</ele>
        <time>2019-12-01T13:27:41.000Z</time>
      </trkpt>
      <trkpt lat="14.78027" lon="-17.26142">
        <ele>24.78</ele>
        <time>2019-12-01T13:27:46.000Z</time>
      </trkpt>
      <trkpt lat="14.78031" lon="-17.26164">
        <ele>24.89</ele>
        <time>2019-12-01T13:27:51.000Z</time>
      </trkpt>
      <trkpt lat="14.78034" lon="-17.26184">
        <ele>24.97</ele>
        <time>2019-12-01T13:27:56.000Z</time>
      </trkpt>
      <trkpt lat="14.78035" lon="-17.26205">
        <ele>25.09</ele>
        <time>2019-12-01T13:28:01.000Z</time>
      </trkpt>
      <trkpt lat="14.78038" lon="-17.26225">
        <ele>25.23</ele>
        <time>2019-12-01T13:28:06.000Z</time>
      </trkpt>
      <trkpt lat="14.78039" lon="-17.26247">
        <ele>25.37</ele>
        <time>2019-12-01T13:28:11.000Z</time>
      </trkpt>
      <trkpt lat="14.78041" lon="-17.26269">
        <ele>25.34</ele>
        <time>2019-12-01T13:28:16.000Z</time>
      </trkpt>
      <trkpt lat="14.78046" lon="-17.26292">
        <ele>25.45</ele>
        <time>2019-12-01T13:28:21.000Z</time>
      </trkpt>
      <trkpt lat="14.78049" lon="-17.26314">
        <ele>25.54</ele>
        <time>2019-12-01T13:28:26.000Z</time>
      </trkpt>
      <trkpt lat="14.78053" lon="-17.26337">
        <ele>25.65</ele>
        <time>2019-12-01T13:28:31.000Z</time>
      </trkpt>
      <trkpt lat="14.78055" lon="-17.26362">
        <ele>25.63</ele>
        <time>2019-12-01T13:28:36.000Z</time>
      </trkpt>
      <trkpt lat="14.78058" lon="-17.26387">
        <ele>25.64</ele>
        <time>2019-12-01T13:28:41.000Z</time>
      </trkpt>
      <trkpt lat="14.78061" lon="-17.2641">
        <ele>25.8</ele>
        <time>2019-12-01T13:28:46.000Z</time>
      </trkpt>
      <trkpt lat="14.78064" lon="-17.26434">
        <ele>25.96</ele>
        <time>2019-12-01T13:28:51.000Z</time>
      </trkpt>
      <trkpt lat="14.78067" lon="-17.26458">
        <ele>26.14</ele>
        <time>2019-12-01T13:28:56.000Z</time>
      </trkpt>
      <trkpt lat="14.7807" lon="-17.26482">
        <ele>26.22</ele>
        <time>2019-12-01T13:29:01.000Z</time>
      </trkpt>
      <trkpt lat="14.78073" lon="-17.26507">
        <ele>26.38</ele>
        <time>2019-12-01T13:29:06.000Z</time>
      </trkpt>
      <trkpt lat="14.78075" lon="-17.26533">
        <ele>26.61</ele>
        <time>2019-12-01T13:29:11.000Z</time>
      </trkpt>
      <trkpt lat="14.78077" lon="-17.26557">
        <ele>26.63</ele>
        <time>2019-12-01T13:29:16.000Z</time>
      </trkpt>
      <trkpt lat="14.78079" lon="-17.26582">
        <ele>26.59</ele>
        <time>2019-12-01T13:29:21.000Z</time>
      </trkpt>
      <trkpt lat="14.78082" lon="-17.26606">
        <ele>26.47</ele>
        <time>2019-12-01T13:29:26.000Z</time>
      </trkpt>
      <trkpt lat="14.78084" lon="-17.26632">
        <ele>26.33</ele>
        <time>2019-12-01T13:29:31.000Z</time>
      </trkpt>
      <trkpt lat="14.78089" lon="-17.26657">
        <ele>26.14</ele>
        <time>2019-12-01T13:29:36.000Z</time>
      </trkpt>
      <trkpt lat="14.78094" lon="-17.26684">
        <ele>26.08</ele>
        <time>2019-12-01T13:29:41.000Z</time>
      </trkpt>
      <trkpt lat="14.78099" lon="-17.2671">
        <ele>26.02</ele>
        <time>2019-12-01T13:29:46.000Z</time>
      </trkpt>
      <trkpt lat="14.78106" lon="-17.26736">
        <ele>25.79</ele>
        <time>2019-12-01T13:29:51.000Z</time>
      </trkpt>
      <trkpt lat="14.78112" lon="-17.26762">
        <ele>25.61</ele>
        <time>2019-12-01T13:29:56.000Z</time>
      </trkpt>
      <trkpt lat="14.78119" lon="-17.26787">
        <ele>25.47</ele>
        <time>2019-12-01T13:30:01.000Z</time>
      </trkpt>
      <trkpt lat="14.78125" lon="-17.26808">
        <ele>25.38</ele>
        <time>2019-12-01T13:30:06.000Z</time>
      </trkpt>
      <trkpt lat="14.78133" lon="-17.26831">
        <ele>25.42</ele>
        <time>2019-12-01T13:30:11.000Z</time>
      </trkpt>
      <trkpt lat="14.7814" lon="-17.26855">
        <ele>25.6</ele>
        <time>2019-12-01T13:30:16.000Z</time>
      </trkpt>
      <trkpt lat="14.78149" lon="-17.2688">
        <ele>25.94</ele>
        <time>2019-12-01T13:30:21.000Z</time>
      </trkpt>
      <trkpt lat="14.78158" lon="-17.26904">
        <ele>26.33</ele>
        <time>2019-12-01T13:30:26.000Z</time>
      </trkpt>
      <trkpt lat="14.78174" lon="-17.2693">
        <ele>26.82</ele>
        <time>2019-12-01T13:30:31.000Z</time>
      </trkpt>
      <trkpt lat="14.78186" lon="-17.26952">
        <ele>27.62</ele>
        <time>2019-12-01T13:30:36.000Z</time>
      </trkpt>
      <trkpt lat="14.78194" lon="-17.26972">
        <ele>28.18</ele>
        <time>2019-12-01T13:30:41.000Z</time>
      </trkpt>
      <trkpt lat="14.78203" lon="-17.26992">
        <ele>28.6</ele>
        <time>2019-12-01T13:30:46.000Z</time>
      </trkpt>
      <trkpt lat="14.78214" lon="-17.27011">
        <ele>28.94</ele>
        <time>2019-12-01T13:30:51.000Z</time>
      </trkpt>
      <trkpt lat="14.78224" lon="-17.2703">
        <ele>29.23</ele>
        <time>2019-12-01T13:30:56.000Z</time>
      </trkpt>
      <trkpt lat="14.78236" lon="-17.27049">
        <ele>29.49</ele>
        <time>2019-12-01T13:31:01.000Z</time>
      </trkpt>
      <trkpt lat="14.7825" lon="-17.27067">
        <ele>29.69</ele>
        <time>2019-12-01T13:31:06.000Z</time>
      </trkpt>
      <trkpt lat="14.78264" lon="-17.27087">
        <ele>29.97</ele>
        <time>2019-12-01T13:31:11.000Z</time>
      </trkpt>
      <trkpt lat="14.78276" lon="-17.27105">
        <ele>30.22</ele>
        <time>2019-12-01T13:31:16.000Z</time>
      </trkpt>
      <trkpt lat="14.78289" lon="-17.27119">
        <ele>30.44</ele>
        <time>2019-12-01T13:31:21.000Z</time>
      </trkpt>
      <trkpt lat="14.78306" lon="-17.27138">
        <ele>30.8</ele>
        <time>2019-12-01T13:31:26.000Z</time>
      </trkpt>
      <trkpt lat="14.78323" lon="-17.27155">
        <ele>31.09</ele>
        <time>2019-12-01T13:31:31.000Z</time>
      </trkpt>
      <trkpt lat="14.78339" lon="-17.27172">
        <ele>31.28</ele>
        <time>2019-12-01T13:31:36.000Z</time>
      </trkpt>
      <trkpt lat="14.78356" lon="-17.2719">
        <ele>31.42</ele>
        <time>2019-12-01T13:31:41.000Z</time>
      </trkpt>
      <trkpt lat="14.78373" lon="-17.27207">
        <ele>31.54</ele>
        <time>2019-12-01T13:31:46.000Z</time>
      </trkpt>
      <trkpt lat="14.78388" lon="-17.27225">
        <ele>31.61</ele>
        <time>2019-12-01T13:31:51.000Z</time>
      </trkpt>
      <trkpt lat="14.7841" lon="-17.27242">
        <ele>31.7</ele>
        <time>2019-12-01T13:31:56.000Z</time>
      </trkpt>
      <trkpt lat="14.78436" lon="-17.27262">
        <ele>31.86</ele>
        <time>2019-12-01T13:32:01.000Z</time>
      </trkpt>
      <trkpt lat="14.78455" lon="-17.27277">
        <ele>31.98</ele>
        <time>2019-12-01T13:32:06.000Z</time>
      </trkpt>
      <trkpt lat="14.7848" lon="-17.27291">
        <ele>32.03</ele>
        <time>2019-12-01T13:32:11.000Z</time>
      </trkpt>
      <trkpt lat="14.78501" lon="-17.27306">
        <ele>32.09</ele>
        <time>2019-12-01T13:32:16.000Z</time>
      </trkpt>
      <trkpt lat="14.78517" lon="-17.27326">
        <ele>32.19</ele>
        <time>2019-12-01T13:32:21.000Z</time>
      </trkpt>
      <trkpt lat="14.78533" lon="-17.27346">
        <ele>32.3</ele>
        <time>2019-12-01T13:32:26.000Z</time>
      </trkpt>
      <trkpt lat="14.78549" lon="-17.27367">
        <ele>32.43</ele>
        <time>2019-12-01T13:32:31.000Z</time>
      </trkpt>
      <trkpt lat="14.78566" lon="-17.27386">
        <ele>32.39</ele>
        <time>2019-12-01T13:32:36.000Z</time>
      </trkpt>
      <trkpt lat="14.78583" lon="-17.27407">
        <ele>32.3</ele>
        <time>2019-12-01T13:32:41.000Z</time>
      </trkpt>
      <trkpt lat="14.78597" lon="-17.27429">
        <ele>32.13</ele>
        <time>2019-12-01T13:32:46.000Z</time>
      </trkpt>
      <trkpt lat="14.78608" lon="-17.27456">
        <ele>31.89</ele>
        <time>2019-12-01T13:32:51.000Z</time>
      </trkpt>
      <trkpt lat="14.78613" lon="-17.27486">
        <ele>31.71</ele>
        <time>2019-12-01T13:32:55.999Z</time>
      </trkpt>
      <trkpt lat="14.7862" lon="-17.27516">
        <ele>31.57</ele>
        <time>2019-12-01T13:33:00.999Z</time>
      </trkpt>
      <trkpt lat="14.78628" lon="-17.27544">
        <ele>31.4</ele>
        <time>2019-12-01T13:33:05.999Z</time>
      </trkpt>
      <trkpt lat="14.78631" lon="-17.27575">
        <ele>31.24</ele>
        <time>2019-12-01T13:33:10.999Z</time>
      </trkpt>
      <trkpt lat="14.7863" lon="-17.27606">
        <ele>31.11</ele>
        <time>2019-12-01T13:33:15.999Z</time>
      </trkpt>
      <trkpt lat="14.78628" lon="-17.27637">
        <ele>30.93</ele>
        <time>2019-12-01T13:33:20.999Z</time>
      </trkpt>
      <trkpt lat="14.78625" lon="-17.27667">
        <ele>30.73</ele>
        <time>2019-12-01T13:33:25.999Z</time>
      </trkpt>
      <trkpt lat="14.78621" lon="-17.27698">
        <ele>30.47</ele>
        <time>2019-12-01T13:33:30.999Z</time>
      </trkpt>
      <trkpt lat="14.78618" lon="-17.27729">
        <ele>30.18</ele>
        <time>2019-12-01T13:33:35.999Z</time>
      </trkpt>
      <trkpt lat="14.78615" lon="-17.27756">
        <ele>29.92</ele>
        <time>2019-12-01T13:33:40.999Z</time>
      </trkpt>
      <trkpt lat="14.78612" lon="-17.27789">
        <ele>29.7</ele>
        <time>2019-12-01T13:33:45.999Z</time>
      </trkpt>
      <trkpt lat="14.78609" lon="-17.27819">
        <ele>29.35</ele>
        <time>2019-12-01T13:33:50.999Z</time>
      </trkpt>
      <trkpt lat="14.78606" lon="-17.27848">
        <ele>28.93</ele>
        <time>2019-12-01T13:33:55.999Z</time>
      </trkpt>
      <trkpt lat="14.786" lon="-17.27873">
        <ele>28.49</ele>
        <time>2019-12-01T13:34:00.999Z</time>
      </trkpt>
      <trkpt lat="14.78595" lon="-17.27903">
        <ele>28.11</ele>
        <time>2019-12-01T13:34:05.999Z</time>
      </trkpt>
      <trkpt lat="14.78588" lon="-17.27933">
        <ele>27.59</ele>
        <time>2019-12-01T13:34:10.999Z</time>
      </trkpt>
      <trkpt lat="14.78584" lon="-17.27964">
        <ele>27.2</ele>
        <time>2019-12-01T13:34:15.999Z</time>
      </trkpt>
      <trkpt lat="14.78583" lon="-17.27988">
        <ele>26.96</ele>
        <time>2019-12-01T13:34:20.999Z</time>
      </trkpt>
      <trkpt lat="14.78587" lon="-17.28012">
        <ele>26.76</ele>
        <time>2019-12-01T13:34:25.999Z</time>
      </trkpt>
      <trkpt lat="14.78592" lon="-17.28037">
        <ele>26.58</ele>
        <time>2019-12-01T13:34:30.999Z</time>
      </trkpt>
      <trkpt lat="14.78597" lon="-17.28062">
        <ele>26.66</ele>
        <time>2019-12-01T13:34:35.999Z</time>
      </trkpt>
      <trkpt lat="14.78601" lon="-17.28087">
        <ele>26.59</ele>
        <time>2019-12-01T13:34:40.999Z</time>
      </trkpt>
      <trkpt lat="14.78604" lon="-17.28111">
        <ele>26.58</ele>
        <time>2019-12-01T13:34:45.999Z</time>
      </trkpt>
      <trkpt lat="14.78604" lon="-17.28136">
        <ele>26.56</ele>
        <time>2019-12-01T13:34:50.999Z</time>
      </trkpt>
      <trkpt lat="14.78605" lon="-17.28163">
        <ele>26.55</ele>
        <time>2019-12-01T13:34:55.999Z</time>
      </trkpt>
      <trkpt lat="14.78604" lon="-17.28189">
        <ele>26.69</ele>
        <time>2019-12-01T13:35:00.999Z</time>
      </trkpt>
      <trkpt lat="14.78605" lon="-17.28219">
        <ele>26.57</ele>
        <time>2019-12-01T13:35:05.999Z</time>
      </trkpt>
      <trkpt lat="14.78605" lon="-17.28249">
        <ele>26.3</ele>
        <time>2019-12-01T13:35:10.999Z</time>
      </trkpt>
      <trkpt lat="14.78606" lon="-17.28281">
        <ele>25.66</ele>
        <time>2019-12-01T13:35:15.999Z</time>
      </trkpt>
      <trkpt lat="14.7861" lon="-17.28314">
        <ele>24.7</ele>
        <time>2019-12-01T13:35:20.999Z</time>
      </trkpt>
      <trkpt lat="14.78615" lon="-17.28345">
        <ele>23.63</ele>
        <time>2019-12-01T13:35:25.999Z</time>
      </trkpt>
      <trkpt lat="14.78621" lon="-17.28376">
        <ele>22.75</ele>
        <time>2019-12-01T13:35:30.999Z</time>
      </trkpt>
      <trkpt lat="14.78627" lon="-17.28407">
        <ele>22.2</ele>
        <time>2019-12-01T13:35:35.999Z</time>
      </trkpt>
      <trkpt lat="14.78629" lon="-17.28436">
        <ele>21.99</ele>
        <time>2019-12-01T13:35:40.999Z</time>
      </trkpt>
      <trkpt lat="14.78629" lon="-17.28465">
        <ele>22.11</ele>
        <time>2019-12-01T13:35:45.999Z</time>
      </trkpt>
      <trkpt lat="14.78627" lon="-17.28491">
        <ele>22.3</ele>
        <time>2019-12-01T13:35:50.999Z</time>
      </trkpt>
      <trkpt lat="14.78626" lon="-17.28519">
        <ele>22.39</ele>
        <time>2019-12-01T13:35:55.999Z</time>
      </trkpt>
      <trkpt lat="14.78625" lon="-17.28543">
        <ele>22.39</ele>
        <time>2019-12-01T13:36:00.999Z</time>
      </trkpt>
      <trkpt lat="14.78624" lon="-17.28572">
        <ele>22.44</ele>
        <time>2019-12-01T13:36:05.999Z</time>
      </trkpt>
      <trkpt lat="14.78622" lon="-17.286">
        <ele>22.44</ele>
        <time>2019-12-01T13:36:10.999Z</time>
      </trkpt>
      <trkpt lat="14.78619" lon="-17.28629">
        <ele>22.57</ele>
        <time>2019-12-01T13:36:15.999Z</time>
      </trkpt>
      <trkpt lat="14.78618" lon="-17.28654">
        <ele>22.37</ele>
        <time>2019-12-01T13:36:20.999Z</time>
      </trkpt>
      <trkpt lat="14.78618" lon="-17.28682">
        <ele>22.02</ele>
        <time>2019-12-01T13:36:25.999Z</time>
      </trkpt>
      <trkpt lat="14.78619" lon="-17.28709">
        <ele>21.9</ele>
        <time>2019-12-01T13:36:30.999Z</time>
      </trkpt>
      <trkpt lat="14.7862" lon="-17.28736">
        <ele>21.9</ele>
        <time>2019-12-01T13:36:35.999Z</time>
      </trkpt>
      <trkpt lat="14.78621" lon="-17.28764">
        <ele>21.9</ele>
        <time>2019-12-01T13:36:40.999Z</time>
      </trkpt>
      <trkpt lat="14.78623" lon="-17.28791">
        <ele>21.97</ele>
        <time>2019-12-01T13:36:45.999Z</time>
      </trkpt>
      <trkpt lat="14.78624" lon="-17.28821">
        <ele>22.07</ele>
        <time>2019-12-01T13:36:50.999Z</time>
      </trkpt>
      <trkpt lat="14.78626" lon="-17.2885">
        <ele>22.26</ele>
        <time>2019-12-01T13:36:55.999Z</time>
      </trkpt>
      <trkpt lat="14.78627" lon="-17.28877">
        <ele>22.5</ele>
        <time>2019-12-01T13:37:00.999Z</time>
      </trkpt>
      <trkpt lat="14.78629" lon="-17.28904">
        <ele>22.68</ele>
        <time>2019-12-01T13:37:05.999Z</time>
      </trkpt>
      <trkpt lat="14.78629" lon="-17.28931">
        <ele>22.75</ele>
        <time>2019-12-01T13:37:10.999Z</time>
      </trkpt>
      <trkpt lat="14.78629" lon="-17.28959">
        <ele>22.7</ele>
        <time>2019-12-01T13:37:15.999Z</time>
      </trkpt>
      <trkpt lat="14.7863" lon="-17.28986">
        <ele>22.8</ele>
        <time>2019-12-01T13:37:20.999Z</time>
      </trkpt>
      <trkpt lat="14.7863" lon="-17.29013">
        <ele>22.86</ele>
        <time>2019-12-01T13:37:25.999Z</time>
      </trkpt>
      <trkpt lat="14.78629" lon="-17.29041">
        <ele>22.88</ele>
        <time>2019-12-01T13:37:30.999Z</time>
      </trkpt>
      <trkpt lat="14.7863" lon="-17.29071">
        <ele>22.9</ele>
        <time>2019-12-01T13:37:35.999Z</time>
      </trkpt>
      <trkpt lat="14.7863" lon="-17.29101">
        <ele>22.9</ele>
        <time>2019-12-01T13:37:40.999Z</time>
      </trkpt>
      <trkpt lat="14.78628" lon="-17.29132">
        <ele>22.64</ele>
        <time>2019-12-01T13:37:45.999Z</time>
      </trkpt>
      <trkpt lat="14.78627" lon="-17.29164">
        <ele>22.55</ele>
        <time>2019-12-01T13:37:50.999Z</time>
      </trkpt>
      <trkpt lat="14.78627" lon="-17.29194">
        <ele>22.46</ele>
        <time>2019-12-01T13:37:55.999Z</time>
      </trkpt>
      <trkpt lat="14.78627" lon="-17.29222">
        <ele>22.28</ele>
        <time>2019-12-01T13:38:00.999Z</time>
      </trkpt>
      <trkpt lat="14.78625" lon="-17.2925">
        <ele>22.31</ele>
        <time>2019-12-01T13:38:05.999Z</time>
      </trkpt>
      <trkpt lat="14.78626" lon="-17.29275">
        <ele>22.25</ele>
        <time>2019-12-01T13:38:10.999Z</time>
      </trkpt>
      <trkpt lat="14.78627" lon="-17.29301">
        <ele>21.98</ele>
        <time>2019-12-01T13:38:15.999Z</time>
      </trkpt>
      <trkpt lat="14.78628" lon="-17.29328">
        <ele>21.8</ele>
        <time>2019-12-01T13:38:20.999Z</time>
      </trkpt>
      <trkpt lat="14.78627" lon="-17.29354">
        <ele>21.68</ele>
        <time>2019-12-01T13:38:25.999Z</time>
      </trkpt>
      <trkpt lat="14.78626" lon="-17.29376">
        <ele>21.77</ele>
        <time>2019-12-01T13:38:30.999Z</time>
      </trkpt>
      <trkpt lat="14.78624" lon="-17.29402">
        <ele>21.85</ele>
        <time>2019-12-01T13:38:35.999Z</time>
      </trkpt>
      <trkpt lat="14.78624" lon="-17.29425">
        <ele>21.49</ele>
        <time>2019-12-01T13:38:40.999Z</time>
      </trkpt>
      <trkpt lat="14.78625" lon="-17.29454">
        <ele>21.07</ele>
        <time>2019-12-01T13:38:45.999Z</time>
      </trkpt>
      <trkpt lat="14.78627" lon="-17.29484">
        <ele>20.6</ele>
        <time>2019-12-01T13:38:50.999Z</time>
      </trkpt>
      <trkpt lat="14.78629" lon="-17.29513">
        <ele>20.1</ele>
        <time>2019-12-01T13:38:55.999Z</time>
      </trkpt>
      <trkpt lat="14.78631" lon="-17.29544">
        <ele>19.76</ele>
        <time>2019-12-01T13:39:00.999Z</time>
      </trkpt>
      <trkpt lat="14.78634" lon="-17.29573">
        <ele>19.67</ele>
        <time>2019-12-01T13:39:05.999Z</time>
      </trkpt>
      <trkpt lat="14.78636" lon="-17.296">
        <ele>19.91</ele>
        <time>2019-12-01T13:39:10.999Z</time>
      </trkpt>
      <trkpt lat="14.78637" lon="-17.29625">
        <ele>20.18</ele>
        <time>2019-12-01T13:39:15.999Z</time>
      </trkpt>
      <trkpt lat="14.78639" lon="-17.29652">
        <ele>20.49</ele>
        <time>2019-12-01T13:39:20.999Z</time>
      </trkpt>
      <trkpt lat="14.7864" lon="-17.29681">
        <ele>20.67</ele>
        <time>2019-12-01T13:39:25.999Z</time>
      </trkpt>
      <trkpt lat="14.78638" lon="-17.2971">
        <ele>20.53</ele>
        <time>2019-12-01T13:39:30.999Z</time>
      </trkpt>
      <trkpt lat="14.78636" lon="-17.29737">
        <ele>20.31</ele>
        <time>2019-12-01T13:39:35.999Z</time>
      </trkpt>
      <trkpt lat="14.78632" lon="-17.29765">
        <ele>20.26</ele>
        <time>2019-12-01T13:39:40.999Z</time>
      </trkpt>
      <trkpt lat="14.78628" lon="-17.29793">
        <ele>20.2</ele>
        <time>2019-12-01T13:39:45.999Z</time>
      </trkpt>
      <trkpt lat="14.78623" lon="-17.29819">
        <ele>20.2</ele>
        <time>2019-12-01T13:39:50.999Z</time>
      </trkpt>
      <trkpt lat="14.78618" lon="-17.29846">
        <ele>20.05</ele>
        <time>2019-12-01T13:39:55.999Z</time>
      </trkpt>
      <trkpt lat="14.78612" lon="-17.29874">
        <ele>19.95</ele>
        <time>2019-12-01T13:40:00.999Z</time>
      </trkpt>
      <trkpt lat="14.78606" lon="-17.29901">
        <ele>19.57</ele>
        <time>2019-12-01T13:40:05.999Z</time>
      </trkpt>
      <trkpt lat="14.786" lon="-17.29927">
        <ele>19.04</ele>
        <time>2019-12-01T13:40:10.999Z</time>
      </trkpt>
      <trkpt lat="14.78592" lon="-17.29954">
        <ele>19.01</ele>
        <time>2019-12-01T13:40:15.999Z</time>
      </trkpt>
      <trkpt lat="14.78584" lon="-17.29982">
        <ele>19.11</ele>
        <time>2019-12-01T13:40:20.999Z</time>
      </trkpt>
      <trkpt lat="14.78577" lon="-17.30011">
        <ele>19.15</ele>
        <time>2019-12-01T13:40:25.999Z</time>
      </trkpt>
      <trkpt lat="14.7857" lon="-17.3004">
        <ele>18.97</ele>
        <time>2019-12-01T13:40:30.999Z</time>
      </trkpt>
      <trkpt lat="14.78562" lon="-17.30066">
        <ele>19.02</ele>
        <time>2019-12-01T13:40:35.999Z</time>
      </trkpt>
      <trkpt lat="14.78553" lon="-17.30093">
        <ele>19.18</ele>
        <time>2019-12-01T13:40:40.999Z</time>
      </trkpt>
      <trkpt lat="14.78541" lon="-17.30119">
        <ele>19.32</ele>
        <time>2019-12-01T13:40:45.999Z</time>
      </trkpt>
      <trkpt lat="14.78528" lon="-17.30146">
        <ele>19.79</ele>
        <time>2019-12-01T13:40:50.999Z</time>
      </trkpt>
      <trkpt lat="14.78517" lon="-17.30174">
        <ele>19.97</ele>
        <time>2019-12-01T13:40:55.999Z</time>
      </trkpt>
      <trkpt lat="14.78508" lon="-17.30199">
        <ele>19.81</ele>
        <time>2019-12-01T13:41:00.999Z</time>
      </trkpt>
      <trkpt lat="14.785" lon="-17.30225">
        <ele>19.51</ele>
        <time>2019-12-01T13:41:05.999Z</time>
      </trkpt>
      <trkpt lat="14.78494" lon="-17.30254">
        <ele>19.05</ele>
        <time>2019-12-01T13:41:10.999Z</time>
      </trkpt>
      <trkpt lat="14.78493" lon="-17.30283">
        <ele>18.61</ele>
        <time>2019-12-01T13:41:15.999Z</time>
      </trkpt>
      <trkpt lat="14.78496" lon="-17.30312">
        <ele>18.35</ele>
        <time>2019-12-01T13:41:20.999Z</time>
      </trkpt>
      <trkpt lat="14.78499" lon="-17.3034">
        <ele>18.3</ele>
        <time>2019-12-01T13:41:25.999Z</time>
      </trkpt>
      <trkpt lat="14.78503" lon="-17.30364">
        <ele>18.28</ele>
        <time>2019-12-01T13:41:30.999Z</time>
      </trkpt>
      <trkpt lat="14.78506" lon="-17.30389">
        <ele>18.34</ele>
        <time>2019-12-01T13:41:35.999Z</time>
      </trkpt>
      <trkpt lat="14.78505" lon="-17.30414">
        <ele>18.65</ele>
        <time>2019-12-01T13:41:40.999Z</time>
      </trkpt>
      <trkpt lat="14.78506" lon="-17.3044">
        <ele>19.21</ele>
        <time>2019-12-01T13:41:45.999Z</time>
      </trkpt>
      <trkpt lat="14.78503" lon="-17.30465">
        <ele>19.77</ele>
        <time>2019-12-01T13:41:50.999Z</time>
      </trkpt>
      <trkpt lat="14.785" lon="-17.30487">
        <ele>20.44</ele>
        <time>2019-12-01T13:41:55.999Z</time>
      </trkpt>
      <trkpt lat="14.78498" lon="-17.30508">
        <ele>20.9</ele>
        <time>2019-12-01T13:42:00.999Z</time>
      </trkpt>
      <trkpt lat="14.78496" lon="-17.30524">
        <ele>20.97</ele>
        <time>2019-12-01T13:42:05.999Z</time>
      </trkpt>
      <trkpt lat="14.78495" lon="-17.30538">
        <ele>21.06</ele>
        <time>2019-12-01T13:42:10.999Z</time>
      </trkpt>
      <trkpt lat="14.78491" lon="-17.30556">
        <ele>21.43</ele>
        <time>2019-12-01T13:42:15.999Z</time>
      </trkpt>
      <trkpt lat="14.7849" lon="-17.30582">
        <ele>22.29</ele>
        <time>2019-12-01T13:42:20.999Z</time>
      </trkpt>
      <trkpt lat="14.78487" lon="-17.30608">
        <ele>22.15</ele>
        <time>2019-12-01T13:42:25.999Z</time>
      </trkpt>
      <trkpt lat="14.78485" lon="-17.30632">
        <ele>21.83</ele>
        <time>2019-12-01T13:42:30.999Z</time>
      </trkpt>
      <trkpt lat="14.78484" lon="-17.30649">
        <ele>21.77</ele>
        <time>2019-12-01T13:42:35.999Z</time>
      </trkpt>
      <trkpt lat="14.78482" lon="-17.30659">
        <ele>21.73</ele>
        <time>2019-12-01T13:42:41.999Z</time>
      </trkpt>
      <trkpt lat="14.78479" lon="-17.30677">
        <ele>21.78</ele>
        <time>2019-12-01T13:42:46.999Z</time>
      </trkpt>
      <trkpt lat="14.78479" lon="-17.30694">
        <ele>21.91</ele>
        <time>2019-12-01T13:42:51.999Z</time>
      </trkpt>
      <trkpt lat="14.78483" lon="-17.30711">
        <ele>22.32</ele>
        <time>2019-12-01T13:42:56.999Z</time>
      </trkpt>
      <trkpt lat="14.78489" lon="-17.30731">
        <ele>23.5</ele>
        <time>2019-12-01T13:43:01.999Z</time>
      </trkpt>
      <trkpt lat="14.78495" lon="-17.3075">
        <ele>24.27</ele>
        <time>2019-12-01T13:43:06.999Z</time>
      </trkpt>
      <trkpt lat="14.78499" lon="-17.30772">
        <ele>24.78</ele>
        <time>2019-12-01T13:43:11.999Z</time>
      </trkpt>
      <trkpt lat="14.78503" lon="-17.30797">
        <ele>25.62</ele>
        <time>2019-12-01T13:43:16.999Z</time>
      </trkpt>
      <trkpt lat="14.78507" lon="-17.30817">
        <ele>26.59</ele>
        <time>2019-12-01T13:43:21.999Z</time>
      </trkpt>
      <trkpt lat="14.78515" lon="-17.30834">
        <ele>27.36</ele>
        <time>2019-12-01T13:43:26.999Z</time>
      </trkpt>
      <trkpt lat="14.78523" lon="-17.30856">
        <ele>27.83</ele>
        <time>2019-12-01T13:43:31.999Z</time>
      </trkpt>
      <trkpt lat="14.78534" lon="-17.30873">
        <ele>28.08</ele>
        <time>2019-12-01T13:43:36.999Z</time>
      </trkpt>
      <trkpt lat="14.78533" lon="-17.30893">
        <ele>28.19</ele>
        <time>2019-12-01T13:43:41.999Z</time>
      </trkpt>
      <trkpt lat="14.7852" lon="-17.30904">
        <ele>28.38</ele>
        <time>2019-12-01T13:43:46.999Z</time>
      </trkpt>
      <trkpt lat="14.78507" lon="-17.30912">
        <ele>28.63</ele>
        <time>2019-12-01T13:43:51.999Z</time>
      </trkpt>
      <trkpt lat="14.78497" lon="-17.30917">
        <ele>28.89</ele>
        <time>2019-12-01T13:43:56.999Z</time>
      </trkpt>
      <trkpt lat="14.78485" lon="-17.30924">
        <ele>29.15</ele>
        <time>2019-12-01T13:44:01.999Z</time>
      </trkpt>
      <trkpt lat="14.78476" lon="-17.30928">
        <ele>29.39</ele>
        <time>2019-12-01T13:44:06.999Z</time>
      </trkpt>
      <trkpt lat="14.78462" lon="-17.30935">
        <ele>29.61</ele>
        <time>2019-12-01T13:44:11.999Z</time>
      </trkpt>
      <trkpt lat="14.78449" lon="-17.30941">
        <ele>29.81</ele>
        <time>2019-12-01T13:44:16.999Z</time>
      </trkpt>
      <trkpt lat="14.78437" lon="-17.30945">
        <ele>30.01</ele>
        <time>2019-12-01T13:44:21.999Z</time>
      </trkpt>
      <trkpt lat="14.78424" lon="-17.30952">
        <ele>30.21</ele>
        <time>2019-12-01T13:44:26.999Z</time>
      </trkpt>
      <trkpt lat="14.78411" lon="-17.30962">
        <ele>30.38</ele>
        <time>2019-12-01T13:44:31.999Z</time>
      </trkpt>
      <trkpt lat="14.78395" lon="-17.30969">
        <ele>31.04</ele>
        <time>2019-12-01T13:44:36.999Z</time>
      </trkpt>
      <trkpt lat="14.78384" lon="-17.30974">
        <ele>31.14</ele>
        <time>2019-12-01T13:44:41.999Z</time>
      </trkpt>
      <trkpt lat="14.78373" lon="-17.30983">
        <ele>31.49</ele>
        <time>2019-12-01T13:44:46.999Z</time>
      </trkpt>
      <trkpt lat="14.78356" lon="-17.30998">
        <ele>32.49</ele>
        <time>2019-12-01T13:44:51.999Z</time>
      </trkpt>
      <trkpt lat="14.78339" lon="-17.31013">
        <ele>33.26</ele>
        <time>2019-12-01T13:44:56.999Z</time>
      </trkpt>
      <trkpt lat="14.78321" lon="-17.31027">
        <ele>34.04</ele>
        <time>2019-12-01T13:45:01.999Z</time>
      </trkpt>
      <trkpt lat="14.78306" lon="-17.31041">
        <ele>34.73</ele>
        <time>2019-12-01T13:45:06.999Z</time>
      </trkpt>
      <trkpt lat="14.78297" lon="-17.31052">
        <ele>34.84</ele>
        <time>2019-12-01T13:45:11.999Z</time>
      </trkpt>
      <trkpt lat="14.78292" lon="-17.3106">
        <ele>35</ele>
        <time>2019-12-01T13:45:18.999Z</time>
      </trkpt>
      <trkpt lat="14.78286" lon="-17.31068">
        <ele>35.14</ele>
        <time>2019-12-01T13:45:23.999Z</time>
      </trkpt>
      <trkpt lat="14.7828" lon="-17.3108">
        <ele>35.3</ele>
        <time>2019-12-01T13:45:28.999Z</time>
      </trkpt>
      <trkpt lat="14.78274" lon="-17.3109">
        <ele>35.5</ele>
        <time>2019-12-01T13:45:33.999Z</time>
      </trkpt>
      <trkpt lat="14.78271" lon="-17.31099">
        <ele>35.8</ele>
        <time>2019-12-01T13:45:39.999Z</time>
      </trkpt>
      <trkpt lat="14.78268" lon="-17.31108">
        <ele>36.95</ele>
        <time>2019-12-01T13:45:57.999Z</time>
      </trkpt>
      <trkpt lat="14.78261" lon="-17.31115">
        <ele>37.56</ele>
        <time>2019-12-01T13:46:07.999Z</time>
      </trkpt>
      <trkpt lat="14.7825" lon="-17.31121">
        <ele>37.86</ele>
        <time>2019-12-01T13:46:12.999Z</time>
      </trkpt>
      <trkpt lat="14.78238" lon="-17.31128">
        <ele>38.13</ele>
        <time>2019-12-01T13:46:17.999Z</time>
      </trkpt>
      <trkpt lat="14.78227" lon="-17.31136">
        <ele>38.39</ele>
        <time>2019-12-01T13:46:22.999Z</time>
      </trkpt>
      <trkpt lat="14.78209" lon="-17.31148">
        <ele>39.22</ele>
        <time>2019-12-01T13:46:27.999Z</time>
      </trkpt>
      <trkpt lat="14.78193" lon="-17.31158">
        <ele>39.98</ele>
        <time>2019-12-01T13:46:32.999Z</time>
      </trkpt>
      <trkpt lat="14.78174" lon="-17.31168">
        <ele>40.38</ele>
        <time>2019-12-01T13:46:37.999Z</time>
      </trkpt>
      <trkpt lat="14.78157" lon="-17.3118">
        <ele>40.59</ele>
        <time>2019-12-01T13:46:42.999Z</time>
      </trkpt>
      <trkpt lat="14.78137" lon="-17.31193">
        <ele>40.7</ele>
        <time>2019-12-01T13:46:47.999Z</time>
      </trkpt>
      <trkpt lat="14.78121" lon="-17.31203">
        <ele>40.84</ele>
        <time>2019-12-01T13:46:52.000Z</time>
      </trkpt>
      <trkpt lat="14.781" lon="-17.31216">
        <ele>41.03</ele>
        <time>2019-12-01T13:46:57.000Z</time>
      </trkpt>
      <trkpt lat="14.78078" lon="-17.3123">
        <ele>41.24</ele>
        <time>2019-12-01T13:47:02.000Z</time>
      </trkpt>
      <trkpt lat="14.78056" lon="-17.31244">
        <ele>41.46</ele>
        <time>2019-12-01T13:47:07.000Z</time>
      </trkpt>
      <trkpt lat="14.78034" lon="-17.31261">
        <ele>41.65</ele>
        <time>2019-12-01T13:47:12.000Z</time>
      </trkpt>
      <trkpt lat="14.78012" lon="-17.31275">
        <ele>41.72</ele>
        <time>2019-12-01T13:47:17.000Z</time>
      </trkpt>
      <trkpt lat="14.7799" lon="-17.31287">
        <ele>41.7</ele>
        <time>2019-12-01T13:47:22.000Z</time>
      </trkpt>
      <trkpt lat="14.77968" lon="-17.313">
        <ele>41.89</ele>
        <time>2019-12-01T13:47:27.000Z</time>
      </trkpt>
      <trkpt lat="14.77945" lon="-17.31312">
        <ele>42.33</ele>
        <time>2019-12-01T13:47:32.000Z</time>
      </trkpt>
      <trkpt lat="14.77929" lon="-17.31322">
        <ele>42.68</ele>
        <time>2019-12-01T13:47:37.000Z</time>
      </trkpt>
      <trkpt lat="14.77908" lon="-17.3134">
        <ele>43.1</ele>
        <time>2019-12-01T13:47:42.000Z</time>
      </trkpt>
      <trkpt lat="14.77885" lon="-17.31352">
        <ele>43.48</ele>
        <time>2019-12-01T13:47:47.000Z</time>
      </trkpt>
      <trkpt lat="14.77861" lon="-17.31367">
        <ele>43.78</ele>
        <time>2019-12-01T13:47:52.000Z</time>
      </trkpt>
      <trkpt lat="14.77837" lon="-17.31381">
        <ele>44.09</ele>
        <time>2019-12-01T13:47:57.000Z</time>
      </trkpt>
      <trkpt lat="14.77811" lon="-17.31397">
        <ele>44.38</ele>
        <time>2019-12-01T13:48:02.000Z</time>
      </trkpt>
      <trkpt lat="14.77786" lon="-17.31413">
        <ele>44.65</ele>
        <time>2019-12-01T13:48:07.000Z</time>
      </trkpt>
      <trkpt lat="14.77773" lon="-17.31424">
        <ele>44.73</ele>
        <time>2019-12-01T13:48:12.000Z</time>
      </trkpt>
      <trkpt lat="14.77774" lon="-17.31433">
        <ele>44.81</ele>
        <time>2019-12-01T13:48:19.000Z</time>
      </trkpt>
      <trkpt lat="14.77784" lon="-17.31436">
        <ele>45.02</ele>
        <time>2019-12-01T13:48:46.000Z</time>
      </trkpt>
      <trkpt lat="14.77793" lon="-17.31434">
        <ele>45.78</ele>
        <time>2019-12-01T13:50:32.000Z</time>
      </trkpt>
      <trkpt lat="14.77787" lon="-17.31444">
        <ele>49.44</ele>
        <time>2019-12-01T13:52:54.000Z</time>
      </trkpt>
      <trkpt lat="14.77791" lon="-17.31454">
        <ele>50.56</ele>
        <time>2019-12-01T13:53:00.000Z</time>
      </trkpt>
      <trkpt lat="14.77801" lon="-17.31467">
        <ele>51.41</ele>
        <time>2019-12-01T13:53:05.000Z</time>
      </trkpt>
      <trkpt lat="14.77808" lon="-17.31478">
        <ele>52.18</ele>
        <time>2019-12-01T13:53:10.000Z</time>
      </trkpt>
      <trkpt lat="14.77821" lon="-17.31488">
        <ele>53.75</ele>
        <time>2019-12-01T13:53:15.000Z</time>
      </trkpt>
      <trkpt lat="14.77828" lon="-17.31504">
        <ele>55.95</ele>
        <time>2019-12-01T13:53:20.000Z</time>
      </trkpt>
      <trkpt lat="14.77842" lon="-17.31523">
        <ele>58.13</ele>
        <time>2019-12-01T13:53:25.000Z</time>
      </trkpt>
      <trkpt lat="14.77855" lon="-17.31543">
        <ele>58.77</ele>
        <time>2019-12-01T13:53:30.000Z</time>
      </trkpt>
      <trkpt lat="14.77864" lon="-17.31559">
        <ele>58.93</ele>
        <time>2019-12-01T13:53:35.000Z</time>
      </trkpt>
      <trkpt lat="14.7787" lon="-17.31575">
        <ele>58.93</ele>
        <time>2019-12-01T13:53:40.000Z</time>
      </trkpt>
      <trkpt lat="14.7788" lon="-17.31591">
        <ele>58.94</ele>
        <time>2019-12-01T13:53:45.000Z</time>
      </trkpt>
      <trkpt lat="14.77887" lon="-17.31604">
        <ele>58.94</ele>
        <time>2019-12-01T13:53:50.000Z</time>
      </trkpt>
      <trkpt lat="14.77892" lon="-17.31616">
        <ele>58.95</ele>
        <time>2019-12-01T13:53:55.000Z</time>
      </trkpt>
      <trkpt lat="14.77897" lon="-17.31629">
        <ele>58.96</ele>
        <time>2019-12-01T13:54:00.000Z</time>
      </trkpt>
      <trkpt lat="14.77906" lon="-17.3164">
        <ele>58.96</ele>
        <time>2019-12-01T13:54:05.000Z</time>
      </trkpt>
      <trkpt lat="14.77913" lon="-17.31654">
        <ele>58.96</ele>
        <time>2019-12-01T13:54:10.000Z</time>
      </trkpt>
      <trkpt lat="14.77923" lon="-17.3167">
        <ele>58.96</ele>
        <time>2019-12-01T13:54:15.000Z</time>
      </trkpt>
      <trkpt lat="14.77934" lon="-17.31686">
        <ele>58.96</ele>
        <time>2019-12-01T13:54:20.000Z</time>
      </trkpt>
      <trkpt lat="14.77943" lon="-17.31702">
        <ele>58.97</ele>
        <time>2019-12-01T13:54:25.000Z</time>
      </trkpt>
      <trkpt lat="14.77953" lon="-17.31719">
        <ele>58.99</ele>
        <time>2019-12-01T13:54:30.000Z</time>
      </trkpt>
      <trkpt lat="14.77964" lon="-17.31737">
        <ele>59.02</ele>
        <time>2019-12-01T13:54:35.000Z</time>
      </trkpt>
      <trkpt lat="14.77969" lon="-17.31752">
        <ele>59.02</ele>
        <time>2019-12-01T13:54:40.000Z</time>
      </trkpt>
      <trkpt lat="14.77979" lon="-17.31765">
        <ele>59.02</ele>
        <time>2019-12-01T13:54:45.000Z</time>
      </trkpt>
      <trkpt lat="14.7799" lon="-17.31781">
        <ele>59.03</ele>
        <time>2019-12-01T13:54:50.000Z</time>
      </trkpt>
      <trkpt lat="14.78003" lon="-17.31798">
        <ele>59.02</ele>
        <time>2019-12-01T13:54:55.000Z</time>
      </trkpt>
      <trkpt lat="14.78011" lon="-17.31816">
        <ele>59.02</ele>
        <time>2019-12-01T13:55:00.000Z</time>
      </trkpt>
      <trkpt lat="14.78019" lon="-17.31833">
        <ele>59.05</ele>
        <time>2019-12-01T13:55:05.000Z</time>
      </trkpt>
      <trkpt lat="14.7803" lon="-17.31849">
        <ele>59.07</ele>
        <time>2019-12-01T13:55:10.000Z</time>
      </trkpt>
      <trkpt lat="14.78039" lon="-17.31866">
        <ele>59.05</ele>
        <time>2019-12-01T13:55:15.000Z</time>
      </trkpt>
      <trkpt lat="14.78048" lon="-17.31882">
        <ele>59.04</ele>
        <time>2019-12-01T13:55:20.000Z</time>
      </trkpt>
      <trkpt lat="14.78054" lon="-17.31898">
        <ele>59.04</ele>
        <time>2019-12-01T13:55:25.000Z</time>
      </trkpt>
      <trkpt lat="14.78051" lon="-17.31911">
        <ele>59.04</ele>
        <time>2019-12-01T13:55:30.000Z</time>
      </trkpt>
      <trkpt lat="14.78046" lon="-17.3192">
        <ele>59.07</ele>
        <time>2019-12-01T13:55:35.000Z</time>
      </trkpt>
      <trkpt lat="14.78041" lon="-17.31929">
        <ele>59.11</ele>
        <time>2019-12-01T13:55:40.000Z</time>
      </trkpt>
      <trkpt lat="14.78034" lon="-17.3194">
        <ele>59.15</ele>
        <time>2019-12-01T13:55:45.000Z</time>
      </trkpt>
      <trkpt lat="14.78028" lon="-17.31953">
        <ele>59.19</ele>
        <time>2019-12-01T13:55:50.000Z</time>
      </trkpt>
      <trkpt lat="14.78018" lon="-17.31968">
        <ele>59.22</ele>
        <time>2019-12-01T13:55:55.000Z</time>
      </trkpt>
      <trkpt lat="14.7801" lon="-17.31982">
        <ele>59.23</ele>
        <time>2019-12-01T13:56:00.000Z</time>
      </trkpt>
      <trkpt lat="14.78" lon="-17.31994">
        <ele>59.22</ele>
        <time>2019-12-01T13:56:05.000Z</time>
      </trkpt>
      <trkpt lat="14.77993" lon="-17.32003">
        <ele>59.2</ele>
        <time>2019-12-01T13:56:10.000Z</time>
      </trkpt>
      <trkpt lat="14.77986" lon="-17.32018">
        <ele>59.13</ele>
        <time>2019-12-01T13:56:15.000Z</time>
      </trkpt>
      <trkpt lat="14.77976" lon="-17.32037">
        <ele>59.09</ele>
        <time>2019-12-01T13:56:20.000Z</time>
      </trkpt>
      <trkpt lat="14.77967" lon="-17.32055">
        <ele>59.07</ele>
        <time>2019-12-01T13:56:25.000Z</time>
      </trkpt>
      <trkpt lat="14.77957" lon="-17.32073">
        <ele>59</ele>
        <time>2019-12-01T13:56:30.000Z</time>
      </trkpt>
      <trkpt lat="14.77946" lon="-17.32092">
        <ele>58.97</ele>
        <time>2019-12-01T13:56:35.000Z</time>
      </trkpt>
      <trkpt lat="14.77936" lon="-17.32113">
        <ele>58.97</ele>
        <time>2019-12-01T13:56:40.000Z</time>
      </trkpt>
      <trkpt lat="14.77924" lon="-17.32134">
        <ele>59</ele>
        <time>2019-12-01T13:56:45.000Z</time>
      </trkpt>
      <trkpt lat="14.77916" lon="-17.32151">
        <ele>58.96</ele>
        <time>2019-12-01T13:56:50.000Z</time>
      </trkpt>
      <trkpt lat="14.77915" lon="-17.32171">
        <ele>59.02</ele>
        <time>2019-12-01T13:56:55.000Z</time>
      </trkpt>
      <trkpt lat="14.77897" lon="-17.32188">
        <ele>59.2</ele>
        <time>2019-12-01T13:57:00.000Z</time>
      </trkpt>
      <trkpt lat="14.77883" lon="-17.32206">
        <ele>59.36</ele>
        <time>2019-12-01T13:57:05.000Z</time>
      </trkpt>
      <trkpt lat="14.77871" lon="-17.32226">
        <ele>59.44</ele>
        <time>2019-12-01T13:57:10.000Z</time>
      </trkpt>
      <trkpt lat="14.7786" lon="-17.32249">
        <ele>59.44</ele>
        <time>2019-12-01T13:57:15.000Z</time>
      </trkpt>
      <trkpt lat="14.77847" lon="-17.32271">
        <ele>59.38</ele>
        <time>2019-12-01T13:57:20.000Z</time>
      </trkpt>
      <trkpt lat="14.77834" lon="-17.32296">
        <ele>59.38</ele>
        <time>2019-12-01T13:57:25.000Z</time>
      </trkpt>
      <trkpt lat="14.77822" lon="-17.32321">
        <ele>59.56</ele>
        <time>2019-12-01T13:57:30.000Z</time>
      </trkpt>
      <trkpt lat="14.77808" lon="-17.32343">
        <ele>59.82</ele>
        <time>2019-12-01T13:57:35.000Z</time>
      </trkpt>
      <trkpt lat="14.77796" lon="-17.32365">
        <ele>60.05</ele>
        <time>2019-12-01T13:57:40.000Z</time>
      </trkpt>
      <trkpt lat="14.77788" lon="-17.32378">
        <ele>60.08</ele>
        <time>2019-12-01T13:57:45.000Z</time>
      </trkpt>
      <trkpt lat="14.77776" lon="-17.32394">
        <ele>60.28</ele>
        <time>2019-12-01T13:57:50.000Z</time>
      </trkpt>
      <trkpt lat="14.77761" lon="-17.32411">
        <ele>60.61</ele>
        <time>2019-12-01T13:57:55.000Z</time>
      </trkpt>
      <trkpt lat="14.77743" lon="-17.32425">
        <ele>60.9</ele>
        <time>2019-12-01T13:58:00.000Z</time>
      </trkpt>
      <trkpt lat="14.77726" lon="-17.32436">
        <ele>61.22</ele>
        <time>2019-12-01T13:58:05.000Z</time>
      </trkpt>
      <trkpt lat="14.77706" lon="-17.32448">
        <ele>61.4</ele>
        <time>2019-12-01T13:58:10.000Z</time>
      </trkpt>
      <trkpt lat="14.77685" lon="-17.32461">
        <ele>61.38</ele>
        <time>2019-12-01T13:58:15.000Z</time>
      </trkpt>
      <trkpt lat="14.77666" lon="-17.32474">
        <ele>61.3</ele>
        <time>2019-12-01T13:58:20.000Z</time>
      </trkpt>
      <trkpt lat="14.77644" lon="-17.32486">
        <ele>61.13</ele>
        <time>2019-12-01T13:58:25.000Z</time>
      </trkpt>
      <trkpt lat="14.77622" lon="-17.32499">
        <ele>61.07</ele>
        <time>2019-12-01T13:58:30.000Z</time>
      </trkpt>
      <trkpt lat="14.77601" lon="-17.32512">
        <ele>61.04</ele>
        <time>2019-12-01T13:58:35.000Z</time>
      </trkpt>
      <trkpt lat="14.77581" lon="-17.32525">
        <ele>61.11</ele>
        <time>2019-12-01T13:58:40.000Z</time>
      </trkpt>
      <trkpt lat="14.77563" lon="-17.32536">
        <ele>61.14</ele>
        <time>2019-12-01T13:58:45.000Z</time>
      </trkpt>
      <trkpt lat="14.77547" lon="-17.32545">
        <ele>61.2</ele>
        <time>2019-12-01T13:58:50.000Z</time>
      </trkpt>
      <trkpt lat="14.77527" lon="-17.32559">
        <ele>61.29</ele>
        <time>2019-12-01T13:58:55.000Z</time>
      </trkpt>
      <trkpt lat="14.77506" lon="-17.32571">
        <ele>61.35</ele>
        <time>2019-12-01T13:59:00.000Z</time>
      </trkpt>
      <trkpt lat="14.77487" lon="-17.32586">
        <ele>61.41</ele>
        <time>2019-12-01T13:59:05.000Z</time>
      </trkpt>
      <trkpt lat="14.77469" lon="-17.32599">
        <ele>61.54</ele>
        <time>2019-12-01T13:59:10.000Z</time>
      </trkpt>
      <trkpt lat="14.77451" lon="-17.32613">
        <ele>61.65</ele>
        <time>2019-12-01T13:59:15.000Z</time>
      </trkpt>
      <trkpt lat="14.77431" lon="-17.32627">
        <ele>61.7</ele>
        <time>2019-12-01T13:59:20.000Z</time>
      </trkpt>
      <trkpt lat="14.77412" lon="-17.32639">
        <ele>61.78</ele>
        <time>2019-12-01T13:59:25.000Z</time>
      </trkpt>
      <trkpt lat="14.77391" lon="-17.32653">
        <ele>61.76</ele>
        <time>2019-12-01T13:59:30.000Z</time>
      </trkpt>
      <trkpt lat="14.77371" lon="-17.32665">
        <ele>61.74</ele>
        <time>2019-12-01T13:59:35.000Z</time>
      </trkpt>
      <trkpt lat="14.77352" lon="-17.32677">
        <ele>61.76</ele>
        <time>2019-12-01T13:59:40.000Z</time>
      </trkpt>
      <trkpt lat="14.77334" lon="-17.32689">
        <ele>61.84</ele>
        <time>2019-12-01T13:59:45.000Z</time>
      </trkpt>
      <trkpt lat="14.77315" lon="-17.32702">
        <ele>61.93</ele>
        <time>2019-12-01T13:59:50.000Z</time>
      </trkpt>
      <trkpt lat="14.77295" lon="-17.32713">
        <ele>61.93</ele>
        <time>2019-12-01T13:59:55.000Z</time>
      </trkpt>
      <trkpt lat="14.77276" lon="-17.32724">
        <ele>61.87</ele>
        <time>2019-12-01T14:00:00.000Z</time>
      </trkpt>
      <trkpt lat="14.77255" lon="-17.32737">
        <ele>61.81</ele>
        <time>2019-12-01T14:00:05.000Z</time>
      </trkpt>
      <trkpt lat="14.77237" lon="-17.3275">
        <ele>61.78</ele>
        <time>2019-12-01T14:00:10.000Z</time>
      </trkpt>
      <trkpt lat="14.77215" lon="-17.32763">
        <ele>61.77</ele>
        <time>2019-12-01T14:00:15.000Z</time>
      </trkpt>
      <trkpt lat="14.77195" lon="-17.32778">
        <ele>61.82</ele>
        <time>2019-12-01T14:00:20.000Z</time>
      </trkpt>
      <trkpt lat="14.77174" lon="-17.32791">
        <ele>61.84</ele>
        <time>2019-12-01T14:00:25.000Z</time>
      </trkpt>
      <trkpt lat="14.77154" lon="-17.32803">
        <ele>61.81</ele>
        <time>2019-12-01T14:00:30.000Z</time>
      </trkpt>
      <trkpt lat="14.77132" lon="-17.32816">
        <ele>61.81</ele>
        <time>2019-12-01T14:00:35.000Z</time>
      </trkpt>
      <trkpt lat="14.77111" lon="-17.32829">
        <ele>61.82</ele>
        <time>2019-12-01T14:00:40.000Z</time>
      </trkpt>
      <trkpt lat="14.77086" lon="-17.32843">
        <ele>61.92</ele>
        <time>2019-12-01T14:00:45.000Z</time>
      </trkpt>
      <trkpt lat="14.77064" lon="-17.32856">
        <ele>62.12</ele>
        <time>2019-12-01T14:00:50.000Z</time>
      </trkpt>
      <trkpt lat="14.77041" lon="-17.3287">
        <ele>62.26</ele>
        <time>2019-12-01T14:00:54.999Z</time>
      </trkpt>
      <trkpt lat="14.77021" lon="-17.32886">
        <ele>62.35</ele>
        <time>2019-12-01T14:00:59.999Z</time>
      </trkpt>
      <trkpt lat="14.77017" lon="-17.32911">
        <ele>62.43</ele>
        <time>2019-12-01T14:01:04.999Z</time>
      </trkpt>
      <trkpt lat="14.77023" lon="-17.3294">
        <ele>62.52</ele>
        <time>2019-12-01T14:01:09.999Z</time>
      </trkpt>
      <trkpt lat="14.77023" lon="-17.32967">
        <ele>62.62</ele>
        <time>2019-12-01T14:01:14.999Z</time>
      </trkpt>
      <trkpt lat="14.7702" lon="-17.32991">
        <ele>62.8</ele>
        <time>2019-12-01T14:01:19.999Z</time>
      </trkpt>
      <trkpt lat="14.77021" lon="-17.33015">
        <ele>63</ele>
        <time>2019-12-01T14:01:24.999Z</time>
      </trkpt>
      <trkpt lat="14.77022" lon="-17.33037">
        <ele>63.19</ele>
        <time>2019-12-01T14:01:29.999Z</time>
      </trkpt>
      <trkpt lat="14.77021" lon="-17.33054">
        <ele>63.21</ele>
        <time>2019-12-01T14:01:34.999Z</time>
      </trkpt>
      <trkpt lat="14.7702" lon="-17.33071">
        <ele>63.23</ele>
        <time>2019-12-01T14:01:39.999Z</time>
      </trkpt>
      <trkpt lat="14.77014" lon="-17.33083">
        <ele>63.24</ele>
        <time>2019-12-01T14:01:44.999Z</time>
      </trkpt>
      <trkpt lat="14.77007" lon="-17.33093">
        <ele>63.27</ele>
        <time>2019-12-01T14:01:49.999Z</time>
      </trkpt>
      <trkpt lat="14.76996" lon="-17.33104">
        <ele>63.29</ele>
        <time>2019-12-01T14:01:54.999Z</time>
      </trkpt>
      <trkpt lat="14.76983" lon="-17.33114">
        <ele>63.33</ele>
        <time>2019-12-01T14:01:59.999Z</time>
      </trkpt>
      <trkpt lat="14.76972" lon="-17.33126">
        <ele>63.56</ele>
        <time>2019-12-01T14:02:04.999Z</time>
      </trkpt>
      <trkpt lat="14.76956" lon="-17.33142">
        <ele>63.81</ele>
        <time>2019-12-01T14:02:09.999Z</time>
      </trkpt>
      <trkpt lat="14.76938" lon="-17.33158">
        <ele>64</ele>
        <time>2019-12-01T14:02:14.999Z</time>
      </trkpt>
      <trkpt lat="14.76921" lon="-17.33175">
        <ele>64.1</ele>
        <time>2019-12-01T14:02:19.999Z</time>
      </trkpt>
      <trkpt lat="14.76903" lon="-17.33184">
        <ele>64.16</ele>
        <time>2019-12-01T14:02:24.999Z</time>
      </trkpt>
      <trkpt lat="14.76884" lon="-17.33196">
        <ele>64.15</ele>
        <time>2019-12-01T14:02:29.999Z</time>
      </trkpt>
      <trkpt lat="14.7687" lon="-17.33215">
        <ele>64.18</ele>
        <time>2019-12-01T14:02:34.999Z</time>
      </trkpt>
      <trkpt lat="14.76858" lon="-17.33231">
        <ele>64.29</ele>
        <time>2019-12-01T14:02:39.999Z</time>
      </trkpt>
      <trkpt lat="14.76848" lon="-17.33247">
        <ele>64.37</ele>
        <time>2019-12-01T14:02:44.999Z</time>
      </trkpt>
      <trkpt lat="14.76837" lon="-17.33266">
        <ele>64.46</ele>
        <time>2019-12-01T14:02:49.999Z</time>
      </trkpt>
      <trkpt lat="14.76827" lon="-17.33283">
        <ele>64.75</ele>
        <time>2019-12-01T14:02:54.999Z</time>
      </trkpt>
      <trkpt lat="14.76815" lon="-17.33303">
        <ele>64.92</ele>
        <time>2019-12-01T14:02:59.999Z</time>
      </trkpt>
      <trkpt lat="14.76808" lon="-17.33319">
        <ele>65.02</ele>
        <time>2019-12-01T14:03:04.999Z</time>
      </trkpt>
      <trkpt lat="14.76801" lon="-17.33342">
        <ele>65.25</ele>
        <time>2019-12-01T14:03:09.999Z</time>
      </trkpt>
      <trkpt lat="14.76794" lon="-17.33364">
        <ele>65.3</ele>
        <time>2019-12-01T14:03:14.999Z</time>
      </trkpt>
      <trkpt lat="14.76785" lon="-17.33386">
        <ele>65.2</ele>
        <time>2019-12-01T14:03:19.999Z</time>
      </trkpt>
      <trkpt lat="14.7678" lon="-17.33412">
        <ele>65.04</ele>
        <time>2019-12-01T14:03:24.999Z</time>
      </trkpt>
      <trkpt lat="14.76775" lon="-17.33437">
        <ele>64.82</ele>
        <time>2019-12-01T14:03:29.999Z</time>
      </trkpt>
      <trkpt lat="14.76768" lon="-17.33461">
        <ele>64.71</ele>
        <time>2019-12-01T14:03:34.999Z</time>
      </trkpt>
      <trkpt lat="14.76761" lon="-17.33487">
        <ele>64.61</ele>
        <time>2019-12-01T14:03:39.999Z</time>
      </trkpt>
      <trkpt lat="14.76752" lon="-17.33511">
        <ele>64.56</ele>
        <time>2019-12-01T14:03:44.999Z</time>
      </trkpt>
      <trkpt lat="14.76745" lon="-17.33532">
        <ele>64.54</ele>
        <time>2019-12-01T14:03:49.999Z</time>
      </trkpt>
      <trkpt lat="14.76741" lon="-17.33541">
        <ele>64.52</ele>
        <time>2019-12-01T14:03:56.999Z</time>
      </trkpt>
      <trkpt lat="14.76735" lon="-17.33553">
        <ele>64.49</ele>
        <time>2019-12-01T14:04:01.999Z</time>
      </trkpt>
      <trkpt lat="14.76729" lon="-17.33571">
        <ele>64.33</ele>
        <time>2019-12-01T14:04:06.999Z</time>
      </trkpt>
      <trkpt lat="14.76723" lon="-17.3359">
        <ele>64.23</ele>
        <time>2019-12-01T14:04:11.999Z</time>
      </trkpt>
      <trkpt lat="14.76719" lon="-17.33607">
        <ele>64.22</ele>
        <time>2019-12-01T14:04:16.999Z</time>
      </trkpt>
      <trkpt lat="14.76713" lon="-17.33624">
        <ele>64.23</ele>
        <time>2019-12-01T14:04:21.999Z</time>
      </trkpt>
      <trkpt lat="14.76708" lon="-17.33637">
        <ele>64.25</ele>
        <time>2019-12-01T14:04:26.999Z</time>
      </trkpt>
      <trkpt lat="14.76702" lon="-17.33655">
        <ele>64.28</ele>
        <time>2019-12-01T14:04:31.999Z</time>
      </trkpt>
      <trkpt lat="14.76695" lon="-17.33674">
        <ele>64.31</ele>
        <time>2019-12-01T14:04:36.999Z</time>
      </trkpt>
      <trkpt lat="14.76688" lon="-17.33691">
        <ele>64.41</ele>
        <time>2019-12-01T14:04:41.999Z</time>
      </trkpt>
      <trkpt lat="14.76681" lon="-17.33706">
        <ele>64.45</ele>
        <time>2019-12-01T14:04:46.999Z</time>
      </trkpt>
      <trkpt lat="14.76673" lon="-17.33725">
        <ele>64.64</ele>
        <time>2019-12-01T14:04:51.999Z</time>
      </trkpt>
      <trkpt lat="14.76665" lon="-17.33745">
        <ele>64.84</ele>
        <time>2019-12-01T14:04:56.999Z</time>
      </trkpt>
      <trkpt lat="14.76656" lon="-17.33765">
        <ele>64.97</ele>
        <time>2019-12-01T14:05:01.999Z</time>
      </trkpt>
      <trkpt lat="14.76649" lon="-17.3378">
        <ele>64.99</ele>
        <time>2019-12-01T14:05:06.999Z</time>
      </trkpt>
      <trkpt lat="14.76642" lon="-17.33798">
        <ele>65.01</ele>
        <time>2019-12-01T14:05:11.999Z</time>
      </trkpt>
      <trkpt lat="14.76635" lon="-17.33818">
        <ele>65.07</ele>
        <time>2019-12-01T14:05:16.999Z</time>
      </trkpt>
      <trkpt lat="14.7663" lon="-17.33836">
        <ele>65.09</ele>
        <time>2019-12-01T14:05:21.999Z</time>
      </trkpt>
      <trkpt lat="14.76623" lon="-17.33856">
        <ele>65.15</ele>
        <time>2019-12-01T14:05:26.999Z</time>
      </trkpt>
      <trkpt lat="14.76616" lon="-17.33875">
        <ele>65.24</ele>
        <time>2019-12-01T14:05:31.999Z</time>
      </trkpt>
      <trkpt lat="14.7661" lon="-17.33895">
        <ele>65.28</ele>
        <time>2019-12-01T14:05:36.999Z</time>
      </trkpt>
      <trkpt lat="14.76605" lon="-17.33913">
        <ele>65.37</ele>
        <time>2019-12-01T14:05:41.999Z</time>
      </trkpt>
      <trkpt lat="14.766" lon="-17.33934">
        <ele>65.47</ele>
        <time>2019-12-01T14:05:46.999Z</time>
      </trkpt>
      <trkpt lat="14.76594" lon="-17.33955">
        <ele>65.53</ele>
        <time>2019-12-01T14:05:51.999Z</time>
      </trkpt>
      <trkpt lat="14.76589" lon="-17.33974">
        <ele>65.56</ele>
        <time>2019-12-01T14:05:56.999Z</time>
      </trkpt>
      <trkpt lat="14.76587" lon="-17.33993">
        <ele>65.65</ele>
        <time>2019-12-01T14:06:01.999Z</time>
      </trkpt>
      <trkpt lat="14.76591" lon="-17.34014">
        <ele>65.75</ele>
        <time>2019-12-01T14:06:06.999Z</time>
      </trkpt>
      <trkpt lat="14.76598" lon="-17.34032">
        <ele>65.71</ele>
        <time>2019-12-01T14:06:11.999Z</time>
      </trkpt>
      <trkpt lat="14.76603" lon="-17.34053">
        <ele>65.62</ele>
        <time>2019-12-01T14:06:16.999Z</time>
      </trkpt>
      <trkpt lat="14.76608" lon="-17.34073">
        <ele>65.57</ele>
        <time>2019-12-01T14:06:21.999Z</time>
      </trkpt>
      <trkpt lat="14.76615" lon="-17.34093">
        <ele>65.54</ele>
        <time>2019-12-01T14:06:26.999Z</time>
      </trkpt>
      <trkpt lat="14.76622" lon="-17.34112">
        <ele>65.46</ele>
        <time>2019-12-01T14:06:31.999Z</time>
      </trkpt>
      <trkpt lat="14.76628" lon="-17.34133">
        <ele>65.38</ele>
        <time>2019-12-01T14:06:36.999Z</time>
      </trkpt>
      <trkpt lat="14.76635" lon="-17.34156">
        <ele>65.31</ele>
        <time>2019-12-01T14:06:41.999Z</time>
      </trkpt>
      <trkpt lat="14.76643" lon="-17.34178">
        <ele>65.2</ele>
        <time>2019-12-01T14:06:46.999Z</time>
      </trkpt>
      <trkpt lat="14.76648" lon="-17.342">
        <ele>65.01</ele>
        <time>2019-12-01T14:06:51.999Z</time>
      </trkpt>
      <trkpt lat="14.76655" lon="-17.34221">
        <ele>64.72</ele>
        <time>2019-12-01T14:06:56.999Z</time>
      </trkpt>
      <trkpt lat="14.76662" lon="-17.34243">
        <ele>64.45</ele>
        <time>2019-12-01T14:07:01.999Z</time>
      </trkpt>
      <trkpt lat="14.7667" lon="-17.34264">
        <ele>64.26</ele>
        <time>2019-12-01T14:07:06.999Z</time>
      </trkpt>
      <trkpt lat="14.76677" lon="-17.34285">
        <ele>64</ele>
        <time>2019-12-01T14:07:11.999Z</time>
      </trkpt>
      <trkpt lat="14.76683" lon="-17.34306">
        <ele>63.7</ele>
        <time>2019-12-01T14:07:16.999Z</time>
      </trkpt>
      <trkpt lat="14.7669" lon="-17.34327">
        <ele>63.41</ele>
        <time>2019-12-01T14:07:21.999Z</time>
      </trkpt>
      <trkpt lat="14.76696" lon="-17.34349">
        <ele>63.11</ele>
        <time>2019-12-01T14:07:26.999Z</time>
      </trkpt>
      <trkpt lat="14.76702" lon="-17.3437">
        <ele>62.86</ele>
        <time>2019-12-01T14:07:31.999Z</time>
      </trkpt>
      <trkpt lat="14.76709" lon="-17.34391">
        <ele>62.67</ele>
        <time>2019-12-01T14:07:36.999Z</time>
      </trkpt>
      <trkpt lat="14.76715" lon="-17.34411">
        <ele>62.52</ele>
        <time>2019-12-01T14:07:41.999Z</time>
      </trkpt>
      <trkpt lat="14.76723" lon="-17.34433">
        <ele>62.28</ele>
        <time>2019-12-01T14:07:46.999Z</time>
      </trkpt>
      <trkpt lat="14.76729" lon="-17.34455">
        <ele>62.05</ele>
        <time>2019-12-01T14:07:51.999Z</time>
      </trkpt>
      <trkpt lat="14.76737" lon="-17.34478">
        <ele>61.81</ele>
        <time>2019-12-01T14:07:56.999Z</time>
      </trkpt>
      <trkpt lat="14.76744" lon="-17.345">
        <ele>61.57</ele>
        <time>2019-12-01T14:08:01.999Z</time>
      </trkpt>
      <trkpt lat="14.76751" lon="-17.34519">
        <ele>61.45</ele>
        <time>2019-12-01T14:08:06.999Z</time>
      </trkpt>
      <trkpt lat="14.76757" lon="-17.34535">
        <ele>61.3</ele>
        <time>2019-12-01T14:08:11.999Z</time>
      </trkpt>
      <trkpt lat="14.76763" lon="-17.34555">
        <ele>60.85</ele>
        <time>2019-12-01T14:08:16.999Z</time>
      </trkpt>
      <trkpt lat="14.7677" lon="-17.34575">
        <ele>60.52</ele>
        <time>2019-12-01T14:08:21.999Z</time>
      </trkpt>
      <trkpt lat="14.76779" lon="-17.34595">
        <ele>60.3</ele>
        <time>2019-12-01T14:08:26.999Z</time>
      </trkpt>
      <trkpt lat="14.76783" lon="-17.34613">
        <ele>60.26</ele>
        <time>2019-12-01T14:08:31.999Z</time>
      </trkpt>
      <trkpt lat="14.76789" lon="-17.34631">
        <ele>60.22</ele>
        <time>2019-12-01T14:08:36.999Z</time>
      </trkpt>
      <trkpt lat="14.76795" lon="-17.3465">
        <ele>60.11</ele>
        <time>2019-12-01T14:08:41.999Z</time>
      </trkpt>
      <trkpt lat="14.768" lon="-17.34668">
        <ele>60.06</ele>
        <time>2019-12-01T14:08:46.999Z</time>
      </trkpt>
      <trkpt lat="14.76806" lon="-17.34686">
        <ele>60.01</ele>
        <time>2019-12-01T14:08:51.999Z</time>
      </trkpt>
      <trkpt lat="14.76811" lon="-17.34703">
        <ele>59.95</ele>
        <time>2019-12-01T14:08:56.999Z</time>
      </trkpt>
      <trkpt lat="14.76816" lon="-17.34721">
        <ele>59.89</ele>
        <time>2019-12-01T14:09:01.999Z</time>
      </trkpt>
      <trkpt lat="14.76823" lon="-17.34739">
        <ele>59.82</ele>
        <time>2019-12-01T14:09:06.999Z</time>
      </trkpt>
      <trkpt lat="14.76828" lon="-17.34758">
        <ele>59.66</ele>
        <time>2019-12-01T14:09:11.999Z</time>
      </trkpt>
      <trkpt lat="14.76833" lon="-17.34777">
        <ele>59.28</ele>
        <time>2019-12-01T14:09:16.999Z</time>
      </trkpt>
      <trkpt lat="14.76839" lon="-17.34797">
        <ele>59.06</ele>
        <time>2019-12-01T14:09:21.999Z</time>
      </trkpt>
      <trkpt lat="14.76846" lon="-17.34818">
        <ele>58.92</ele>
        <time>2019-12-01T14:09:26.999Z</time>
      </trkpt>
      <trkpt lat="14.76852" lon="-17.34838">
        <ele>58.83</ele>
        <time>2019-12-01T14:09:31.999Z</time>
      </trkpt>
      <trkpt lat="14.76859" lon="-17.34858">
        <ele>58.7</ele>
        <time>2019-12-01T14:09:36.999Z</time>
      </trkpt>
      <trkpt lat="14.76867" lon="-17.34876">
        <ele>58.56</ele>
        <time>2019-12-01T14:09:41.999Z</time>
      </trkpt>
      <trkpt lat="14.76875" lon="-17.34898">
        <ele>58.47</ele>
        <time>2019-12-01T14:09:46.999Z</time>
      </trkpt>
      <trkpt lat="14.76883" lon="-17.3492">
        <ele>58.43</ele>
        <time>2019-12-01T14:09:51.999Z</time>
      </trkpt>
      <trkpt lat="14.76889" lon="-17.34942">
        <ele>58.38</ele>
        <time>2019-12-01T14:09:56.999Z</time>
      </trkpt>
      <trkpt lat="14.76895" lon="-17.34962">
        <ele>58.3</ele>
        <time>2019-12-01T14:10:01.999Z</time>
      </trkpt>
      <trkpt lat="14.76902" lon="-17.34982">
        <ele>58.14</ele>
        <time>2019-12-01T14:10:06.999Z</time>
      </trkpt>
      <trkpt lat="14.76909" lon="-17.35004">
        <ele>57.93</ele>
        <time>2019-12-01T14:10:11.999Z</time>
      </trkpt>
      <trkpt lat="14.76915" lon="-17.35026">
        <ele>57.75</ele>
        <time>2019-12-01T14:10:16.999Z</time>
      </trkpt>
      <trkpt lat="14.76921" lon="-17.3505">
        <ele>57.57</ele>
        <time>2019-12-01T14:10:21.999Z</time>
      </trkpt>
      <trkpt lat="14.76929" lon="-17.35071">
        <ele>57.38</ele>
        <time>2019-12-01T14:10:26.999Z</time>
      </trkpt>
      <trkpt lat="14.76934" lon="-17.35093">
        <ele>57.17</ele>
        <time>2019-12-01T14:10:31.999Z</time>
      </trkpt>
      <trkpt lat="14.76944" lon="-17.35119">
        <ele>57.1</ele>
        <time>2019-12-01T14:10:36.999Z</time>
      </trkpt>
      <trkpt lat="14.76952" lon="-17.35143">
        <ele>57.01</ele>
        <time>2019-12-01T14:10:41.999Z</time>
      </trkpt>
      <trkpt lat="14.7696" lon="-17.35165">
        <ele>56.92</ele>
        <time>2019-12-01T14:10:46.999Z</time>
      </trkpt>
      <trkpt lat="14.76966" lon="-17.35186">
        <ele>56.85</ele>
        <time>2019-12-01T14:10:51.999Z</time>
      </trkpt>
      <trkpt lat="14.76973" lon="-17.35207">
        <ele>56.83</ele>
        <time>2019-12-01T14:10:56.999Z</time>
      </trkpt>
      <trkpt lat="14.76978" lon="-17.35228">
        <ele>56.81</ele>
        <time>2019-12-01T14:11:01.999Z</time>
      </trkpt>
      <trkpt lat="14.76984" lon="-17.35249">
        <ele>56.7</ele>
        <time>2019-12-01T14:11:06.999Z</time>
      </trkpt>
      <trkpt lat="14.76989" lon="-17.3527">
        <ele>56.55</ele>
        <time>2019-12-01T14:11:11.999Z</time>
      </trkpt>
      <trkpt lat="14.76997" lon="-17.3529">
        <ele>56.46</ele>
        <time>2019-12-01T14:11:16.999Z</time>
      </trkpt>
      <trkpt lat="14.77003" lon="-17.35311">
        <ele>56.25</ele>
        <time>2019-12-01T14:11:21.999Z</time>
      </trkpt>
      <trkpt lat="14.77012" lon="-17.35332">
        <ele>56.15</ele>
        <time>2019-12-01T14:11:26.999Z</time>
      </trkpt>
      <trkpt lat="14.7702" lon="-17.35353">
        <ele>56.09</ele>
        <time>2019-12-01T14:11:31.999Z</time>
      </trkpt>
      <trkpt lat="14.77027" lon="-17.35374">
        <ele>56.05</ele>
        <time>2019-12-01T14:11:36.999Z</time>
      </trkpt>
      <trkpt lat="14.77034" lon="-17.35393">
        <ele>55.98</ele>
        <time>2019-12-01T14:11:41.999Z</time>
      </trkpt>
      <trkpt lat="14.7704" lon="-17.35412">
        <ele>55.9</ele>
        <time>2019-12-01T14:11:46.999Z</time>
      </trkpt>
      <trkpt lat="14.77048" lon="-17.35433">
        <ele>55.8</ele>
        <time>2019-12-01T14:11:51.999Z</time>
      </trkpt>
      <trkpt lat="14.77054" lon="-17.35451">
        <ele>55.75</ele>
        <time>2019-12-01T14:11:56.999Z</time>
      </trkpt>
      <trkpt lat="14.7706" lon="-17.35472">
        <ele>55.59</ele>
        <time>2019-12-01T14:12:01.999Z</time>
      </trkpt>
      <trkpt lat="14.77067" lon="-17.35492">
        <ele>55.52</ele>
        <time>2019-12-01T14:12:06.999Z</time>
      </trkpt>
      <trkpt lat="14.77075" lon="-17.35517">
        <ele>55.42</ele>
        <time>2019-12-01T14:12:11.999Z</time>
      </trkpt>
      <trkpt lat="14.77082" lon="-17.35541">
        <ele>55.31</ele>
        <time>2019-12-01T14:12:16.999Z</time>
      </trkpt>
      <trkpt lat="14.77089" lon="-17.35562">
        <ele>55.27</ele>
        <time>2019-12-01T14:12:21.999Z</time>
      </trkpt>
      <trkpt lat="14.77098" lon="-17.35583">
        <ele>55.23</ele>
        <time>2019-12-01T14:12:26.999Z</time>
      </trkpt>
      <trkpt lat="14.77105" lon="-17.35602">
        <ele>55.21</ele>
        <time>2019-12-01T14:12:31.999Z</time>
      </trkpt>
      <trkpt lat="14.77112" lon="-17.35621">
        <ele>55.2</ele>
        <time>2019-12-01T14:12:36.999Z</time>
      </trkpt>
      <trkpt lat="14.77118" lon="-17.35639">
        <ele>55.16</ele>
        <time>2019-12-01T14:12:41.999Z</time>
      </trkpt>
      <trkpt lat="14.77124" lon="-17.35657">
        <ele>55.09</ele>
        <time>2019-12-01T14:12:46.999Z</time>
      </trkpt>
      <trkpt lat="14.77128" lon="-17.35676">
        <ele>55.07</ele>
        <time>2019-12-01T14:12:51.999Z</time>
      </trkpt>
      <trkpt lat="14.77135" lon="-17.35696">
        <ele>55</ele>
        <time>2019-12-01T14:12:56.999Z</time>
      </trkpt>
      <trkpt lat="14.77142" lon="-17.35717">
        <ele>54.97</ele>
        <time>2019-12-01T14:13:01.999Z</time>
      </trkpt>
      <trkpt lat="14.77147" lon="-17.35738">
        <ele>54.89</ele>
        <time>2019-12-01T14:13:06.999Z</time>
      </trkpt>
      <trkpt lat="14.77155" lon="-17.35758">
        <ele>54.86</ele>
        <time>2019-12-01T14:13:11.999Z</time>
      </trkpt>
      <trkpt lat="14.77162" lon="-17.35775">
        <ele>54.86</ele>
        <time>2019-12-01T14:13:16.999Z</time>
      </trkpt>
      <trkpt lat="14.77169" lon="-17.35794">
        <ele>54.89</ele>
        <time>2019-12-01T14:13:21.999Z</time>
      </trkpt>
      <trkpt lat="14.77174" lon="-17.35816">
        <ele>54.94</ele>
        <time>2019-12-01T14:13:26.999Z</time>
      </trkpt>
      <trkpt lat="14.77178" lon="-17.35837">
        <ele>55.05</ele>
        <time>2019-12-01T14:13:31.999Z</time>
      </trkpt>
      <trkpt lat="14.77186" lon="-17.35855">
        <ele>55.12</ele>
        <time>2019-12-01T14:13:36.999Z</time>
      </trkpt>
      <trkpt lat="14.77191" lon="-17.35873">
        <ele>55.14</ele>
        <time>2019-12-01T14:13:41.999Z</time>
      </trkpt>
      <trkpt lat="14.77198" lon="-17.3589">
        <ele>55.16</ele>
        <time>2019-12-01T14:13:46.999Z</time>
      </trkpt>
      <trkpt lat="14.77204" lon="-17.35909">
        <ele>55.17</ele>
        <time>2019-12-01T14:13:51.999Z</time>
      </trkpt>
      <trkpt lat="14.77211" lon="-17.35928">
        <ele>55.18</ele>
        <time>2019-12-01T14:13:56.999Z</time>
      </trkpt>
      <trkpt lat="14.77216" lon="-17.35948">
        <ele>55.18</ele>
        <time>2019-12-01T14:14:01.999Z</time>
      </trkpt>
      <trkpt lat="14.7722" lon="-17.35963">
        <ele>55.19</ele>
        <time>2019-12-01T14:14:06.999Z</time>
      </trkpt>
      <trkpt lat="14.77225" lon="-17.35979">
        <ele>55.22</ele>
        <time>2019-12-01T14:14:11.999Z</time>
      </trkpt>
      <trkpt lat="14.77232" lon="-17.35998">
        <ele>55.22</ele>
        <time>2019-12-01T14:14:16.999Z</time>
      </trkpt>
      <trkpt lat="14.77237" lon="-17.36015">
        <ele>55.22</ele>
        <time>2019-12-01T14:14:21.999Z</time>
      </trkpt>
      <trkpt lat="14.7724" lon="-17.36024">
        <ele>55.21</ele>
        <time>2019-12-01T14:14:26.999Z</time>
      </trkpt>
      <trkpt lat="14.77243" lon="-17.36036">
        <ele>55.19</ele>
        <time>2019-12-01T14:14:32.999Z</time>
      </trkpt>
      <trkpt lat="14.77244" lon="-17.36053">
        <ele>55.19</ele>
        <time>2019-12-01T14:14:37.999Z</time>
      </trkpt>
      <trkpt lat="14.77247" lon="-17.3607">
        <ele>55.19</ele>
        <time>2019-12-01T14:14:42.999Z</time>
      </trkpt>
      <trkpt lat="14.77251" lon="-17.36085">
        <ele>55.18</ele>
        <time>2019-12-01T14:14:47.000Z</time>
      </trkpt>
      <trkpt lat="14.77255" lon="-17.36104">
        <ele>55.16</ele>
        <time>2019-12-01T14:14:52.000Z</time>
      </trkpt>
      <trkpt lat="14.7726" lon="-17.3612">
        <ele>55.12</ele>
        <time>2019-12-01T14:14:57.000Z</time>
      </trkpt>
      <trkpt lat="14.77262" lon="-17.36132">
        <ele>55.09</ele>
        <time>2019-12-01T14:15:02.000Z</time>
      </trkpt>
      <trkpt lat="14.77259" lon="-17.36141">
        <ele>55.07</ele>
        <time>2019-12-01T14:15:07.000Z</time>
      </trkpt>
      <trkpt lat="14.77255" lon="-17.3615">
        <ele>55.11</ele>
        <time>2019-12-01T14:15:31.000Z</time>
      </trkpt>
      <trkpt lat="14.77249" lon="-17.36158">
        <ele>55.18</ele>
        <time>2019-12-01T14:15:36.000Z</time>
      </trkpt>
      <trkpt lat="14.7724" lon="-17.36167">
        <ele>55.26</ele>
        <time>2019-12-01T14:15:41.000Z</time>
      </trkpt>
      <trkpt lat="14.7723" lon="-17.3618">
        <ele>55.35</ele>
        <time>2019-12-01T14:15:46.000Z</time>
      </trkpt>
      <trkpt lat="14.77218" lon="-17.36196">
        <ele>55.85</ele>
        <time>2019-12-01T14:15:51.000Z</time>
      </trkpt>
      <trkpt lat="14.77205" lon="-17.36214">
        <ele>56.36</ele>
        <time>2019-12-01T14:15:56.000Z</time>
      </trkpt>
      <trkpt lat="14.77191" lon="-17.3623">
        <ele>56.66</ele>
        <time>2019-12-01T14:16:01.000Z</time>
      </trkpt>
      <trkpt lat="14.77177" lon="-17.36246">
        <ele>56.91</ele>
        <time>2019-12-01T14:16:06.000Z</time>
      </trkpt>
      <trkpt lat="14.77164" lon="-17.3626">
        <ele>57.07</ele>
        <time>2019-12-01T14:16:11.000Z</time>
      </trkpt>
      <trkpt lat="14.77147" lon="-17.36278">
        <ele>57.12</ele>
        <time>2019-12-01T14:16:16.000Z</time>
      </trkpt>
      <trkpt lat="14.77131" lon="-17.36295">
        <ele>57.36</ele>
        <time>2019-12-01T14:16:21.000Z</time>
      </trkpt>
      <trkpt lat="14.77117" lon="-17.36308">
        <ele>57.79</ele>
        <time>2019-12-01T14:16:26.000Z</time>
      </trkpt>
      <trkpt lat="14.7711" lon="-17.36316">
        <ele>58.09</ele>
        <time>2019-12-01T14:16:39.000Z</time>
      </trkpt>
      <trkpt lat="14.77102" lon="-17.36329">
        <ele>58.6</ele>
        <time>2019-12-01T14:17:03.000Z</time>
      </trkpt>
      <trkpt lat="14.77093" lon="-17.36332">
        <ele>58.75</ele>
        <time>2019-12-01T14:17:10.000Z</time>
      </trkpt>
      <trkpt lat="14.77083" lon="-17.36337">
        <ele>58.83</ele>
        <time>2019-12-01T14:17:15.000Z</time>
      </trkpt>
      <trkpt lat="14.77066" lon="-17.36351">
        <ele>59.27</ele>
        <time>2019-12-01T14:17:20.000Z</time>
      </trkpt>
      <trkpt lat="14.77051" lon="-17.36368">
        <ele>60.05</ele>
        <time>2019-12-01T14:17:25.000Z</time>
      </trkpt>
      <trkpt lat="14.77036" lon="-17.36384">
        <ele>60.44</ele>
        <time>2019-12-01T14:17:30.000Z</time>
      </trkpt>
      <trkpt lat="14.77019" lon="-17.36402">
        <ele>60.7</ele>
        <time>2019-12-01T14:17:35.000Z</time>
      </trkpt>
      <trkpt lat="14.77004" lon="-17.36419">
        <ele>60.81</ele>
        <time>2019-12-01T14:17:40.000Z</time>
      </trkpt>
      <trkpt lat="14.76988" lon="-17.36437">
        <ele>60.89</ele>
        <time>2019-12-01T14:17:45.000Z</time>
      </trkpt>
      <trkpt lat="14.76973" lon="-17.36457">
        <ele>60.99</ele>
        <time>2019-12-01T14:17:50.000Z</time>
      </trkpt>
      <trkpt lat="14.76957" lon="-17.36476">
        <ele>61.1</ele>
        <time>2019-12-01T14:17:55.000Z</time>
      </trkpt>
      <trkpt lat="14.76939" lon="-17.36495">
        <ele>61.19</ele>
        <time>2019-12-01T14:18:00.000Z</time>
      </trkpt>
      <trkpt lat="14.76926" lon="-17.36511">
        <ele>61.24</ele>
        <time>2019-12-01T14:18:05.000Z</time>
      </trkpt>
      <trkpt lat="14.76912" lon="-17.36527">
        <ele>61.27</ele>
        <time>2019-12-01T14:18:10.000Z</time>
      </trkpt>
      <trkpt lat="14.76897" lon="-17.36545">
        <ele>61.35</ele>
        <time>2019-12-01T14:18:15.000Z</time>
      </trkpt>
      <trkpt lat="14.76882" lon="-17.36563">
        <ele>61.42</ele>
        <time>2019-12-01T14:18:20.000Z</time>
      </trkpt>
      <trkpt lat="14.76866" lon="-17.36581">
        <ele>61.49</ele>
        <time>2019-12-01T14:18:25.000Z</time>
      </trkpt>
      <trkpt lat="14.76851" lon="-17.36595">
        <ele>61.52</ele>
        <time>2019-12-01T14:18:30.000Z</time>
      </trkpt>
      <trkpt lat="14.76837" lon="-17.3661">
        <ele>61.57</ele>
        <time>2019-12-01T14:18:35.000Z</time>
      </trkpt>
      <trkpt lat="14.76822" lon="-17.36625">
        <ele>61.66</ele>
        <time>2019-12-01T14:18:40.000Z</time>
      </trkpt>
      <trkpt lat="14.76804" lon="-17.36643">
        <ele>61.77</ele>
        <time>2019-12-01T14:18:45.000Z</time>
      </trkpt>
      <trkpt lat="14.76786" lon="-17.36661">
        <ele>61.87</ele>
        <time>2019-12-01T14:18:50.000Z</time>
      </trkpt>
      <trkpt lat="14.76772" lon="-17.36679">
        <ele>62</ele>
        <time>2019-12-01T14:18:55.000Z</time>
      </trkpt>
      <trkpt lat="14.76762" lon="-17.36693">
        <ele>62.04</ele>
        <time>2019-12-01T14:19:00.000Z</time>
      </trkpt>
      <trkpt lat="14.76753" lon="-17.36697">
        <ele>62.05</ele>
        <time>2019-12-01T14:19:09.000Z</time>
      </trkpt>
      <trkpt lat="14.76744" lon="-17.36706">
        <ele>62.06</ele>
        <time>2019-12-01T14:19:14.000Z</time>
      </trkpt>
      <trkpt lat="14.76734" lon="-17.36724">
        <ele>62.11</ele>
        <time>2019-12-01T14:19:19.000Z</time>
      </trkpt>
      <trkpt lat="14.76724" lon="-17.36739">
        <ele>62.14</ele>
        <time>2019-12-01T14:19:24.000Z</time>
      </trkpt>
      <trkpt lat="14.76716" lon="-17.36751">
        <ele>62.15</ele>
        <time>2019-12-01T14:19:29.000Z</time>
      </trkpt>
      <trkpt lat="14.76706" lon="-17.3676">
        <ele>62.18</ele>
        <time>2019-12-01T14:19:34.000Z</time>
      </trkpt>
      <trkpt lat="14.76697" lon="-17.3677">
        <ele>62.21</ele>
        <time>2019-12-01T14:19:39.000Z</time>
      </trkpt>
      <trkpt lat="14.76685" lon="-17.36782">
        <ele>62.29</ele>
        <time>2019-12-01T14:19:44.000Z</time>
      </trkpt>
      <trkpt lat="14.76671" lon="-17.36796">
        <ele>62.48</ele>
        <time>2019-12-01T14:19:49.000Z</time>
      </trkpt>
      <trkpt lat="14.76658" lon="-17.36811">
        <ele>62.6</ele>
        <time>2019-12-01T14:19:54.000Z</time>
      </trkpt>
      <trkpt lat="14.76642" lon="-17.36827">
        <ele>62.69</ele>
        <time>2019-12-01T14:19:59.000Z</time>
      </trkpt>
      <trkpt lat="14.76627" lon="-17.36842">
        <ele>62.72</ele>
        <time>2019-12-01T14:20:04.000Z</time>
      </trkpt>
      <trkpt lat="14.7661" lon="-17.36859">
        <ele>62.72</ele>
        <time>2019-12-01T14:20:09.000Z</time>
      </trkpt>
      <trkpt lat="14.76594" lon="-17.36875">
        <ele>62.72</ele>
        <time>2019-12-01T14:20:14.000Z</time>
      </trkpt>
      <trkpt lat="14.76578" lon="-17.36891">
        <ele>62.8</ele>
        <time>2019-12-01T14:20:19.000Z</time>
      </trkpt>
      <trkpt lat="14.76565" lon="-17.36906">
        <ele>62.84</ele>
        <time>2019-12-01T14:20:24.000Z</time>
      </trkpt>
      <trkpt lat="14.76556" lon="-17.36917">
        <ele>62.85</ele>
        <time>2019-12-01T14:20:29.000Z</time>
      </trkpt>
      <trkpt lat="14.76547" lon="-17.36926">
        <ele>62.87</ele>
        <time>2019-12-01T14:20:34.000Z</time>
      </trkpt>
      <trkpt lat="14.76541" lon="-17.36935">
        <ele>62.89</ele>
        <time>2019-12-01T14:20:39.000Z</time>
      </trkpt>
      <trkpt lat="14.76534" lon="-17.36943">
        <ele>62.94</ele>
        <time>2019-12-01T14:20:50.000Z</time>
      </trkpt>
      <trkpt lat="14.76523" lon="-17.36953">
        <ele>62.97</ele>
        <time>2019-12-01T14:20:55.000Z</time>
      </trkpt>
      <trkpt lat="14.76516" lon="-17.36961">
        <ele>63</ele>
        <time>2019-12-01T14:21:01.000Z</time>
      </trkpt>
      <trkpt lat="14.76509" lon="-17.36969">
        <ele>63.03</ele>
        <time>2019-12-01T14:21:06.000Z</time>
      </trkpt>
      <trkpt lat="14.76496" lon="-17.36981">
        <ele>63.06</ele>
        <time>2019-12-01T14:21:11.000Z</time>
      </trkpt>
      <trkpt lat="14.76485" lon="-17.36991">
        <ele>63.08</ele>
        <time>2019-12-01T14:21:16.000Z</time>
      </trkpt>
      <trkpt lat="14.76478" lon="-17.36998">
        <ele>63.12</ele>
        <time>2019-12-01T14:21:22.000Z</time>
      </trkpt>
      <trkpt lat="14.76473" lon="-17.37005">
        <ele>63.21</ele>
        <time>2019-12-01T14:21:38.000Z</time>
      </trkpt>
      <trkpt lat="14.76463" lon="-17.37015">
        <ele>63.28</ele>
        <time>2019-12-01T14:21:43.000Z</time>
      </trkpt>
      <trkpt lat="14.76455" lon="-17.37021">
        <ele>63.34</ele>
        <time>2019-12-01T14:21:48.000Z</time>
      </trkpt>
      <trkpt lat="14.76443" lon="-17.37027">
        <ele>63.4</ele>
        <time>2019-12-01T14:21:53.000Z</time>
      </trkpt>
      <trkpt lat="14.76431" lon="-17.37039">
        <ele>63.46</ele>
        <time>2019-12-01T14:21:58.000Z</time>
      </trkpt>
      <trkpt lat="14.76423" lon="-17.3705">
        <ele>63.51</ele>
        <time>2019-12-01T14:22:03.000Z</time>
      </trkpt>
      <trkpt lat="14.7642" lon="-17.3706">
        <ele>63.56</ele>
        <time>2019-12-01T14:22:09.000Z</time>
      </trkpt>
      <trkpt lat="14.76419" lon="-17.37071">
        <ele>63.61</ele>
        <time>2019-12-01T14:22:25.000Z</time>
      </trkpt>
      <trkpt lat="14.76421" lon="-17.37086">
        <ele>63.63</ele>
        <time>2019-12-01T14:22:30.000Z</time>
      </trkpt>
      <trkpt lat="14.76423" lon="-17.37097">
        <ele>63.65</ele>
        <time>2019-12-01T14:22:35.000Z</time>
      </trkpt>
      <trkpt lat="14.76427" lon="-17.3711">
        <ele>63.65</ele>
        <time>2019-12-01T14:22:40.000Z</time>
      </trkpt>
      <trkpt lat="14.76429" lon="-17.37124">
        <ele>63.65</ele>
        <time>2019-12-01T14:22:45.000Z</time>
      </trkpt>
      <trkpt lat="14.76433" lon="-17.37139">
        <ele>63.66</ele>
        <time>2019-12-01T14:22:50.000Z</time>
      </trkpt>
      <trkpt lat="14.76436" lon="-17.37157">
        <ele>63.66</ele>
        <time>2019-12-01T14:22:55.000Z</time>
      </trkpt>
      <trkpt lat="14.76441" lon="-17.37172">
        <ele>63.67</ele>
        <time>2019-12-01T14:23:00.000Z</time>
      </trkpt>
      <trkpt lat="14.76446" lon="-17.37189">
        <ele>63.67</ele>
        <time>2019-12-01T14:23:05.000Z</time>
      </trkpt>
      <trkpt lat="14.76452" lon="-17.37206">
        <ele>63.66</ele>
        <time>2019-12-01T14:23:10.000Z</time>
      </trkpt>
      <trkpt lat="14.76452" lon="-17.37222">
        <ele>63.64</ele>
        <time>2019-12-01T14:23:15.000Z</time>
      </trkpt>
      <trkpt lat="14.76449" lon="-17.37239">
        <ele>63.61</ele>
        <time>2019-12-01T14:23:20.000Z</time>
      </trkpt>
      <trkpt lat="14.76443" lon="-17.37257">
        <ele>63.5</ele>
        <time>2019-12-01T14:23:25.000Z</time>
      </trkpt>
      <trkpt lat="14.76435" lon="-17.37277">
        <ele>63.49</ele>
        <time>2019-12-01T14:23:30.000Z</time>
      </trkpt>
      <trkpt lat="14.76426" lon="-17.37299">
        <ele>63.64</ele>
        <time>2019-12-01T14:23:35.000Z</time>
      </trkpt>
      <trkpt lat="14.76416" lon="-17.37321">
        <ele>63.69</ele>
        <time>2019-12-01T14:23:40.000Z</time>
      </trkpt>
      <trkpt lat="14.76406" lon="-17.37341">
        <ele>63.68</ele>
        <time>2019-12-01T14:23:45.000Z</time>
      </trkpt>
      <trkpt lat="14.76396" lon="-17.37358">
        <ele>63.67</ele>
        <time>2019-12-01T14:23:50.000Z</time>
      </trkpt>
      <trkpt lat="14.76387" lon="-17.37374">
        <ele>63.66</ele>
        <time>2019-12-01T14:23:55.000Z</time>
      </trkpt>
      <trkpt lat="14.76381" lon="-17.37391">
        <ele>63.66</ele>
        <time>2019-12-01T14:24:00.000Z</time>
      </trkpt>
      <trkpt lat="14.76374" lon="-17.37409">
        <ele>63.67</ele>
        <time>2019-12-01T14:24:05.000Z</time>
      </trkpt>
      <trkpt lat="14.76365" lon="-17.37428">
        <ele>63.68</ele>
        <time>2019-12-01T14:24:10.000Z</time>
      </trkpt>
      <trkpt lat="14.76358" lon="-17.37448">
        <ele>63.69</ele>
        <time>2019-12-01T14:24:15.000Z</time>
      </trkpt>
      <trkpt lat="14.76348" lon="-17.37465">
        <ele>63.67</ele>
        <time>2019-12-01T14:24:20.000Z</time>
      </trkpt>
      <trkpt lat="14.76337" lon="-17.37482">
        <ele>63.68</ele>
        <time>2019-12-01T14:24:25.000Z</time>
      </trkpt>
      <trkpt lat="14.76325" lon="-17.375">
        <ele>63.71</ele>
        <time>2019-12-01T14:24:30.000Z</time>
      </trkpt>
      <trkpt lat="14.76316" lon="-17.37519">
        <ele>63.75</ele>
        <time>2019-12-01T14:24:35.000Z</time>
      </trkpt>
      <trkpt lat="14.76307" lon="-17.37539">
        <ele>63.78</ele>
        <time>2019-12-01T14:24:40.000Z</time>
      </trkpt>
      <trkpt lat="14.76296" lon="-17.37558">
        <ele>63.75</ele>
        <time>2019-12-01T14:24:45.000Z</time>
      </trkpt>
      <trkpt lat="14.76285" lon="-17.37576">
        <ele>63.76</ele>
        <time>2019-12-01T14:24:50.000Z</time>
      </trkpt>
      <trkpt lat="14.76275" lon="-17.37596">
        <ele>63.75</ele>
        <time>2019-12-01T14:24:55.000Z</time>
      </trkpt>
      <trkpt lat="14.76264" lon="-17.37615">
        <ele>63.77</ele>
        <time>2019-12-01T14:25:00.000Z</time>
      </trkpt>
      <trkpt lat="14.76254" lon="-17.37636">
        <ele>63.8</ele>
        <time>2019-12-01T14:25:05.000Z</time>
      </trkpt>
      <trkpt lat="14.76245" lon="-17.37654">
        <ele>63.83</ele>
        <time>2019-12-01T14:25:10.000Z</time>
      </trkpt>
      <trkpt lat="14.76237" lon="-17.37674">
        <ele>63.84</ele>
        <time>2019-12-01T14:25:15.000Z</time>
      </trkpt>
      <trkpt lat="14.76228" lon="-17.37691">
        <ele>63.85</ele>
        <time>2019-12-01T14:25:20.000Z</time>
      </trkpt>
      <trkpt lat="14.76218" lon="-17.37709">
        <ele>63.88</ele>
        <time>2019-12-01T14:25:25.000Z</time>
      </trkpt>
      <trkpt lat="14.76208" lon="-17.37727">
        <ele>63.88</ele>
        <time>2019-12-01T14:25:30.000Z</time>
      </trkpt>
      <trkpt lat="14.76199" lon="-17.37742">
        <ele>63.88</ele>
        <time>2019-12-01T14:25:35.000Z</time>
      </trkpt>
      <trkpt lat="14.76191" lon="-17.37757">
        <ele>63.87</ele>
        <time>2019-12-01T14:25:40.000Z</time>
      </trkpt>
      <trkpt lat="14.76182" lon="-17.37772">
        <ele>63.87</ele>
        <time>2019-12-01T14:25:45.000Z</time>
      </trkpt>
      <trkpt lat="14.76173" lon="-17.37787">
        <ele>63.88</ele>
        <time>2019-12-01T14:25:50.000Z</time>
      </trkpt>
      <trkpt lat="14.76162" lon="-17.37806">
        <ele>63.94</ele>
        <time>2019-12-01T14:25:55.000Z</time>
      </trkpt>
      <trkpt lat="14.76149" lon="-17.37831">
        <ele>63.98</ele>
        <time>2019-12-01T14:26:00.000Z</time>
      </trkpt>
      <trkpt lat="14.76141" lon="-17.37851">
        <ele>64.01</ele>
        <time>2019-12-01T14:26:05.000Z</time>
      </trkpt>
      <trkpt lat="14.76132" lon="-17.37867">
        <ele>64.06</ele>
        <time>2019-12-01T14:26:10.000Z</time>
      </trkpt>
      <trkpt lat="14.76122" lon="-17.37883">
        <ele>64.07</ele>
        <time>2019-12-01T14:26:15.000Z</time>
      </trkpt>
      <trkpt lat="14.76112" lon="-17.37901">
        <ele>64.13</ele>
        <time>2019-12-01T14:26:20.000Z</time>
      </trkpt>
      <trkpt lat="14.76107" lon="-17.37916">
        <ele>64.15</ele>
        <time>2019-12-01T14:26:25.000Z</time>
      </trkpt>
      <trkpt lat="14.76102" lon="-17.37927">
        <ele>64.17</ele>
        <time>2019-12-01T14:26:30.000Z</time>
      </trkpt>
      <trkpt lat="14.76097" lon="-17.37936">
        <ele>64.2</ele>
        <time>2019-12-01T14:26:36.000Z</time>
      </trkpt>
      <trkpt lat="14.76091" lon="-17.37951">
        <ele>64.22</ele>
        <time>2019-12-01T14:26:41.000Z</time>
      </trkpt>
      <trkpt lat="14.76081" lon="-17.37966">
        <ele>64.3</ele>
        <time>2019-12-01T14:26:46.000Z</time>
      </trkpt>
      <trkpt lat="14.76072" lon="-17.37984">
        <ele>64.32</ele>
        <time>2019-12-01T14:26:51.000Z</time>
      </trkpt>
      <trkpt lat="14.76063" lon="-17.38001">
        <ele>64.34</ele>
        <time>2019-12-01T14:26:56.000Z</time>
      </trkpt>
      <trkpt lat="14.76054" lon="-17.3802">
        <ele>64.33</ele>
        <time>2019-12-01T14:27:01.000Z</time>
      </trkpt>
      <trkpt lat="14.76044" lon="-17.3804">
        <ele>64.28</ele>
        <time>2019-12-01T14:27:06.000Z</time>
      </trkpt>
      <trkpt lat="14.76032" lon="-17.38059">
        <ele>64.24</ele>
        <time>2019-12-01T14:27:11.000Z</time>
      </trkpt>
      <trkpt lat="14.76023" lon="-17.38076">
        <ele>64.21</ele>
        <time>2019-12-01T14:27:16.000Z</time>
      </trkpt>
      <trkpt lat="14.76012" lon="-17.38097">
        <ele>64.16</ele>
        <time>2019-12-01T14:27:21.000Z</time>
      </trkpt>
      <trkpt lat="14.76" lon="-17.38117">
        <ele>64.14</ele>
        <time>2019-12-01T14:27:26.000Z</time>
      </trkpt>
      <trkpt lat="14.75989" lon="-17.38137">
        <ele>64.08</ele>
        <time>2019-12-01T14:27:31.000Z</time>
      </trkpt>
      <trkpt lat="14.75978" lon="-17.38155">
        <ele>64</ele>
        <time>2019-12-01T14:27:36.000Z</time>
      </trkpt>
      <trkpt lat="14.75967" lon="-17.38176">
        <ele>63.99</ele>
        <time>2019-12-01T14:27:41.000Z</time>
      </trkpt>
      <trkpt lat="14.75961" lon="-17.38189">
        <ele>63.99</ele>
        <time>2019-12-01T14:27:46.000Z</time>
      </trkpt>
      <trkpt lat="14.7597" lon="-17.38207">
        <ele>63.92</ele>
        <time>2019-12-01T14:27:51.000Z</time>
      </trkpt>
      <trkpt lat="14.75982" lon="-17.3823">
        <ele>63.84</ele>
        <time>2019-12-01T14:27:56.000Z</time>
      </trkpt>
      <trkpt lat="14.75991" lon="-17.38255">
        <ele>63.77</ele>
        <time>2019-12-01T14:28:01.000Z</time>
      </trkpt>
      <trkpt lat="14.76" lon="-17.3828">
        <ele>63.69</ele>
        <time>2019-12-01T14:28:06.000Z</time>
      </trkpt>
      <trkpt lat="14.76009" lon="-17.38303">
        <ele>63.66</ele>
        <time>2019-12-01T14:28:11.000Z</time>
      </trkpt>
      <trkpt lat="14.76017" lon="-17.38325">
        <ele>63.64</ele>
        <time>2019-12-01T14:28:16.000Z</time>
      </trkpt>
      <trkpt lat="14.76026" lon="-17.38345">
        <ele>63.72</ele>
        <time>2019-12-01T14:28:21.000Z</time>
      </trkpt>
      <trkpt lat="14.76038" lon="-17.38367">
        <ele>63.78</ele>
        <time>2019-12-01T14:28:26.000Z</time>
      </trkpt>
      <trkpt lat="14.76051" lon="-17.3839">
        <ele>63.7</ele>
        <time>2019-12-01T14:28:31.000Z</time>
      </trkpt>
      <trkpt lat="14.76066" lon="-17.38414">
        <ele>63.7</ele>
        <time>2019-12-01T14:28:36.000Z</time>
      </trkpt>
      <trkpt lat="14.76082" lon="-17.38439">
        <ele>63.79</ele>
        <time>2019-12-01T14:28:41.000Z</time>
      </trkpt>
      <trkpt lat="14.76095" lon="-17.38464">
        <ele>63.95</ele>
        <time>2019-12-01T14:28:46.000Z</time>
      </trkpt>
      <trkpt lat="14.76108" lon="-17.38483">
        <ele>64.11</ele>
        <time>2019-12-01T14:28:50.999Z</time>
      </trkpt>
      <trkpt lat="14.76114" lon="-17.38495">
        <ele>64.16</ele>
        <time>2019-12-01T14:28:55.999Z</time>
      </trkpt>
      <trkpt lat="14.76123" lon="-17.38509">
        <ele>64.23</ele>
        <time>2019-12-01T14:29:00.999Z</time>
      </trkpt>
      <trkpt lat="14.76132" lon="-17.38527">
        <ele>64.54</ele>
        <time>2019-12-01T14:29:05.999Z</time>
      </trkpt>
      <trkpt lat="14.76142" lon="-17.38544">
        <ele>64.75</ele>
        <time>2019-12-01T14:29:10.999Z</time>
      </trkpt>
      <trkpt lat="14.76153" lon="-17.3856">
        <ele>65.16</ele>
        <time>2019-12-01T14:29:15.999Z</time>
      </trkpt>
      <trkpt lat="14.76158" lon="-17.38576">
        <ele>65.24</ele>
        <time>2019-12-01T14:29:20.999Z</time>
      </trkpt>
      <trkpt lat="14.76154" lon="-17.38586">
        <ele>65.25</ele>
        <time>2019-12-01T14:29:25.999Z</time>
      </trkpt>
      <trkpt lat="14.76147" lon="-17.38593">
        <ele>65.3</ele>
        <time>2019-12-01T14:29:49.999Z</time>
      </trkpt>
      <trkpt lat="14.76133" lon="-17.38602">
        <ele>65.35</ele>
        <time>2019-12-01T14:29:54.999Z</time>
      </trkpt>
      <trkpt lat="14.76118" lon="-17.38614">
        <ele>65.4</ele>
        <time>2019-12-01T14:29:59.999Z</time>
      </trkpt>
      <trkpt lat="14.76102" lon="-17.38625">
        <ele>65.62</ele>
        <time>2019-12-01T14:30:04.999Z</time>
      </trkpt>
      <trkpt lat="14.76087" lon="-17.38636">
        <ele>65.86</ele>
        <time>2019-12-01T14:30:09.999Z</time>
      </trkpt>
      <trkpt lat="14.76072" lon="-17.38648">
        <ele>65.88</ele>
        <time>2019-12-01T14:30:14.999Z</time>
      </trkpt>
      <trkpt lat="14.76055" lon="-17.38661">
        <ele>65.97</ele>
        <time>2019-12-01T14:30:19.999Z</time>
      </trkpt>
      <trkpt lat="14.76044" lon="-17.38672">
        <ele>66</ele>
        <time>2019-12-01T14:30:24.999Z</time>
      </trkpt>
      <trkpt lat="14.76034" lon="-17.38679">
        <ele>65.99</ele>
        <time>2019-12-01T14:30:29.999Z</time>
      </trkpt>
      <trkpt lat="14.76018" lon="-17.38691">
        <ele>65.9</ele>
        <time>2019-12-01T14:30:34.999Z</time>
      </trkpt>
      <trkpt lat="14.76004" lon="-17.38701">
        <ele>65.86</ele>
        <time>2019-12-01T14:30:39.999Z</time>
      </trkpt>
      <trkpt lat="14.75989" lon="-17.38712">
        <ele>65.83</ele>
        <time>2019-12-01T14:30:44.999Z</time>
      </trkpt>
      <trkpt lat="14.75974" lon="-17.38725">
        <ele>65.58</ele>
        <time>2019-12-01T14:30:49.999Z</time>
      </trkpt>
      <trkpt lat="14.75959" lon="-17.38738">
        <ele>65.36</ele>
        <time>2019-12-01T14:30:54.999Z</time>
      </trkpt>
      <trkpt lat="14.75943" lon="-17.38751">
        <ele>65.29</ele>
        <time>2019-12-01T14:30:59.999Z</time>
      </trkpt>
      <trkpt lat="14.75925" lon="-17.38765">
        <ele>65.27</ele>
        <time>2019-12-01T14:31:04.999Z</time>
      </trkpt>
      <trkpt lat="14.75908" lon="-17.38777">
        <ele>65.4</ele>
        <time>2019-12-01T14:31:09.999Z</time>
      </trkpt>
      <trkpt lat="14.75892" lon="-17.3879">
        <ele>65.68</ele>
        <time>2019-12-01T14:31:14.999Z</time>
      </trkpt>
      <trkpt lat="14.75878" lon="-17.38801">
        <ele>65.76</ele>
        <time>2019-12-01T14:31:19.999Z</time>
      </trkpt>
      <trkpt lat="14.75864" lon="-17.38813">
        <ele>65.81</ele>
        <time>2019-12-01T14:31:24.999Z</time>
      </trkpt>
      <trkpt lat="14.75848" lon="-17.38827">
        <ele>65.89</ele>
        <time>2019-12-01T14:31:29.999Z</time>
      </trkpt>
      <trkpt lat="14.75831" lon="-17.38842">
        <ele>65.91</ele>
        <time>2019-12-01T14:31:34.999Z</time>
      </trkpt>
      <trkpt lat="14.75814" lon="-17.38854">
        <ele>65.85</ele>
        <time>2019-12-01T14:31:39.999Z</time>
      </trkpt>
      <trkpt lat="14.75799" lon="-17.38868">
        <ele>65.79</ele>
        <time>2019-12-01T14:31:44.999Z</time>
      </trkpt>
      <trkpt lat="14.75783" lon="-17.3888">
        <ele>65.75</ele>
        <time>2019-12-01T14:31:49.999Z</time>
      </trkpt>
      <trkpt lat="14.75767" lon="-17.38892">
        <ele>65.71</ele>
        <time>2019-12-01T14:31:54.999Z</time>
      </trkpt>
      <trkpt lat="14.75749" lon="-17.38903">
        <ele>65.6</ele>
        <time>2019-12-01T14:31:59.999Z</time>
      </trkpt>
      <trkpt lat="14.75731" lon="-17.38918">
        <ele>65.44</ele>
        <time>2019-12-01T14:32:04.999Z</time>
      </trkpt>
      <trkpt lat="14.75712" lon="-17.3893">
        <ele>65.32</ele>
        <time>2019-12-01T14:32:09.999Z</time>
      </trkpt>
      <trkpt lat="14.75695" lon="-17.38942">
        <ele>65.18</ele>
        <time>2019-12-01T14:32:14.999Z</time>
      </trkpt>
      <trkpt lat="14.75679" lon="-17.38953">
        <ele>65.12</ele>
        <time>2019-12-01T14:32:19.999Z</time>
      </trkpt>
      <trkpt lat="14.75662" lon="-17.38964">
        <ele>65.06</ele>
        <time>2019-12-01T14:32:24.999Z</time>
      </trkpt>
      <trkpt lat="14.75646" lon="-17.38978">
        <ele>65</ele>
        <time>2019-12-01T14:32:29.999Z</time>
      </trkpt>
      <trkpt lat="14.75629" lon="-17.38992">
        <ele>64.95</ele>
        <time>2019-12-01T14:32:34.999Z</time>
      </trkpt>
      <trkpt lat="14.7561" lon="-17.39006">
        <ele>64.89</ele>
        <time>2019-12-01T14:32:39.999Z</time>
      </trkpt>
      <trkpt lat="14.75594" lon="-17.39019">
        <ele>64.84</ele>
        <time>2019-12-01T14:32:44.999Z</time>
      </trkpt>
      <trkpt lat="14.7558" lon="-17.3903">
        <ele>64.8</ele>
        <time>2019-12-01T14:32:49.999Z</time>
      </trkpt>
      <trkpt lat="14.75568" lon="-17.39038">
        <ele>64.79</ele>
        <time>2019-12-01T14:32:54.999Z</time>
      </trkpt>
      <trkpt lat="14.75559" lon="-17.39042">
        <ele>64.77</ele>
        <time>2019-12-01T14:33:01.999Z</time>
      </trkpt>
      <trkpt lat="14.75551" lon="-17.39046">
        <ele>64.77</ele>
        <time>2019-12-01T14:33:07.999Z</time>
      </trkpt>
      <trkpt lat="14.75543" lon="-17.39053">
        <ele>64.77</ele>
        <time>2019-12-01T14:33:12.999Z</time>
      </trkpt>
      <trkpt lat="14.75535" lon="-17.3906">
        <ele>64.76</ele>
        <time>2019-12-01T14:33:17.999Z</time>
      </trkpt>
      <trkpt lat="14.75527" lon="-17.39067">
        <ele>64.76</ele>
        <time>2019-12-01T14:33:22.999Z</time>
      </trkpt>
      <trkpt lat="14.75516" lon="-17.39075">
        <ele>64.76</ele>
        <time>2019-12-01T14:33:27.999Z</time>
      </trkpt>
      <trkpt lat="14.75506" lon="-17.39084">
        <ele>64.75</ele>
        <time>2019-12-01T14:33:32.999Z</time>
      </trkpt>
      <trkpt lat="14.75493" lon="-17.39096">
        <ele>64.74</ele>
        <time>2019-12-01T14:33:37.999Z</time>
      </trkpt>
      <trkpt lat="14.75479" lon="-17.39108">
        <ele>64.68</ele>
        <time>2019-12-01T14:33:42.999Z</time>
      </trkpt>
      <trkpt lat="14.75462" lon="-17.39121">
        <ele>64.56</ele>
        <time>2019-12-01T14:33:47.999Z</time>
      </trkpt>
      <trkpt lat="14.75444" lon="-17.39133">
        <ele>64.48</ele>
        <time>2019-12-01T14:33:52.999Z</time>
      </trkpt>
      <trkpt lat="14.75425" lon="-17.39146">
        <ele>64.43</ele>
        <time>2019-12-01T14:33:57.999Z</time>
      </trkpt>
      <trkpt lat="14.75405" lon="-17.3916">
        <ele>64.38</ele>
        <time>2019-12-01T14:34:02.999Z</time>
      </trkpt>
      <trkpt lat="14.75385" lon="-17.39174">
        <ele>64.3</ele>
        <time>2019-12-01T14:34:07.999Z</time>
      </trkpt>
      <trkpt lat="14.75366" lon="-17.39188">
        <ele>64.22</ele>
        <time>2019-12-01T14:34:12.999Z</time>
      </trkpt>
      <trkpt lat="14.75358" lon="-17.39192">
        <ele>64.21</ele>
        <time>2019-12-01T14:34:17.999Z</time>
      </trkpt>
      <trkpt lat="14.75348" lon="-17.39198">
        <ele>64.18</ele>
        <time>2019-12-01T14:34:28.999Z</time>
      </trkpt>
      <trkpt lat="14.75343" lon="-17.39206">
        <ele>64.16</ele>
        <time>2019-12-01T14:34:33.999Z</time>
      </trkpt>
      <trkpt lat="14.75335" lon="-17.39209">
        <ele>64.12</ele>
        <time>2019-12-01T14:34:41.999Z</time>
      </trkpt>
      <trkpt lat="14.75326" lon="-17.39214">
        <ele>64.07</ele>
        <time>2019-12-01T14:34:52.999Z</time>
      </trkpt>
      <trkpt lat="14.75311" lon="-17.39221">
        <ele>64.04</ele>
        <time>2019-12-01T14:34:57.999Z</time>
      </trkpt>
      <trkpt lat="14.75294" lon="-17.39233">
        <ele>63.98</ele>
        <time>2019-12-01T14:35:02.999Z</time>
      </trkpt>
      <trkpt lat="14.75276" lon="-17.39247">
        <ele>63.9</ele>
        <time>2019-12-01T14:35:07.999Z</time>
      </trkpt>
      <trkpt lat="14.75258" lon="-17.3926">
        <ele>63.83</ele>
        <time>2019-12-01T14:35:12.999Z</time>
      </trkpt>
      <trkpt lat="14.7524" lon="-17.39274">
        <ele>63.8</ele>
        <time>2019-12-01T14:35:17.999Z</time>
      </trkpt>
      <trkpt lat="14.75225" lon="-17.39286">
        <ele>63.8</ele>
        <time>2019-12-01T14:35:22.999Z</time>
      </trkpt>
      <trkpt lat="14.75208" lon="-17.39297">
        <ele>63.79</ele>
        <time>2019-12-01T14:35:27.999Z</time>
      </trkpt>
      <trkpt lat="14.75191" lon="-17.39311">
        <ele>63.77</ele>
        <time>2019-12-01T14:35:32.999Z</time>
      </trkpt>
      <trkpt lat="14.75173" lon="-17.39324">
        <ele>63.77</ele>
        <time>2019-12-01T14:35:37.999Z</time>
      </trkpt>
      <trkpt lat="14.75155" lon="-17.39337">
        <ele>63.72</ele>
        <time>2019-12-01T14:35:42.999Z</time>
      </trkpt>
      <trkpt lat="14.75139" lon="-17.3935">
        <ele>63.65</ele>
        <time>2019-12-01T14:35:47.999Z</time>
      </trkpt>
      <trkpt lat="14.75122" lon="-17.39363">
        <ele>63.59</ele>
        <time>2019-12-01T14:35:52.999Z</time>
      </trkpt>
      <trkpt lat="14.75105" lon="-17.39376">
        <ele>63.57</ele>
        <time>2019-12-01T14:35:57.999Z</time>
      </trkpt>
      <trkpt lat="14.75088" lon="-17.39388">
        <ele>63.48</ele>
        <time>2019-12-01T14:36:02.999Z</time>
      </trkpt>
      <trkpt lat="14.75073" lon="-17.39399">
        <ele>63.41</ele>
        <time>2019-12-01T14:36:07.999Z</time>
      </trkpt>
      <trkpt lat="14.75065" lon="-17.39404">
        <ele>63.37</ele>
        <time>2019-12-01T14:36:26.999Z</time>
      </trkpt>
      <trkpt lat="14.75057" lon="-17.39412">
        <ele>63.34</ele>
        <time>2019-12-01T14:36:31.999Z</time>
      </trkpt>
      <trkpt lat="14.75048" lon="-17.39417">
        <ele>63.26</ele>
        <time>2019-12-01T14:36:47.999Z</time>
      </trkpt>
      <trkpt lat="14.75034" lon="-17.39429">
        <ele>63.22</ele>
        <time>2019-12-01T14:36:52.999Z</time>
      </trkpt>
      <trkpt lat="14.75016" lon="-17.39443">
        <ele>62.87</ele>
        <time>2019-12-01T14:36:57.999Z</time>
      </trkpt>
      <trkpt lat="14.74997" lon="-17.39457">
        <ele>62.71</ele>
        <time>2019-12-01T14:37:02.999Z</time>
      </trkpt>
      <trkpt lat="14.74979" lon="-17.39469">
        <ele>62.67</ele>
        <time>2019-12-01T14:37:07.999Z</time>
      </trkpt>
      <trkpt lat="14.74967" lon="-17.39477">
        <ele>62.67</ele>
        <time>2019-12-01T14:37:12.999Z</time>
      </trkpt>
      <trkpt lat="14.74955" lon="-17.39486">
        <ele>62.65</ele>
        <time>2019-12-01T14:37:17.999Z</time>
      </trkpt>
      <trkpt lat="14.7494" lon="-17.39502">
        <ele>62.53</ele>
        <time>2019-12-01T14:37:22.999Z</time>
      </trkpt>
      <trkpt lat="14.74922" lon="-17.39517">
        <ele>62.42</ele>
        <time>2019-12-01T14:37:27.999Z</time>
      </trkpt>
      <trkpt lat="14.74903" lon="-17.39532">
        <ele>62.31</ele>
        <time>2019-12-01T14:37:32.999Z</time>
      </trkpt>
      <trkpt lat="14.74893" lon="-17.39553">
        <ele>62.27</ele>
        <time>2019-12-01T14:37:37.999Z</time>
      </trkpt>
      <trkpt lat="14.74885" lon="-17.39574">
        <ele>62.27</ele>
        <time>2019-12-01T14:37:42.999Z</time>
      </trkpt>
      <trkpt lat="14.74867" lon="-17.39592">
        <ele>62.22</ele>
        <time>2019-12-01T14:37:47.999Z</time>
      </trkpt>
      <trkpt lat="14.74846" lon="-17.39605">
        <ele>62.16</ele>
        <time>2019-12-01T14:37:52.999Z</time>
      </trkpt>
      <trkpt lat="14.74826" lon="-17.39622">
        <ele>62.1</ele>
        <time>2019-12-01T14:37:57.999Z</time>
      </trkpt>
      <trkpt lat="14.74806" lon="-17.39637">
        <ele>62.04</ele>
        <time>2019-12-01T14:38:02.999Z</time>
      </trkpt>
      <trkpt lat="14.74793" lon="-17.39657">
        <ele>61.94</ele>
        <time>2019-12-01T14:38:07.999Z</time>
      </trkpt>
      <trkpt lat="14.74788" lon="-17.39676">
        <ele>61.87</ele>
        <time>2019-12-01T14:38:12.999Z</time>
      </trkpt>
      <trkpt lat="14.74784" lon="-17.39697">
        <ele>61.89</ele>
        <time>2019-12-01T14:38:17.999Z</time>
      </trkpt>
      <trkpt lat="14.7478" lon="-17.39718">
        <ele>61.87</ele>
        <time>2019-12-01T14:38:22.999Z</time>
      </trkpt>
      <trkpt lat="14.74776" lon="-17.39741">
        <ele>61.88</ele>
        <time>2019-12-01T14:38:27.999Z</time>
      </trkpt>
      <trkpt lat="14.74772" lon="-17.39765">
        <ele>61.92</ele>
        <time>2019-12-01T14:38:32.999Z</time>
      </trkpt>
      <trkpt lat="14.74768" lon="-17.39788">
        <ele>61.95</ele>
        <time>2019-12-01T14:38:37.999Z</time>
      </trkpt>
      <trkpt lat="14.74765" lon="-17.39808">
        <ele>61.98</ele>
        <time>2019-12-01T14:38:42.999Z</time>
      </trkpt>
      <trkpt lat="14.74762" lon="-17.39826">
        <ele>61.98</ele>
        <time>2019-12-01T14:38:47.999Z</time>
      </trkpt>
      <trkpt lat="14.74763" lon="-17.39843">
        <ele>61.99</ele>
        <time>2019-12-01T14:38:52.999Z</time>
      </trkpt>
      <trkpt lat="14.74767" lon="-17.39862">
        <ele>61.99</ele>
        <time>2019-12-01T14:38:57.999Z</time>
      </trkpt>
      <trkpt lat="14.74769" lon="-17.39881">
        <ele>62.01</ele>
        <time>2019-12-01T14:39:02.999Z</time>
      </trkpt>
      <trkpt lat="14.74771" lon="-17.39893">
        <ele>62.03</ele>
        <time>2019-12-01T14:39:07.999Z</time>
      </trkpt>
      <trkpt lat="14.74771" lon="-17.39907">
        <ele>62.04</ele>
        <time>2019-12-01T14:39:12.999Z</time>
      </trkpt>
      <trkpt lat="14.74771" lon="-17.39921">
        <ele>62.08</ele>
        <time>2019-12-01T14:39:17.999Z</time>
      </trkpt>
      <trkpt lat="14.74767" lon="-17.39933">
        <ele>62.12</ele>
        <time>2019-12-01T14:39:22.999Z</time>
      </trkpt>
      <trkpt lat="14.74759" lon="-17.3994">
        <ele>62.17</ele>
        <time>2019-12-01T14:39:27.999Z</time>
      </trkpt>
      <trkpt lat="14.74751" lon="-17.39947">
        <ele>62.2</ele>
        <time>2019-12-01T14:39:47.999Z</time>
      </trkpt>
      <trkpt lat="14.74744" lon="-17.39952">
        <ele>62.11</ele>
        <time>2019-12-01T14:40:05.999Z</time>
      </trkpt>
      <trkpt lat="14.74735" lon="-17.39956">
        <ele>62</ele>
        <time>2019-12-01T14:40:13.999Z</time>
      </trkpt>
      <trkpt lat="14.74727" lon="-17.39961">
        <ele>61.85</ele>
        <time>2019-12-01T14:40:21.999Z</time>
      </trkpt>
      <trkpt lat="14.74718" lon="-17.39966">
        <ele>61.76</ele>
        <time>2019-12-01T14:40:26.999Z</time>
      </trkpt>
      <trkpt lat="14.74707" lon="-17.39972">
        <ele>61.68</ele>
        <time>2019-12-01T14:40:31.999Z</time>
      </trkpt>
      <trkpt lat="14.74692" lon="-17.39986">
        <ele>61.4</ele>
        <time>2019-12-01T14:40:36.999Z</time>
      </trkpt>
      <trkpt lat="14.74678" lon="-17.39999">
        <ele>61.23</ele>
        <time>2019-12-01T14:40:41.999Z</time>
      </trkpt>
      <trkpt lat="14.74663" lon="-17.4001">
        <ele>61.2</ele>
        <time>2019-12-01T14:40:46.999Z</time>
      </trkpt>
      <trkpt lat="14.74648" lon="-17.40022">
        <ele>61.13</ele>
        <time>2019-12-01T14:40:51.999Z</time>
      </trkpt>
      <trkpt lat="14.74631" lon="-17.40035">
        <ele>61.04</ele>
        <time>2019-12-01T14:40:56.999Z</time>
      </trkpt>
      <trkpt lat="14.74612" lon="-17.40051">
        <ele>61.07</ele>
        <time>2019-12-01T14:41:01.999Z</time>
      </trkpt>
      <trkpt lat="14.74594" lon="-17.40065">
        <ele>61.12</ele>
        <time>2019-12-01T14:41:06.999Z</time>
      </trkpt>
      <trkpt lat="14.74582" lon="-17.40072">
        <ele>61.13</ele>
        <time>2019-12-01T14:41:11.999Z</time>
      </trkpt>
      <trkpt lat="14.74574" lon="-17.4008">
        <ele>61.18</ele>
        <time>2019-12-01T14:41:34.999Z</time>
      </trkpt>
      <trkpt lat="14.74564" lon="-17.40089">
        <ele>61.19</ele>
        <time>2019-12-01T14:41:39.999Z</time>
      </trkpt>
      <trkpt lat="14.74557" lon="-17.40098">
        <ele>61.19</ele>
        <time>2019-12-01T14:41:46.999Z</time>
      </trkpt>
      <trkpt lat="14.74547" lon="-17.40109">
        <ele>61.19</ele>
        <time>2019-12-01T14:41:51.999Z</time>
      </trkpt>
      <trkpt lat="14.74535" lon="-17.40119">
        <ele>61.18</ele>
        <time>2019-12-01T14:41:56.999Z</time>
      </trkpt>
      <trkpt lat="14.74521" lon="-17.4013">
        <ele>61.17</ele>
        <time>2019-12-01T14:42:01.999Z</time>
      </trkpt>
      <trkpt lat="14.74513" lon="-17.40134">
        <ele>61.16</ele>
        <time>2019-12-01T14:42:06.999Z</time>
      </trkpt>
      <trkpt lat="14.74503" lon="-17.40139">
        <ele>61.13</ele>
        <time>2019-12-01T14:42:11.999Z</time>
      </trkpt>
      <trkpt lat="14.74489" lon="-17.4015">
        <ele>61.11</ele>
        <time>2019-12-01T14:42:16.999Z</time>
      </trkpt>
      <trkpt lat="14.74477" lon="-17.40159">
        <ele>61.08</ele>
        <time>2019-12-01T14:42:21.999Z</time>
      </trkpt>
      <trkpt lat="14.74465" lon="-17.40171">
        <ele>60.95</ele>
        <time>2019-12-01T14:42:26.999Z</time>
      </trkpt>
      <trkpt lat="14.74451" lon="-17.40183">
        <ele>60.71</ele>
        <time>2019-12-01T14:42:31.999Z</time>
      </trkpt>
      <trkpt lat="14.74436" lon="-17.40196">
        <ele>60.47</ele>
        <time>2019-12-01T14:42:36.999Z</time>
      </trkpt>
      <trkpt lat="14.74419" lon="-17.40208">
        <ele>60.19</ele>
        <time>2019-12-01T14:42:42.000Z</time>
      </trkpt>
      <trkpt lat="14.744" lon="-17.40223">
        <ele>60.02</ele>
        <time>2019-12-01T14:42:47.000Z</time>
      </trkpt>
      <trkpt lat="14.74378" lon="-17.40236">
        <ele>59.74</ele>
        <time>2019-12-01T14:42:52.000Z</time>
      </trkpt>
      <trkpt lat="14.7436" lon="-17.4025">
        <ele>59.56</ele>
        <time>2019-12-01T14:42:57.000Z</time>
      </trkpt>
      <trkpt lat="14.74344" lon="-17.4026">
        <ele>59.51</ele>
        <time>2019-12-01T14:43:02.000Z</time>
      </trkpt>
      <trkpt lat="14.74332" lon="-17.40268">
        <ele>59.48</ele>
        <time>2019-12-01T14:43:07.000Z</time>
      </trkpt>
      <trkpt lat="14.7432" lon="-17.40277">
        <ele>59.45</ele>
        <time>2019-12-01T14:43:12.000Z</time>
      </trkpt>
      <trkpt lat="14.74308" lon="-17.40287">
        <ele>59.44</ele>
        <time>2019-12-01T14:43:17.000Z</time>
      </trkpt>
      <trkpt lat="14.74294" lon="-17.40298">
        <ele>59.43</ele>
        <time>2019-12-01T14:43:22.000Z</time>
      </trkpt>
      <trkpt lat="14.74278" lon="-17.40311">
        <ele>59.5</ele>
        <time>2019-12-01T14:43:27.000Z</time>
      </trkpt>
      <trkpt lat="14.74253" lon="-17.40332">
        <ele>59.37</ele>
        <time>2019-12-01T14:43:32.000Z</time>
      </trkpt>
      <trkpt lat="14.7422" lon="-17.40354">
        <ele>58.8</ele>
        <time>2019-12-01T14:43:37.000Z</time>
      </trkpt>
      <trkpt lat="14.74183" lon="-17.40375">
        <ele>58.05</ele>
        <time>2019-12-01T14:43:42.000Z</time>
      </trkpt>
      <trkpt lat="14.74145" lon="-17.40388">
        <ele>57.21</ele>
        <time>2019-12-01T14:43:47.000Z</time>
      </trkpt>
      <trkpt lat="14.74112" lon="-17.40402">
        <ele>56.77</ele>
        <time>2019-12-01T14:43:52.000Z</time>
      </trkpt>
      <trkpt lat="14.74083" lon="-17.40418">
        <ele>56.27</ele>
        <time>2019-12-01T14:43:57.000Z</time>
      </trkpt>
      <trkpt lat="14.74056" lon="-17.40431">
        <ele>55.21</ele>
        <time>2019-12-01T14:44:02.000Z</time>
      </trkpt>
      <trkpt lat="14.74031" lon="-17.40442">
        <ele>54.38</ele>
        <time>2019-12-01T14:44:07.000Z</time>
      </trkpt>
      <trkpt lat="14.7401" lon="-17.40456">
        <ele>53.4</ele>
        <time>2019-12-01T14:44:12.000Z</time>
      </trkpt>
      <trkpt lat="14.73991" lon="-17.40466">
        <ele>52.37</ele>
        <time>2019-12-01T14:44:17.000Z</time>
      </trkpt>
      <trkpt lat="14.73982" lon="-17.4047">
        <ele>52.12</ele>
        <time>2019-12-01T14:44:23.000Z</time>
      </trkpt>
      <trkpt lat="14.73988" lon="-17.40462">
        <ele>52.06</ele>
        <time>2019-12-01T14:48:08.000Z</time>
      </trkpt>
      <trkpt lat="14.74002" lon="-17.40455">
        <ele>52.13</ele>
        <time>2019-12-01T14:48:13.000Z</time>
      </trkpt>
      <trkpt lat="14.74016" lon="-17.40445">
        <ele>52.19</ele>
        <time>2019-12-01T14:48:18.000Z</time>
      </trkpt>
      <trkpt lat="14.7403" lon="-17.40435">
        <ele>52.25</ele>
        <time>2019-12-01T14:48:23.000Z</time>
      </trkpt>
      <trkpt lat="14.74041" lon="-17.40427">
        <ele>52.27</ele>
        <time>2019-12-01T14:48:28.000Z</time>
      </trkpt>
      <trkpt lat="14.74056" lon="-17.40418">
        <ele>52.23</ele>
        <time>2019-12-01T14:48:33.000Z</time>
      </trkpt>
      <trkpt lat="14.74071" lon="-17.4041">
        <ele>52.17</ele>
        <time>2019-12-01T14:48:38.000Z</time>
      </trkpt>
      <trkpt lat="14.74085" lon="-17.40402">
        <ele>52.07</ele>
        <time>2019-12-01T14:48:43.000Z</time>
      </trkpt>
      <trkpt lat="14.741" lon="-17.40393">
        <ele>51.95</ele>
        <time>2019-12-01T14:48:48.000Z</time>
      </trkpt>
      <trkpt lat="14.74113" lon="-17.40385">
        <ele>51.79</ele>
        <time>2019-12-01T14:48:53.000Z</time>
      </trkpt>
      <trkpt lat="14.74128" lon="-17.40377">
        <ele>51.59</ele>
        <time>2019-12-01T14:48:58.000Z</time>
      </trkpt>
      <trkpt lat="14.74141" lon="-17.40366">
        <ele>51.37</ele>
        <time>2019-12-01T14:49:03.000Z</time>
      </trkpt>
      <trkpt lat="14.74155" lon="-17.40357">
        <ele>51.16</ele>
        <time>2019-12-01T14:49:08.000Z</time>
      </trkpt>
      <trkpt lat="14.7417" lon="-17.40352">
        <ele>50.96</ele>
        <time>2019-12-01T14:49:13.000Z</time>
      </trkpt>
      <trkpt lat="14.74183" lon="-17.40347">
        <ele>50.78</ele>
        <time>2019-12-01T14:49:18.000Z</time>
      </trkpt>
      <trkpt lat="14.74197" lon="-17.40341">
        <ele>50.58</ele>
        <time>2019-12-01T14:49:23.000Z</time>
      </trkpt>
      <trkpt lat="14.74208" lon="-17.40338">
        <ele>50.35</ele>
        <time>2019-12-01T14:49:28.000Z</time>
      </trkpt>
      <trkpt lat="14.74217" lon="-17.40332">
        <ele>50.11</ele>
        <time>2019-12-01T14:49:33.000Z</time>
      </trkpt>
      <trkpt lat="14.74227" lon="-17.40327">
        <ele>49.89</ele>
        <time>2019-12-01T14:49:38.000Z</time>
      </trkpt>
      <trkpt lat="14.74237" lon="-17.40322">
        <ele>49.68</ele>
        <time>2019-12-01T14:49:43.000Z</time>
      </trkpt>
      <trkpt lat="14.74246" lon="-17.40317">
        <ele>49.48</ele>
        <time>2019-12-01T14:49:48.000Z</time>
      </trkpt>
      <trkpt lat="14.74253" lon="-17.40311">
        <ele>49.31</ele>
        <time>2019-12-01T14:49:53.000Z</time>
      </trkpt>
      <trkpt lat="14.7426" lon="-17.40305">
        <ele>49.16</ele>
        <time>2019-12-01T14:49:58.000Z</time>
      </trkpt>
      <trkpt lat="14.74268" lon="-17.40298">
        <ele>49.01</ele>
        <time>2019-12-01T14:50:04.000Z</time>
      </trkpt>
      <trkpt lat="14.74275" lon="-17.40291">
        <ele>48.9</ele>
        <time>2019-12-01T14:50:10.000Z</time>
      </trkpt>
      <trkpt lat="14.74285" lon="-17.40285">
        <ele>48.81</ele>
        <time>2019-12-01T14:50:16.000Z</time>
      </trkpt>
      <trkpt lat="14.74295" lon="-17.40277">
        <ele>48.76</ele>
        <time>2019-12-01T14:50:21.000Z</time>
      </trkpt>
      <trkpt lat="14.74306" lon="-17.4027">
        <ele>48.73</ele>
        <time>2019-12-01T14:50:26.000Z</time>
      </trkpt>
      <trkpt lat="14.7432" lon="-17.4026">
        <ele>48.61</ele>
        <time>2019-12-01T14:50:31.000Z</time>
      </trkpt>
      <trkpt lat="14.74338" lon="-17.40247">
        <ele>48.46</ele>
        <time>2019-12-01T14:50:36.000Z</time>
      </trkpt>
      <trkpt lat="14.74364" lon="-17.4023">
        <ele>48.38</ele>
        <time>2019-12-01T14:50:41.000Z</time>
      </trkpt>
      <trkpt lat="14.74387" lon="-17.40213">
        <ele>48.36</ele>
        <time>2019-12-01T14:50:46.000Z</time>
      </trkpt>
      <trkpt lat="14.74408" lon="-17.40197">
        <ele>48.42</ele>
        <time>2019-12-01T14:50:51.000Z</time>
      </trkpt>
      <trkpt lat="14.74426" lon="-17.40184">
        <ele>48.48</ele>
        <time>2019-12-01T14:50:56.000Z</time>
      </trkpt>
      <trkpt lat="14.74442" lon="-17.40171">
        <ele>48.6</ele>
        <time>2019-12-01T14:51:01.000Z</time>
      </trkpt>
      <trkpt lat="14.74459" lon="-17.40158">
        <ele>48.73</ele>
        <time>2019-12-01T14:51:06.000Z</time>
      </trkpt>
      <trkpt lat="14.74477" lon="-17.40144">
        <ele>48.83</ele>
        <time>2019-12-01T14:51:11.000Z</time>
      </trkpt>
      <trkpt lat="14.74495" lon="-17.4013">
        <ele>48.88</ele>
        <time>2019-12-01T14:51:16.000Z</time>
      </trkpt>
      <trkpt lat="14.74509" lon="-17.40117">
        <ele>48.91</ele>
        <time>2019-12-01T14:51:21.000Z</time>
      </trkpt>
      <trkpt lat="14.74516" lon="-17.40101">
        <ele>48.91</ele>
        <time>2019-12-01T14:51:26.000Z</time>
      </trkpt>
      <trkpt lat="14.74507" lon="-17.40084">
        <ele>48.98</ele>
        <time>2019-12-01T14:51:31.000Z</time>
      </trkpt>
      <trkpt lat="14.74497" lon="-17.40067">
        <ele>49</ele>
        <time>2019-12-01T14:51:36.000Z</time>
      </trkpt>
      <trkpt lat="14.74491" lon="-17.40055">
        <ele>49.07</ele>
        <time>2019-12-01T14:51:41.000Z</time>
      </trkpt>
      <trkpt lat="14.74481" lon="-17.40036">
        <ele>49.19</ele>
        <time>2019-12-01T14:51:46.000Z</time>
      </trkpt>
      <trkpt lat="14.74469" lon="-17.40019">
        <ele>49.25</ele>
        <time>2019-12-01T14:51:51.000Z</time>
      </trkpt>
      <trkpt lat="14.74458" lon="-17.40001">
        <ele>49.29</ele>
        <time>2019-12-01T14:51:56.000Z</time>
      </trkpt>
      <trkpt lat="14.74444" lon="-17.3998">
        <ele>49.36</ele>
        <time>2019-12-01T14:52:01.000Z</time>
      </trkpt>
      <trkpt lat="14.74431" lon="-17.39959">
        <ele>49.47</ele>
        <time>2019-12-01T14:52:06.000Z</time>
      </trkpt>
      <trkpt lat="14.7442" lon="-17.39937">
        <ele>49.65</ele>
        <time>2019-12-01T14:52:11.000Z</time>
      </trkpt>
      <trkpt lat="14.74408" lon="-17.39917">
        <ele>49.8</ele>
        <time>2019-12-01T14:52:16.000Z</time>
      </trkpt>
      <trkpt lat="14.74396" lon="-17.39895">
        <ele>49.97</ele>
        <time>2019-12-01T14:52:21.000Z</time>
      </trkpt>
      <trkpt lat="14.74388" lon="-17.39873">
        <ele>50.18</ele>
        <time>2019-12-01T14:52:26.000Z</time>
      </trkpt>
      <trkpt lat="14.74379" lon="-17.39852">
        <ele>50.33</ele>
        <time>2019-12-01T14:52:31.000Z</time>
      </trkpt>
      <trkpt lat="14.74366" lon="-17.39836">
        <ele>50.46</ele>
        <time>2019-12-01T14:52:36.000Z</time>
      </trkpt>
      <trkpt lat="14.74357" lon="-17.39818">
        <ele>50.5</ele>
        <time>2019-12-01T14:52:41.000Z</time>
      </trkpt>
      <trkpt lat="14.7436" lon="-17.39803">
        <ele>50.51</ele>
        <time>2019-12-01T14:52:46.000Z</time>
      </trkpt>
      <trkpt lat="14.74366" lon="-17.39789">
        <ele>50.53</ele>
        <time>2019-12-01T14:52:51.000Z</time>
      </trkpt>
      <trkpt lat="14.7437" lon="-17.39773">
        <ele>50.58</ele>
        <time>2019-12-01T14:52:56.000Z</time>
      </trkpt>
      <trkpt lat="14.74369" lon="-17.39755">
        <ele>50.61</ele>
        <time>2019-12-01T14:53:01.000Z</time>
      </trkpt>
      <trkpt lat="14.74371" lon="-17.39738">
        <ele>50.63</ele>
        <time>2019-12-01T14:53:06.000Z</time>
      </trkpt>
      <trkpt lat="14.74374" lon="-17.39721">
        <ele>50.66</ele>
        <time>2019-12-01T14:53:11.000Z</time>
      </trkpt>
      <trkpt lat="14.74378" lon="-17.39703">
        <ele>50.69</ele>
        <time>2019-12-01T14:53:16.000Z</time>
      </trkpt>
      <trkpt lat="14.74382" lon="-17.39684">
        <ele>50.87</ele>
        <time>2019-12-01T14:53:21.000Z</time>
      </trkpt>
      <trkpt lat="14.7438" lon="-17.3966">
        <ele>51.03</ele>
        <time>2019-12-01T14:53:26.000Z</time>
      </trkpt>
      <trkpt lat="14.74374" lon="-17.39632">
        <ele>51.06</ele>
        <time>2019-12-01T14:53:31.000Z</time>
      </trkpt>
      <trkpt lat="14.74358" lon="-17.39595">
        <ele>50.99</ele>
        <time>2019-12-01T14:53:36.000Z</time>
      </trkpt>
      <trkpt lat="14.7434" lon="-17.39562">
        <ele>50.97</ele>
        <time>2019-12-01T14:53:41.000Z</time>
      </trkpt>
      <trkpt lat="14.74327" lon="-17.39537">
        <ele>51.06</ele>
        <time>2019-12-01T14:53:46.000Z</time>
      </trkpt>
      <trkpt lat="14.74316" lon="-17.39524">
        <ele>51.29</ele>
        <time>2019-12-01T14:53:51.000Z</time>
      </trkpt>
      <trkpt lat="14.74303" lon="-17.39517">
        <ele>51.25</ele>
        <time>2019-12-01T14:53:56.000Z</time>
      </trkpt>
      <trkpt lat="14.74287" lon="-17.3952">
        <ele>51.14</ele>
        <time>2019-12-01T14:54:01.000Z</time>
      </trkpt>
      <trkpt lat="14.74278" lon="-17.39539">
        <ele>50.45</ele>
        <time>2019-12-01T14:54:06.000Z</time>
      </trkpt>
      <trkpt lat="14.74276" lon="-17.39561">
        <ele>48.48</ele>
        <time>2019-12-01T14:54:11.000Z</time>
      </trkpt>
      <trkpt lat="14.74275" lon="-17.39581">
        <ele>47.58</ele>
        <time>2019-12-01T14:54:16.000Z</time>
      </trkpt>
      <trkpt lat="14.74277" lon="-17.39605">
        <ele>46.03</ele>
        <time>2019-12-01T14:54:21.000Z</time>
      </trkpt>
      <trkpt lat="14.74277" lon="-17.39629">
        <ele>44.99</ele>
        <time>2019-12-01T14:54:26.000Z</time>
      </trkpt>
      <trkpt lat="14.74273" lon="-17.39652">
        <ele>44.2</ele>
        <time>2019-12-01T14:54:31.000Z</time>
      </trkpt>
      <trkpt lat="14.74268" lon="-17.39681">
        <ele>43.92</ele>
        <time>2019-12-01T14:54:36.000Z</time>
      </trkpt>
      <trkpt lat="14.74262" lon="-17.39703">
        <ele>43.22</ele>
        <time>2019-12-01T14:54:41.000Z</time>
      </trkpt>
      <trkpt lat="14.74255" lon="-17.39725">
        <ele>42.63</ele>
        <time>2019-12-01T14:54:46.000Z</time>
      </trkpt>
      <trkpt lat="14.74248" lon="-17.39743">
        <ele>42.03</ele>
        <time>2019-12-01T14:54:51.000Z</time>
      </trkpt>
      <trkpt lat="14.7424" lon="-17.39761">
        <ele>41.87</ele>
        <time>2019-12-01T14:54:56.000Z</time>
      </trkpt>
      <trkpt lat="14.74231" lon="-17.39774">
        <ele>41.69</ele>
        <time>2019-12-01T14:55:01.000Z</time>
      </trkpt>
      <trkpt lat="14.74222" lon="-17.39785">
        <ele>41.47</ele>
        <time>2019-12-01T14:55:06.000Z</time>
      </trkpt>
      <trkpt lat="14.74212" lon="-17.39796">
        <ele>41.27</ele>
        <time>2019-12-01T14:55:11.000Z</time>
      </trkpt>
      <trkpt lat="14.74202" lon="-17.39806">
        <ele>41.05</ele>
        <time>2019-12-01T14:55:16.000Z</time>
      </trkpt>
      <trkpt lat="14.74193" lon="-17.3981">
        <ele>40.81</ele>
        <time>2019-12-01T14:55:23.000Z</time>
      </trkpt>
      <trkpt lat="14.74183" lon="-17.39817">
        <ele>40.73</ele>
        <time>2019-12-01T14:55:28.000Z</time>
      </trkpt>
      <trkpt lat="14.74174" lon="-17.39824">
        <ele>40.73</ele>
        <time>2019-12-01T14:55:33.000Z</time>
      </trkpt>
      <trkpt lat="14.74164" lon="-17.39832">
        <ele>40.8</ele>
        <time>2019-12-01T14:55:38.000Z</time>
      </trkpt>
      <trkpt lat="14.74154" lon="-17.39841">
        <ele>40.93</ele>
        <time>2019-12-01T14:55:43.000Z</time>
      </trkpt>
      <trkpt lat="14.74144" lon="-17.39851">
        <ele>41.1</ele>
        <time>2019-12-01T14:55:48.000Z</time>
      </trkpt>
      <trkpt lat="14.7413" lon="-17.39864">
        <ele>41.92</ele>
        <time>2019-12-01T14:55:53.000Z</time>
      </trkpt>
      <trkpt lat="14.74113" lon="-17.39881">
        <ele>43.1</ele>
        <time>2019-12-01T14:55:58.000Z</time>
      </trkpt>
      <trkpt lat="14.74099" lon="-17.39897">
        <ele>43.61</ele>
        <time>2019-12-01T14:56:03.000Z</time>
      </trkpt>
      <trkpt lat="14.74082" lon="-17.39913">
        <ele>43.97</ele>
        <time>2019-12-01T14:56:08.000Z</time>
      </trkpt>
      <trkpt lat="14.74066" lon="-17.3993">
        <ele>44.27</ele>
        <time>2019-12-01T14:56:13.000Z</time>
      </trkpt>
      <trkpt lat="14.7405" lon="-17.39948">
        <ele>44.68</ele>
        <time>2019-12-01T14:56:18.000Z</time>
      </trkpt>
      <trkpt lat="14.74035" lon="-17.39965">
        <ele>44.99</ele>
        <time>2019-12-01T14:56:23.000Z</time>
      </trkpt>
      <trkpt lat="14.74022" lon="-17.39983">
        <ele>45.11</ele>
        <time>2019-12-01T14:56:28.000Z</time>
      </trkpt>
      <trkpt lat="14.74011" lon="-17.4">
        <ele>45.17</ele>
        <time>2019-12-01T14:56:33.000Z</time>
      </trkpt>
      <trkpt lat="14.74" lon="-17.40018">
        <ele>45.17</ele>
        <time>2019-12-01T14:56:38.000Z</time>
      </trkpt>
      <trkpt lat="14.73992" lon="-17.40037">
        <ele>45.09</ele>
        <time>2019-12-01T14:56:42.999Z</time>
      </trkpt>
      <trkpt lat="14.73983" lon="-17.40058">
        <ele>44.98</ele>
        <time>2019-12-01T14:56:47.999Z</time>
      </trkpt>
      <trkpt lat="14.73976" lon="-17.40081">
        <ele>44.85</ele>
        <time>2019-12-01T14:56:52.999Z</time>
      </trkpt>
      <trkpt lat="14.73971" lon="-17.40107">
        <ele>44.81</ele>
        <time>2019-12-01T14:56:57.999Z</time>
      </trkpt>
      <trkpt lat="14.73965" lon="-17.40134">
        <ele>44.83</ele>
        <time>2019-12-01T14:57:02.999Z</time>
      </trkpt>
      <trkpt lat="14.7396" lon="-17.40159">
        <ele>44.83</ele>
        <time>2019-12-01T14:57:07.999Z</time>
      </trkpt>
      <trkpt lat="14.73955" lon="-17.40186">
        <ele>44.86</ele>
        <time>2019-12-01T14:57:12.999Z</time>
      </trkpt>
      <trkpt lat="14.73949" lon="-17.40214">
        <ele>44.94</ele>
        <time>2019-12-01T14:57:17.999Z</time>
      </trkpt>
      <trkpt lat="14.73945" lon="-17.40242">
        <ele>44.94</ele>
        <time>2019-12-01T14:57:22.999Z</time>
      </trkpt>
      <trkpt lat="14.7394" lon="-17.40268">
        <ele>44.92</ele>
        <time>2019-12-01T14:57:27.999Z</time>
      </trkpt>
      <trkpt lat="14.73934" lon="-17.40294">
        <ele>44.89</ele>
        <time>2019-12-01T14:57:32.999Z</time>
      </trkpt>
      <trkpt lat="14.73931" lon="-17.40317">
        <ele>44.98</ele>
        <time>2019-12-01T14:57:37.999Z</time>
      </trkpt>
      <trkpt lat="14.73929" lon="-17.4034">
        <ele>45.17</ele>
        <time>2019-12-01T14:57:42.999Z</time>
      </trkpt>
      <trkpt lat="14.73926" lon="-17.4036">
        <ele>45.31</ele>
        <time>2019-12-01T14:57:47.999Z</time>
      </trkpt>
      <trkpt lat="14.73923" lon="-17.40382">
        <ele>45.42</ele>
        <time>2019-12-01T14:57:52.999Z</time>
      </trkpt>
      <trkpt lat="14.7392" lon="-17.40403">
        <ele>45.42</ele>
        <time>2019-12-01T14:57:57.999Z</time>
      </trkpt>
      <trkpt lat="14.73917" lon="-17.40424">
        <ele>45.34</ele>
        <time>2019-12-01T14:58:02.999Z</time>
      </trkpt>
      <trkpt lat="14.73912" lon="-17.40446">
        <ele>45.26</ele>
        <time>2019-12-01T14:58:07.999Z</time>
      </trkpt>
      <trkpt lat="14.73907" lon="-17.40468">
        <ele>45.27</ele>
        <time>2019-12-01T14:58:12.999Z</time>
      </trkpt>
      <trkpt lat="14.73902" lon="-17.40491">
        <ele>45.29</ele>
        <time>2019-12-01T14:58:17.999Z</time>
      </trkpt>
      <trkpt lat="14.73898" lon="-17.40516">
        <ele>45.27</ele>
        <time>2019-12-01T14:58:22.999Z</time>
      </trkpt>
      <trkpt lat="14.73894" lon="-17.40542">
        <ele>45.26</ele>
        <time>2019-12-01T14:58:27.999Z</time>
      </trkpt>
      <trkpt lat="14.73888" lon="-17.40565">
        <ele>45.23</ele>
        <time>2019-12-01T14:58:32.999Z</time>
      </trkpt>
      <trkpt lat="14.73885" lon="-17.40581">
        <ele>45.22</ele>
        <time>2019-12-01T14:58:37.999Z</time>
      </trkpt>
      <trkpt lat="14.73885" lon="-17.40591">
        <ele>45.21</ele>
        <time>2019-12-01T14:58:43.999Z</time>
      </trkpt>
      <trkpt lat="14.73889" lon="-17.40605">
        <ele>45.2</ele>
        <time>2019-12-01T14:58:48.999Z</time>
      </trkpt>
      <trkpt lat="14.7389" lon="-17.40621">
        <ele>45.2</ele>
        <time>2019-12-01T14:58:53.999Z</time>
      </trkpt>
      <trkpt lat="14.73891" lon="-17.40636">
        <ele>45.23</ele>
        <time>2019-12-01T14:58:58.999Z</time>
      </trkpt>
      <trkpt lat="14.73892" lon="-17.40653">
        <ele>45.28</ele>
        <time>2019-12-01T14:59:03.999Z</time>
      </trkpt>
      <trkpt lat="14.73893" lon="-17.40671">
        <ele>45.34</ele>
        <time>2019-12-01T14:59:08.999Z</time>
      </trkpt>
      <trkpt lat="14.73883" lon="-17.40684">
        <ele>45.39</ele>
        <time>2019-12-01T14:59:13.999Z</time>
      </trkpt>
      <trkpt lat="14.73881" lon="-17.40704">
        <ele>45.67</ele>
        <time>2019-12-01T14:59:18.999Z</time>
      </trkpt>
      <trkpt lat="14.73877" lon="-17.40723">
        <ele>46.11</ele>
        <time>2019-12-01T14:59:23.999Z</time>
      </trkpt>
      <trkpt lat="14.73874" lon="-17.40743">
        <ele>46.4</ele>
        <time>2019-12-01T14:59:28.999Z</time>
      </trkpt>
      <trkpt lat="14.73869" lon="-17.40764">
        <ele>46.63</ele>
        <time>2019-12-01T14:59:33.999Z</time>
      </trkpt>
      <trkpt lat="14.73864" lon="-17.40786">
        <ele>46.84</ele>
        <time>2019-12-01T14:59:38.999Z</time>
      </trkpt>
      <trkpt lat="14.73859" lon="-17.40808">
        <ele>47</ele>
        <time>2019-12-01T14:59:43.999Z</time>
      </trkpt>
      <trkpt lat="14.73851" lon="-17.40829">
        <ele>47.14</ele>
        <time>2019-12-01T14:59:48.999Z</time>
      </trkpt>
      <trkpt lat="14.73838" lon="-17.40851">
        <ele>47.2</ele>
        <time>2019-12-01T14:59:53.999Z</time>
      </trkpt>
      <trkpt lat="14.73831" lon="-17.40873">
        <ele>47.17</ele>
        <time>2019-12-01T14:59:58.999Z</time>
      </trkpt>
      <trkpt lat="14.73826" lon="-17.40898">
        <ele>47.09</ele>
        <time>2019-12-01T15:00:03.999Z</time>
      </trkpt>
      <trkpt lat="14.73822" lon="-17.40926">
        <ele>47</ele>
        <time>2019-12-01T15:00:08.999Z</time>
      </trkpt>
      <trkpt lat="14.73817" lon="-17.40956">
        <ele>46.9</ele>
        <time>2019-12-01T15:00:13.999Z</time>
      </trkpt>
      <trkpt lat="14.73812" lon="-17.40985">
        <ele>46.82</ele>
        <time>2019-12-01T15:00:18.999Z</time>
      </trkpt>
      <trkpt lat="14.73805" lon="-17.4101">
        <ele>46.7</ele>
        <time>2019-12-01T15:00:23.999Z</time>
      </trkpt>
      <trkpt lat="14.73802" lon="-17.41036">
        <ele>46.55</ele>
        <time>2019-12-01T15:00:28.999Z</time>
      </trkpt>
      <trkpt lat="14.73799" lon="-17.41064">
        <ele>46.48</ele>
        <time>2019-12-01T15:00:33.999Z</time>
      </trkpt>
      <trkpt lat="14.73793" lon="-17.41093">
        <ele>46.43</ele>
        <time>2019-12-01T15:00:38.999Z</time>
      </trkpt>
      <trkpt lat="14.73786" lon="-17.41121">
        <ele>46.39</ele>
        <time>2019-12-01T15:00:43.999Z</time>
      </trkpt>
      <trkpt lat="14.73782" lon="-17.41143">
        <ele>46.36</ele>
        <time>2019-12-01T15:00:48.999Z</time>
      </trkpt>
      <trkpt lat="14.73777" lon="-17.41161">
        <ele>46.31</ele>
        <time>2019-12-01T15:00:53.999Z</time>
      </trkpt>
      <trkpt lat="14.73771" lon="-17.41181">
        <ele>46.26</ele>
        <time>2019-12-01T15:00:58.999Z</time>
      </trkpt>
      <trkpt lat="14.73764" lon="-17.41201">
        <ele>46.23</ele>
        <time>2019-12-01T15:01:03.999Z</time>
      </trkpt>
      <trkpt lat="14.73758" lon="-17.41222">
        <ele>46.14</ele>
        <time>2019-12-01T15:01:08.999Z</time>
      </trkpt>
      <trkpt lat="14.73751" lon="-17.41243">
        <ele>46.04</ele>
        <time>2019-12-01T15:01:13.999Z</time>
      </trkpt>
      <trkpt lat="14.73742" lon="-17.41264">
        <ele>45.99</ele>
        <time>2019-12-01T15:01:18.999Z</time>
      </trkpt>
      <trkpt lat="14.73734" lon="-17.41286">
        <ele>45.94</ele>
        <time>2019-12-01T15:01:23.999Z</time>
      </trkpt>
      <trkpt lat="14.73726" lon="-17.41306">
        <ele>45.9</ele>
        <time>2019-12-01T15:01:28.999Z</time>
      </trkpt>
      <trkpt lat="14.73717" lon="-17.41326">
        <ele>45.93</ele>
        <time>2019-12-01T15:01:33.999Z</time>
      </trkpt>
      <trkpt lat="14.73708" lon="-17.41345">
        <ele>46.03</ele>
        <time>2019-12-01T15:01:38.999Z</time>
      </trkpt>
      <trkpt lat="14.737" lon="-17.41366">
        <ele>46.17</ele>
        <time>2019-12-01T15:01:43.999Z</time>
      </trkpt>
      <trkpt lat="14.73692" lon="-17.41386">
        <ele>46.28</ele>
        <time>2019-12-01T15:01:48.999Z</time>
      </trkpt>
      <trkpt lat="14.73683" lon="-17.41407">
        <ele>46.38</ele>
        <time>2019-12-01T15:01:53.999Z</time>
      </trkpt>
      <trkpt lat="14.73673" lon="-17.41429">
        <ele>46.53</ele>
        <time>2019-12-01T15:01:58.999Z</time>
      </trkpt>
      <trkpt lat="14.73661" lon="-17.41452">
        <ele>46.65</ele>
        <time>2019-12-01T15:02:03.999Z</time>
      </trkpt>
      <trkpt lat="14.73649" lon="-17.41472">
        <ele>46.68</ele>
        <time>2019-12-01T15:02:08.999Z</time>
      </trkpt>
      <trkpt lat="14.73636" lon="-17.41493">
        <ele>46.7</ele>
        <time>2019-12-01T15:02:13.999Z</time>
      </trkpt>
      <trkpt lat="14.73625" lon="-17.41513">
        <ele>46.75</ele>
        <time>2019-12-01T15:02:18.999Z</time>
      </trkpt>
      <trkpt lat="14.73617" lon="-17.41526">
        <ele>46.77</ele>
        <time>2019-12-01T15:02:23.999Z</time>
      </trkpt>
      <trkpt lat="14.73608" lon="-17.41529">
        <ele>46.47</ele>
        <time>2019-12-01T15:04:06.999Z</time>
      </trkpt>
      <trkpt lat="14.73602" lon="-17.4154">
        <ele>46.26</ele>
        <time>2019-12-01T15:04:11.999Z</time>
      </trkpt>
      <trkpt lat="14.73593" lon="-17.41555">
        <ele>46.05</ele>
        <time>2019-12-01T15:04:16.999Z</time>
      </trkpt>
      <trkpt lat="14.73584" lon="-17.41572">
        <ele>45.86</ele>
        <time>2019-12-01T15:04:21.999Z</time>
      </trkpt>
      <trkpt lat="14.73573" lon="-17.41588">
        <ele>45.67</ele>
        <time>2019-12-01T15:04:26.999Z</time>
      </trkpt>
      <trkpt lat="14.73562" lon="-17.41606">
        <ele>44.38</ele>
        <time>2019-12-01T15:04:31.999Z</time>
      </trkpt>
      <trkpt lat="14.73551" lon="-17.41624">
        <ele>43.84</ele>
        <time>2019-12-01T15:04:36.999Z</time>
      </trkpt>
      <trkpt lat="14.73539" lon="-17.41641">
        <ele>43.45</ele>
        <time>2019-12-01T15:04:41.999Z</time>
      </trkpt>
      <trkpt lat="14.73527" lon="-17.41659">
        <ele>43.15</ele>
        <time>2019-12-01T15:04:46.999Z</time>
      </trkpt>
      <trkpt lat="14.73517" lon="-17.41676">
        <ele>43</ele>
        <time>2019-12-01T15:04:51.999Z</time>
      </trkpt>
      <trkpt lat="14.73506" lon="-17.41694">
        <ele>42.77</ele>
        <time>2019-12-01T15:04:56.999Z</time>
      </trkpt>
      <trkpt lat="14.73494" lon="-17.41712">
        <ele>42.5</ele>
        <time>2019-12-01T15:05:01.999Z</time>
      </trkpt>
      <trkpt lat="14.73481" lon="-17.41731">
        <ele>42.19</ele>
        <time>2019-12-01T15:05:06.999Z</time>
      </trkpt>
      <trkpt lat="14.73468" lon="-17.41752">
        <ele>41.7</ele>
        <time>2019-12-01T15:05:11.999Z</time>
      </trkpt>
      <trkpt lat="14.73456" lon="-17.41772">
        <ele>41.3</ele>
        <time>2019-12-01T15:05:16.999Z</time>
      </trkpt>
      <trkpt lat="14.73445" lon="-17.41792">
        <ele>41.08</ele>
        <time>2019-12-01T15:05:21.999Z</time>
      </trkpt>
      <trkpt lat="14.73431" lon="-17.41807">
        <ele>40.94</ele>
        <time>2019-12-01T15:05:26.999Z</time>
      </trkpt>
      <trkpt lat="14.73421" lon="-17.41825">
        <ele>40.86</ele>
        <time>2019-12-01T15:05:31.999Z</time>
      </trkpt>
      <trkpt lat="14.73407" lon="-17.41844">
        <ele>40.75</ele>
        <time>2019-12-01T15:05:36.999Z</time>
      </trkpt>
      <trkpt lat="14.73396" lon="-17.41862">
        <ele>40.55</ele>
        <time>2019-12-01T15:05:41.999Z</time>
      </trkpt>
      <trkpt lat="14.73386" lon="-17.41879">
        <ele>40.32</ele>
        <time>2019-12-01T15:05:46.999Z</time>
      </trkpt>
      <trkpt lat="14.73376" lon="-17.41896">
        <ele>40.27</ele>
        <time>2019-12-01T15:05:51.999Z</time>
      </trkpt>
      <trkpt lat="14.73367" lon="-17.41913">
        <ele>40.22</ele>
        <time>2019-12-01T15:05:56.999Z</time>
      </trkpt>
      <trkpt lat="14.73359" lon="-17.41928">
        <ele>40.19</ele>
        <time>2019-12-01T15:06:01.999Z</time>
      </trkpt>
      <trkpt lat="14.73349" lon="-17.41941">
        <ele>40.12</ele>
        <time>2019-12-01T15:06:06.999Z</time>
      </trkpt>
      <trkpt lat="14.73337" lon="-17.41953">
        <ele>40.04</ele>
        <time>2019-12-01T15:06:11.999Z</time>
      </trkpt>
      <trkpt lat="14.73329" lon="-17.41965">
        <ele>39.96</ele>
        <time>2019-12-01T15:06:16.999Z</time>
      </trkpt>
      <trkpt lat="14.7332" lon="-17.41977">
        <ele>39.89</ele>
        <time>2019-12-01T15:06:21.999Z</time>
      </trkpt>
      <trkpt lat="14.7331" lon="-17.41992">
        <ele>39.83</ele>
        <time>2019-12-01T15:06:26.999Z</time>
      </trkpt>
      <trkpt lat="14.73299" lon="-17.42006">
        <ele>39.78</ele>
        <time>2019-12-01T15:06:31.999Z</time>
      </trkpt>
      <trkpt lat="14.7329" lon="-17.42021">
        <ele>39.75</ele>
        <time>2019-12-01T15:06:36.999Z</time>
      </trkpt>
      <trkpt lat="14.73285" lon="-17.42036">
        <ele>39.74</ele>
        <time>2019-12-01T15:06:41.999Z</time>
      </trkpt>
      <trkpt lat="14.73278" lon="-17.42057">
        <ele>39.81</ele>
        <time>2019-12-01T15:06:46.999Z</time>
      </trkpt>
      <trkpt lat="14.73271" lon="-17.42076">
        <ele>39.95</ele>
        <time>2019-12-01T15:06:51.999Z</time>
      </trkpt>
      <trkpt lat="14.7326" lon="-17.42097">
        <ele>40.1</ele>
        <time>2019-12-01T15:06:56.999Z</time>
      </trkpt>
      <trkpt lat="14.73247" lon="-17.4212">
        <ele>40.15</ele>
        <time>2019-12-01T15:07:01.999Z</time>
      </trkpt>
      <trkpt lat="14.73232" lon="-17.42142">
        <ele>40.17</ele>
        <time>2019-12-01T15:07:06.999Z</time>
      </trkpt>
      <trkpt lat="14.73218" lon="-17.42162">
        <ele>40.17</ele>
        <time>2019-12-01T15:07:11.999Z</time>
      </trkpt>
      <trkpt lat="14.73207" lon="-17.42185">
        <ele>40.18</ele>
        <time>2019-12-01T15:07:16.999Z</time>
      </trkpt>
      <trkpt lat="14.73194" lon="-17.42207">
        <ele>40.28</ele>
        <time>2019-12-01T15:07:21.999Z</time>
      </trkpt>
      <trkpt lat="14.73178" lon="-17.42226">
        <ele>40.27</ele>
        <time>2019-12-01T15:07:26.999Z</time>
      </trkpt>
      <trkpt lat="14.73168" lon="-17.42245">
        <ele>40.2</ele>
        <time>2019-12-01T15:07:31.999Z</time>
      </trkpt>
      <trkpt lat="14.73159" lon="-17.42264">
        <ele>40.15</ele>
        <time>2019-12-01T15:07:36.999Z</time>
      </trkpt>
      <trkpt lat="14.73147" lon="-17.42284">
        <ele>40.14</ele>
        <time>2019-12-01T15:07:41.999Z</time>
      </trkpt>
      <trkpt lat="14.73134" lon="-17.42303">
        <ele>40.19</ele>
        <time>2019-12-01T15:07:46.999Z</time>
      </trkpt>
      <trkpt lat="14.7312" lon="-17.42324">
        <ele>40.17</ele>
        <time>2019-12-01T15:07:51.999Z</time>
      </trkpt>
      <trkpt lat="14.73107" lon="-17.42346">
        <ele>40.11</ele>
        <time>2019-12-01T15:07:56.999Z</time>
      </trkpt>
      <trkpt lat="14.73094" lon="-17.42368">
        <ele>40</ele>
        <time>2019-12-01T15:08:01.999Z</time>
      </trkpt>
      <trkpt lat="14.73081" lon="-17.42388">
        <ele>39.89</ele>
        <time>2019-12-01T15:08:06.999Z</time>
      </trkpt>
      <trkpt lat="14.73067" lon="-17.42409">
        <ele>39.83</ele>
        <time>2019-12-01T15:08:11.999Z</time>
      </trkpt>
      <trkpt lat="14.73056" lon="-17.42429">
        <ele>39.79</ele>
        <time>2019-12-01T15:08:16.999Z</time>
      </trkpt>
      <trkpt lat="14.73043" lon="-17.4245">
        <ele>39.75</ele>
        <time>2019-12-01T15:08:21.999Z</time>
      </trkpt>
      <trkpt lat="14.73029" lon="-17.42471">
        <ele>39.71</ele>
        <time>2019-12-01T15:08:26.999Z</time>
      </trkpt>
      <trkpt lat="14.73016" lon="-17.42493">
        <ele>39.76</ele>
        <time>2019-12-01T15:08:31.999Z</time>
      </trkpt>
      <trkpt lat="14.73005" lon="-17.42515">
        <ele>39.88</ele>
        <time>2019-12-01T15:08:36.999Z</time>
      </trkpt>
      <trkpt lat="14.72993" lon="-17.42536">
        <ele>39.97</ele>
        <time>2019-12-01T15:08:41.999Z</time>
      </trkpt>
      <trkpt lat="14.7298" lon="-17.42556">
        <ele>40.02</ele>
        <time>2019-12-01T15:08:46.999Z</time>
      </trkpt>
      <trkpt lat="14.72969" lon="-17.42576">
        <ele>40.02</ele>
        <time>2019-12-01T15:08:51.999Z</time>
      </trkpt>
      <trkpt lat="14.72956" lon="-17.42594">
        <ele>40.01</ele>
        <time>2019-12-01T15:08:56.999Z</time>
      </trkpt>
      <trkpt lat="14.72945" lon="-17.42611">
        <ele>40</ele>
        <time>2019-12-01T15:09:01.999Z</time>
      </trkpt>
      <trkpt lat="14.72934" lon="-17.42629">
        <ele>39.98</ele>
        <time>2019-12-01T15:09:06.999Z</time>
      </trkpt>
      <trkpt lat="14.72923" lon="-17.42648">
        <ele>39.87</ele>
        <time>2019-12-01T15:09:11.999Z</time>
      </trkpt>
      <trkpt lat="14.72911" lon="-17.4267">
        <ele>39.76</ele>
        <time>2019-12-01T15:09:16.999Z</time>
      </trkpt>
      <trkpt lat="14.72899" lon="-17.42687">
        <ele>39.69</ele>
        <time>2019-12-01T15:09:21.999Z</time>
      </trkpt>
      <trkpt lat="14.7289" lon="-17.42699">
        <ele>39.66</ele>
        <time>2019-12-01T15:09:26.999Z</time>
      </trkpt>
      <trkpt lat="14.72882" lon="-17.42705">
        <ele>39.63</ele>
        <time>2019-12-01T15:09:36.999Z</time>
      </trkpt>
      <trkpt lat="14.72874" lon="-17.42718">
        <ele>39.61</ele>
        <time>2019-12-01T15:09:41.999Z</time>
      </trkpt>
      <trkpt lat="14.72866" lon="-17.42734">
        <ele>39.59</ele>
        <time>2019-12-01T15:09:46.999Z</time>
      </trkpt>
      <trkpt lat="14.72855" lon="-17.4275">
        <ele>39.51</ele>
        <time>2019-12-01T15:09:51.999Z</time>
      </trkpt>
      <trkpt lat="14.72844" lon="-17.42767">
        <ele>39.36</ele>
        <time>2019-12-01T15:09:56.999Z</time>
      </trkpt>
      <trkpt lat="14.7283" lon="-17.42784">
        <ele>39.21</ele>
        <time>2019-12-01T15:10:01.999Z</time>
      </trkpt>
      <trkpt lat="14.72813" lon="-17.42802">
        <ele>39.08</ele>
        <time>2019-12-01T15:10:06.999Z</time>
      </trkpt>
      <trkpt lat="14.72793" lon="-17.4282">
        <ele>38.94</ele>
        <time>2019-12-01T15:10:11.999Z</time>
      </trkpt>
      <trkpt lat="14.72774" lon="-17.42836">
        <ele>38.81</ele>
        <time>2019-12-01T15:10:16.999Z</time>
      </trkpt>
      <trkpt lat="14.72753" lon="-17.4285">
        <ele>38.67</ele>
        <time>2019-12-01T15:10:21.999Z</time>
      </trkpt>
      <trkpt lat="14.7273" lon="-17.42866">
        <ele>38.53</ele>
        <time>2019-12-01T15:10:26.999Z</time>
      </trkpt>
      <trkpt lat="14.72704" lon="-17.4288">
        <ele>38.41</ele>
        <time>2019-12-01T15:10:31.999Z</time>
      </trkpt>
      <trkpt lat="14.72685" lon="-17.42892">
        <ele>38.29</ele>
        <time>2019-12-01T15:10:36.000Z</time>
      </trkpt>
      <trkpt lat="14.7266" lon="-17.42903">
        <ele>38.17</ele>
        <time>2019-12-01T15:10:41.000Z</time>
      </trkpt>
      <trkpt lat="14.72636" lon="-17.42915">
        <ele>38.03</ele>
        <time>2019-12-01T15:10:46.000Z</time>
      </trkpt>
      <trkpt lat="14.7261" lon="-17.42929">
        <ele>37.91</ele>
        <time>2019-12-01T15:10:51.000Z</time>
      </trkpt>
      <trkpt lat="14.72586" lon="-17.42943">
        <ele>37.73</ele>
        <time>2019-12-01T15:10:56.000Z</time>
      </trkpt>
      <trkpt lat="14.72561" lon="-17.42955">
        <ele>37.54</ele>
        <time>2019-12-01T15:11:01.000Z</time>
      </trkpt>
      <trkpt lat="14.7254" lon="-17.42966">
        <ele>37.38</ele>
        <time>2019-12-01T15:11:06.000Z</time>
      </trkpt>
      <trkpt lat="14.72528" lon="-17.4297">
        <ele>37.34</ele>
        <time>2019-12-01T15:11:11.000Z</time>
      </trkpt>
      <trkpt lat="14.72513" lon="-17.4298">
        <ele>37.28</ele>
        <time>2019-12-01T15:11:16.000Z</time>
      </trkpt>
      <trkpt lat="14.72494" lon="-17.42989">
        <ele>37.14</ele>
        <time>2019-12-01T15:11:21.000Z</time>
      </trkpt>
      <trkpt lat="14.72477" lon="-17.42999">
        <ele>36.88</ele>
        <time>2019-12-01T15:11:26.000Z</time>
      </trkpt>
      <trkpt lat="14.72458" lon="-17.43011">
        <ele>36.64</ele>
        <time>2019-12-01T15:11:31.000Z</time>
      </trkpt>
      <trkpt lat="14.72438" lon="-17.43023">
        <ele>36.55</ele>
        <time>2019-12-01T15:11:36.000Z</time>
      </trkpt>
      <trkpt lat="14.72417" lon="-17.43032">
        <ele>36.48</ele>
        <time>2019-12-01T15:11:41.000Z</time>
      </trkpt>
      <trkpt lat="14.72397" lon="-17.43042">
        <ele>36.43</ele>
        <time>2019-12-01T15:11:46.000Z</time>
      </trkpt>
      <trkpt lat="14.72378" lon="-17.43055">
        <ele>36.36</ele>
        <time>2019-12-01T15:11:51.000Z</time>
      </trkpt>
      <trkpt lat="14.72358" lon="-17.43064">
        <ele>36.32</ele>
        <time>2019-12-01T15:11:56.000Z</time>
      </trkpt>
      <trkpt lat="14.72338" lon="-17.43073">
        <ele>36.38</ele>
        <time>2019-12-01T15:12:01.000Z</time>
      </trkpt>
      <trkpt lat="14.72316" lon="-17.43084">
        <ele>36.47</ele>
        <time>2019-12-01T15:12:06.000Z</time>
      </trkpt>
      <trkpt lat="14.72296" lon="-17.43095">
        <ele>36.53</ele>
        <time>2019-12-01T15:12:11.000Z</time>
      </trkpt>
      <trkpt lat="14.72277" lon="-17.43107">
        <ele>36.52</ele>
        <time>2019-12-01T15:12:16.000Z</time>
      </trkpt>
      <trkpt lat="14.72258" lon="-17.43117">
        <ele>36.44</ele>
        <time>2019-12-01T15:12:21.000Z</time>
      </trkpt>
      <trkpt lat="14.72237" lon="-17.43126">
        <ele>36.36</ele>
        <time>2019-12-01T15:12:26.000Z</time>
      </trkpt>
      <trkpt lat="14.72215" lon="-17.43134">
        <ele>36.28</ele>
        <time>2019-12-01T15:12:31.000Z</time>
      </trkpt>
      <trkpt lat="14.72191" lon="-17.43142">
        <ele>36.23</ele>
        <time>2019-12-01T15:12:36.000Z</time>
      </trkpt>
      <trkpt lat="14.7217" lon="-17.43149">
        <ele>36.19</ele>
        <time>2019-12-01T15:12:41.000Z</time>
      </trkpt>
      <trkpt lat="14.72147" lon="-17.43159">
        <ele>36.14</ele>
        <time>2019-12-01T15:12:46.000Z</time>
      </trkpt>
      <trkpt lat="14.72129" lon="-17.43171">
        <ele>36.13</ele>
        <time>2019-12-01T15:12:51.000Z</time>
      </trkpt>
      <trkpt lat="14.72115" lon="-17.43186">
        <ele>36.09</ele>
        <time>2019-12-01T15:12:56.000Z</time>
      </trkpt>
      <trkpt lat="14.72111" lon="-17.43198">
        <ele>36.09</ele>
        <time>2019-12-01T15:13:01.000Z</time>
      </trkpt>
      <trkpt lat="14.72101" lon="-17.43197">
        <ele>35.88</ele>
        <time>2019-12-01T15:13:48.000Z</time>
      </trkpt>
      <trkpt lat="14.72091" lon="-17.43192">
        <ele>35.83</ele>
        <time>2019-12-01T15:13:53.000Z</time>
      </trkpt>
      <trkpt lat="14.72084" lon="-17.43185">
        <ele>35.79</ele>
        <time>2019-12-01T15:13:58.000Z</time>
      </trkpt>
      <trkpt lat="14.72071" lon="-17.43192">
        <ele>35.75</ele>
        <time>2019-12-01T15:14:03.000Z</time>
      </trkpt>
      <trkpt lat="14.72055" lon="-17.43201">
        <ele>35.71</ele>
        <time>2019-12-01T15:14:08.000Z</time>
      </trkpt>
      <trkpt lat="14.72038" lon="-17.43206">
        <ele>35.67</ele>
        <time>2019-12-01T15:14:13.000Z</time>
      </trkpt>
      <trkpt lat="14.72022" lon="-17.43212">
        <ele>35.65</ele>
        <time>2019-12-01T15:14:18.000Z</time>
      </trkpt>
      <trkpt lat="14.72009" lon="-17.43216">
        <ele>35.63</ele>
        <time>2019-12-01T15:14:23.000Z</time>
      </trkpt>
      <trkpt lat="14.71993" lon="-17.43222">
        <ele>35.58</ele>
        <time>2019-12-01T15:14:28.000Z</time>
      </trkpt>
      <trkpt lat="14.71974" lon="-17.43226">
        <ele>35.45</ele>
        <time>2019-12-01T15:14:33.000Z</time>
      </trkpt>
      <trkpt lat="14.71956" lon="-17.43233">
        <ele>35.41</ele>
        <time>2019-12-01T15:14:38.000Z</time>
      </trkpt>
      <trkpt lat="14.71936" lon="-17.4324">
        <ele>35.43</ele>
        <time>2019-12-01T15:14:43.000Z</time>
      </trkpt>
      <trkpt lat="14.71919" lon="-17.43248">
        <ele>35.44</ele>
        <time>2019-12-01T15:14:48.000Z</time>
      </trkpt>
      <trkpt lat="14.71901" lon="-17.43256">
        <ele>35.45</ele>
        <time>2019-12-01T15:14:53.000Z</time>
      </trkpt>
      <trkpt lat="14.71883" lon="-17.43264">
        <ele>35.44</ele>
        <time>2019-12-01T15:14:58.000Z</time>
      </trkpt>
      <trkpt lat="14.71867" lon="-17.43268">
        <ele>35.43</ele>
        <time>2019-12-01T15:15:03.000Z</time>
      </trkpt>
      <trkpt lat="14.7185" lon="-17.43275">
        <ele>35.37</ele>
        <time>2019-12-01T15:15:08.000Z</time>
      </trkpt>
      <trkpt lat="14.71828" lon="-17.43288">
        <ele>35.34</ele>
        <time>2019-12-01T15:15:13.000Z</time>
      </trkpt>
      <trkpt lat="14.71809" lon="-17.43293">
        <ele>35.37</ele>
        <time>2019-12-01T15:15:18.000Z</time>
      </trkpt>
      <trkpt lat="14.71804" lon="-17.43284">
        <ele>35.12</ele>
        <time>2019-12-01T15:16:06.000Z</time>
      </trkpt>
      <trkpt lat="14.71798" lon="-17.43266">
        <ele>34.95</ele>
        <time>2019-12-01T15:16:11.000Z</time>
      </trkpt>
      <trkpt lat="14.71791" lon="-17.43247">
        <ele>34.79</ele>
        <time>2019-12-01T15:16:16.000Z</time>
      </trkpt>
      <trkpt lat="14.71784" lon="-17.43225">
        <ele>34.4</ele>
        <time>2019-12-01T15:16:21.000Z</time>
      </trkpt>
      <trkpt lat="14.71781" lon="-17.43206">
        <ele>34.14</ele>
        <time>2019-12-01T15:16:26.000Z</time>
      </trkpt>
      <trkpt lat="14.71778" lon="-17.43186">
        <ele>34.03</ele>
        <time>2019-12-01T15:16:31.000Z</time>
      </trkpt>
      <trkpt lat="14.71777" lon="-17.43166">
        <ele>33.84</ele>
        <time>2019-12-01T15:16:36.000Z</time>
      </trkpt>
      <trkpt lat="14.71773" lon="-17.4315">
        <ele>33.81</ele>
        <time>2019-12-01T15:16:41.000Z</time>
      </trkpt>
      <trkpt lat="14.71771" lon="-17.43136">
        <ele>33.78</ele>
        <time>2019-12-01T15:16:46.000Z</time>
      </trkpt>
      <trkpt lat="14.71767" lon="-17.43117">
        <ele>33.73</ele>
        <time>2019-12-01T15:16:51.000Z</time>
      </trkpt>
      <trkpt lat="14.71751" lon="-17.43115">
        <ele>33.67</ele>
        <time>2019-12-01T15:16:56.000Z</time>
      </trkpt>
      <trkpt lat="14.71735" lon="-17.43117">
        <ele>33.6</ele>
        <time>2019-12-01T15:17:01.000Z</time>
      </trkpt>
      <trkpt lat="14.71719" lon="-17.43119">
        <ele>33.52</ele>
        <time>2019-12-01T15:17:06.000Z</time>
      </trkpt>
      <trkpt lat="14.71702" lon="-17.4312">
        <ele>33.43</ele>
        <time>2019-12-01T15:17:11.000Z</time>
      </trkpt>
      <trkpt lat="14.71685" lon="-17.43124">
        <ele>33.33</ele>
        <time>2019-12-01T15:17:16.000Z</time>
      </trkpt>
      <trkpt lat="14.7167" lon="-17.43126">
        <ele>33.22</ele>
        <time>2019-12-01T15:17:21.000Z</time>
      </trkpt>
      <trkpt lat="14.71648" lon="-17.43132">
        <ele>33.12</ele>
        <time>2019-12-01T15:17:26.000Z</time>
      </trkpt>
      <trkpt lat="14.71628" lon="-17.43135">
        <ele>33.01</ele>
        <time>2019-12-01T15:17:31.000Z</time>
      </trkpt>
      <trkpt lat="14.71608" lon="-17.43136">
        <ele>32.35</ele>
        <time>2019-12-01T15:17:36.000Z</time>
      </trkpt>
      <trkpt lat="14.71589" lon="-17.43139">
        <ele>32.01</ele>
        <time>2019-12-01T15:17:41.000Z</time>
      </trkpt>
      <trkpt lat="14.7157" lon="-17.43139">
        <ele>31.85</ele>
        <time>2019-12-01T15:17:46.000Z</time>
      </trkpt>
      <trkpt lat="14.71548" lon="-17.43142">
        <ele>31.65</ele>
        <time>2019-12-01T15:17:51.000Z</time>
      </trkpt>
      <trkpt lat="14.71529" lon="-17.43145">
        <ele>31.55</ele>
        <time>2019-12-01T15:17:56.000Z</time>
      </trkpt>
      <trkpt lat="14.71511" lon="-17.43148">
        <ele>31.57</ele>
        <time>2019-12-01T15:18:01.000Z</time>
      </trkpt>
      <trkpt lat="14.71491" lon="-17.43151">
        <ele>31.62</ele>
        <time>2019-12-01T15:18:06.000Z</time>
      </trkpt>
      <trkpt lat="14.71471" lon="-17.43154">
        <ele>31.61</ele>
        <time>2019-12-01T15:18:11.000Z</time>
      </trkpt>
      <trkpt lat="14.71451" lon="-17.43158">
        <ele>31.58</ele>
        <time>2019-12-01T15:18:16.000Z</time>
      </trkpt>
      <trkpt lat="14.71432" lon="-17.43159">
        <ele>31.56</ele>
        <time>2019-12-01T15:18:21.000Z</time>
      </trkpt>
      <trkpt lat="14.71418" lon="-17.4316">
        <ele>31.52</ele>
        <time>2019-12-01T15:18:26.000Z</time>
      </trkpt>
      <trkpt lat="14.71402" lon="-17.4316">
        <ele>31.49</ele>
        <time>2019-12-01T15:18:31.000Z</time>
      </trkpt>
      <trkpt lat="14.7138" lon="-17.43159">
        <ele>31.38</ele>
        <time>2019-12-01T15:18:36.000Z</time>
      </trkpt>
      <trkpt lat="14.71363" lon="-17.43157">
        <ele>31.28</ele>
        <time>2019-12-01T15:18:41.000Z</time>
      </trkpt>
      <trkpt lat="14.71345" lon="-17.43155">
        <ele>31.13</ele>
        <time>2019-12-01T15:18:46.000Z</time>
      </trkpt>
      <trkpt lat="14.71323" lon="-17.43151">
        <ele>31</ele>
        <time>2019-12-01T15:18:51.000Z</time>
      </trkpt>
      <trkpt lat="14.71303" lon="-17.43146">
        <ele>30.94</ele>
        <time>2019-12-01T15:18:56.000Z</time>
      </trkpt>
      <trkpt lat="14.71283" lon="-17.43143">
        <ele>30.89</ele>
        <time>2019-12-01T15:19:01.000Z</time>
      </trkpt>
      <trkpt lat="14.71264" lon="-17.43141">
        <ele>30.83</ele>
        <time>2019-12-01T15:19:06.000Z</time>
      </trkpt>
      <trkpt lat="14.71248" lon="-17.43137">
        <ele>30.8</ele>
        <time>2019-12-01T15:19:11.000Z</time>
      </trkpt>
      <trkpt lat="14.71233" lon="-17.43134">
        <ele>30.77</ele>
        <time>2019-12-01T15:19:16.000Z</time>
      </trkpt>
      <trkpt lat="14.71216" lon="-17.43134">
        <ele>30.74</ele>
        <time>2019-12-01T15:19:21.000Z</time>
      </trkpt>
      <trkpt lat="14.71203" lon="-17.43133">
        <ele>30.71</ele>
        <time>2019-12-01T15:19:26.000Z</time>
      </trkpt>
      <trkpt lat="14.71195" lon="-17.43127">
        <ele>30.67</ele>
        <time>2019-12-01T15:19:31.000Z</time>
      </trkpt>
      <trkpt lat="14.71189" lon="-17.43136">
        <ele>30.62</ele>
        <time>2019-12-01T15:19:54.000Z</time>
      </trkpt>
      <trkpt lat="14.71183" lon="-17.43148">
        <ele>30.59</ele>
        <time>2019-12-01T15:19:59.000Z</time>
      </trkpt>
      <trkpt lat="14.71175" lon="-17.4316">
        <ele>30.54</ele>
        <time>2019-12-01T15:20:04.000Z</time>
      </trkpt>
      <trkpt lat="14.71164" lon="-17.43173">
        <ele>30.49</ele>
        <time>2019-12-01T15:20:09.000Z</time>
      </trkpt>
      <trkpt lat="14.71154" lon="-17.43177">
        <ele>30.44</ele>
        <time>2019-12-01T15:20:14.000Z</time>
      </trkpt>
      <trkpt lat="14.71148" lon="-17.43165">
        <ele>30.39</ele>
        <time>2019-12-01T15:20:19.000Z</time>
      </trkpt>
      <trkpt lat="14.71145" lon="-17.43151">
        <ele>30.34</ele>
        <time>2019-12-01T15:20:24.000Z</time>
      </trkpt>
      <trkpt lat="14.7114" lon="-17.43141">
        <ele>30.29</ele>
        <time>2019-12-01T15:20:30.000Z</time>
      </trkpt>
      <trkpt lat="14.71136" lon="-17.43129">
        <ele>30.26</ele>
        <time>2019-12-01T15:20:35.000Z</time>
      </trkpt>
      <trkpt lat="14.71134" lon="-17.43119">
        <ele>30.23</ele>
        <time>2019-12-01T15:20:41.000Z</time>
      </trkpt>
      <trkpt lat="14.71132" lon="-17.4311">
        <ele>30.22</ele>
        <time>2019-12-01T15:20:46.000Z</time>
      </trkpt>
      <trkpt lat="14.7113" lon="-17.43101">
        <ele>31.31</ele>
        <time>2019-12-01T15:24:28.000Z</time>
      </trkpt>
      <trkpt lat="14.71135" lon="-17.43109">
        <ele>32.49</ele>
        <time>2019-12-01T15:27:37.999Z</time>
      </trkpt>
      <trkpt lat="14.71135" lon="-17.4312">
        <ele>32.63</ele>
        <time>2019-12-01T15:27:48.999Z</time>
      </trkpt>
      <trkpt lat="14.71138" lon="-17.4313">
        <ele>32.7</ele>
        <time>2019-12-01T15:27:53.999Z</time>
      </trkpt>
      <trkpt lat="14.71142" lon="-17.43141">
        <ele>32.77</ele>
        <time>2019-12-01T15:27:58.999Z</time>
      </trkpt>
      <trkpt lat="14.71147" lon="-17.43152">
        <ele>32.83</ele>
        <time>2019-12-01T15:28:03.999Z</time>
      </trkpt>
      <trkpt lat="14.71149" lon="-17.43166">
        <ele>32.87</ele>
        <time>2019-12-01T15:28:08.999Z</time>
      </trkpt>
      <trkpt lat="14.71157" lon="-17.43172">
        <ele>32.92</ele>
        <time>2019-12-01T15:28:13.999Z</time>
      </trkpt>
      <trkpt lat="14.71171" lon="-17.43165">
        <ele>32.95</ele>
        <time>2019-12-01T15:28:18.999Z</time>
      </trkpt>
      <trkpt lat="14.7118" lon="-17.43155">
        <ele>32.97</ele>
        <time>2019-12-01T15:28:23.999Z</time>
      </trkpt>
      <trkpt lat="14.71189" lon="-17.43144">
        <ele>32.98</ele>
        <time>2019-12-01T15:28:28.999Z</time>
      </trkpt>
      <trkpt lat="14.71197" lon="-17.43139">
        <ele>32.99</ele>
        <time>2019-12-01T15:28:33.999Z</time>
      </trkpt>
      <trkpt lat="14.71197" lon="-17.43129">
        <ele>32.97</ele>
        <time>2019-12-01T15:28:40.999Z</time>
      </trkpt>
      <trkpt lat="14.71189" lon="-17.43126">
        <ele>32.93</ele>
        <time>2019-12-01T15:28:53.999Z</time>
      </trkpt>
      <trkpt lat="14.7119" lon="-17.43136">
        <ele>32.48</ele>
        <time>2019-12-01T15:31:17.999Z</time>
      </trkpt>
      <trkpt lat="14.71191" lon="-17.43126">
        <ele>31.86</ele>
        <time>2019-12-01T15:31:45.999Z</time>
      </trkpt>
      <trkpt lat="14.71184" lon="-17.43119">
        <ele>31.38</ele>
        <time>2019-12-01T15:31:58.999Z</time>
      </trkpt>
      <trkpt lat="14.71182" lon="-17.4311">
        <ele>31.02</ele>
        <time>2019-12-01T15:32:23.999Z</time>
      </trkpt>
      <trkpt lat="14.71176" lon="-17.43103">
        <ele>30.63</ele>
        <time>2019-12-01T15:33:22.999Z</time>
      </trkpt>
      <trkpt lat="14.71168" lon="-17.43097">
        <ele>28.98</ele>
        <time>2019-12-01T15:35:03.999Z</time>
      </trkpt>
      <trkpt lat="14.71159" lon="-17.43095">
        <ele>28.62</ele>
        <time>2019-12-01T15:35:19.999Z</time>
      </trkpt>
      <trkpt lat="14.71152" lon="-17.43102">
        <ele>28.27</ele>
        <time>2019-12-01T15:35:42.999Z</time>
      </trkpt>
      <trkpt lat="14.71144" lon="-17.43107">
        <ele>28.04</ele>
        <time>2019-12-01T15:36:08.999Z</time>
      </trkpt>
      <trkpt lat="14.71136" lon="-17.43111">
        <ele>27.8</ele>
        <time>2019-12-01T15:36:38.999Z</time>
      </trkpt>
      <trkpt lat="14.71144" lon="-17.43117">
        <ele>27.67</ele>
        <time>2019-12-01T15:37:48.999Z</time>
      </trkpt>
      <trkpt lat="14.71145" lon="-17.43127">
        <ele>27.7</ele>
        <time>2019-12-01T15:38:39.000Z</time>
      </trkpt>
      <trkpt lat="14.71152" lon="-17.43121">
        <ele>27.63</ele>
        <time>2019-12-01T15:39:11.000Z</time>
      </trkpt>
      <trkpt lat="14.7116" lon="-17.43114">
        <ele>27.6</ele>
        <time>2019-12-01T15:39:23.000Z</time>
      </trkpt>
      <trkpt lat="14.71168" lon="-17.43107">
        <ele>27.55</ele>
        <time>2019-12-01T15:39:36.000Z</time>
      </trkpt>
      <trkpt lat="14.71177" lon="-17.43108">
        <ele>27.5</ele>
        <time>2019-12-01T15:39:49.000Z</time>
      </trkpt>
      <trkpt lat="14.7117" lon="-17.43102">
        <ele>27.12</ele>
        <time>2019-12-01T15:41:07.000Z</time>
      </trkpt>
      <trkpt lat="14.71161" lon="-17.43098">
        <ele>27.01</ele>
        <time>2019-12-01T15:41:21.000Z</time>
      </trkpt>
      <trkpt lat="14.71159" lon="-17.43089">
        <ele>26.85</ele>
        <time>2019-12-01T15:42:08.000Z</time>
      </trkpt>
      <trkpt lat="14.71158" lon="-17.43098">
        <ele>26.93</ele>
        <time>2019-12-01T15:43:27.000Z</time>
      </trkpt>
      <trkpt lat="14.71156" lon="-17.43094">
        <ele>29.18</ele>
        <time>2019-12-01T15:49:23.000Z</time>
      </trkpt>
    </trkseg>
  </trk>
</gpx>